<?xml version="1.0" encoding="UTF-8"?>
<gpx xmlns="http://www.topografix.com/GPX/1/1" xmlns:xsi="http://www.w3.org/2001/XMLSchema-instance" version="1.1" creator="Trace de Trail" xsi:schemaLocation="http://www.topografix.com/GPX/1/1 http://www.topografix.com/GPX/1/1/gpx.xsd">
  <metadata>
    <name>NEW GTL100 - GTLC Lux 2027</name>
    <desc>Parcours créé sur Trace de Trail</desc>
    <link href="https://tracedetrail.fr/fr/trace/356579">
      <text>Cartographie du parcours</text>
    </link>
    <time>2026-08-26T15:33:04+00:00</time>
  </metadata>
  <wpt lat="49.93772" lon="6.20484">
    <ele>207</ele>
    <type>depart</type>
  </wpt>
  <wpt lat="49.93318" lon="6.20612">
    <ele>216</ele>
    <type>arrivee</type>
  </wpt>
  <wpt lat="49.96177" lon="6.1674">
    <ele>254</ele>
    <name>Keppeshausen</name>
    <type>fanzone_bh_ravitoc_toilettes</type>
  </wpt>
  <wpt lat="49.93728" lon="6.08762">
    <ele>373</ele>
    <name>Champ de tir Bleesdall</name>
    <type>fanzone_bh_ravitoc_toilettes</type>
  </wpt>
  <wpt lat="49.95158" lon="6.05577">
    <ele>444</ele>
    <name>Friedbusch</name>
    <type>fanzone_bh_ravitoc_toilettes</type>
  </wpt>
  <wpt lat="49.92298" lon="5.99601">
    <ele>318</ele>
    <name>HansHaff</name>
    <type>fanzone_bh_ravitoc_toilettes</type>
  </wpt>
  <wpt lat="49.91032" lon="5.93531">
    <ele>277</ele>
    <name>Esch-sur-Sure</name>
    <type>fanzone_bh_ravitoc_toilettes</type>
  </wpt>
  <wpt lat="49.91636" lon="6.03301">
    <ele>310</ele>
    <name>Dirbach</name>
    <type>fanzone_bh_ravitoc_toilettes</type>
  </wpt>
  <wpt lat="49.90565" lon="6.0784">
    <ele>354</ele>
    <name>Bourscheid</name>
    <type>fanzone_bh_ravitoc_toilettes</type>
  </wpt>
  <wpt lat="49.91173" lon="6.13688">
    <ele>266</ele>
    <name>Bradenbourg</name>
    <type>fanzone_bh_ravitoc_toilettes</type>
  </wpt>
  <wpt lat="49.91737" lon="6.17831">
    <ele>285</ele>
    <name>Walsdorf</name>
    <type>fanzone_bh_ravitoc_toilettes</type>
  </wpt>
  <trk>
    <name>NEW GTL100 - GTLC Lux 2027 sur TraceDeTrail.fr</name>
    <src>Trace de Trail</src>
    <trkseg>
      <trkpt lat="49.93772" lon="6.20484">
        <ele>207</ele>
        <time>2026-08-26T15:33:04+00:00</time>
      </trkpt>
      <trkpt lat="49.93806" lon="6.20476">
        <ele>207</ele>
        <time>2026-08-26T15:33:07+00:00</time>
      </trkpt>
      <trkpt lat="49.93844" lon="6.20482">
        <ele>205</ele>
        <time>2026-08-26T15:33:10+00:00</time>
      </trkpt>
      <trkpt lat="49.93853" lon="6.20481">
        <ele>208</ele>
        <time>2026-08-26T15:33:13+00:00</time>
      </trkpt>
      <trkpt lat="49.93857" lon="6.20481">
        <ele>208</ele>
        <time>2026-08-26T15:33:16+00:00</time>
      </trkpt>
      <trkpt lat="49.93849" lon="6.20468">
        <ele>204</ele>
        <time>2026-08-26T15:33:19+00:00</time>
      </trkpt>
      <trkpt lat="49.93834" lon="6.20443">
        <ele>205</ele>
        <time>2026-08-26T15:33:22+00:00</time>
      </trkpt>
      <trkpt lat="49.93819" lon="6.20419">
        <ele>207</ele>
        <time>2026-08-26T15:33:25+00:00</time>
      </trkpt>
      <trkpt lat="49.93811" lon="6.20407">
        <ele>208</ele>
        <time>2026-08-26T15:33:28+00:00</time>
      </trkpt>
      <trkpt lat="49.9381" lon="6.20405">
        <ele>207</ele>
        <time>2026-08-26T15:33:31+00:00</time>
      </trkpt>
      <trkpt lat="49.93824" lon="6.20393">
        <ele>209</ele>
        <time>2026-08-26T15:33:34+00:00</time>
      </trkpt>
      <trkpt lat="49.9383" lon="6.20403">
        <ele>212</ele>
        <time>2026-08-26T15:33:37+00:00</time>
      </trkpt>
      <trkpt lat="49.93839" lon="6.20408">
        <ele>212</ele>
        <time>2026-08-26T15:33:40+00:00</time>
      </trkpt>
      <trkpt lat="49.9384" lon="6.20413">
        <ele>210</ele>
        <time>2026-08-26T15:33:43+00:00</time>
      </trkpt>
      <trkpt lat="49.93844" lon="6.20412">
        <ele>210</ele>
        <time>2026-08-26T15:33:46+00:00</time>
      </trkpt>
      <trkpt lat="49.93863" lon="6.2042">
        <ele>212</ele>
        <time>2026-08-26T15:33:49+00:00</time>
      </trkpt>
      <trkpt lat="49.93872" lon="6.20422">
        <ele>209</ele>
        <time>2026-08-26T15:33:52+00:00</time>
      </trkpt>
      <trkpt lat="49.93902" lon="6.20437">
        <ele>208</ele>
        <time>2026-08-26T15:33:55+00:00</time>
      </trkpt>
      <trkpt lat="49.93915" lon="6.2045">
        <ele>208</ele>
        <time>2026-08-26T15:33:58+00:00</time>
      </trkpt>
      <trkpt lat="49.93924" lon="6.20453">
        <ele>209</ele>
        <time>2026-08-26T15:34:01+00:00</time>
      </trkpt>
      <trkpt lat="49.93932" lon="6.20453">
        <ele>208</ele>
        <time>2026-08-26T15:34:04+00:00</time>
      </trkpt>
      <trkpt lat="49.9394" lon="6.20452">
        <ele>208</ele>
        <time>2026-08-26T15:34:07+00:00</time>
      </trkpt>
      <trkpt lat="49.93941" lon="6.20452">
        <ele>208</ele>
        <time>2026-08-26T15:34:10+00:00</time>
      </trkpt>
      <trkpt lat="49.93951" lon="6.20452">
        <ele>209</ele>
        <time>2026-08-26T15:34:13+00:00</time>
      </trkpt>
      <trkpt lat="49.93969" lon="6.20462">
        <ele>209</ele>
        <time>2026-08-26T15:34:16+00:00</time>
      </trkpt>
      <trkpt lat="49.93971" lon="6.20461">
        <ele>210</ele>
        <time>2026-08-26T15:34:19+00:00</time>
      </trkpt>
      <trkpt lat="49.93984" lon="6.20453">
        <ele>212</ele>
        <time>2026-08-26T15:34:22+00:00</time>
      </trkpt>
      <trkpt lat="49.93998" lon="6.20453">
        <ele>213</ele>
        <time>2026-08-26T15:34:25+00:00</time>
      </trkpt>
      <trkpt lat="49.94019" lon="6.20444">
        <ele>217</ele>
        <time>2026-08-26T15:34:28+00:00</time>
      </trkpt>
      <trkpt lat="49.94036" lon="6.20445">
        <ele>220</ele>
        <time>2026-08-26T15:34:31+00:00</time>
      </trkpt>
      <trkpt lat="49.9405" lon="6.20441">
        <ele>223</ele>
        <time>2026-08-26T15:34:34+00:00</time>
      </trkpt>
      <trkpt lat="49.94051" lon="6.20441">
        <ele>225</ele>
        <time>2026-08-26T15:34:37+00:00</time>
      </trkpt>
      <trkpt lat="49.94052" lon="6.20442">
        <ele>225</ele>
        <time>2026-08-26T15:34:40+00:00</time>
      </trkpt>
      <trkpt lat="49.94059" lon="6.20438">
        <ele>228</ele>
        <time>2026-08-26T15:34:43+00:00</time>
      </trkpt>
      <trkpt lat="49.94062" lon="6.20441">
        <ele>228</ele>
        <time>2026-08-26T15:34:46+00:00</time>
      </trkpt>
      <trkpt lat="49.94067" lon="6.20448">
        <ele>228</ele>
        <time>2026-08-26T15:34:49+00:00</time>
      </trkpt>
      <trkpt lat="49.94074" lon="6.20453">
        <ele>233</ele>
        <time>2026-08-26T15:34:52+00:00</time>
      </trkpt>
      <trkpt lat="49.94086" lon="6.20447">
        <ele>243</ele>
        <time>2026-08-26T15:34:55+00:00</time>
      </trkpt>
      <trkpt lat="49.94107" lon="6.20444">
        <ele>253</ele>
        <time>2026-08-26T15:34:58+00:00</time>
      </trkpt>
      <trkpt lat="49.94124" lon="6.20444">
        <ele>261</ele>
        <time>2026-08-26T15:35:01+00:00</time>
      </trkpt>
      <trkpt lat="49.94124" lon="6.20451">
        <ele>258</ele>
        <time>2026-08-26T15:35:04+00:00</time>
      </trkpt>
      <trkpt lat="49.94129" lon="6.20466">
        <ele>254</ele>
        <time>2026-08-26T15:35:07+00:00</time>
      </trkpt>
      <trkpt lat="49.94139" lon="6.20456">
        <ele>261</ele>
        <time>2026-08-26T15:35:10+00:00</time>
      </trkpt>
      <trkpt lat="49.94154" lon="6.20448">
        <ele>270</ele>
        <time>2026-08-26T15:35:13+00:00</time>
      </trkpt>
      <trkpt lat="49.9416" lon="6.20451">
        <ele>262</ele>
        <time>2026-08-26T15:35:16+00:00</time>
      </trkpt>
      <trkpt lat="49.94163" lon="6.20466">
        <ele>264</ele>
        <time>2026-08-26T15:35:19+00:00</time>
      </trkpt>
      <trkpt lat="49.94166" lon="6.20472">
        <ele>259</ele>
        <time>2026-08-26T15:35:22+00:00</time>
      </trkpt>
      <trkpt lat="49.94166" lon="6.20473">
        <ele>259</ele>
        <time>2026-08-26T15:35:25+00:00</time>
      </trkpt>
      <trkpt lat="49.9417" lon="6.20478">
        <ele>263</ele>
        <time>2026-08-26T15:35:28+00:00</time>
      </trkpt>
      <trkpt lat="49.94183" lon="6.20472">
        <ele>265</ele>
        <time>2026-08-26T15:35:31+00:00</time>
      </trkpt>
      <trkpt lat="49.94201" lon="6.20474">
        <ele>264</ele>
        <time>2026-08-26T15:35:34+00:00</time>
      </trkpt>
      <trkpt lat="49.94203" lon="6.20474">
        <ele>264</ele>
        <time>2026-08-26T15:35:37+00:00</time>
      </trkpt>
      <trkpt lat="49.94214" lon="6.20474">
        <ele>263</ele>
        <time>2026-08-26T15:35:40+00:00</time>
      </trkpt>
      <trkpt lat="49.94221" lon="6.20465">
        <ele>268</ele>
        <time>2026-08-26T15:35:43+00:00</time>
      </trkpt>
      <trkpt lat="49.94244" lon="6.20457">
        <ele>271</ele>
        <time>2026-08-26T15:35:46+00:00</time>
      </trkpt>
      <trkpt lat="49.94253" lon="6.20451">
        <ele>268</ele>
        <time>2026-08-26T15:35:49+00:00</time>
      </trkpt>
      <trkpt lat="49.94256" lon="6.20445">
        <ele>273</ele>
        <time>2026-08-26T15:35:52+00:00</time>
      </trkpt>
      <trkpt lat="49.94266" lon="6.20435">
        <ele>271</ele>
        <time>2026-08-26T15:35:55+00:00</time>
      </trkpt>
      <trkpt lat="49.94285" lon="6.20425">
        <ele>271</ele>
        <time>2026-08-26T15:35:58+00:00</time>
      </trkpt>
      <trkpt lat="49.94303" lon="6.20401">
        <ele>271</ele>
        <time>2026-08-26T15:36:01+00:00</time>
      </trkpt>
      <trkpt lat="49.94324" lon="6.2038">
        <ele>271</ele>
        <time>2026-08-26T15:36:04+00:00</time>
      </trkpt>
      <trkpt lat="49.94352" lon="6.20369">
        <ele>272</ele>
        <time>2026-08-26T15:36:07+00:00</time>
      </trkpt>
      <trkpt lat="49.94366" lon="6.2034">
        <ele>272</ele>
        <time>2026-08-26T15:36:10+00:00</time>
      </trkpt>
      <trkpt lat="49.94373" lon="6.20333">
        <ele>275</ele>
        <time>2026-08-26T15:36:13+00:00</time>
      </trkpt>
      <trkpt lat="49.94382" lon="6.20331">
        <ele>272</ele>
        <time>2026-08-26T15:36:16+00:00</time>
      </trkpt>
      <trkpt lat="49.94388" lon="6.20348">
        <ele>269</ele>
        <time>2026-08-26T15:36:19+00:00</time>
      </trkpt>
      <trkpt lat="49.94389" lon="6.20351">
        <ele>267</ele>
        <time>2026-08-26T15:36:22+00:00</time>
      </trkpt>
      <trkpt lat="49.94401" lon="6.20369">
        <ele>262</ele>
        <time>2026-08-26T15:36:25+00:00</time>
      </trkpt>
      <trkpt lat="49.94421" lon="6.20365">
        <ele>258</ele>
        <time>2026-08-26T15:36:28+00:00</time>
      </trkpt>
      <trkpt lat="49.94428" lon="6.20367">
        <ele>258</ele>
        <time>2026-08-26T15:36:31+00:00</time>
      </trkpt>
      <trkpt lat="49.94442" lon="6.20358">
        <ele>259</ele>
        <time>2026-08-26T15:36:34+00:00</time>
      </trkpt>
      <trkpt lat="49.94443" lon="6.20356">
        <ele>255</ele>
        <time>2026-08-26T15:36:37+00:00</time>
      </trkpt>
      <trkpt lat="49.94445" lon="6.20353">
        <ele>255</ele>
        <time>2026-08-26T15:36:40+00:00</time>
      </trkpt>
      <trkpt lat="49.94445" lon="6.20351">
        <ele>255</ele>
        <time>2026-08-26T15:36:43+00:00</time>
      </trkpt>
      <trkpt lat="49.94453" lon="6.20339">
        <ele>259</ele>
        <time>2026-08-26T15:36:46+00:00</time>
      </trkpt>
      <trkpt lat="49.94464" lon="6.20315">
        <ele>259</ele>
        <time>2026-08-26T15:36:49+00:00</time>
      </trkpt>
      <trkpt lat="49.94471" lon="6.2029">
        <ele>259</ele>
        <time>2026-08-26T15:36:52+00:00</time>
      </trkpt>
      <trkpt lat="49.9447" lon="6.20286">
        <ele>260</ele>
        <time>2026-08-26T15:36:55+00:00</time>
      </trkpt>
      <trkpt lat="49.94478" lon="6.2024">
        <ele>262</ele>
        <time>2026-08-26T15:36:58+00:00</time>
      </trkpt>
      <trkpt lat="49.94481" lon="6.20234">
        <ele>263</ele>
        <time>2026-08-26T15:37:01+00:00</time>
      </trkpt>
      <trkpt lat="49.9448" lon="6.20222">
        <ele>271</ele>
        <time>2026-08-26T15:37:04+00:00</time>
      </trkpt>
      <trkpt lat="49.94482" lon="6.20181">
        <ele>265</ele>
        <time>2026-08-26T15:37:07+00:00</time>
      </trkpt>
      <trkpt lat="49.94479" lon="6.20166">
        <ele>277</ele>
        <time>2026-08-26T15:37:10+00:00</time>
      </trkpt>
      <trkpt lat="49.94481" lon="6.20139">
        <ele>281</ele>
        <time>2026-08-26T15:37:13+00:00</time>
      </trkpt>
      <trkpt lat="49.9449" lon="6.20107">
        <ele>286</ele>
        <time>2026-08-26T15:37:16+00:00</time>
      </trkpt>
      <trkpt lat="49.9449" lon="6.20098">
        <ele>287</ele>
        <time>2026-08-26T15:37:19+00:00</time>
      </trkpt>
      <trkpt lat="49.94493" lon="6.20096">
        <ele>282</ele>
        <time>2026-08-26T15:37:22+00:00</time>
      </trkpt>
      <trkpt lat="49.9449" lon="6.2006">
        <ele>292</ele>
        <time>2026-08-26T15:37:25+00:00</time>
      </trkpt>
      <trkpt lat="49.94493" lon="6.20048">
        <ele>290</ele>
        <time>2026-08-26T15:37:28+00:00</time>
      </trkpt>
      <trkpt lat="49.94495" lon="6.20045">
        <ele>290</ele>
        <time>2026-08-26T15:37:31+00:00</time>
      </trkpt>
      <trkpt lat="49.94492" lon="6.20001">
        <ele>295</ele>
        <time>2026-08-26T15:37:34+00:00</time>
      </trkpt>
      <trkpt lat="49.94494" lon="6.19995">
        <ele>297</ele>
        <time>2026-08-26T15:37:37+00:00</time>
      </trkpt>
      <trkpt lat="49.94494" lon="6.19966">
        <ele>300</ele>
        <time>2026-08-26T15:37:40+00:00</time>
      </trkpt>
      <trkpt lat="49.94496" lon="6.19957">
        <ele>301</ele>
        <time>2026-08-26T15:37:43+00:00</time>
      </trkpt>
      <trkpt lat="49.94495" lon="6.19942">
        <ele>303</ele>
        <time>2026-08-26T15:37:46+00:00</time>
      </trkpt>
      <trkpt lat="49.94496" lon="6.199">
        <ele>302</ele>
        <time>2026-08-26T15:37:49+00:00</time>
      </trkpt>
      <trkpt lat="49.94498" lon="6.19895">
        <ele>302</ele>
        <time>2026-08-26T15:37:52+00:00</time>
      </trkpt>
      <trkpt lat="49.94498" lon="6.1987">
        <ele>302</ele>
        <time>2026-08-26T15:37:55+00:00</time>
      </trkpt>
      <trkpt lat="49.94499" lon="6.19864">
        <ele>303</ele>
        <time>2026-08-26T15:37:58+00:00</time>
      </trkpt>
      <trkpt lat="49.94498" lon="6.19857">
        <ele>304</ele>
        <time>2026-08-26T15:38:01+00:00</time>
      </trkpt>
      <trkpt lat="49.945" lon="6.19852">
        <ele>304</ele>
        <time>2026-08-26T15:38:04+00:00</time>
      </trkpt>
      <trkpt lat="49.94505" lon="6.19849">
        <ele>302</ele>
        <time>2026-08-26T15:38:07+00:00</time>
      </trkpt>
      <trkpt lat="49.94506" lon="6.19843">
        <ele>302</ele>
        <time>2026-08-26T15:38:10+00:00</time>
      </trkpt>
      <trkpt lat="49.94511" lon="6.19827">
        <ele>301</ele>
        <time>2026-08-26T15:38:13+00:00</time>
      </trkpt>
      <trkpt lat="49.94512" lon="6.19822">
        <ele>301</ele>
        <time>2026-08-26T15:38:16+00:00</time>
      </trkpt>
      <trkpt lat="49.94517" lon="6.19808">
        <ele>303</ele>
        <time>2026-08-26T15:38:19+00:00</time>
      </trkpt>
      <trkpt lat="49.94521" lon="6.19807">
        <ele>299</ele>
        <time>2026-08-26T15:38:22+00:00</time>
      </trkpt>
      <trkpt lat="49.94523" lon="6.19803">
        <ele>302</ele>
        <time>2026-08-26T15:38:25+00:00</time>
      </trkpt>
      <trkpt lat="49.94529" lon="6.19775">
        <ele>296</ele>
        <time>2026-08-26T15:38:28+00:00</time>
      </trkpt>
      <trkpt lat="49.94553" lon="6.19749">
        <ele>290</ele>
        <time>2026-08-26T15:38:31+00:00</time>
      </trkpt>
      <trkpt lat="49.94561" lon="6.19744">
        <ele>284</ele>
        <time>2026-08-26T15:38:34+00:00</time>
      </trkpt>
      <trkpt lat="49.94567" lon="6.19737">
        <ele>284</ele>
        <time>2026-08-26T15:38:37+00:00</time>
      </trkpt>
      <trkpt lat="49.9457" lon="6.19726">
        <ele>285</ele>
        <time>2026-08-26T15:38:40+00:00</time>
      </trkpt>
      <trkpt lat="49.9458" lon="6.19715">
        <ele>280</ele>
        <time>2026-08-26T15:38:43+00:00</time>
      </trkpt>
      <trkpt lat="49.94586" lon="6.19704">
        <ele>275</ele>
        <time>2026-08-26T15:38:46+00:00</time>
      </trkpt>
      <trkpt lat="49.9459" lon="6.19697">
        <ele>275</ele>
        <time>2026-08-26T15:38:49+00:00</time>
      </trkpt>
      <trkpt lat="49.94592" lon="6.19691">
        <ele>271</ele>
        <time>2026-08-26T15:38:52+00:00</time>
      </trkpt>
      <trkpt lat="49.94592" lon="6.19689">
        <ele>271</ele>
        <time>2026-08-26T15:38:55+00:00</time>
      </trkpt>
      <trkpt lat="49.94589" lon="6.19692">
        <ele>275</ele>
        <time>2026-08-26T15:38:58+00:00</time>
      </trkpt>
      <trkpt lat="49.94588" lon="6.19691">
        <ele>275</ele>
        <time>2026-08-26T15:39:01+00:00</time>
      </trkpt>
      <trkpt lat="49.94591" lon="6.1968">
        <ele>271</ele>
        <time>2026-08-26T15:39:04+00:00</time>
      </trkpt>
      <trkpt lat="49.94591" lon="6.19674">
        <ele>270</ele>
        <time>2026-08-26T15:39:07+00:00</time>
      </trkpt>
      <trkpt lat="49.94591" lon="6.1967">
        <ele>270</ele>
        <time>2026-08-26T15:39:10+00:00</time>
      </trkpt>
      <trkpt lat="49.94588" lon="6.19647">
        <ele>271</ele>
        <time>2026-08-26T15:39:13+00:00</time>
      </trkpt>
      <trkpt lat="49.9458" lon="6.19618">
        <ele>271</ele>
        <time>2026-08-26T15:39:16+00:00</time>
      </trkpt>
      <trkpt lat="49.9457" lon="6.19594">
        <ele>266</ele>
        <time>2026-08-26T15:39:19+00:00</time>
      </trkpt>
      <trkpt lat="49.94547" lon="6.19548">
        <ele>262</ele>
        <time>2026-08-26T15:39:22+00:00</time>
      </trkpt>
      <trkpt lat="49.94525" lon="6.19517">
        <ele>263</ele>
        <time>2026-08-26T15:39:25+00:00</time>
      </trkpt>
      <trkpt lat="49.94508" lon="6.19493">
        <ele>265</ele>
        <time>2026-08-26T15:39:28+00:00</time>
      </trkpt>
      <trkpt lat="49.9449" lon="6.19467">
        <ele>263</ele>
        <time>2026-08-26T15:39:31+00:00</time>
      </trkpt>
      <trkpt lat="49.94474" lon="6.19439">
        <ele>265</ele>
        <time>2026-08-26T15:39:34+00:00</time>
      </trkpt>
      <trkpt lat="49.94453" lon="6.19403">
        <ele>267</ele>
        <time>2026-08-26T15:39:37+00:00</time>
      </trkpt>
      <trkpt lat="49.94461" lon="6.19438">
        <ele>275</ele>
        <time>2026-08-26T15:39:40+00:00</time>
      </trkpt>
      <trkpt lat="49.9447" lon="6.19482">
        <ele>281</ele>
        <time>2026-08-26T15:39:43+00:00</time>
      </trkpt>
      <trkpt lat="49.94478" lon="6.19506">
        <ele>286</ele>
        <time>2026-08-26T15:39:46+00:00</time>
      </trkpt>
      <trkpt lat="49.94483" lon="6.19527">
        <ele>290</ele>
        <time>2026-08-26T15:39:49+00:00</time>
      </trkpt>
      <trkpt lat="49.94493" lon="6.1955">
        <ele>297</ele>
        <time>2026-08-26T15:39:52+00:00</time>
      </trkpt>
      <trkpt lat="49.94507" lon="6.1958">
        <ele>302</ele>
        <time>2026-08-26T15:39:55+00:00</time>
      </trkpt>
      <trkpt lat="49.94509" lon="6.19589">
        <ele>302</ele>
        <time>2026-08-26T15:39:58+00:00</time>
      </trkpt>
      <trkpt lat="49.94512" lon="6.19602">
        <ele>301</ele>
        <time>2026-08-26T15:40:01+00:00</time>
      </trkpt>
      <trkpt lat="49.94521" lon="6.19643">
        <ele>308</ele>
        <time>2026-08-26T15:40:04+00:00</time>
      </trkpt>
      <trkpt lat="49.94523" lon="6.19661">
        <ele>310</ele>
        <time>2026-08-26T15:40:07+00:00</time>
      </trkpt>
      <trkpt lat="49.94522" lon="6.19698">
        <ele>311</ele>
        <time>2026-08-26T15:40:10+00:00</time>
      </trkpt>
      <trkpt lat="49.9452" lon="6.19705">
        <ele>312</ele>
        <time>2026-08-26T15:40:13+00:00</time>
      </trkpt>
      <trkpt lat="49.94509" lon="6.19716">
        <ele>324</ele>
        <time>2026-08-26T15:40:16+00:00</time>
      </trkpt>
      <trkpt lat="49.94506" lon="6.19718">
        <ele>324</ele>
        <time>2026-08-26T15:40:19+00:00</time>
      </trkpt>
      <trkpt lat="49.94505" lon="6.19723">
        <ele>319</ele>
        <time>2026-08-26T15:40:22+00:00</time>
      </trkpt>
      <trkpt lat="49.94495" lon="6.19729">
        <ele>324</ele>
        <time>2026-08-26T15:40:25+00:00</time>
      </trkpt>
      <trkpt lat="49.94485" lon="6.19739">
        <ele>327</ele>
        <time>2026-08-26T15:40:28+00:00</time>
      </trkpt>
      <trkpt lat="49.9448" lon="6.1975">
        <ele>331</ele>
        <time>2026-08-26T15:40:31+00:00</time>
      </trkpt>
      <trkpt lat="49.94478" lon="6.1976">
        <ele>329</ele>
        <time>2026-08-26T15:40:34+00:00</time>
      </trkpt>
      <trkpt lat="49.94475" lon="6.19757">
        <ele>331</ele>
        <time>2026-08-26T15:40:37+00:00</time>
      </trkpt>
      <trkpt lat="49.94474" lon="6.19754">
        <ele>331</ele>
        <time>2026-08-26T15:40:40+00:00</time>
      </trkpt>
      <trkpt lat="49.94476" lon="6.19736">
        <ele>337</ele>
        <time>2026-08-26T15:40:43+00:00</time>
      </trkpt>
      <trkpt lat="49.94473" lon="6.19737">
        <ele>337</ele>
        <time>2026-08-26T15:40:46+00:00</time>
      </trkpt>
      <trkpt lat="49.94466" lon="6.1975">
        <ele>339</ele>
        <time>2026-08-26T15:40:49+00:00</time>
      </trkpt>
      <trkpt lat="49.94465" lon="6.19747">
        <ele>343</ele>
        <time>2026-08-26T15:40:52+00:00</time>
      </trkpt>
      <trkpt lat="49.94467" lon="6.19738">
        <ele>346</ele>
        <time>2026-08-26T15:40:55+00:00</time>
      </trkpt>
      <trkpt lat="49.94465" lon="6.19742">
        <ele>343</ele>
        <time>2026-08-26T15:40:58+00:00</time>
      </trkpt>
      <trkpt lat="49.94464" lon="6.19742">
        <ele>343</ele>
        <time>2026-08-26T15:41:01+00:00</time>
      </trkpt>
      <trkpt lat="49.94463" lon="6.1974">
        <ele>343</ele>
        <time>2026-08-26T15:41:04+00:00</time>
      </trkpt>
      <trkpt lat="49.94465" lon="6.19733">
        <ele>346</ele>
        <time>2026-08-26T15:41:07+00:00</time>
      </trkpt>
      <trkpt lat="49.94464" lon="6.1973">
        <ele>346</ele>
        <time>2026-08-26T15:41:10+00:00</time>
      </trkpt>
      <trkpt lat="49.94468" lon="6.19707">
        <ele>354</ele>
        <time>2026-08-26T15:41:13+00:00</time>
      </trkpt>
      <trkpt lat="49.94466" lon="6.19706">
        <ele>354</ele>
        <time>2026-08-26T15:41:16+00:00</time>
      </trkpt>
      <trkpt lat="49.94457" lon="6.19718">
        <ele>359</ele>
        <time>2026-08-26T15:41:19+00:00</time>
      </trkpt>
      <trkpt lat="49.9446" lon="6.19695">
        <ele>355</ele>
        <time>2026-08-26T15:41:22+00:00</time>
      </trkpt>
      <trkpt lat="49.9445" lon="6.19706">
        <ele>361</ele>
        <time>2026-08-26T15:41:25+00:00</time>
      </trkpt>
      <trkpt lat="49.9444" lon="6.19729">
        <ele>362</ele>
        <time>2026-08-26T15:41:28+00:00</time>
      </trkpt>
      <trkpt lat="49.94439" lon="6.19698">
        <ele>370</ele>
        <time>2026-08-26T15:41:31+00:00</time>
      </trkpt>
      <trkpt lat="49.9444" lon="6.1969">
        <ele>370</ele>
        <time>2026-08-26T15:41:34+00:00</time>
      </trkpt>
      <trkpt lat="49.94437" lon="6.19694">
        <ele>370</ele>
        <time>2026-08-26T15:41:37+00:00</time>
      </trkpt>
      <trkpt lat="49.94427" lon="6.19723">
        <ele>372</ele>
        <time>2026-08-26T15:41:40+00:00</time>
      </trkpt>
      <trkpt lat="49.94425" lon="6.1971">
        <ele>378</ele>
        <time>2026-08-26T15:41:43+00:00</time>
      </trkpt>
      <trkpt lat="49.94426" lon="6.19701">
        <ele>376</ele>
        <time>2026-08-26T15:41:46+00:00</time>
      </trkpt>
      <trkpt lat="49.94425" lon="6.19698">
        <ele>374</ele>
        <time>2026-08-26T15:41:49+00:00</time>
      </trkpt>
      <trkpt lat="49.94424" lon="6.19698">
        <ele>374</ele>
        <time>2026-08-26T15:41:52+00:00</time>
      </trkpt>
      <trkpt lat="49.94424" lon="6.19701">
        <ele>376</ele>
        <time>2026-08-26T15:41:55+00:00</time>
      </trkpt>
      <trkpt lat="49.94415" lon="6.19694">
        <ele>378</ele>
        <time>2026-08-26T15:41:58+00:00</time>
      </trkpt>
      <trkpt lat="49.94416" lon="6.19708">
        <ele>381</ele>
        <time>2026-08-26T15:42:01+00:00</time>
      </trkpt>
      <trkpt lat="49.94413" lon="6.19705">
        <ele>381</ele>
        <time>2026-08-26T15:42:04+00:00</time>
      </trkpt>
      <trkpt lat="49.94413" lon="6.19705">
        <ele>381</ele>
        <time>2026-08-26T15:42:07+00:00</time>
      </trkpt>
      <trkpt lat="49.94411" lon="6.19704">
        <ele>381</ele>
        <time>2026-08-26T15:42:10+00:00</time>
      </trkpt>
      <trkpt lat="49.9441" lon="6.19706">
        <ele>381</ele>
        <time>2026-08-26T15:42:13+00:00</time>
      </trkpt>
      <trkpt lat="49.94397" lon="6.19687">
        <ele>383</ele>
        <time>2026-08-26T15:42:16+00:00</time>
      </trkpt>
      <trkpt lat="49.94394" lon="6.19678">
        <ele>383</ele>
        <time>2026-08-26T15:42:19+00:00</time>
      </trkpt>
      <trkpt lat="49.94381" lon="6.19662">
        <ele>384</ele>
        <time>2026-08-26T15:42:22+00:00</time>
      </trkpt>
      <trkpt lat="49.9436" lon="6.19615">
        <ele>385</ele>
        <time>2026-08-26T15:42:25+00:00</time>
      </trkpt>
      <trkpt lat="49.94345" lon="6.19592">
        <ele>388</ele>
        <time>2026-08-26T15:42:28+00:00</time>
      </trkpt>
      <trkpt lat="49.94329" lon="6.19575">
        <ele>393</ele>
        <time>2026-08-26T15:42:31+00:00</time>
      </trkpt>
      <trkpt lat="49.94311" lon="6.19549">
        <ele>394</ele>
        <time>2026-08-26T15:42:34+00:00</time>
      </trkpt>
      <trkpt lat="49.94298" lon="6.1954">
        <ele>403</ele>
        <time>2026-08-26T15:42:37+00:00</time>
      </trkpt>
      <trkpt lat="49.94291" lon="6.19532">
        <ele>401</ele>
        <time>2026-08-26T15:42:40+00:00</time>
      </trkpt>
      <trkpt lat="49.94273" lon="6.19501">
        <ele>401</ele>
        <time>2026-08-26T15:42:43+00:00</time>
      </trkpt>
      <trkpt lat="49.94256" lon="6.19469">
        <ele>392</ele>
        <time>2026-08-26T15:42:46+00:00</time>
      </trkpt>
      <trkpt lat="49.94227" lon="6.19434">
        <ele>392</ele>
        <time>2026-08-26T15:42:49+00:00</time>
      </trkpt>
      <trkpt lat="49.94206" lon="6.1941">
        <ele>392</ele>
        <time>2026-08-26T15:42:52+00:00</time>
      </trkpt>
      <trkpt lat="49.94174" lon="6.19373">
        <ele>393</ele>
        <time>2026-08-26T15:42:55+00:00</time>
      </trkpt>
      <trkpt lat="49.94167" lon="6.19366">
        <ele>392</ele>
        <time>2026-08-26T15:42:58+00:00</time>
      </trkpt>
      <trkpt lat="49.94139" lon="6.19346">
        <ele>401</ele>
        <time>2026-08-26T15:43:01+00:00</time>
      </trkpt>
      <trkpt lat="49.94117" lon="6.19326">
        <ele>405</ele>
        <time>2026-08-26T15:43:04+00:00</time>
      </trkpt>
      <trkpt lat="49.94086" lon="6.19297">
        <ele>409</ele>
        <time>2026-08-26T15:43:07+00:00</time>
      </trkpt>
      <trkpt lat="49.94065" lon="6.19269">
        <ele>410</ele>
        <time>2026-08-26T15:43:10+00:00</time>
      </trkpt>
      <trkpt lat="49.94064" lon="6.19262">
        <ele>417</ele>
        <time>2026-08-26T15:43:13+00:00</time>
      </trkpt>
      <trkpt lat="49.94065" lon="6.19255">
        <ele>418</ele>
        <time>2026-08-26T15:43:16+00:00</time>
      </trkpt>
      <trkpt lat="49.9407" lon="6.19226">
        <ele>412</ele>
        <time>2026-08-26T15:43:19+00:00</time>
      </trkpt>
      <trkpt lat="49.94077" lon="6.19193">
        <ele>412</ele>
        <time>2026-08-26T15:43:22+00:00</time>
      </trkpt>
      <trkpt lat="49.94086" lon="6.19169">
        <ele>408</ele>
        <time>2026-08-26T15:43:25+00:00</time>
      </trkpt>
      <trkpt lat="49.94096" lon="6.19149">
        <ele>404</ele>
        <time>2026-08-26T15:43:28+00:00</time>
      </trkpt>
      <trkpt lat="49.94098" lon="6.1914">
        <ele>404</ele>
        <time>2026-08-26T15:43:31+00:00</time>
      </trkpt>
      <trkpt lat="49.94098" lon="6.19121">
        <ele>406</ele>
        <time>2026-08-26T15:43:34+00:00</time>
      </trkpt>
      <trkpt lat="49.9409" lon="6.19085">
        <ele>405</ele>
        <time>2026-08-26T15:43:37+00:00</time>
      </trkpt>
      <trkpt lat="49.94078" lon="6.19047">
        <ele>403</ele>
        <time>2026-08-26T15:43:40+00:00</time>
      </trkpt>
      <trkpt lat="49.9407" lon="6.19011">
        <ele>401</ele>
        <time>2026-08-26T15:43:43+00:00</time>
      </trkpt>
      <trkpt lat="49.9406" lon="6.18965">
        <ele>391</ele>
        <time>2026-08-26T15:43:46+00:00</time>
      </trkpt>
      <trkpt lat="49.94044" lon="6.18931">
        <ele>391</ele>
        <time>2026-08-26T15:43:49+00:00</time>
      </trkpt>
      <trkpt lat="49.94037" lon="6.18919">
        <ele>398</ele>
        <time>2026-08-26T15:43:52+00:00</time>
      </trkpt>
      <trkpt lat="49.94036" lon="6.18913">
        <ele>398</ele>
        <time>2026-08-26T15:43:55+00:00</time>
      </trkpt>
      <trkpt lat="49.94038" lon="6.18896">
        <ele>391</ele>
        <time>2026-08-26T15:43:58+00:00</time>
      </trkpt>
      <trkpt lat="49.94038" lon="6.18884">
        <ele>396</ele>
        <time>2026-08-26T15:44:01+00:00</time>
      </trkpt>
      <trkpt lat="49.94032" lon="6.18852">
        <ele>392</ele>
        <time>2026-08-26T15:44:04+00:00</time>
      </trkpt>
      <trkpt lat="49.94024" lon="6.1881">
        <ele>393</ele>
        <time>2026-08-26T15:44:07+00:00</time>
      </trkpt>
      <trkpt lat="49.94014" lon="6.1877">
        <ele>398</ele>
        <time>2026-08-26T15:44:10+00:00</time>
      </trkpt>
      <trkpt lat="49.93996" lon="6.18698">
        <ele>422</ele>
        <time>2026-08-26T15:44:13+00:00</time>
      </trkpt>
      <trkpt lat="49.93988" lon="6.18653">
        <ele>429</ele>
        <time>2026-08-26T15:44:16+00:00</time>
      </trkpt>
      <trkpt lat="49.93983" lon="6.18616">
        <ele>429</ele>
        <time>2026-08-26T15:44:19+00:00</time>
      </trkpt>
      <trkpt lat="49.93982" lon="6.18581">
        <ele>429</ele>
        <time>2026-08-26T15:44:22+00:00</time>
      </trkpt>
      <trkpt lat="49.93982" lon="6.18551">
        <ele>429</ele>
        <time>2026-08-26T15:44:25+00:00</time>
      </trkpt>
      <trkpt lat="49.93986" lon="6.18524">
        <ele>434</ele>
        <time>2026-08-26T15:44:28+00:00</time>
      </trkpt>
      <trkpt lat="49.93998" lon="6.18486">
        <ele>435</ele>
        <time>2026-08-26T15:44:31+00:00</time>
      </trkpt>
      <trkpt lat="49.9402" lon="6.1842">
        <ele>437</ele>
        <time>2026-08-26T15:44:34+00:00</time>
      </trkpt>
      <trkpt lat="49.94033" lon="6.18387">
        <ele>438</ele>
        <time>2026-08-26T15:44:37+00:00</time>
      </trkpt>
      <trkpt lat="49.94043" lon="6.18376">
        <ele>443</ele>
        <time>2026-08-26T15:44:40+00:00</time>
      </trkpt>
      <trkpt lat="49.9405" lon="6.18389">
        <ele>433</ele>
        <time>2026-08-26T15:44:43+00:00</time>
      </trkpt>
      <trkpt lat="49.94051" lon="6.184">
        <ele>434</ele>
        <time>2026-08-26T15:44:46+00:00</time>
      </trkpt>
      <trkpt lat="49.94047" lon="6.18449">
        <ele>429</ele>
        <time>2026-08-26T15:44:49+00:00</time>
      </trkpt>
      <trkpt lat="49.94046" lon="6.18484">
        <ele>422</ele>
        <time>2026-08-26T15:44:52+00:00</time>
      </trkpt>
      <trkpt lat="49.94046" lon="6.18522">
        <ele>404</ele>
        <time>2026-08-26T15:44:55+00:00</time>
      </trkpt>
      <trkpt lat="49.94048" lon="6.18566">
        <ele>402</ele>
        <time>2026-08-26T15:44:58+00:00</time>
      </trkpt>
      <trkpt lat="49.94053" lon="6.18652">
        <ele>372</ele>
        <time>2026-08-26T15:45:01+00:00</time>
      </trkpt>
      <trkpt lat="49.94061" lon="6.1869">
        <ele>370</ele>
        <time>2026-08-26T15:45:04+00:00</time>
      </trkpt>
      <trkpt lat="49.94072" lon="6.18721">
        <ele>361</ele>
        <time>2026-08-26T15:45:07+00:00</time>
      </trkpt>
      <trkpt lat="49.94085" lon="6.18753">
        <ele>357</ele>
        <time>2026-08-26T15:45:10+00:00</time>
      </trkpt>
      <trkpt lat="49.94103" lon="6.18794">
        <ele>349</ele>
        <time>2026-08-26T15:45:13+00:00</time>
      </trkpt>
      <trkpt lat="49.94115" lon="6.18827">
        <ele>347</ele>
        <time>2026-08-26T15:45:16+00:00</time>
      </trkpt>
      <trkpt lat="49.94128" lon="6.18861">
        <ele>347</ele>
        <time>2026-08-26T15:45:19+00:00</time>
      </trkpt>
      <trkpt lat="49.94141" lon="6.18889">
        <ele>347</ele>
        <time>2026-08-26T15:45:22+00:00</time>
      </trkpt>
      <trkpt lat="49.94157" lon="6.18936">
        <ele>345</ele>
        <time>2026-08-26T15:45:25+00:00</time>
      </trkpt>
      <trkpt lat="49.94175" lon="6.18981">
        <ele>344</ele>
        <time>2026-08-26T15:45:28+00:00</time>
      </trkpt>
      <trkpt lat="49.94189" lon="6.19023">
        <ele>342</ele>
        <time>2026-08-26T15:45:31+00:00</time>
      </trkpt>
      <trkpt lat="49.94203" lon="6.19055">
        <ele>329</ele>
        <time>2026-08-26T15:45:34+00:00</time>
      </trkpt>
      <trkpt lat="49.9422" lon="6.19107">
        <ele>323</ele>
        <time>2026-08-26T15:45:37+00:00</time>
      </trkpt>
      <trkpt lat="49.94232" lon="6.19129">
        <ele>321</ele>
        <time>2026-08-26T15:45:40+00:00</time>
      </trkpt>
      <trkpt lat="49.9425" lon="6.19179">
        <ele>313</ele>
        <time>2026-08-26T15:45:43+00:00</time>
      </trkpt>
      <trkpt lat="49.94265" lon="6.19225">
        <ele>306</ele>
        <time>2026-08-26T15:45:46+00:00</time>
      </trkpt>
      <trkpt lat="49.94271" lon="6.19235">
        <ele>303</ele>
        <time>2026-08-26T15:45:49+00:00</time>
      </trkpt>
      <trkpt lat="49.94277" lon="6.19244">
        <ele>301</ele>
        <time>2026-08-26T15:45:52+00:00</time>
      </trkpt>
      <trkpt lat="49.94293" lon="6.1926">
        <ele>300</ele>
        <time>2026-08-26T15:45:55+00:00</time>
      </trkpt>
      <trkpt lat="49.94313" lon="6.19269">
        <ele>300</ele>
        <time>2026-08-26T15:45:58+00:00</time>
      </trkpt>
      <trkpt lat="49.94332" lon="6.19276">
        <ele>294</ele>
        <time>2026-08-26T15:46:01+00:00</time>
      </trkpt>
      <trkpt lat="49.94338" lon="6.19276">
        <ele>294</ele>
        <time>2026-08-26T15:46:04+00:00</time>
      </trkpt>
      <trkpt lat="49.9436" lon="6.19287">
        <ele>288</ele>
        <time>2026-08-26T15:46:07+00:00</time>
      </trkpt>
      <trkpt lat="49.94393" lon="6.19304">
        <ele>284</ele>
        <time>2026-08-26T15:46:10+00:00</time>
      </trkpt>
      <trkpt lat="49.94403" lon="6.19312">
        <ele>279</ele>
        <time>2026-08-26T15:46:13+00:00</time>
      </trkpt>
      <trkpt lat="49.94405" lon="6.1931">
        <ele>279</ele>
        <time>2026-08-26T15:46:16+00:00</time>
      </trkpt>
      <trkpt lat="49.94413" lon="6.19313">
        <ele>283</ele>
        <time>2026-08-26T15:46:19+00:00</time>
      </trkpt>
      <trkpt lat="49.94444" lon="6.19308">
        <ele>283</ele>
        <time>2026-08-26T15:46:22+00:00</time>
      </trkpt>
      <trkpt lat="49.94448" lon="6.19305">
        <ele>283</ele>
        <time>2026-08-26T15:46:25+00:00</time>
      </trkpt>
      <trkpt lat="49.94476" lon="6.19309">
        <ele>280</ele>
        <time>2026-08-26T15:46:28+00:00</time>
      </trkpt>
      <trkpt lat="49.9449" lon="6.19306">
        <ele>279</ele>
        <time>2026-08-26T15:46:31+00:00</time>
      </trkpt>
      <trkpt lat="49.945" lon="6.19302">
        <ele>288</ele>
        <time>2026-08-26T15:46:34+00:00</time>
      </trkpt>
      <trkpt lat="49.94504" lon="6.19301">
        <ele>279</ele>
        <time>2026-08-26T15:46:37+00:00</time>
      </trkpt>
      <trkpt lat="49.94505" lon="6.19297">
        <ele>283</ele>
        <time>2026-08-26T15:46:40+00:00</time>
      </trkpt>
      <trkpt lat="49.94509" lon="6.19259">
        <ele>297</ele>
        <time>2026-08-26T15:46:43+00:00</time>
      </trkpt>
      <trkpt lat="49.94515" lon="6.19197">
        <ele>297</ele>
        <time>2026-08-26T15:46:46+00:00</time>
      </trkpt>
      <trkpt lat="49.94516" lon="6.19192">
        <ele>297</ele>
        <time>2026-08-26T15:46:49+00:00</time>
      </trkpt>
      <trkpt lat="49.94522" lon="6.19232">
        <ele>288</ele>
        <time>2026-08-26T15:46:52+00:00</time>
      </trkpt>
      <trkpt lat="49.94525" lon="6.19236">
        <ele>288</ele>
        <time>2026-08-26T15:46:55+00:00</time>
      </trkpt>
      <trkpt lat="49.94525" lon="6.19225">
        <ele>290</ele>
        <time>2026-08-26T15:46:58+00:00</time>
      </trkpt>
      <trkpt lat="49.94526" lon="6.19222">
        <ele>290</ele>
        <time>2026-08-26T15:47:01+00:00</time>
      </trkpt>
      <trkpt lat="49.94528" lon="6.19223">
        <ele>290</ele>
        <time>2026-08-26T15:47:04+00:00</time>
      </trkpt>
      <trkpt lat="49.94531" lon="6.19239">
        <ele>279</ele>
        <time>2026-08-26T15:47:07+00:00</time>
      </trkpt>
      <trkpt lat="49.94532" lon="6.19232">
        <ele>279</ele>
        <time>2026-08-26T15:47:10+00:00</time>
      </trkpt>
      <trkpt lat="49.94538" lon="6.19248">
        <ele>279</ele>
        <time>2026-08-26T15:47:13+00:00</time>
      </trkpt>
      <trkpt lat="49.9454" lon="6.19232">
        <ele>269</ele>
        <time>2026-08-26T15:47:16+00:00</time>
      </trkpt>
      <trkpt lat="49.94544" lon="6.19229">
        <ele>269</ele>
        <time>2026-08-26T15:47:19+00:00</time>
      </trkpt>
      <trkpt lat="49.94548" lon="6.19233">
        <ele>269</ele>
        <time>2026-08-26T15:47:22+00:00</time>
      </trkpt>
      <trkpt lat="49.9456" lon="6.1926">
        <ele>260</ele>
        <time>2026-08-26T15:47:25+00:00</time>
      </trkpt>
      <trkpt lat="49.94577" lon="6.19298">
        <ele>261</ele>
        <time>2026-08-26T15:47:28+00:00</time>
      </trkpt>
      <trkpt lat="49.94592" lon="6.19326">
        <ele>262</ele>
        <time>2026-08-26T15:47:31+00:00</time>
      </trkpt>
      <trkpt lat="49.9461" lon="6.19359">
        <ele>261</ele>
        <time>2026-08-26T15:47:34+00:00</time>
      </trkpt>
      <trkpt lat="49.94626" lon="6.19389">
        <ele>261</ele>
        <time>2026-08-26T15:47:37+00:00</time>
      </trkpt>
      <trkpt lat="49.94649" lon="6.1943">
        <ele>258</ele>
        <time>2026-08-26T15:47:40+00:00</time>
      </trkpt>
      <trkpt lat="49.94667" lon="6.1946">
        <ele>258</ele>
        <time>2026-08-26T15:47:43+00:00</time>
      </trkpt>
      <trkpt lat="49.94697" lon="6.19509">
        <ele>259</ele>
        <time>2026-08-26T15:47:46+00:00</time>
      </trkpt>
      <trkpt lat="49.94728" lon="6.19554">
        <ele>260</ele>
        <time>2026-08-26T15:47:49+00:00</time>
      </trkpt>
      <trkpt lat="49.94731" lon="6.19557">
        <ele>264</ele>
        <time>2026-08-26T15:47:52+00:00</time>
      </trkpt>
      <trkpt lat="49.94735" lon="6.1956">
        <ele>261</ele>
        <time>2026-08-26T15:47:55+00:00</time>
      </trkpt>
      <trkpt lat="49.94744" lon="6.19564">
        <ele>265</ele>
        <time>2026-08-26T15:47:58+00:00</time>
      </trkpt>
      <trkpt lat="49.94776" lon="6.19564">
        <ele>277</ele>
        <time>2026-08-26T15:48:01+00:00</time>
      </trkpt>
      <trkpt lat="49.948" lon="6.19562">
        <ele>277</ele>
        <time>2026-08-26T15:48:04+00:00</time>
      </trkpt>
      <trkpt lat="49.94828" lon="6.1956">
        <ele>277</ele>
        <time>2026-08-26T15:48:07+00:00</time>
      </trkpt>
      <trkpt lat="49.94832" lon="6.19558">
        <ele>281</ele>
        <time>2026-08-26T15:48:10+00:00</time>
      </trkpt>
      <trkpt lat="49.94834" lon="6.19553">
        <ele>281</ele>
        <time>2026-08-26T15:48:13+00:00</time>
      </trkpt>
      <trkpt lat="49.94832" lon="6.19548">
        <ele>285</ele>
        <time>2026-08-26T15:48:16+00:00</time>
      </trkpt>
      <trkpt lat="49.94813" lon="6.19543">
        <ele>286</ele>
        <time>2026-08-26T15:48:19+00:00</time>
      </trkpt>
      <trkpt lat="49.94789" lon="6.19532">
        <ele>289</ele>
        <time>2026-08-26T15:48:22+00:00</time>
      </trkpt>
      <trkpt lat="49.94765" lon="6.19514">
        <ele>290</ele>
        <time>2026-08-26T15:48:25+00:00</time>
      </trkpt>
      <trkpt lat="49.9475" lon="6.19486">
        <ele>292</ele>
        <time>2026-08-26T15:48:28+00:00</time>
      </trkpt>
      <trkpt lat="49.94729" lon="6.19441">
        <ele>296</ele>
        <time>2026-08-26T15:48:31+00:00</time>
      </trkpt>
      <trkpt lat="49.94713" lon="6.19391">
        <ele>306</ele>
        <time>2026-08-26T15:48:34+00:00</time>
      </trkpt>
      <trkpt lat="49.94704" lon="6.19365">
        <ele>311</ele>
        <time>2026-08-26T15:48:37+00:00</time>
      </trkpt>
      <trkpt lat="49.94696" lon="6.19333">
        <ele>315</ele>
        <time>2026-08-26T15:48:40+00:00</time>
      </trkpt>
      <trkpt lat="49.94687" lon="6.19298">
        <ele>321</ele>
        <time>2026-08-26T15:48:43+00:00</time>
      </trkpt>
      <trkpt lat="49.9468" lon="6.19262">
        <ele>331</ele>
        <time>2026-08-26T15:48:46+00:00</time>
      </trkpt>
      <trkpt lat="49.94671" lon="6.19215">
        <ele>335</ele>
        <time>2026-08-26T15:48:49+00:00</time>
      </trkpt>
      <trkpt lat="49.94663" lon="6.1916">
        <ele>335</ele>
        <time>2026-08-26T15:48:52+00:00</time>
      </trkpt>
      <trkpt lat="49.94659" lon="6.19102">
        <ele>335</ele>
        <time>2026-08-26T15:48:55+00:00</time>
      </trkpt>
      <trkpt lat="49.94656" lon="6.19042">
        <ele>339</ele>
        <time>2026-08-26T15:48:58+00:00</time>
      </trkpt>
      <trkpt lat="49.94657" lon="6.19006">
        <ele>345</ele>
        <time>2026-08-26T15:49:01+00:00</time>
      </trkpt>
      <trkpt lat="49.94657" lon="6.18978">
        <ele>352</ele>
        <time>2026-08-26T15:49:04+00:00</time>
      </trkpt>
      <trkpt lat="49.94672" lon="6.19009">
        <ele>359</ele>
        <time>2026-08-26T15:49:07+00:00</time>
      </trkpt>
      <trkpt lat="49.94693" lon="6.1905">
        <ele>368</ele>
        <time>2026-08-26T15:49:10+00:00</time>
      </trkpt>
      <trkpt lat="49.9472" lon="6.19092">
        <ele>379</ele>
        <time>2026-08-26T15:49:13+00:00</time>
      </trkpt>
      <trkpt lat="49.94741" lon="6.1911">
        <ele>382</ele>
        <time>2026-08-26T15:49:16+00:00</time>
      </trkpt>
      <trkpt lat="49.94766" lon="6.19141">
        <ele>386</ele>
        <time>2026-08-26T15:49:19+00:00</time>
      </trkpt>
      <trkpt lat="49.94786" lon="6.19174">
        <ele>388</ele>
        <time>2026-08-26T15:49:22+00:00</time>
      </trkpt>
      <trkpt lat="49.948" lon="6.1919">
        <ele>392</ele>
        <time>2026-08-26T15:49:25+00:00</time>
      </trkpt>
      <trkpt lat="49.94809" lon="6.19196">
        <ele>392</ele>
        <time>2026-08-26T15:49:28+00:00</time>
      </trkpt>
      <trkpt lat="49.94813" lon="6.19204">
        <ele>393</ele>
        <time>2026-08-26T15:49:31+00:00</time>
      </trkpt>
      <trkpt lat="49.94834" lon="6.19219">
        <ele>397</ele>
        <time>2026-08-26T15:49:34+00:00</time>
      </trkpt>
      <trkpt lat="49.9484" lon="6.19221">
        <ele>395</ele>
        <time>2026-08-26T15:49:37+00:00</time>
      </trkpt>
      <trkpt lat="49.94845" lon="6.19219">
        <ele>400</ele>
        <time>2026-08-26T15:49:40+00:00</time>
      </trkpt>
      <trkpt lat="49.94854" lon="6.19209">
        <ele>405</ele>
        <time>2026-08-26T15:49:43+00:00</time>
      </trkpt>
      <trkpt lat="49.94856" lon="6.19202">
        <ele>405</ele>
        <time>2026-08-26T15:49:46+00:00</time>
      </trkpt>
      <trkpt lat="49.94859" lon="6.192">
        <ele>405</ele>
        <time>2026-08-26T15:49:49+00:00</time>
      </trkpt>
      <trkpt lat="49.94872" lon="6.19175">
        <ele>407</ele>
        <time>2026-08-26T15:49:52+00:00</time>
      </trkpt>
      <trkpt lat="49.94879" lon="6.19156">
        <ele>413</ele>
        <time>2026-08-26T15:49:55+00:00</time>
      </trkpt>
      <trkpt lat="49.9489" lon="6.1914">
        <ele>409</ele>
        <time>2026-08-26T15:49:58+00:00</time>
      </trkpt>
      <trkpt lat="49.94902" lon="6.19123">
        <ele>409</ele>
        <time>2026-08-26T15:50:01+00:00</time>
      </trkpt>
      <trkpt lat="49.94916" lon="6.19112">
        <ele>410</ele>
        <time>2026-08-26T15:50:04+00:00</time>
      </trkpt>
      <trkpt lat="49.9492" lon="6.19108">
        <ele>410</ele>
        <time>2026-08-26T15:50:07+00:00</time>
      </trkpt>
      <trkpt lat="49.94945" lon="6.19097">
        <ele>407</ele>
        <time>2026-08-26T15:50:10+00:00</time>
      </trkpt>
      <trkpt lat="49.94954" lon="6.19097">
        <ele>411</ele>
        <time>2026-08-26T15:50:13+00:00</time>
      </trkpt>
      <trkpt lat="49.94966" lon="6.19101">
        <ele>405</ele>
        <time>2026-08-26T15:50:16+00:00</time>
      </trkpt>
      <trkpt lat="49.94981" lon="6.19108">
        <ele>407</ele>
        <time>2026-08-26T15:50:19+00:00</time>
      </trkpt>
      <trkpt lat="49.94981" lon="6.19108">
        <ele>407</ele>
        <time>2026-08-26T15:50:22+00:00</time>
      </trkpt>
      <trkpt lat="49.95003" lon="6.19123">
        <ele>399</ele>
        <time>2026-08-26T15:50:25+00:00</time>
      </trkpt>
      <trkpt lat="49.95014" lon="6.19142">
        <ele>390</ele>
        <time>2026-08-26T15:50:28+00:00</time>
      </trkpt>
      <trkpt lat="49.95023" lon="6.19152">
        <ele>386</ele>
        <time>2026-08-26T15:50:31+00:00</time>
      </trkpt>
      <trkpt lat="49.95025" lon="6.1916">
        <ele>380</ele>
        <time>2026-08-26T15:50:34+00:00</time>
      </trkpt>
      <trkpt lat="49.95026" lon="6.19164">
        <ele>380</ele>
        <time>2026-08-26T15:50:37+00:00</time>
      </trkpt>
      <trkpt lat="49.95029" lon="6.19167">
        <ele>380</ele>
        <time>2026-08-26T15:50:40+00:00</time>
      </trkpt>
      <trkpt lat="49.95039" lon="6.19163">
        <ele>389</ele>
        <time>2026-08-26T15:50:43+00:00</time>
      </trkpt>
      <trkpt lat="49.95059" lon="6.19147">
        <ele>389</ele>
        <time>2026-08-26T15:50:46+00:00</time>
      </trkpt>
      <trkpt lat="49.95079" lon="6.19131">
        <ele>389</ele>
        <time>2026-08-26T15:50:49+00:00</time>
      </trkpt>
      <trkpt lat="49.95103" lon="6.19106">
        <ele>381</ele>
        <time>2026-08-26T15:50:52+00:00</time>
      </trkpt>
      <trkpt lat="49.95127" lon="6.19077">
        <ele>374</ele>
        <time>2026-08-26T15:50:55+00:00</time>
      </trkpt>
      <trkpt lat="49.95143" lon="6.19057">
        <ele>366</ele>
        <time>2026-08-26T15:50:58+00:00</time>
      </trkpt>
      <trkpt lat="49.95153" lon="6.19039">
        <ele>361</ele>
        <time>2026-08-26T15:51:01+00:00</time>
      </trkpt>
      <trkpt lat="49.95163" lon="6.19018">
        <ele>360</ele>
        <time>2026-08-26T15:51:04+00:00</time>
      </trkpt>
      <trkpt lat="49.95178" lon="6.18972">
        <ele>359</ele>
        <time>2026-08-26T15:51:07+00:00</time>
      </trkpt>
      <trkpt lat="49.95184" lon="6.18947">
        <ele>358</ele>
        <time>2026-08-26T15:51:10+00:00</time>
      </trkpt>
      <trkpt lat="49.95191" lon="6.18911">
        <ele>351</ele>
        <time>2026-08-26T15:51:13+00:00</time>
      </trkpt>
      <trkpt lat="49.95197" lon="6.18874">
        <ele>350</ele>
        <time>2026-08-26T15:51:16+00:00</time>
      </trkpt>
      <trkpt lat="49.95205" lon="6.18831">
        <ele>347</ele>
        <time>2026-08-26T15:51:19+00:00</time>
      </trkpt>
      <trkpt lat="49.95208" lon="6.1882">
        <ele>347</ele>
        <time>2026-08-26T15:51:22+00:00</time>
      </trkpt>
      <trkpt lat="49.95211" lon="6.18811">
        <ele>345</ele>
        <time>2026-08-26T15:51:25+00:00</time>
      </trkpt>
      <trkpt lat="49.95217" lon="6.1881">
        <ele>345</ele>
        <time>2026-08-26T15:51:28+00:00</time>
      </trkpt>
      <trkpt lat="49.95221" lon="6.18814">
        <ele>343</ele>
        <time>2026-08-26T15:51:31+00:00</time>
      </trkpt>
      <trkpt lat="49.95249" lon="6.18855">
        <ele>339</ele>
        <time>2026-08-26T15:51:34+00:00</time>
      </trkpt>
      <trkpt lat="49.95255" lon="6.18861">
        <ele>337</ele>
        <time>2026-08-26T15:51:37+00:00</time>
      </trkpt>
      <trkpt lat="49.95262" lon="6.18863">
        <ele>336</ele>
        <time>2026-08-26T15:51:40+00:00</time>
      </trkpt>
      <trkpt lat="49.95274" lon="6.18878">
        <ele>334</ele>
        <time>2026-08-26T15:51:43+00:00</time>
      </trkpt>
      <trkpt lat="49.95299" lon="6.18914">
        <ele>331</ele>
        <time>2026-08-26T15:51:46+00:00</time>
      </trkpt>
      <trkpt lat="49.95327" lon="6.18946">
        <ele>329</ele>
        <time>2026-08-26T15:51:49+00:00</time>
      </trkpt>
      <trkpt lat="49.95345" lon="6.18971">
        <ele>328</ele>
        <time>2026-08-26T15:51:52+00:00</time>
      </trkpt>
      <trkpt lat="49.95368" lon="6.19003">
        <ele>326</ele>
        <time>2026-08-26T15:51:55+00:00</time>
      </trkpt>
      <trkpt lat="49.95385" lon="6.19031">
        <ele>323</ele>
        <time>2026-08-26T15:51:58+00:00</time>
      </trkpt>
      <trkpt lat="49.95407" lon="6.1906">
        <ele>322</ele>
        <time>2026-08-26T15:52:01+00:00</time>
      </trkpt>
      <trkpt lat="49.9543" lon="6.19089">
        <ele>319</ele>
        <time>2026-08-26T15:52:04+00:00</time>
      </trkpt>
      <trkpt lat="49.95453" lon="6.19119">
        <ele>313</ele>
        <time>2026-08-26T15:52:07+00:00</time>
      </trkpt>
      <trkpt lat="49.95481" lon="6.19143">
        <ele>305</ele>
        <time>2026-08-26T15:52:10+00:00</time>
      </trkpt>
      <trkpt lat="49.95495" lon="6.19155">
        <ele>302</ele>
        <time>2026-08-26T15:52:13+00:00</time>
      </trkpt>
      <trkpt lat="49.95513" lon="6.19163">
        <ele>301</ele>
        <time>2026-08-26T15:52:16+00:00</time>
      </trkpt>
      <trkpt lat="49.95538" lon="6.19167">
        <ele>301</ele>
        <time>2026-08-26T15:52:19+00:00</time>
      </trkpt>
      <trkpt lat="49.95554" lon="6.19165">
        <ele>301</ele>
        <time>2026-08-26T15:52:22+00:00</time>
      </trkpt>
      <trkpt lat="49.9557" lon="6.19159">
        <ele>300</ele>
        <time>2026-08-26T15:52:25+00:00</time>
      </trkpt>
      <trkpt lat="49.95589" lon="6.19153">
        <ele>300</ele>
        <time>2026-08-26T15:52:28+00:00</time>
      </trkpt>
      <trkpt lat="49.95604" lon="6.19143">
        <ele>301</ele>
        <time>2026-08-26T15:52:31+00:00</time>
      </trkpt>
      <trkpt lat="49.95617" lon="6.19128">
        <ele>298</ele>
        <time>2026-08-26T15:52:34+00:00</time>
      </trkpt>
      <trkpt lat="49.95632" lon="6.19109">
        <ele>296</ele>
        <time>2026-08-26T15:52:37+00:00</time>
      </trkpt>
      <trkpt lat="49.95643" lon="6.19088">
        <ele>293</ele>
        <time>2026-08-26T15:52:40+00:00</time>
      </trkpt>
      <trkpt lat="49.95647" lon="6.19071">
        <ele>294</ele>
        <time>2026-08-26T15:52:43+00:00</time>
      </trkpt>
      <trkpt lat="49.95652" lon="6.19066">
        <ele>285</ele>
        <time>2026-08-26T15:52:46+00:00</time>
      </trkpt>
      <trkpt lat="49.95661" lon="6.19066">
        <ele>281</ele>
        <time>2026-08-26T15:52:49+00:00</time>
      </trkpt>
      <trkpt lat="49.95659" lon="6.19053">
        <ele>283</ele>
        <time>2026-08-26T15:52:52+00:00</time>
      </trkpt>
      <trkpt lat="49.95655" lon="6.19043">
        <ele>282</ele>
        <time>2026-08-26T15:52:55+00:00</time>
      </trkpt>
      <trkpt lat="49.95648" lon="6.19034">
        <ele>281</ele>
        <time>2026-08-26T15:52:58+00:00</time>
      </trkpt>
      <trkpt lat="49.95652" lon="6.19024">
        <ele>282</ele>
        <time>2026-08-26T15:53:01+00:00</time>
      </trkpt>
      <trkpt lat="49.95654" lon="6.1902">
        <ele>281</ele>
        <time>2026-08-26T15:53:04+00:00</time>
      </trkpt>
      <trkpt lat="49.95663" lon="6.19019">
        <ele>282</ele>
        <time>2026-08-26T15:53:07+00:00</time>
      </trkpt>
      <trkpt lat="49.95664" lon="6.19019">
        <ele>282</ele>
        <time>2026-08-26T15:53:10+00:00</time>
      </trkpt>
      <trkpt lat="49.95673" lon="6.19015">
        <ele>282</ele>
        <time>2026-08-26T15:53:13+00:00</time>
      </trkpt>
      <trkpt lat="49.95694" lon="6.19012">
        <ele>283</ele>
        <time>2026-08-26T15:53:16+00:00</time>
      </trkpt>
      <trkpt lat="49.9573" lon="6.18992">
        <ele>283</ele>
        <time>2026-08-26T15:53:19+00:00</time>
      </trkpt>
      <trkpt lat="49.95739" lon="6.18982">
        <ele>282</ele>
        <time>2026-08-26T15:53:22+00:00</time>
      </trkpt>
      <trkpt lat="49.95747" lon="6.1897">
        <ele>286</ele>
        <time>2026-08-26T15:53:25+00:00</time>
      </trkpt>
      <trkpt lat="49.95753" lon="6.18968">
        <ele>286</ele>
        <time>2026-08-26T15:53:28+00:00</time>
      </trkpt>
      <trkpt lat="49.95757" lon="6.18959">
        <ele>286</ele>
        <time>2026-08-26T15:53:31+00:00</time>
      </trkpt>
      <trkpt lat="49.9576" lon="6.18959">
        <ele>289</ele>
        <time>2026-08-26T15:53:34+00:00</time>
      </trkpt>
      <trkpt lat="49.95763" lon="6.18959">
        <ele>289</ele>
        <time>2026-08-26T15:53:37+00:00</time>
      </trkpt>
      <trkpt lat="49.95763" lon="6.18956">
        <ele>289</ele>
        <time>2026-08-26T15:53:40+00:00</time>
      </trkpt>
      <trkpt lat="49.95768" lon="6.18955">
        <ele>289</ele>
        <time>2026-08-26T15:53:43+00:00</time>
      </trkpt>
      <trkpt lat="49.95774" lon="6.18949">
        <ele>293</ele>
        <time>2026-08-26T15:53:46+00:00</time>
      </trkpt>
      <trkpt lat="49.95779" lon="6.18942">
        <ele>293</ele>
        <time>2026-08-26T15:53:49+00:00</time>
      </trkpt>
      <trkpt lat="49.95779" lon="6.18939">
        <ele>294</ele>
        <time>2026-08-26T15:53:52+00:00</time>
      </trkpt>
      <trkpt lat="49.9578" lon="6.18939">
        <ele>294</ele>
        <time>2026-08-26T15:53:55+00:00</time>
      </trkpt>
      <trkpt lat="49.95783" lon="6.18937">
        <ele>299</ele>
        <time>2026-08-26T15:53:58+00:00</time>
      </trkpt>
      <trkpt lat="49.95784" lon="6.18939">
        <ele>299</ele>
        <time>2026-08-26T15:54:01+00:00</time>
      </trkpt>
      <trkpt lat="49.95788" lon="6.18935">
        <ele>299</ele>
        <time>2026-08-26T15:54:04+00:00</time>
      </trkpt>
      <trkpt lat="49.9579" lon="6.18931">
        <ele>299</ele>
        <time>2026-08-26T15:54:07+00:00</time>
      </trkpt>
      <trkpt lat="49.95801" lon="6.18925">
        <ele>310</ele>
        <time>2026-08-26T15:54:10+00:00</time>
      </trkpt>
      <trkpt lat="49.95798" lon="6.18918">
        <ele>306</ele>
        <time>2026-08-26T15:54:13+00:00</time>
      </trkpt>
      <trkpt lat="49.95799" lon="6.1891">
        <ele>306</ele>
        <time>2026-08-26T15:54:16+00:00</time>
      </trkpt>
      <trkpt lat="49.95807" lon="6.18893">
        <ele>316</ele>
        <time>2026-08-26T15:54:19+00:00</time>
      </trkpt>
      <trkpt lat="49.95805" lon="6.18866">
        <ele>316</ele>
        <time>2026-08-26T15:54:22+00:00</time>
      </trkpt>
      <trkpt lat="49.95807" lon="6.18861">
        <ele>316</ele>
        <time>2026-08-26T15:54:25+00:00</time>
      </trkpt>
      <trkpt lat="49.9581" lon="6.18871">
        <ele>322</ele>
        <time>2026-08-26T15:54:28+00:00</time>
      </trkpt>
      <trkpt lat="49.95812" lon="6.18863">
        <ele>322</ele>
        <time>2026-08-26T15:54:31+00:00</time>
      </trkpt>
      <trkpt lat="49.9582" lon="6.18853">
        <ele>326</ele>
        <time>2026-08-26T15:54:34+00:00</time>
      </trkpt>
      <trkpt lat="49.95819" lon="6.18865">
        <ele>322</ele>
        <time>2026-08-26T15:54:37+00:00</time>
      </trkpt>
      <trkpt lat="49.95822" lon="6.18868">
        <ele>325</ele>
        <time>2026-08-26T15:54:40+00:00</time>
      </trkpt>
      <trkpt lat="49.95828" lon="6.18859">
        <ele>326</ele>
        <time>2026-08-26T15:54:43+00:00</time>
      </trkpt>
      <trkpt lat="49.95835" lon="6.18856">
        <ele>327</ele>
        <time>2026-08-26T15:54:46+00:00</time>
      </trkpt>
      <trkpt lat="49.95839" lon="6.18852">
        <ele>327</ele>
        <time>2026-08-26T15:54:49+00:00</time>
      </trkpt>
      <trkpt lat="49.95846" lon="6.18841">
        <ele>325</ele>
        <time>2026-08-26T15:54:52+00:00</time>
      </trkpt>
      <trkpt lat="49.95857" lon="6.18829">
        <ele>324</ele>
        <time>2026-08-26T15:54:55+00:00</time>
      </trkpt>
      <trkpt lat="49.95866" lon="6.18826">
        <ele>324</ele>
        <time>2026-08-26T15:54:58+00:00</time>
      </trkpt>
      <trkpt lat="49.95883" lon="6.18829">
        <ele>321</ele>
        <time>2026-08-26T15:55:01+00:00</time>
      </trkpt>
      <trkpt lat="49.95903" lon="6.18836">
        <ele>320</ele>
        <time>2026-08-26T15:55:04+00:00</time>
      </trkpt>
      <trkpt lat="49.95904" lon="6.18837">
        <ele>320</ele>
        <time>2026-08-26T15:55:07+00:00</time>
      </trkpt>
      <trkpt lat="49.95904" lon="6.18829">
        <ele>318</ele>
        <time>2026-08-26T15:55:10+00:00</time>
      </trkpt>
      <trkpt lat="49.959" lon="6.18822">
        <ele>318</ele>
        <time>2026-08-26T15:55:13+00:00</time>
      </trkpt>
      <trkpt lat="49.95876" lon="6.18795">
        <ele>313</ele>
        <time>2026-08-26T15:55:16+00:00</time>
      </trkpt>
      <trkpt lat="49.95867" lon="6.18782">
        <ele>311</ele>
        <time>2026-08-26T15:55:19+00:00</time>
      </trkpt>
      <trkpt lat="49.9586" lon="6.18767">
        <ele>305</ele>
        <time>2026-08-26T15:55:22+00:00</time>
      </trkpt>
      <trkpt lat="49.95867" lon="6.18768">
        <ele>304</ele>
        <time>2026-08-26T15:55:25+00:00</time>
      </trkpt>
      <trkpt lat="49.95861" lon="6.18756">
        <ele>300</ele>
        <time>2026-08-26T15:55:28+00:00</time>
      </trkpt>
      <trkpt lat="49.95849" lon="6.18743">
        <ele>301</ele>
        <time>2026-08-26T15:55:31+00:00</time>
      </trkpt>
      <trkpt lat="49.95852" lon="6.18742">
        <ele>296</ele>
        <time>2026-08-26T15:55:34+00:00</time>
      </trkpt>
      <trkpt lat="49.95855" lon="6.18745">
        <ele>296</ele>
        <time>2026-08-26T15:55:37+00:00</time>
      </trkpt>
      <trkpt lat="49.95867" lon="6.18741">
        <ele>297</ele>
        <time>2026-08-26T15:55:40+00:00</time>
      </trkpt>
      <trkpt lat="49.9588" lon="6.18726">
        <ele>292</ele>
        <time>2026-08-26T15:55:43+00:00</time>
      </trkpt>
      <trkpt lat="49.9589" lon="6.18707">
        <ele>287</ele>
        <time>2026-08-26T15:55:46+00:00</time>
      </trkpt>
      <trkpt lat="49.95891" lon="6.187">
        <ele>287</ele>
        <time>2026-08-26T15:55:49+00:00</time>
      </trkpt>
      <trkpt lat="49.95913" lon="6.18658">
        <ele>276</ele>
        <time>2026-08-26T15:55:52+00:00</time>
      </trkpt>
      <trkpt lat="49.95928" lon="6.18635">
        <ele>274</ele>
        <time>2026-08-26T15:55:55+00:00</time>
      </trkpt>
      <trkpt lat="49.95953" lon="6.18605">
        <ele>273</ele>
        <time>2026-08-26T15:55:58+00:00</time>
      </trkpt>
      <trkpt lat="49.95978" lon="6.18575">
        <ele>270</ele>
        <time>2026-08-26T15:56:01+00:00</time>
      </trkpt>
      <trkpt lat="49.96019" lon="6.18525">
        <ele>264</ele>
        <time>2026-08-26T15:56:04+00:00</time>
      </trkpt>
      <trkpt lat="49.96037" lon="6.18504">
        <ele>262</ele>
        <time>2026-08-26T15:56:07+00:00</time>
      </trkpt>
      <trkpt lat="49.9606" lon="6.18482">
        <ele>259</ele>
        <time>2026-08-26T15:56:10+00:00</time>
      </trkpt>
      <trkpt lat="49.961" lon="6.18446">
        <ele>256</ele>
        <time>2026-08-26T15:56:13+00:00</time>
      </trkpt>
      <trkpt lat="49.96103" lon="6.18441">
        <ele>255</ele>
        <time>2026-08-26T15:56:16+00:00</time>
      </trkpt>
      <trkpt lat="49.96103" lon="6.18438">
        <ele>252</ele>
        <time>2026-08-26T15:56:19+00:00</time>
      </trkpt>
      <trkpt lat="49.96085" lon="6.18451">
        <ele>254</ele>
        <time>2026-08-26T15:56:22+00:00</time>
      </trkpt>
      <trkpt lat="49.96059" lon="6.18459">
        <ele>252</ele>
        <time>2026-08-26T15:56:25+00:00</time>
      </trkpt>
      <trkpt lat="49.9602" lon="6.18471">
        <ele>252</ele>
        <time>2026-08-26T15:56:28+00:00</time>
      </trkpt>
      <trkpt lat="49.96005" lon="6.18473">
        <ele>251</ele>
        <time>2026-08-26T15:56:31+00:00</time>
      </trkpt>
      <trkpt lat="49.95977" lon="6.1847">
        <ele>244</ele>
        <time>2026-08-26T15:56:34+00:00</time>
      </trkpt>
      <trkpt lat="49.95966" lon="6.18473">
        <ele>242</ele>
        <time>2026-08-26T15:56:37+00:00</time>
      </trkpt>
      <trkpt lat="49.95943" lon="6.18494">
        <ele>244</ele>
        <time>2026-08-26T15:56:40+00:00</time>
      </trkpt>
      <trkpt lat="49.95921" lon="6.18515">
        <ele>243</ele>
        <time>2026-08-26T15:56:43+00:00</time>
      </trkpt>
      <trkpt lat="49.95894" lon="6.1854">
        <ele>243</ele>
        <time>2026-08-26T15:56:46+00:00</time>
      </trkpt>
      <trkpt lat="49.95868" lon="6.18564">
        <ele>243</ele>
        <time>2026-08-26T15:56:49+00:00</time>
      </trkpt>
      <trkpt lat="49.95842" lon="6.18589">
        <ele>240</ele>
        <time>2026-08-26T15:56:52+00:00</time>
      </trkpt>
      <trkpt lat="49.95806" lon="6.18622">
        <ele>236</ele>
        <time>2026-08-26T15:56:55+00:00</time>
      </trkpt>
      <trkpt lat="49.95768" lon="6.18646">
        <ele>228</ele>
        <time>2026-08-26T15:56:58+00:00</time>
      </trkpt>
      <trkpt lat="49.95759" lon="6.18656">
        <ele>225</ele>
        <time>2026-08-26T15:57:01+00:00</time>
      </trkpt>
      <trkpt lat="49.95752" lon="6.18668">
        <ele>226</ele>
        <time>2026-08-26T15:57:04+00:00</time>
      </trkpt>
      <trkpt lat="49.95747" lon="6.18689">
        <ele>225</ele>
        <time>2026-08-26T15:57:07+00:00</time>
      </trkpt>
      <trkpt lat="49.95742" lon="6.18697">
        <ele>226</ele>
        <time>2026-08-26T15:57:10+00:00</time>
      </trkpt>
      <trkpt lat="49.95739" lon="6.18706">
        <ele>225</ele>
        <time>2026-08-26T15:57:13+00:00</time>
      </trkpt>
      <trkpt lat="49.95737" lon="6.18719">
        <ele>225</ele>
        <time>2026-08-26T15:57:16+00:00</time>
      </trkpt>
      <trkpt lat="49.95733" lon="6.18728">
        <ele>226</ele>
        <time>2026-08-26T15:57:19+00:00</time>
      </trkpt>
      <trkpt lat="49.95733" lon="6.1875">
        <ele>228</ele>
        <time>2026-08-26T15:57:22+00:00</time>
      </trkpt>
      <trkpt lat="49.95729" lon="6.1877">
        <ele>226</ele>
        <time>2026-08-26T15:57:25+00:00</time>
      </trkpt>
      <trkpt lat="49.9572" lon="6.18797">
        <ele>226</ele>
        <time>2026-08-26T15:57:28+00:00</time>
      </trkpt>
      <trkpt lat="49.95718" lon="6.18814">
        <ele>225</ele>
        <time>2026-08-26T15:57:31+00:00</time>
      </trkpt>
      <trkpt lat="49.95718" lon="6.1884">
        <ele>226</ele>
        <time>2026-08-26T15:57:34+00:00</time>
      </trkpt>
      <trkpt lat="49.9572" lon="6.18855">
        <ele>233</ele>
        <time>2026-08-26T15:57:37+00:00</time>
      </trkpt>
      <trkpt lat="49.95719" lon="6.18867">
        <ele>226</ele>
        <time>2026-08-26T15:57:40+00:00</time>
      </trkpt>
      <trkpt lat="49.95716" lon="6.18872">
        <ele>227</ele>
        <time>2026-08-26T15:57:43+00:00</time>
      </trkpt>
      <trkpt lat="49.95716" lon="6.18882">
        <ele>229</ele>
        <time>2026-08-26T15:57:46+00:00</time>
      </trkpt>
      <trkpt lat="49.95711" lon="6.18893">
        <ele>229</ele>
        <time>2026-08-26T15:57:49+00:00</time>
      </trkpt>
      <trkpt lat="49.957" lon="6.18902">
        <ele>229</ele>
        <time>2026-08-26T15:57:52+00:00</time>
      </trkpt>
      <trkpt lat="49.95679" lon="6.18911">
        <ele>230</ele>
        <time>2026-08-26T15:57:55+00:00</time>
      </trkpt>
      <trkpt lat="49.95661" lon="6.18914">
        <ele>229</ele>
        <time>2026-08-26T15:57:58+00:00</time>
      </trkpt>
      <trkpt lat="49.95639" lon="6.1891">
        <ele>229</ele>
        <time>2026-08-26T15:58:01+00:00</time>
      </trkpt>
      <trkpt lat="49.95622" lon="6.18903">
        <ele>230</ele>
        <time>2026-08-26T15:58:04+00:00</time>
      </trkpt>
      <trkpt lat="49.95601" lon="6.18888">
        <ele>230</ele>
        <time>2026-08-26T15:58:07+00:00</time>
      </trkpt>
      <trkpt lat="49.95582" lon="6.18867">
        <ele>232</ele>
        <time>2026-08-26T15:58:10+00:00</time>
      </trkpt>
      <trkpt lat="49.95566" lon="6.18845">
        <ele>235</ele>
        <time>2026-08-26T15:58:13+00:00</time>
      </trkpt>
      <trkpt lat="49.95549" lon="6.18822">
        <ele>236</ele>
        <time>2026-08-26T15:58:16+00:00</time>
      </trkpt>
      <trkpt lat="49.95528" lon="6.18791">
        <ele>232</ele>
        <time>2026-08-26T15:58:19+00:00</time>
      </trkpt>
      <trkpt lat="49.95487" lon="6.18729">
        <ele>230</ele>
        <time>2026-08-26T15:58:22+00:00</time>
      </trkpt>
      <trkpt lat="49.95463" lon="6.18695">
        <ele>233</ele>
        <time>2026-08-26T15:58:25+00:00</time>
      </trkpt>
      <trkpt lat="49.95439" lon="6.18662">
        <ele>232</ele>
        <time>2026-08-26T15:58:28+00:00</time>
      </trkpt>
      <trkpt lat="49.95392" lon="6.18597">
        <ele>232</ele>
        <time>2026-08-26T15:58:31+00:00</time>
      </trkpt>
      <trkpt lat="49.95376" lon="6.18563">
        <ele>237</ele>
        <time>2026-08-26T15:58:34+00:00</time>
      </trkpt>
      <trkpt lat="49.9535" lon="6.18507">
        <ele>239</ele>
        <time>2026-08-26T15:58:37+00:00</time>
      </trkpt>
      <trkpt lat="49.95339" lon="6.18476">
        <ele>237</ele>
        <time>2026-08-26T15:58:40+00:00</time>
      </trkpt>
      <trkpt lat="49.95327" lon="6.18443">
        <ele>236</ele>
        <time>2026-08-26T15:58:43+00:00</time>
      </trkpt>
      <trkpt lat="49.95314" lon="6.18397">
        <ele>231</ele>
        <time>2026-08-26T15:58:46+00:00</time>
      </trkpt>
      <trkpt lat="49.953" lon="6.18352">
        <ele>230</ele>
        <time>2026-08-26T15:58:49+00:00</time>
      </trkpt>
      <trkpt lat="49.95275" lon="6.18266">
        <ele>230</ele>
        <time>2026-08-26T15:58:52+00:00</time>
      </trkpt>
      <trkpt lat="49.95262" lon="6.18225">
        <ele>231</ele>
        <time>2026-08-26T15:58:55+00:00</time>
      </trkpt>
      <trkpt lat="49.9525" lon="6.18183">
        <ele>230</ele>
        <time>2026-08-26T15:58:58+00:00</time>
      </trkpt>
      <trkpt lat="49.95236" lon="6.18138">
        <ele>230</ele>
        <time>2026-08-26T15:59:01+00:00</time>
      </trkpt>
      <trkpt lat="49.95224" lon="6.18103">
        <ele>230</ele>
        <time>2026-08-26T15:59:04+00:00</time>
      </trkpt>
      <trkpt lat="49.95207" lon="6.18052">
        <ele>229</ele>
        <time>2026-08-26T15:59:07+00:00</time>
      </trkpt>
      <trkpt lat="49.95203" lon="6.18028">
        <ele>229</ele>
        <time>2026-08-26T15:59:10+00:00</time>
      </trkpt>
      <trkpt lat="49.95202" lon="6.18001">
        <ele>229</ele>
        <time>2026-08-26T15:59:13+00:00</time>
      </trkpt>
      <trkpt lat="49.95203" lon="6.17976">
        <ele>228</ele>
        <time>2026-08-26T15:59:16+00:00</time>
      </trkpt>
      <trkpt lat="49.95207" lon="6.17951">
        <ele>229</ele>
        <time>2026-08-26T15:59:19+00:00</time>
      </trkpt>
      <trkpt lat="49.95222" lon="6.17917">
        <ele>229</ele>
        <time>2026-08-26T15:59:22+00:00</time>
      </trkpt>
      <trkpt lat="49.95244" lon="6.17865">
        <ele>230</ele>
        <time>2026-08-26T15:59:25+00:00</time>
      </trkpt>
      <trkpt lat="49.95263" lon="6.17824">
        <ele>232</ele>
        <time>2026-08-26T15:59:28+00:00</time>
      </trkpt>
      <trkpt lat="49.95276" lon="6.17797">
        <ele>237</ele>
        <time>2026-08-26T15:59:31+00:00</time>
      </trkpt>
      <trkpt lat="49.9529" lon="6.17769">
        <ele>237</ele>
        <time>2026-08-26T15:59:34+00:00</time>
      </trkpt>
      <trkpt lat="49.95309" lon="6.17746">
        <ele>234</ele>
        <time>2026-08-26T15:59:37+00:00</time>
      </trkpt>
      <trkpt lat="49.95331" lon="6.17718">
        <ele>230</ele>
        <time>2026-08-26T15:59:40+00:00</time>
      </trkpt>
      <trkpt lat="49.9534" lon="6.17713">
        <ele>230</ele>
        <time>2026-08-26T15:59:43+00:00</time>
      </trkpt>
      <trkpt lat="49.95345" lon="6.1771">
        <ele>229</ele>
        <time>2026-08-26T15:59:46+00:00</time>
      </trkpt>
      <trkpt lat="49.95344" lon="6.17707">
        <ele>229</ele>
        <time>2026-08-26T15:59:49+00:00</time>
      </trkpt>
      <trkpt lat="49.95345" lon="6.1771">
        <ele>229</ele>
        <time>2026-08-26T15:59:52+00:00</time>
      </trkpt>
      <trkpt lat="49.95365" lon="6.17701">
        <ele>229</ele>
        <time>2026-08-26T15:59:55+00:00</time>
      </trkpt>
      <trkpt lat="49.95364" lon="6.17693">
        <ele>229</ele>
        <time>2026-08-26T15:59:58+00:00</time>
      </trkpt>
      <trkpt lat="49.95399" lon="6.17684">
        <ele>229</ele>
        <time>2026-08-26T16:00:01+00:00</time>
      </trkpt>
      <trkpt lat="49.95408" lon="6.17682">
        <ele>229</ele>
        <time>2026-08-26T16:00:04+00:00</time>
      </trkpt>
      <trkpt lat="49.95424" lon="6.17678">
        <ele>229</ele>
        <time>2026-08-26T16:00:07+00:00</time>
      </trkpt>
      <trkpt lat="49.95457" lon="6.17671">
        <ele>229</ele>
        <time>2026-08-26T16:00:10+00:00</time>
      </trkpt>
      <trkpt lat="49.9548" lon="6.17666">
        <ele>229</ele>
        <time>2026-08-26T16:00:13+00:00</time>
      </trkpt>
      <trkpt lat="49.95509" lon="6.1766">
        <ele>229</ele>
        <time>2026-08-26T16:00:16+00:00</time>
      </trkpt>
      <trkpt lat="49.9551" lon="6.17667">
        <ele>230</ele>
        <time>2026-08-26T16:00:19+00:00</time>
      </trkpt>
      <trkpt lat="49.95517" lon="6.17666">
        <ele>230</ele>
        <time>2026-08-26T16:00:22+00:00</time>
      </trkpt>
      <trkpt lat="49.95546" lon="6.1766">
        <ele>229</ele>
        <time>2026-08-26T16:00:25+00:00</time>
      </trkpt>
      <trkpt lat="49.95576" lon="6.17654">
        <ele>231</ele>
        <time>2026-08-26T16:00:28+00:00</time>
      </trkpt>
      <trkpt lat="49.95605" lon="6.17649">
        <ele>231</ele>
        <time>2026-08-26T16:00:31+00:00</time>
      </trkpt>
      <trkpt lat="49.95635" lon="6.17643">
        <ele>232</ele>
        <time>2026-08-26T16:00:34+00:00</time>
      </trkpt>
      <trkpt lat="49.95669" lon="6.1764">
        <ele>232</ele>
        <time>2026-08-26T16:00:37+00:00</time>
      </trkpt>
      <trkpt lat="49.95704" lon="6.17636">
        <ele>233</ele>
        <time>2026-08-26T16:00:40+00:00</time>
      </trkpt>
      <trkpt lat="49.95738" lon="6.17633">
        <ele>232</ele>
        <time>2026-08-26T16:00:43+00:00</time>
      </trkpt>
      <trkpt lat="49.958" lon="6.17627">
        <ele>232</ele>
        <time>2026-08-26T16:00:46+00:00</time>
      </trkpt>
      <trkpt lat="49.95825" lon="6.17624">
        <ele>232</ele>
        <time>2026-08-26T16:00:49+00:00</time>
      </trkpt>
      <trkpt lat="49.95838" lon="6.17622">
        <ele>232</ele>
        <time>2026-08-26T16:00:52+00:00</time>
      </trkpt>
      <trkpt lat="49.9586" lon="6.17615">
        <ele>231</ele>
        <time>2026-08-26T16:00:55+00:00</time>
      </trkpt>
      <trkpt lat="49.95895" lon="6.17605">
        <ele>231</ele>
        <time>2026-08-26T16:00:58+00:00</time>
      </trkpt>
      <trkpt lat="49.95921" lon="6.17595">
        <ele>231</ele>
        <time>2026-08-26T16:01:01+00:00</time>
      </trkpt>
      <trkpt lat="49.95966" lon="6.17579">
        <ele>231</ele>
        <time>2026-08-26T16:01:04+00:00</time>
      </trkpt>
      <trkpt lat="49.96007" lon="6.1757">
        <ele>231</ele>
        <time>2026-08-26T16:01:07+00:00</time>
      </trkpt>
      <trkpt lat="49.96042" lon="6.17567">
        <ele>231</ele>
        <time>2026-08-26T16:01:10+00:00</time>
      </trkpt>
      <trkpt lat="49.96068" lon="6.17568">
        <ele>231</ele>
        <time>2026-08-26T16:01:13+00:00</time>
      </trkpt>
      <trkpt lat="49.96108" lon="6.1757">
        <ele>229</ele>
        <time>2026-08-26T16:01:16+00:00</time>
      </trkpt>
      <trkpt lat="49.96136" lon="6.17571">
        <ele>231</ele>
        <time>2026-08-26T16:01:19+00:00</time>
      </trkpt>
      <trkpt lat="49.96147" lon="6.17567">
        <ele>229</ele>
        <time>2026-08-26T16:01:22+00:00</time>
      </trkpt>
      <trkpt lat="49.9615" lon="6.17565">
        <ele>229</ele>
        <time>2026-08-26T16:01:25+00:00</time>
      </trkpt>
      <trkpt lat="49.96164" lon="6.17553">
        <ele>233</ele>
        <time>2026-08-26T16:01:28+00:00</time>
      </trkpt>
      <trkpt lat="49.96176" lon="6.17527">
        <ele>240</ele>
        <time>2026-08-26T16:01:31+00:00</time>
      </trkpt>
      <trkpt lat="49.96183" lon="6.17495">
        <ele>247</ele>
        <time>2026-08-26T16:01:34+00:00</time>
      </trkpt>
      <trkpt lat="49.96189" lon="6.1746">
        <ele>251</ele>
        <time>2026-08-26T16:01:37+00:00</time>
      </trkpt>
      <trkpt lat="49.96197" lon="6.17418">
        <ele>250</ele>
        <time>2026-08-26T16:01:40+00:00</time>
      </trkpt>
      <trkpt lat="49.96203" lon="6.17366">
        <ele>249</ele>
        <time>2026-08-26T16:01:43+00:00</time>
      </trkpt>
      <trkpt lat="49.96204" lon="6.17327">
        <ele>249</ele>
        <time>2026-08-26T16:01:46+00:00</time>
      </trkpt>
      <trkpt lat="49.96206" lon="6.17275">
        <ele>253</ele>
        <time>2026-08-26T16:01:49+00:00</time>
      </trkpt>
      <trkpt lat="49.96214" lon="6.17227">
        <ele>256</ele>
        <time>2026-08-26T16:01:52+00:00</time>
      </trkpt>
      <trkpt lat="49.96225" lon="6.17185">
        <ele>258</ele>
        <time>2026-08-26T16:01:55+00:00</time>
      </trkpt>
      <trkpt lat="49.96236" lon="6.17143">
        <ele>258</ele>
        <time>2026-08-26T16:01:58+00:00</time>
      </trkpt>
      <trkpt lat="49.96247" lon="6.17101">
        <ele>258</ele>
        <time>2026-08-26T16:02:01+00:00</time>
      </trkpt>
      <trkpt lat="49.96254" lon="6.1708">
        <ele>256</ele>
        <time>2026-08-26T16:02:04+00:00</time>
      </trkpt>
      <trkpt lat="49.96265" lon="6.17054">
        <ele>258</ele>
        <time>2026-08-26T16:02:07+00:00</time>
      </trkpt>
      <trkpt lat="49.96267" lon="6.1705">
        <ele>258</ele>
        <time>2026-08-26T16:02:10+00:00</time>
      </trkpt>
      <trkpt lat="49.96282" lon="6.17027">
        <ele>249</ele>
        <time>2026-08-26T16:02:13+00:00</time>
      </trkpt>
      <trkpt lat="49.96299" lon="6.17002">
        <ele>244</ele>
        <time>2026-08-26T16:02:16+00:00</time>
      </trkpt>
      <trkpt lat="49.96299" lon="6.16994">
        <ele>245</ele>
        <time>2026-08-26T16:02:19+00:00</time>
      </trkpt>
      <trkpt lat="49.9631" lon="6.16979">
        <ele>231</ele>
        <time>2026-08-26T16:02:22+00:00</time>
      </trkpt>
      <trkpt lat="49.96324" lon="6.16959">
        <ele>231</ele>
        <time>2026-08-26T16:02:25+00:00</time>
      </trkpt>
      <trkpt lat="49.96322" lon="6.16956">
        <ele>229</ele>
        <time>2026-08-26T16:02:28+00:00</time>
      </trkpt>
      <trkpt lat="49.96304" lon="6.16928">
        <ele>232</ele>
        <time>2026-08-26T16:02:31+00:00</time>
      </trkpt>
      <trkpt lat="49.96302" lon="6.16925">
        <ele>232</ele>
        <time>2026-08-26T16:02:34+00:00</time>
      </trkpt>
      <trkpt lat="49.96286" lon="6.16901">
        <ele>235</ele>
        <time>2026-08-26T16:02:37+00:00</time>
      </trkpt>
      <trkpt lat="49.96268" lon="6.16874">
        <ele>240</ele>
        <time>2026-08-26T16:02:40+00:00</time>
      </trkpt>
      <trkpt lat="49.96251" lon="6.16847">
        <ele>240</ele>
        <time>2026-08-26T16:02:43+00:00</time>
      </trkpt>
      <trkpt lat="49.96231" lon="6.16814">
        <ele>243</ele>
        <time>2026-08-26T16:02:46+00:00</time>
      </trkpt>
      <trkpt lat="49.96209" lon="6.16784">
        <ele>251</ele>
        <time>2026-08-26T16:02:49+00:00</time>
      </trkpt>
      <trkpt lat="49.96188" lon="6.16754">
        <ele>254</ele>
        <time>2026-08-26T16:02:52+00:00</time>
      </trkpt>
      <trkpt lat="49.96165" lon="6.16723">
        <ele>256</ele>
        <time>2026-08-26T16:02:55+00:00</time>
      </trkpt>
      <trkpt lat="49.96153" lon="6.16711">
        <ele>257</ele>
        <time>2026-08-26T16:02:58+00:00</time>
      </trkpt>
      <trkpt lat="49.96131" lon="6.16703">
        <ele>265</ele>
        <time>2026-08-26T16:03:01+00:00</time>
      </trkpt>
      <trkpt lat="49.96131" lon="6.16716">
        <ele>263</ele>
        <time>2026-08-26T16:03:04+00:00</time>
      </trkpt>
      <trkpt lat="49.96143" lon="6.1673">
        <ele>270</ele>
        <time>2026-08-26T16:03:07+00:00</time>
      </trkpt>
      <trkpt lat="49.96164" lon="6.16769">
        <ele>272</ele>
        <time>2026-08-26T16:03:10+00:00</time>
      </trkpt>
      <trkpt lat="49.96171" lon="6.16786">
        <ele>275</ele>
        <time>2026-08-26T16:03:13+00:00</time>
      </trkpt>
      <trkpt lat="49.96179" lon="6.16815">
        <ele>274</ele>
        <time>2026-08-26T16:03:16+00:00</time>
      </trkpt>
      <trkpt lat="49.96192" lon="6.16858">
        <ele>277</ele>
        <time>2026-08-26T16:03:19+00:00</time>
      </trkpt>
      <trkpt lat="49.96202" lon="6.16895">
        <ele>286</ele>
        <time>2026-08-26T16:03:22+00:00</time>
      </trkpt>
      <trkpt lat="49.96217" lon="6.16951">
        <ele>293</ele>
        <time>2026-08-26T16:03:25+00:00</time>
      </trkpt>
      <trkpt lat="49.96217" lon="6.16966">
        <ele>295</ele>
        <time>2026-08-26T16:03:28+00:00</time>
      </trkpt>
      <trkpt lat="49.96209" lon="6.16983">
        <ele>301</ele>
        <time>2026-08-26T16:03:31+00:00</time>
      </trkpt>
      <trkpt lat="49.96203" lon="6.17009">
        <ele>301</ele>
        <time>2026-08-26T16:03:34+00:00</time>
      </trkpt>
      <trkpt lat="49.96199" lon="6.17015">
        <ele>305</ele>
        <time>2026-08-26T16:03:37+00:00</time>
      </trkpt>
      <trkpt lat="49.96187" lon="6.17025">
        <ele>306</ele>
        <time>2026-08-26T16:03:40+00:00</time>
      </trkpt>
      <trkpt lat="49.96159" lon="6.17054">
        <ele>306</ele>
        <time>2026-08-26T16:03:43+00:00</time>
      </trkpt>
      <trkpt lat="49.96153" lon="6.17064">
        <ele>306</ele>
        <time>2026-08-26T16:03:46+00:00</time>
      </trkpt>
      <trkpt lat="49.96154" lon="6.17074">
        <ele>306</ele>
        <time>2026-08-26T16:03:49+00:00</time>
      </trkpt>
      <trkpt lat="49.96159" lon="6.17079">
        <ele>306</ele>
        <time>2026-08-26T16:03:52+00:00</time>
      </trkpt>
      <trkpt lat="49.96161" lon="6.17085">
        <ele>306</ele>
        <time>2026-08-26T16:03:55+00:00</time>
      </trkpt>
      <trkpt lat="49.96161" lon="6.17089">
        <ele>306</ele>
        <time>2026-08-26T16:03:58+00:00</time>
      </trkpt>
      <trkpt lat="49.96154" lon="6.17095">
        <ele>307</ele>
        <time>2026-08-26T16:04:01+00:00</time>
      </trkpt>
      <trkpt lat="49.96147" lon="6.17098">
        <ele>307</ele>
        <time>2026-08-26T16:04:04+00:00</time>
      </trkpt>
      <trkpt lat="49.96143" lon="6.17099">
        <ele>307</ele>
        <time>2026-08-26T16:04:07+00:00</time>
      </trkpt>
      <trkpt lat="49.9614" lon="6.17111">
        <ele>308</ele>
        <time>2026-08-26T16:04:10+00:00</time>
      </trkpt>
      <trkpt lat="49.96134" lon="6.17117">
        <ele>308</ele>
        <time>2026-08-26T16:04:13+00:00</time>
      </trkpt>
      <trkpt lat="49.96128" lon="6.17118">
        <ele>309</ele>
        <time>2026-08-26T16:04:16+00:00</time>
      </trkpt>
      <trkpt lat="49.96123" lon="6.17114">
        <ele>309</ele>
        <time>2026-08-26T16:04:19+00:00</time>
      </trkpt>
      <trkpt lat="49.9611" lon="6.17093">
        <ele>311</ele>
        <time>2026-08-26T16:04:22+00:00</time>
      </trkpt>
      <trkpt lat="49.96113" lon="6.17049">
        <ele>315</ele>
        <time>2026-08-26T16:04:25+00:00</time>
      </trkpt>
      <trkpt lat="49.96116" lon="6.17029">
        <ele>316</ele>
        <time>2026-08-26T16:04:28+00:00</time>
      </trkpt>
      <trkpt lat="49.96121" lon="6.17008">
        <ele>320</ele>
        <time>2026-08-26T16:04:31+00:00</time>
      </trkpt>
      <trkpt lat="49.9613" lon="6.16982">
        <ele>324</ele>
        <time>2026-08-26T16:04:34+00:00</time>
      </trkpt>
      <trkpt lat="49.96147" lon="6.16948">
        <ele>326</ele>
        <time>2026-08-26T16:04:37+00:00</time>
      </trkpt>
      <trkpt lat="49.96147" lon="6.16943">
        <ele>326</ele>
        <time>2026-08-26T16:04:40+00:00</time>
      </trkpt>
      <trkpt lat="49.96146" lon="6.16942">
        <ele>326</ele>
        <time>2026-08-26T16:04:43+00:00</time>
      </trkpt>
      <trkpt lat="49.96144" lon="6.16939">
        <ele>328</ele>
        <time>2026-08-26T16:04:46+00:00</time>
      </trkpt>
      <trkpt lat="49.9614" lon="6.16939">
        <ele>331</ele>
        <time>2026-08-26T16:04:49+00:00</time>
      </trkpt>
      <trkpt lat="49.96124" lon="6.16968">
        <ele>327</ele>
        <time>2026-08-26T16:04:52+00:00</time>
      </trkpt>
      <trkpt lat="49.96113" lon="6.1698">
        <ele>326</ele>
        <time>2026-08-26T16:04:55+00:00</time>
      </trkpt>
      <trkpt lat="49.96101" lon="6.16986">
        <ele>327</ele>
        <time>2026-08-26T16:04:58+00:00</time>
      </trkpt>
      <trkpt lat="49.96077" lon="6.16984">
        <ele>329</ele>
        <time>2026-08-26T16:05:01+00:00</time>
      </trkpt>
      <trkpt lat="49.96055" lon="6.16972">
        <ele>329</ele>
        <time>2026-08-26T16:05:04+00:00</time>
      </trkpt>
      <trkpt lat="49.96031" lon="6.16949">
        <ele>334</ele>
        <time>2026-08-26T16:05:07+00:00</time>
      </trkpt>
      <trkpt lat="49.95985" lon="6.16906">
        <ele>339</ele>
        <time>2026-08-26T16:05:10+00:00</time>
      </trkpt>
      <trkpt lat="49.95957" lon="6.16882">
        <ele>343</ele>
        <time>2026-08-26T16:05:13+00:00</time>
      </trkpt>
      <trkpt lat="49.95944" lon="6.16877">
        <ele>345</ele>
        <time>2026-08-26T16:05:16+00:00</time>
      </trkpt>
      <trkpt lat="49.95924" lon="6.16876">
        <ele>347</ele>
        <time>2026-08-26T16:05:19+00:00</time>
      </trkpt>
      <trkpt lat="49.95897" lon="6.16874">
        <ele>357</ele>
        <time>2026-08-26T16:05:22+00:00</time>
      </trkpt>
      <trkpt lat="49.95879" lon="6.16869">
        <ele>365</ele>
        <time>2026-08-26T16:05:25+00:00</time>
      </trkpt>
      <trkpt lat="49.9585" lon="6.16866">
        <ele>367</ele>
        <time>2026-08-26T16:05:28+00:00</time>
      </trkpt>
      <trkpt lat="49.95829" lon="6.16877">
        <ele>366</ele>
        <time>2026-08-26T16:05:31+00:00</time>
      </trkpt>
      <trkpt lat="49.95815" lon="6.16888">
        <ele>366</ele>
        <time>2026-08-26T16:05:34+00:00</time>
      </trkpt>
      <trkpt lat="49.95814" lon="6.16889">
        <ele>366</ele>
        <time>2026-08-26T16:05:37+00:00</time>
      </trkpt>
      <trkpt lat="49.95808" lon="6.16887">
        <ele>366</ele>
        <time>2026-08-26T16:05:40+00:00</time>
      </trkpt>
      <trkpt lat="49.95808" lon="6.16882">
        <ele>366</ele>
        <time>2026-08-26T16:05:43+00:00</time>
      </trkpt>
      <trkpt lat="49.95809" lon="6.16877">
        <ele>369</ele>
        <time>2026-08-26T16:05:46+00:00</time>
      </trkpt>
      <trkpt lat="49.95835" lon="6.16855">
        <ele>368</ele>
        <time>2026-08-26T16:05:49+00:00</time>
      </trkpt>
      <trkpt lat="49.95866" lon="6.16837">
        <ele>371</ele>
        <time>2026-08-26T16:05:52+00:00</time>
      </trkpt>
      <trkpt lat="49.95872" lon="6.16829">
        <ele>366</ele>
        <time>2026-08-26T16:05:55+00:00</time>
      </trkpt>
      <trkpt lat="49.95874" lon="6.1682">
        <ele>366</ele>
        <time>2026-08-26T16:05:58+00:00</time>
      </trkpt>
      <trkpt lat="49.95851" lon="6.16811">
        <ele>373</ele>
        <time>2026-08-26T16:06:01+00:00</time>
      </trkpt>
      <trkpt lat="49.95841" lon="6.16803">
        <ele>375</ele>
        <time>2026-08-26T16:06:04+00:00</time>
      </trkpt>
      <trkpt lat="49.95826" lon="6.16791">
        <ele>379</ele>
        <time>2026-08-26T16:06:07+00:00</time>
      </trkpt>
      <trkpt lat="49.95818" lon="6.16779">
        <ele>380</ele>
        <time>2026-08-26T16:06:10+00:00</time>
      </trkpt>
      <trkpt lat="49.95806" lon="6.16765">
        <ele>382</ele>
        <time>2026-08-26T16:06:13+00:00</time>
      </trkpt>
      <trkpt lat="49.95788" lon="6.16742">
        <ele>385</ele>
        <time>2026-08-26T16:06:16+00:00</time>
      </trkpt>
      <trkpt lat="49.95765" lon="6.16713">
        <ele>389</ele>
        <time>2026-08-26T16:06:19+00:00</time>
      </trkpt>
      <trkpt lat="49.95743" lon="6.16684">
        <ele>392</ele>
        <time>2026-08-26T16:06:22+00:00</time>
      </trkpt>
      <trkpt lat="49.95718" lon="6.16652">
        <ele>392</ele>
        <time>2026-08-26T16:06:25+00:00</time>
      </trkpt>
      <trkpt lat="49.95704" lon="6.16632">
        <ele>392</ele>
        <time>2026-08-26T16:06:28+00:00</time>
      </trkpt>
      <trkpt lat="49.95698" lon="6.16619">
        <ele>393</ele>
        <time>2026-08-26T16:06:31+00:00</time>
      </trkpt>
      <trkpt lat="49.95689" lon="6.16594">
        <ele>394</ele>
        <time>2026-08-26T16:06:34+00:00</time>
      </trkpt>
      <trkpt lat="49.95679" lon="6.16566">
        <ele>397</ele>
        <time>2026-08-26T16:06:37+00:00</time>
      </trkpt>
      <trkpt lat="49.95666" lon="6.16541">
        <ele>400</ele>
        <time>2026-08-26T16:06:40+00:00</time>
      </trkpt>
      <trkpt lat="49.95643" lon="6.16508">
        <ele>402</ele>
        <time>2026-08-26T16:06:43+00:00</time>
      </trkpt>
      <trkpt lat="49.95618" lon="6.16484">
        <ele>404</ele>
        <time>2026-08-26T16:06:46+00:00</time>
      </trkpt>
      <trkpt lat="49.95592" lon="6.16459">
        <ele>404</ele>
        <time>2026-08-26T16:06:49+00:00</time>
      </trkpt>
      <trkpt lat="49.95562" lon="6.1643">
        <ele>405</ele>
        <time>2026-08-26T16:06:52+00:00</time>
      </trkpt>
      <trkpt lat="49.95539" lon="6.16415">
        <ele>405</ele>
        <time>2026-08-26T16:06:55+00:00</time>
      </trkpt>
      <trkpt lat="49.95506" lon="6.16394">
        <ele>409</ele>
        <time>2026-08-26T16:06:58+00:00</time>
      </trkpt>
      <trkpt lat="49.95496" lon="6.16391">
        <ele>409</ele>
        <time>2026-08-26T16:07:01+00:00</time>
      </trkpt>
      <trkpt lat="49.95478" lon="6.16375">
        <ele>410</ele>
        <time>2026-08-26T16:07:04+00:00</time>
      </trkpt>
      <trkpt lat="49.95459" lon="6.16351">
        <ele>411</ele>
        <time>2026-08-26T16:07:07+00:00</time>
      </trkpt>
      <trkpt lat="49.95435" lon="6.16319">
        <ele>415</ele>
        <time>2026-08-26T16:07:10+00:00</time>
      </trkpt>
      <trkpt lat="49.95402" lon="6.16281">
        <ele>422</ele>
        <time>2026-08-26T16:07:13+00:00</time>
      </trkpt>
      <trkpt lat="49.95393" lon="6.16269">
        <ele>425</ele>
        <time>2026-08-26T16:07:16+00:00</time>
      </trkpt>
      <trkpt lat="49.95392" lon="6.16263">
        <ele>425</ele>
        <time>2026-08-26T16:07:19+00:00</time>
      </trkpt>
      <trkpt lat="49.95391" lon="6.16245">
        <ele>423</ele>
        <time>2026-08-26T16:07:22+00:00</time>
      </trkpt>
      <trkpt lat="49.95388" lon="6.1623">
        <ele>426</ele>
        <time>2026-08-26T16:07:25+00:00</time>
      </trkpt>
      <trkpt lat="49.95382" lon="6.16211">
        <ele>424</ele>
        <time>2026-08-26T16:07:28+00:00</time>
      </trkpt>
      <trkpt lat="49.95373" lon="6.16191">
        <ele>425</ele>
        <time>2026-08-26T16:07:31+00:00</time>
      </trkpt>
      <trkpt lat="49.95357" lon="6.16165">
        <ele>430</ele>
        <time>2026-08-26T16:07:34+00:00</time>
      </trkpt>
      <trkpt lat="49.95328" lon="6.16117">
        <ele>441</ele>
        <time>2026-08-26T16:07:37+00:00</time>
      </trkpt>
      <trkpt lat="49.95311" lon="6.16082">
        <ele>448</ele>
        <time>2026-08-26T16:07:40+00:00</time>
      </trkpt>
      <trkpt lat="49.95297" lon="6.16031">
        <ele>461</ele>
        <time>2026-08-26T16:07:43+00:00</time>
      </trkpt>
      <trkpt lat="49.95291" lon="6.15995">
        <ele>461</ele>
        <time>2026-08-26T16:07:46+00:00</time>
      </trkpt>
      <trkpt lat="49.95284" lon="6.15951">
        <ele>462</ele>
        <time>2026-08-26T16:07:49+00:00</time>
      </trkpt>
      <trkpt lat="49.95275" lon="6.1591">
        <ele>463</ele>
        <time>2026-08-26T16:07:52+00:00</time>
      </trkpt>
      <trkpt lat="49.95258" lon="6.15837">
        <ele>463</ele>
        <time>2026-08-26T16:07:55+00:00</time>
      </trkpt>
      <trkpt lat="49.9525" lon="6.15788">
        <ele>458</ele>
        <time>2026-08-26T16:07:58+00:00</time>
      </trkpt>
      <trkpt lat="49.95254" lon="6.15767">
        <ele>458</ele>
        <time>2026-08-26T16:08:01+00:00</time>
      </trkpt>
      <trkpt lat="49.95261" lon="6.15755">
        <ele>457</ele>
        <time>2026-08-26T16:08:04+00:00</time>
      </trkpt>
      <trkpt lat="49.95281" lon="6.15739">
        <ele>457</ele>
        <time>2026-08-26T16:08:07+00:00</time>
      </trkpt>
      <trkpt lat="49.95285" lon="6.1573">
        <ele>456</ele>
        <time>2026-08-26T16:08:10+00:00</time>
      </trkpt>
      <trkpt lat="49.95285" lon="6.1573">
        <ele>456</ele>
        <time>2026-08-26T16:08:13+00:00</time>
      </trkpt>
      <trkpt lat="49.9527" lon="6.15717">
        <ele>458</ele>
        <time>2026-08-26T16:08:16+00:00</time>
      </trkpt>
      <trkpt lat="49.95258" lon="6.15702">
        <ele>459</ele>
        <time>2026-08-26T16:08:19+00:00</time>
      </trkpt>
      <trkpt lat="49.95241" lon="6.15676">
        <ele>462</ele>
        <time>2026-08-26T16:08:22+00:00</time>
      </trkpt>
      <trkpt lat="49.95224" lon="6.15649">
        <ele>463</ele>
        <time>2026-08-26T16:08:25+00:00</time>
      </trkpt>
      <trkpt lat="49.95206" lon="6.15622">
        <ele>464</ele>
        <time>2026-08-26T16:08:28+00:00</time>
      </trkpt>
      <trkpt lat="49.95194" lon="6.15608">
        <ele>464</ele>
        <time>2026-08-26T16:08:31+00:00</time>
      </trkpt>
      <trkpt lat="49.95172" lon="6.15588">
        <ele>465</ele>
        <time>2026-08-26T16:08:34+00:00</time>
      </trkpt>
      <trkpt lat="49.95162" lon="6.15583">
        <ele>466</ele>
        <time>2026-08-26T16:08:37+00:00</time>
      </trkpt>
      <trkpt lat="49.95155" lon="6.15583">
        <ele>467</ele>
        <time>2026-08-26T16:08:40+00:00</time>
      </trkpt>
      <trkpt lat="49.95149" lon="6.15588">
        <ele>467</ele>
        <time>2026-08-26T16:08:43+00:00</time>
      </trkpt>
      <trkpt lat="49.95145" lon="6.15596">
        <ele>468</ele>
        <time>2026-08-26T16:08:46+00:00</time>
      </trkpt>
      <trkpt lat="49.95143" lon="6.15609">
        <ele>468</ele>
        <time>2026-08-26T16:08:49+00:00</time>
      </trkpt>
      <trkpt lat="49.95143" lon="6.15628">
        <ele>470</ele>
        <time>2026-08-26T16:08:52+00:00</time>
      </trkpt>
      <trkpt lat="49.95148" lon="6.15668">
        <ele>472</ele>
        <time>2026-08-26T16:08:55+00:00</time>
      </trkpt>
      <trkpt lat="49.95152" lon="6.15708">
        <ele>473</ele>
        <time>2026-08-26T16:08:58+00:00</time>
      </trkpt>
      <trkpt lat="49.95158" lon="6.15759">
        <ele>476</ele>
        <time>2026-08-26T16:09:01+00:00</time>
      </trkpt>
      <trkpt lat="49.95158" lon="6.15783">
        <ele>477</ele>
        <time>2026-08-26T16:09:04+00:00</time>
      </trkpt>
      <trkpt lat="49.95156" lon="6.15806">
        <ele>477</ele>
        <time>2026-08-26T16:09:07+00:00</time>
      </trkpt>
      <trkpt lat="49.95143" lon="6.15861">
        <ele>480</ele>
        <time>2026-08-26T16:09:10+00:00</time>
      </trkpt>
      <trkpt lat="49.95138" lon="6.15879">
        <ele>482</ele>
        <time>2026-08-26T16:09:13+00:00</time>
      </trkpt>
      <trkpt lat="49.95135" lon="6.15886">
        <ele>482</ele>
        <time>2026-08-26T16:09:16+00:00</time>
      </trkpt>
      <trkpt lat="49.95124" lon="6.15909">
        <ele>484</ele>
        <time>2026-08-26T16:09:19+00:00</time>
      </trkpt>
      <trkpt lat="49.95113" lon="6.15921">
        <ele>485</ele>
        <time>2026-08-26T16:09:22+00:00</time>
      </trkpt>
      <trkpt lat="49.95101" lon="6.1593">
        <ele>486</ele>
        <time>2026-08-26T16:09:25+00:00</time>
      </trkpt>
      <trkpt lat="49.95083" lon="6.15937">
        <ele>487</ele>
        <time>2026-08-26T16:09:28+00:00</time>
      </trkpt>
      <trkpt lat="49.95075" lon="6.15938">
        <ele>488</ele>
        <time>2026-08-26T16:09:31+00:00</time>
      </trkpt>
      <trkpt lat="49.95068" lon="6.15936">
        <ele>489</ele>
        <time>2026-08-26T16:09:34+00:00</time>
      </trkpt>
      <trkpt lat="49.9506" lon="6.15932">
        <ele>489</ele>
        <time>2026-08-26T16:09:37+00:00</time>
      </trkpt>
      <trkpt lat="49.95053" lon="6.15923">
        <ele>490</ele>
        <time>2026-08-26T16:09:40+00:00</time>
      </trkpt>
      <trkpt lat="49.95047" lon="6.15911">
        <ele>491</ele>
        <time>2026-08-26T16:09:43+00:00</time>
      </trkpt>
      <trkpt lat="49.95041" lon="6.15894">
        <ele>491</ele>
        <time>2026-08-26T16:09:46+00:00</time>
      </trkpt>
      <trkpt lat="49.95031" lon="6.15859">
        <ele>493</ele>
        <time>2026-08-26T16:09:49+00:00</time>
      </trkpt>
      <trkpt lat="49.95013" lon="6.15791">
        <ele>495</ele>
        <time>2026-08-26T16:09:52+00:00</time>
      </trkpt>
      <trkpt lat="49.95" lon="6.15747">
        <ele>496</ele>
        <time>2026-08-26T16:09:55+00:00</time>
      </trkpt>
      <trkpt lat="49.94986" lon="6.15711">
        <ele>497</ele>
        <time>2026-08-26T16:09:58+00:00</time>
      </trkpt>
      <trkpt lat="49.94964" lon="6.15653">
        <ele>498</ele>
        <time>2026-08-26T16:10:01+00:00</time>
      </trkpt>
      <trkpt lat="49.94953" lon="6.15616">
        <ele>498</ele>
        <time>2026-08-26T16:10:04+00:00</time>
      </trkpt>
      <trkpt lat="49.94935" lon="6.15557">
        <ele>500</ele>
        <time>2026-08-26T16:10:07+00:00</time>
      </trkpt>
      <trkpt lat="49.94922" lon="6.15511">
        <ele>500</ele>
        <time>2026-08-26T16:10:10+00:00</time>
      </trkpt>
      <trkpt lat="49.9491" lon="6.15466">
        <ele>501</ele>
        <time>2026-08-26T16:10:13+00:00</time>
      </trkpt>
      <trkpt lat="49.94888" lon="6.15386">
        <ele>502</ele>
        <time>2026-08-26T16:10:16+00:00</time>
      </trkpt>
      <trkpt lat="49.94877" lon="6.15339">
        <ele>504</ele>
        <time>2026-08-26T16:10:19+00:00</time>
      </trkpt>
      <trkpt lat="49.94865" lon="6.15292">
        <ele>505</ele>
        <time>2026-08-26T16:10:22+00:00</time>
      </trkpt>
      <trkpt lat="49.94844" lon="6.15204">
        <ele>510</ele>
        <time>2026-08-26T16:10:25+00:00</time>
      </trkpt>
      <trkpt lat="49.94833" lon="6.15162">
        <ele>511</ele>
        <time>2026-08-26T16:10:28+00:00</time>
      </trkpt>
      <trkpt lat="49.94822" lon="6.15119">
        <ele>512</ele>
        <time>2026-08-26T16:10:31+00:00</time>
      </trkpt>
      <trkpt lat="49.94809" lon="6.15072">
        <ele>512</ele>
        <time>2026-08-26T16:10:34+00:00</time>
      </trkpt>
      <trkpt lat="49.94798" lon="6.15038">
        <ele>512</ele>
        <time>2026-08-26T16:10:37+00:00</time>
      </trkpt>
      <trkpt lat="49.94784" lon="6.14994">
        <ele>512</ele>
        <time>2026-08-26T16:10:40+00:00</time>
      </trkpt>
      <trkpt lat="49.94769" lon="6.14955">
        <ele>512</ele>
        <time>2026-08-26T16:10:43+00:00</time>
      </trkpt>
      <trkpt lat="49.94745" lon="6.14904">
        <ele>513</ele>
        <time>2026-08-26T16:10:46+00:00</time>
      </trkpt>
      <trkpt lat="49.9472" lon="6.14869">
        <ele>513</ele>
        <time>2026-08-26T16:10:49+00:00</time>
      </trkpt>
      <trkpt lat="49.94696" lon="6.14844">
        <ele>513</ele>
        <time>2026-08-26T16:10:52+00:00</time>
      </trkpt>
      <trkpt lat="49.94688" lon="6.14836">
        <ele>513</ele>
        <time>2026-08-26T16:10:55+00:00</time>
      </trkpt>
      <trkpt lat="49.94693" lon="6.14832">
        <ele>513</ele>
        <time>2026-08-26T16:10:58+00:00</time>
      </trkpt>
      <trkpt lat="49.94698" lon="6.1481">
        <ele>513</ele>
        <time>2026-08-26T16:11:01+00:00</time>
      </trkpt>
      <trkpt lat="49.94702" lon="6.14782">
        <ele>512</ele>
        <time>2026-08-26T16:11:04+00:00</time>
      </trkpt>
      <trkpt lat="49.94703" lon="6.14763">
        <ele>511</ele>
        <time>2026-08-26T16:11:07+00:00</time>
      </trkpt>
      <trkpt lat="49.94701" lon="6.14738">
        <ele>510</ele>
        <time>2026-08-26T16:11:10+00:00</time>
      </trkpt>
      <trkpt lat="49.94694" lon="6.14726">
        <ele>511</ele>
        <time>2026-08-26T16:11:13+00:00</time>
      </trkpt>
      <trkpt lat="49.94694" lon="6.14717">
        <ele>510</ele>
        <time>2026-08-26T16:11:16+00:00</time>
      </trkpt>
      <trkpt lat="49.94692" lon="6.14691">
        <ele>509</ele>
        <time>2026-08-26T16:11:19+00:00</time>
      </trkpt>
      <trkpt lat="49.9469" lon="6.1466">
        <ele>507</ele>
        <time>2026-08-26T16:11:22+00:00</time>
      </trkpt>
      <trkpt lat="49.94677" lon="6.14606">
        <ele>506</ele>
        <time>2026-08-26T16:11:25+00:00</time>
      </trkpt>
      <trkpt lat="49.94668" lon="6.14575">
        <ele>505</ele>
        <time>2026-08-26T16:11:28+00:00</time>
      </trkpt>
      <trkpt lat="49.94659" lon="6.14544">
        <ele>504</ele>
        <time>2026-08-26T16:11:31+00:00</time>
      </trkpt>
      <trkpt lat="49.94631" lon="6.14519">
        <ele>504</ele>
        <time>2026-08-26T16:11:34+00:00</time>
      </trkpt>
      <trkpt lat="49.94612" lon="6.14507">
        <ele>506</ele>
        <time>2026-08-26T16:11:37+00:00</time>
      </trkpt>
      <trkpt lat="49.94591" lon="6.14492">
        <ele>506</ele>
        <time>2026-08-26T16:11:40+00:00</time>
      </trkpt>
      <trkpt lat="49.9457" lon="6.14473">
        <ele>505</ele>
        <time>2026-08-26T16:11:43+00:00</time>
      </trkpt>
      <trkpt lat="49.94557" lon="6.14468">
        <ele>504</ele>
        <time>2026-08-26T16:11:46+00:00</time>
      </trkpt>
      <trkpt lat="49.94559" lon="6.14425">
        <ele>503</ele>
        <time>2026-08-26T16:11:49+00:00</time>
      </trkpt>
      <trkpt lat="49.94559" lon="6.14389">
        <ele>502</ele>
        <time>2026-08-26T16:11:52+00:00</time>
      </trkpt>
      <trkpt lat="49.94559" lon="6.1435">
        <ele>501</ele>
        <time>2026-08-26T16:11:55+00:00</time>
      </trkpt>
      <trkpt lat="49.9457" lon="6.14291">
        <ele>499</ele>
        <time>2026-08-26T16:11:58+00:00</time>
      </trkpt>
      <trkpt lat="49.94574" lon="6.1427">
        <ele>499</ele>
        <time>2026-08-26T16:12:01+00:00</time>
      </trkpt>
      <trkpt lat="49.94577" lon="6.14239">
        <ele>498</ele>
        <time>2026-08-26T16:12:04+00:00</time>
      </trkpt>
      <trkpt lat="49.94582" lon="6.14192">
        <ele>496</ele>
        <time>2026-08-26T16:12:07+00:00</time>
      </trkpt>
      <trkpt lat="49.94586" lon="6.14173">
        <ele>495</ele>
        <time>2026-08-26T16:12:10+00:00</time>
      </trkpt>
      <trkpt lat="49.94597" lon="6.14139">
        <ele>494</ele>
        <time>2026-08-26T16:12:13+00:00</time>
      </trkpt>
      <trkpt lat="49.94608" lon="6.1411">
        <ele>493</ele>
        <time>2026-08-26T16:12:16+00:00</time>
      </trkpt>
      <trkpt lat="49.9462" lon="6.1408">
        <ele>491</ele>
        <time>2026-08-26T16:12:19+00:00</time>
      </trkpt>
      <trkpt lat="49.94635" lon="6.14042">
        <ele>490</ele>
        <time>2026-08-26T16:12:22+00:00</time>
      </trkpt>
      <trkpt lat="49.94663" lon="6.1397">
        <ele>486</ele>
        <time>2026-08-26T16:12:25+00:00</time>
      </trkpt>
      <trkpt lat="49.94672" lon="6.13952">
        <ele>485</ele>
        <time>2026-08-26T16:12:28+00:00</time>
      </trkpt>
      <trkpt lat="49.94681" lon="6.13936">
        <ele>484</ele>
        <time>2026-08-26T16:12:31+00:00</time>
      </trkpt>
      <trkpt lat="49.94696" lon="6.13917">
        <ele>483</ele>
        <time>2026-08-26T16:12:34+00:00</time>
      </trkpt>
      <trkpt lat="49.94725" lon="6.13884">
        <ele>479</ele>
        <time>2026-08-26T16:12:37+00:00</time>
      </trkpt>
      <trkpt lat="49.94725" lon="6.13884">
        <ele>479</ele>
        <time>2026-08-26T16:12:40+00:00</time>
      </trkpt>
      <trkpt lat="49.94731" lon="6.13878">
        <ele>478</ele>
        <time>2026-08-26T16:12:43+00:00</time>
      </trkpt>
      <trkpt lat="49.94735" lon="6.13843">
        <ele>477</ele>
        <time>2026-08-26T16:12:46+00:00</time>
      </trkpt>
      <trkpt lat="49.9474" lon="6.13792">
        <ele>475</ele>
        <time>2026-08-26T16:12:49+00:00</time>
      </trkpt>
      <trkpt lat="49.94746" lon="6.13752">
        <ele>473</ele>
        <time>2026-08-26T16:12:52+00:00</time>
      </trkpt>
      <trkpt lat="49.94754" lon="6.13718">
        <ele>472</ele>
        <time>2026-08-26T16:12:55+00:00</time>
      </trkpt>
      <trkpt lat="49.94765" lon="6.13676">
        <ele>470</ele>
        <time>2026-08-26T16:12:58+00:00</time>
      </trkpt>
      <trkpt lat="49.94777" lon="6.13636">
        <ele>468</ele>
        <time>2026-08-26T16:13:01+00:00</time>
      </trkpt>
      <trkpt lat="49.94802" lon="6.13557">
        <ele>464</ele>
        <time>2026-08-26T16:13:04+00:00</time>
      </trkpt>
      <trkpt lat="49.94806" lon="6.13538">
        <ele>464</ele>
        <time>2026-08-26T16:13:07+00:00</time>
      </trkpt>
      <trkpt lat="49.94807" lon="6.13525">
        <ele>464</ele>
        <time>2026-08-26T16:13:10+00:00</time>
      </trkpt>
      <trkpt lat="49.94806" lon="6.13512">
        <ele>464</ele>
        <time>2026-08-26T16:13:13+00:00</time>
      </trkpt>
      <trkpt lat="49.94795" lon="6.13481">
        <ele>465</ele>
        <time>2026-08-26T16:13:16+00:00</time>
      </trkpt>
      <trkpt lat="49.94779" lon="6.13433">
        <ele>466</ele>
        <time>2026-08-26T16:13:19+00:00</time>
      </trkpt>
      <trkpt lat="49.94764" lon="6.13377">
        <ele>467</ele>
        <time>2026-08-26T16:13:22+00:00</time>
      </trkpt>
      <trkpt lat="49.94754" lon="6.13319">
        <ele>468</ele>
        <time>2026-08-26T16:13:25+00:00</time>
      </trkpt>
      <trkpt lat="49.94749" lon="6.13283">
        <ele>469</ele>
        <time>2026-08-26T16:13:28+00:00</time>
      </trkpt>
      <trkpt lat="49.94744" lon="6.1324">
        <ele>470</ele>
        <time>2026-08-26T16:13:31+00:00</time>
      </trkpt>
      <trkpt lat="49.94741" lon="6.13193">
        <ele>471</ele>
        <time>2026-08-26T16:13:34+00:00</time>
      </trkpt>
      <trkpt lat="49.94743" lon="6.1316">
        <ele>471</ele>
        <time>2026-08-26T16:13:37+00:00</time>
      </trkpt>
      <trkpt lat="49.94748" lon="6.13127">
        <ele>472</ele>
        <time>2026-08-26T16:13:40+00:00</time>
      </trkpt>
      <trkpt lat="49.94756" lon="6.13092">
        <ele>474</ele>
        <time>2026-08-26T16:13:43+00:00</time>
      </trkpt>
      <trkpt lat="49.94773" lon="6.13042">
        <ele>476</ele>
        <time>2026-08-26T16:13:46+00:00</time>
      </trkpt>
      <trkpt lat="49.94782" lon="6.13022">
        <ele>477</ele>
        <time>2026-08-26T16:13:49+00:00</time>
      </trkpt>
      <trkpt lat="49.94794" lon="6.13">
        <ele>477</ele>
        <time>2026-08-26T16:13:52+00:00</time>
      </trkpt>
      <trkpt lat="49.94812" lon="6.1297">
        <ele>477</ele>
        <time>2026-08-26T16:13:55+00:00</time>
      </trkpt>
      <trkpt lat="49.94831" lon="6.12919">
        <ele>478</ele>
        <time>2026-08-26T16:13:58+00:00</time>
      </trkpt>
      <trkpt lat="49.94833" lon="6.12912">
        <ele>478</ele>
        <time>2026-08-26T16:14:01+00:00</time>
      </trkpt>
      <trkpt lat="49.94824" lon="6.12897">
        <ele>478</ele>
        <time>2026-08-26T16:14:04+00:00</time>
      </trkpt>
      <trkpt lat="49.94797" lon="6.12845">
        <ele>478</ele>
        <time>2026-08-26T16:14:07+00:00</time>
      </trkpt>
      <trkpt lat="49.94781" lon="6.12817">
        <ele>478</ele>
        <time>2026-08-26T16:14:10+00:00</time>
      </trkpt>
      <trkpt lat="49.94771" lon="6.12805">
        <ele>478</ele>
        <time>2026-08-26T16:14:13+00:00</time>
      </trkpt>
      <trkpt lat="49.94766" lon="6.12792">
        <ele>478</ele>
        <time>2026-08-26T16:14:16+00:00</time>
      </trkpt>
      <trkpt lat="49.94755" lon="6.12763">
        <ele>478</ele>
        <time>2026-08-26T16:14:19+00:00</time>
      </trkpt>
      <trkpt lat="49.94743" lon="6.12732">
        <ele>479</ele>
        <time>2026-08-26T16:14:22+00:00</time>
      </trkpt>
      <trkpt lat="49.94734" lon="6.12716">
        <ele>481</ele>
        <time>2026-08-26T16:14:25+00:00</time>
      </trkpt>
      <trkpt lat="49.94744" lon="6.12697">
        <ele>479</ele>
        <time>2026-08-26T16:14:28+00:00</time>
      </trkpt>
      <trkpt lat="49.94755" lon="6.12677">
        <ele>479</ele>
        <time>2026-08-26T16:14:31+00:00</time>
      </trkpt>
      <trkpt lat="49.94758" lon="6.12654">
        <ele>478</ele>
        <time>2026-08-26T16:14:34+00:00</time>
      </trkpt>
      <trkpt lat="49.94757" lon="6.12621">
        <ele>477</ele>
        <time>2026-08-26T16:14:37+00:00</time>
      </trkpt>
      <trkpt lat="49.94751" lon="6.12557">
        <ele>474</ele>
        <time>2026-08-26T16:14:40+00:00</time>
      </trkpt>
      <trkpt lat="49.94743" lon="6.12516">
        <ele>474</ele>
        <time>2026-08-26T16:14:43+00:00</time>
      </trkpt>
      <trkpt lat="49.9473" lon="6.12448">
        <ele>474</ele>
        <time>2026-08-26T16:14:46+00:00</time>
      </trkpt>
      <trkpt lat="49.94724" lon="6.12396">
        <ele>472</ele>
        <time>2026-08-26T16:14:49+00:00</time>
      </trkpt>
      <trkpt lat="49.94718" lon="6.12345">
        <ele>467</ele>
        <time>2026-08-26T16:14:52+00:00</time>
      </trkpt>
      <trkpt lat="49.94713" lon="6.12293">
        <ele>466</ele>
        <time>2026-08-26T16:14:55+00:00</time>
      </trkpt>
      <trkpt lat="49.94704" lon="6.12215">
        <ele>458</ele>
        <time>2026-08-26T16:14:58+00:00</time>
      </trkpt>
      <trkpt lat="49.94707" lon="6.12171">
        <ele>458</ele>
        <time>2026-08-26T16:15:01+00:00</time>
      </trkpt>
      <trkpt lat="49.94712" lon="6.12087">
        <ele>458</ele>
        <time>2026-08-26T16:15:04+00:00</time>
      </trkpt>
      <trkpt lat="49.94712" lon="6.1205">
        <ele>458</ele>
        <time>2026-08-26T16:15:07+00:00</time>
      </trkpt>
      <trkpt lat="49.94712" lon="6.12003">
        <ele>455</ele>
        <time>2026-08-26T16:15:10+00:00</time>
      </trkpt>
      <trkpt lat="49.94711" lon="6.11961">
        <ele>455</ele>
        <time>2026-08-26T16:15:13+00:00</time>
      </trkpt>
      <trkpt lat="49.94708" lon="6.11944">
        <ele>460</ele>
        <time>2026-08-26T16:15:16+00:00</time>
      </trkpt>
      <trkpt lat="49.94703" lon="6.11915">
        <ele>455</ele>
        <time>2026-08-26T16:15:19+00:00</time>
      </trkpt>
      <trkpt lat="49.94697" lon="6.1188">
        <ele>453</ele>
        <time>2026-08-26T16:15:22+00:00</time>
      </trkpt>
      <trkpt lat="49.94687" lon="6.11843">
        <ele>451</ele>
        <time>2026-08-26T16:15:25+00:00</time>
      </trkpt>
      <trkpt lat="49.94673" lon="6.11787">
        <ele>445</ele>
        <time>2026-08-26T16:15:28+00:00</time>
      </trkpt>
      <trkpt lat="49.9466" lon="6.11751">
        <ele>440</ele>
        <time>2026-08-26T16:15:31+00:00</time>
      </trkpt>
      <trkpt lat="49.94639" lon="6.11692">
        <ele>434</ele>
        <time>2026-08-26T16:15:34+00:00</time>
      </trkpt>
      <trkpt lat="49.94628" lon="6.11656">
        <ele>422</ele>
        <time>2026-08-26T16:15:37+00:00</time>
      </trkpt>
      <trkpt lat="49.94611" lon="6.11601">
        <ele>408</ele>
        <time>2026-08-26T16:15:40+00:00</time>
      </trkpt>
      <trkpt lat="49.94604" lon="6.11581">
        <ele>404</ele>
        <time>2026-08-26T16:15:43+00:00</time>
      </trkpt>
      <trkpt lat="49.94595" lon="6.11567">
        <ele>401</ele>
        <time>2026-08-26T16:15:46+00:00</time>
      </trkpt>
      <trkpt lat="49.94584" lon="6.11554">
        <ele>397</ele>
        <time>2026-08-26T16:15:49+00:00</time>
      </trkpt>
      <trkpt lat="49.94569" lon="6.11547">
        <ele>395</ele>
        <time>2026-08-26T16:15:52+00:00</time>
      </trkpt>
      <trkpt lat="49.94553" lon="6.11539">
        <ele>394</ele>
        <time>2026-08-26T16:15:55+00:00</time>
      </trkpt>
      <trkpt lat="49.94549" lon="6.11533">
        <ele>396</ele>
        <time>2026-08-26T16:15:58+00:00</time>
      </trkpt>
      <trkpt lat="49.94547" lon="6.11529">
        <ele>393</ele>
        <time>2026-08-26T16:16:01+00:00</time>
      </trkpt>
      <trkpt lat="49.94537" lon="6.11524">
        <ele>393</ele>
        <time>2026-08-26T16:16:04+00:00</time>
      </trkpt>
      <trkpt lat="49.94519" lon="6.11521">
        <ele>393</ele>
        <time>2026-08-26T16:16:07+00:00</time>
      </trkpt>
      <trkpt lat="49.94486" lon="6.11526">
        <ele>386</ele>
        <time>2026-08-26T16:16:10+00:00</time>
      </trkpt>
      <trkpt lat="49.94473" lon="6.1153">
        <ele>391</ele>
        <time>2026-08-26T16:16:13+00:00</time>
      </trkpt>
      <trkpt lat="49.94471" lon="6.11531">
        <ele>389</ele>
        <time>2026-08-26T16:16:16+00:00</time>
      </trkpt>
      <trkpt lat="49.94453" lon="6.11535">
        <ele>390</ele>
        <time>2026-08-26T16:16:19+00:00</time>
      </trkpt>
      <trkpt lat="49.94449" lon="6.11533">
        <ele>384</ele>
        <time>2026-08-26T16:16:22+00:00</time>
      </trkpt>
      <trkpt lat="49.94445" lon="6.1153">
        <ele>389</ele>
        <time>2026-08-26T16:16:25+00:00</time>
      </trkpt>
      <trkpt lat="49.94439" lon="6.11517">
        <ele>395</ele>
        <time>2026-08-26T16:16:28+00:00</time>
      </trkpt>
      <trkpt lat="49.94432" lon="6.11522">
        <ele>393</ele>
        <time>2026-08-26T16:16:31+00:00</time>
      </trkpt>
      <trkpt lat="49.94427" lon="6.11518">
        <ele>398</ele>
        <time>2026-08-26T16:16:34+00:00</time>
      </trkpt>
      <trkpt lat="49.94419" lon="6.11518">
        <ele>401</ele>
        <time>2026-08-26T16:16:37+00:00</time>
      </trkpt>
      <trkpt lat="49.94408" lon="6.11514">
        <ele>402</ele>
        <time>2026-08-26T16:16:40+00:00</time>
      </trkpt>
      <trkpt lat="49.94407" lon="6.11511">
        <ele>402</ele>
        <time>2026-08-26T16:16:43+00:00</time>
      </trkpt>
      <trkpt lat="49.94411" lon="6.11503">
        <ele>402</ele>
        <time>2026-08-26T16:16:46+00:00</time>
      </trkpt>
      <trkpt lat="49.94404" lon="6.11491">
        <ele>405</ele>
        <time>2026-08-26T16:16:49+00:00</time>
      </trkpt>
      <trkpt lat="49.94403" lon="6.1148">
        <ele>406</ele>
        <time>2026-08-26T16:16:52+00:00</time>
      </trkpt>
      <trkpt lat="49.94397" lon="6.11467">
        <ele>409</ele>
        <time>2026-08-26T16:16:55+00:00</time>
      </trkpt>
      <trkpt lat="49.94389" lon="6.11461">
        <ele>411</ele>
        <time>2026-08-26T16:16:58+00:00</time>
      </trkpt>
      <trkpt lat="49.94375" lon="6.11446">
        <ele>414</ele>
        <time>2026-08-26T16:17:01+00:00</time>
      </trkpt>
      <trkpt lat="49.94369" lon="6.11435">
        <ele>416</ele>
        <time>2026-08-26T16:17:04+00:00</time>
      </trkpt>
      <trkpt lat="49.94351" lon="6.11408">
        <ele>416</ele>
        <time>2026-08-26T16:17:07+00:00</time>
      </trkpt>
      <trkpt lat="49.94342" lon="6.11402">
        <ele>417</ele>
        <time>2026-08-26T16:17:10+00:00</time>
      </trkpt>
      <trkpt lat="49.94339" lon="6.11397">
        <ele>417</ele>
        <time>2026-08-26T16:17:13+00:00</time>
      </trkpt>
      <trkpt lat="49.94328" lon="6.11387">
        <ele>418</ele>
        <time>2026-08-26T16:17:16+00:00</time>
      </trkpt>
      <trkpt lat="49.94325" lon="6.11381">
        <ele>418</ele>
        <time>2026-08-26T16:17:19+00:00</time>
      </trkpt>
      <trkpt lat="49.94311" lon="6.11372">
        <ele>422</ele>
        <time>2026-08-26T16:17:22+00:00</time>
      </trkpt>
      <trkpt lat="49.94301" lon="6.1135">
        <ele>426</ele>
        <time>2026-08-26T16:17:25+00:00</time>
      </trkpt>
      <trkpt lat="49.94298" lon="6.11339">
        <ele>429</ele>
        <time>2026-08-26T16:17:28+00:00</time>
      </trkpt>
      <trkpt lat="49.94288" lon="6.11318">
        <ele>430</ele>
        <time>2026-08-26T16:17:31+00:00</time>
      </trkpt>
      <trkpt lat="49.94281" lon="6.1129">
        <ele>433</ele>
        <time>2026-08-26T16:17:34+00:00</time>
      </trkpt>
      <trkpt lat="49.94276" lon="6.11283">
        <ele>434</ele>
        <time>2026-08-26T16:17:37+00:00</time>
      </trkpt>
      <trkpt lat="49.94275" lon="6.11278">
        <ele>436</ele>
        <time>2026-08-26T16:17:40+00:00</time>
      </trkpt>
      <trkpt lat="49.94272" lon="6.11277">
        <ele>436</ele>
        <time>2026-08-26T16:17:43+00:00</time>
      </trkpt>
      <trkpt lat="49.94268" lon="6.11267">
        <ele>438</ele>
        <time>2026-08-26T16:17:46+00:00</time>
      </trkpt>
      <trkpt lat="49.94262" lon="6.11245">
        <ele>443</ele>
        <time>2026-08-26T16:17:49+00:00</time>
      </trkpt>
      <trkpt lat="49.94254" lon="6.11223">
        <ele>448</ele>
        <time>2026-08-26T16:17:52+00:00</time>
      </trkpt>
      <trkpt lat="49.94249" lon="6.11216">
        <ele>450</ele>
        <time>2026-08-26T16:17:55+00:00</time>
      </trkpt>
      <trkpt lat="49.94243" lon="6.11187">
        <ele>458</ele>
        <time>2026-08-26T16:17:58+00:00</time>
      </trkpt>
      <trkpt lat="49.94236" lon="6.11154">
        <ele>460</ele>
        <time>2026-08-26T16:18:01+00:00</time>
      </trkpt>
      <trkpt lat="49.94233" lon="6.11103">
        <ele>468</ele>
        <time>2026-08-26T16:18:04+00:00</time>
      </trkpt>
      <trkpt lat="49.94233" lon="6.11079">
        <ele>470</ele>
        <time>2026-08-26T16:18:07+00:00</time>
      </trkpt>
      <trkpt lat="49.94235" lon="6.11058">
        <ele>473</ele>
        <time>2026-08-26T16:18:10+00:00</time>
      </trkpt>
      <trkpt lat="49.94243" lon="6.11033">
        <ele>478</ele>
        <time>2026-08-26T16:18:13+00:00</time>
      </trkpt>
      <trkpt lat="49.94262" lon="6.10989">
        <ele>482</ele>
        <time>2026-08-26T16:18:16+00:00</time>
      </trkpt>
      <trkpt lat="49.94276" lon="6.10951">
        <ele>484</ele>
        <time>2026-08-26T16:18:19+00:00</time>
      </trkpt>
      <trkpt lat="49.94277" lon="6.10937">
        <ele>485</ele>
        <time>2026-08-26T16:18:22+00:00</time>
      </trkpt>
      <trkpt lat="49.94274" lon="6.10925">
        <ele>485</ele>
        <time>2026-08-26T16:18:25+00:00</time>
      </trkpt>
      <trkpt lat="49.94267" lon="6.10914">
        <ele>486</ele>
        <time>2026-08-26T16:18:28+00:00</time>
      </trkpt>
      <trkpt lat="49.94241" lon="6.10886">
        <ele>487</ele>
        <time>2026-08-26T16:18:31+00:00</time>
      </trkpt>
      <trkpt lat="49.9423" lon="6.10869">
        <ele>488</ele>
        <time>2026-08-26T16:18:34+00:00</time>
      </trkpt>
      <trkpt lat="49.94222" lon="6.10852">
        <ele>487</ele>
        <time>2026-08-26T16:18:37+00:00</time>
      </trkpt>
      <trkpt lat="49.94211" lon="6.10818">
        <ele>486</ele>
        <time>2026-08-26T16:18:40+00:00</time>
      </trkpt>
      <trkpt lat="49.94202" lon="6.10764">
        <ele>484</ele>
        <time>2026-08-26T16:18:43+00:00</time>
      </trkpt>
      <trkpt lat="49.94203" lon="6.10756">
        <ele>483</ele>
        <time>2026-08-26T16:18:46+00:00</time>
      </trkpt>
      <trkpt lat="49.94208" lon="6.10739">
        <ele>483</ele>
        <time>2026-08-26T16:18:49+00:00</time>
      </trkpt>
      <trkpt lat="49.94209" lon="6.10717">
        <ele>481</ele>
        <time>2026-08-26T16:18:52+00:00</time>
      </trkpt>
      <trkpt lat="49.94206" lon="6.10696">
        <ele>479</ele>
        <time>2026-08-26T16:18:55+00:00</time>
      </trkpt>
      <trkpt lat="49.942" lon="6.10667">
        <ele>481</ele>
        <time>2026-08-26T16:18:58+00:00</time>
      </trkpt>
      <trkpt lat="49.94191" lon="6.10625">
        <ele>481</ele>
        <time>2026-08-26T16:19:01+00:00</time>
      </trkpt>
      <trkpt lat="49.9419" lon="6.10622">
        <ele>481</ele>
        <time>2026-08-26T16:19:04+00:00</time>
      </trkpt>
      <trkpt lat="49.94178" lon="6.10578">
        <ele>481</ele>
        <time>2026-08-26T16:19:07+00:00</time>
      </trkpt>
      <trkpt lat="49.94166" lon="6.10534">
        <ele>482</ele>
        <time>2026-08-26T16:19:10+00:00</time>
      </trkpt>
      <trkpt lat="49.94146" lon="6.10464">
        <ele>484</ele>
        <time>2026-08-26T16:19:13+00:00</time>
      </trkpt>
      <trkpt lat="49.94135" lon="6.10439">
        <ele>485</ele>
        <time>2026-08-26T16:19:16+00:00</time>
      </trkpt>
      <trkpt lat="49.9413" lon="6.10433">
        <ele>485</ele>
        <time>2026-08-26T16:19:19+00:00</time>
      </trkpt>
      <trkpt lat="49.94129" lon="6.10422">
        <ele>485</ele>
        <time>2026-08-26T16:19:22+00:00</time>
      </trkpt>
      <trkpt lat="49.9412" lon="6.10392">
        <ele>485</ele>
        <time>2026-08-26T16:19:25+00:00</time>
      </trkpt>
      <trkpt lat="49.94114" lon="6.10357">
        <ele>485</ele>
        <time>2026-08-26T16:19:28+00:00</time>
      </trkpt>
      <trkpt lat="49.9411" lon="6.10319">
        <ele>486</ele>
        <time>2026-08-26T16:19:31+00:00</time>
      </trkpt>
      <trkpt lat="49.94105" lon="6.10269">
        <ele>488</ele>
        <time>2026-08-26T16:19:34+00:00</time>
      </trkpt>
      <trkpt lat="49.94103" lon="6.10228">
        <ele>488</ele>
        <time>2026-08-26T16:19:37+00:00</time>
      </trkpt>
      <trkpt lat="49.941" lon="6.10163">
        <ele>488</ele>
        <time>2026-08-26T16:19:40+00:00</time>
      </trkpt>
      <trkpt lat="49.941" lon="6.10122">
        <ele>488</ele>
        <time>2026-08-26T16:19:43+00:00</time>
      </trkpt>
      <trkpt lat="49.94101" lon="6.1006">
        <ele>485</ele>
        <time>2026-08-26T16:19:46+00:00</time>
      </trkpt>
      <trkpt lat="49.94065" lon="6.10047">
        <ele>484</ele>
        <time>2026-08-26T16:19:49+00:00</time>
      </trkpt>
      <trkpt lat="49.9405" lon="6.10036">
        <ele>484</ele>
        <time>2026-08-26T16:19:52+00:00</time>
      </trkpt>
      <trkpt lat="49.94039" lon="6.10025">
        <ele>484</ele>
        <time>2026-08-26T16:19:55+00:00</time>
      </trkpt>
      <trkpt lat="49.94027" lon="6.10013">
        <ele>484</ele>
        <time>2026-08-26T16:19:58+00:00</time>
      </trkpt>
      <trkpt lat="49.94021" lon="6.1">
        <ele>484</ele>
        <time>2026-08-26T16:20:01+00:00</time>
      </trkpt>
      <trkpt lat="49.93995" lon="6.09974">
        <ele>484</ele>
        <time>2026-08-26T16:20:04+00:00</time>
      </trkpt>
      <trkpt lat="49.93968" lon="6.09949">
        <ele>484</ele>
        <time>2026-08-26T16:20:07+00:00</time>
      </trkpt>
      <trkpt lat="49.93942" lon="6.09923">
        <ele>484</ele>
        <time>2026-08-26T16:20:10+00:00</time>
      </trkpt>
      <trkpt lat="49.93907" lon="6.09889">
        <ele>484</ele>
        <time>2026-08-26T16:20:13+00:00</time>
      </trkpt>
      <trkpt lat="49.93889" lon="6.0988">
        <ele>484</ele>
        <time>2026-08-26T16:20:16+00:00</time>
      </trkpt>
      <trkpt lat="49.93866" lon="6.09879">
        <ele>484</ele>
        <time>2026-08-26T16:20:19+00:00</time>
      </trkpt>
      <trkpt lat="49.93842" lon="6.09878">
        <ele>484</ele>
        <time>2026-08-26T16:20:22+00:00</time>
      </trkpt>
      <trkpt lat="49.9384" lon="6.09877">
        <ele>484</ele>
        <time>2026-08-26T16:20:25+00:00</time>
      </trkpt>
      <trkpt lat="49.93838" lon="6.09872">
        <ele>484</ele>
        <time>2026-08-26T16:20:28+00:00</time>
      </trkpt>
      <trkpt lat="49.93835" lon="6.09872">
        <ele>484</ele>
        <time>2026-08-26T16:20:31+00:00</time>
      </trkpt>
      <trkpt lat="49.93835" lon="6.09839">
        <ele>484</ele>
        <time>2026-08-26T16:20:34+00:00</time>
      </trkpt>
      <trkpt lat="49.93832" lon="6.09796">
        <ele>484</ele>
        <time>2026-08-26T16:20:37+00:00</time>
      </trkpt>
      <trkpt lat="49.93834" lon="6.09754">
        <ele>484</ele>
        <time>2026-08-26T16:20:40+00:00</time>
      </trkpt>
      <trkpt lat="49.93839" lon="6.09751">
        <ele>484</ele>
        <time>2026-08-26T16:20:43+00:00</time>
      </trkpt>
      <trkpt lat="49.93863" lon="6.09724">
        <ele>483</ele>
        <time>2026-08-26T16:20:46+00:00</time>
      </trkpt>
      <trkpt lat="49.93874" lon="6.09716">
        <ele>481</ele>
        <time>2026-08-26T16:20:49+00:00</time>
      </trkpt>
      <trkpt lat="49.93887" lon="6.09714">
        <ele>481</ele>
        <time>2026-08-26T16:20:52+00:00</time>
      </trkpt>
      <trkpt lat="49.93897" lon="6.09708">
        <ele>479</ele>
        <time>2026-08-26T16:20:55+00:00</time>
      </trkpt>
      <trkpt lat="49.93906" lon="6.09702">
        <ele>478</ele>
        <time>2026-08-26T16:20:58+00:00</time>
      </trkpt>
      <trkpt lat="49.93932" lon="6.09683">
        <ele>473</ele>
        <time>2026-08-26T16:21:01+00:00</time>
      </trkpt>
      <trkpt lat="49.9394" lon="6.09673">
        <ele>472</ele>
        <time>2026-08-26T16:21:04+00:00</time>
      </trkpt>
      <trkpt lat="49.93961" lon="6.0964">
        <ele>468</ele>
        <time>2026-08-26T16:21:07+00:00</time>
      </trkpt>
      <trkpt lat="49.93965" lon="6.09627">
        <ele>465</ele>
        <time>2026-08-26T16:21:10+00:00</time>
      </trkpt>
      <trkpt lat="49.93965" lon="6.09621">
        <ele>465</ele>
        <time>2026-08-26T16:21:13+00:00</time>
      </trkpt>
      <trkpt lat="49.93961" lon="6.0961">
        <ele>463</ele>
        <time>2026-08-26T16:21:16+00:00</time>
      </trkpt>
      <trkpt lat="49.93944" lon="6.09587">
        <ele>461</ele>
        <time>2026-08-26T16:21:19+00:00</time>
      </trkpt>
      <trkpt lat="49.93926" lon="6.09563">
        <ele>458</ele>
        <time>2026-08-26T16:21:22+00:00</time>
      </trkpt>
      <trkpt lat="49.93921" lon="6.09552">
        <ele>457</ele>
        <time>2026-08-26T16:21:25+00:00</time>
      </trkpt>
      <trkpt lat="49.93918" lon="6.0954">
        <ele>457</ele>
        <time>2026-08-26T16:21:28+00:00</time>
      </trkpt>
      <trkpt lat="49.93913" lon="6.09515">
        <ele>455</ele>
        <time>2026-08-26T16:21:31+00:00</time>
      </trkpt>
      <trkpt lat="49.93912" lon="6.09479">
        <ele>451</ele>
        <time>2026-08-26T16:21:34+00:00</time>
      </trkpt>
      <trkpt lat="49.93915" lon="6.09457">
        <ele>450</ele>
        <time>2026-08-26T16:21:37+00:00</time>
      </trkpt>
      <trkpt lat="49.93922" lon="6.09426">
        <ele>449</ele>
        <time>2026-08-26T16:21:40+00:00</time>
      </trkpt>
      <trkpt lat="49.93923" lon="6.09418">
        <ele>446</ele>
        <time>2026-08-26T16:21:43+00:00</time>
      </trkpt>
      <trkpt lat="49.93928" lon="6.09373">
        <ele>449</ele>
        <time>2026-08-26T16:21:46+00:00</time>
      </trkpt>
      <trkpt lat="49.93929" lon="6.09336">
        <ele>449</ele>
        <time>2026-08-26T16:21:49+00:00</time>
      </trkpt>
      <trkpt lat="49.93928" lon="6.09304">
        <ele>448</ele>
        <time>2026-08-26T16:21:52+00:00</time>
      </trkpt>
      <trkpt lat="49.93924" lon="6.09273">
        <ele>442</ele>
        <time>2026-08-26T16:21:55+00:00</time>
      </trkpt>
      <trkpt lat="49.93914" lon="6.09228">
        <ele>439</ele>
        <time>2026-08-26T16:21:58+00:00</time>
      </trkpt>
      <trkpt lat="49.93905" lon="6.09182">
        <ele>433</ele>
        <time>2026-08-26T16:22:01+00:00</time>
      </trkpt>
      <trkpt lat="49.93891" lon="6.09117">
        <ele>419</ele>
        <time>2026-08-26T16:22:04+00:00</time>
      </trkpt>
      <trkpt lat="49.93881" lon="6.09085">
        <ele>410</ele>
        <time>2026-08-26T16:22:07+00:00</time>
      </trkpt>
      <trkpt lat="49.93871" lon="6.09049">
        <ele>401</ele>
        <time>2026-08-26T16:22:10+00:00</time>
      </trkpt>
      <trkpt lat="49.93862" lon="6.09014">
        <ele>400</ele>
        <time>2026-08-26T16:22:13+00:00</time>
      </trkpt>
      <trkpt lat="49.93851" lon="6.08969">
        <ele>391</ele>
        <time>2026-08-26T16:22:16+00:00</time>
      </trkpt>
      <trkpt lat="49.93842" lon="6.08933">
        <ele>387</ele>
        <time>2026-08-26T16:22:19+00:00</time>
      </trkpt>
      <trkpt lat="49.93828" lon="6.08891">
        <ele>384</ele>
        <time>2026-08-26T16:22:22+00:00</time>
      </trkpt>
      <trkpt lat="49.93802" lon="6.08871">
        <ele>381</ele>
        <time>2026-08-26T16:22:25+00:00</time>
      </trkpt>
      <trkpt lat="49.93775" lon="6.08859">
        <ele>378</ele>
        <time>2026-08-26T16:22:28+00:00</time>
      </trkpt>
      <trkpt lat="49.93722" lon="6.08836">
        <ele>375</ele>
        <time>2026-08-26T16:22:31+00:00</time>
      </trkpt>
      <trkpt lat="49.93717" lon="6.08829">
        <ele>376</ele>
        <time>2026-08-26T16:22:34+00:00</time>
      </trkpt>
      <trkpt lat="49.93717" lon="6.08819">
        <ele>375</ele>
        <time>2026-08-26T16:22:37+00:00</time>
      </trkpt>
      <trkpt lat="49.93722" lon="6.08793">
        <ele>372</ele>
        <time>2026-08-26T16:22:40+00:00</time>
      </trkpt>
      <trkpt lat="49.93728" lon="6.08762">
        <ele>373</ele>
        <time>2026-08-26T16:22:43+00:00</time>
      </trkpt>
      <trkpt lat="49.9373" lon="6.08742">
        <ele>372</ele>
        <time>2026-08-26T16:22:46+00:00</time>
      </trkpt>
      <trkpt lat="49.93727" lon="6.08729">
        <ele>375</ele>
        <time>2026-08-26T16:22:49+00:00</time>
      </trkpt>
      <trkpt lat="49.93722" lon="6.0872">
        <ele>375</ele>
        <time>2026-08-26T16:22:52+00:00</time>
      </trkpt>
      <trkpt lat="49.93715" lon="6.08713">
        <ele>377</ele>
        <time>2026-08-26T16:22:55+00:00</time>
      </trkpt>
      <trkpt lat="49.93688" lon="6.08695">
        <ele>383</ele>
        <time>2026-08-26T16:22:58+00:00</time>
      </trkpt>
      <trkpt lat="49.9366" lon="6.08678">
        <ele>384</ele>
        <time>2026-08-26T16:23:01+00:00</time>
      </trkpt>
      <trkpt lat="49.93633" lon="6.0866">
        <ele>386</ele>
        <time>2026-08-26T16:23:04+00:00</time>
      </trkpt>
      <trkpt lat="49.93596" lon="6.08637">
        <ele>395</ele>
        <time>2026-08-26T16:23:07+00:00</time>
      </trkpt>
      <trkpt lat="49.93571" lon="6.08626">
        <ele>398</ele>
        <time>2026-08-26T16:23:10+00:00</time>
      </trkpt>
      <trkpt lat="49.93532" lon="6.0861">
        <ele>400</ele>
        <time>2026-08-26T16:23:13+00:00</time>
      </trkpt>
      <trkpt lat="49.93522" lon="6.08608">
        <ele>407</ele>
        <time>2026-08-26T16:23:16+00:00</time>
      </trkpt>
      <trkpt lat="49.93496" lon="6.08611">
        <ele>407</ele>
        <time>2026-08-26T16:23:19+00:00</time>
      </trkpt>
      <trkpt lat="49.9347" lon="6.08614">
        <ele>409</ele>
        <time>2026-08-26T16:23:22+00:00</time>
      </trkpt>
      <trkpt lat="49.93443" lon="6.08617">
        <ele>413</ele>
        <time>2026-08-26T16:23:25+00:00</time>
      </trkpt>
      <trkpt lat="49.93414" lon="6.08626">
        <ele>413</ele>
        <time>2026-08-26T16:23:28+00:00</time>
      </trkpt>
      <trkpt lat="49.93386" lon="6.08634">
        <ele>411</ele>
        <time>2026-08-26T16:23:31+00:00</time>
      </trkpt>
      <trkpt lat="49.93357" lon="6.08643">
        <ele>408</ele>
        <time>2026-08-26T16:23:34+00:00</time>
      </trkpt>
      <trkpt lat="49.93338" lon="6.08645">
        <ele>412</ele>
        <time>2026-08-26T16:23:37+00:00</time>
      </trkpt>
      <trkpt lat="49.93331" lon="6.08643">
        <ele>406</ele>
        <time>2026-08-26T16:23:40+00:00</time>
      </trkpt>
      <trkpt lat="49.93328" lon="6.08637">
        <ele>414</ele>
        <time>2026-08-26T16:23:43+00:00</time>
      </trkpt>
      <trkpt lat="49.93327" lon="6.08629">
        <ele>420</ele>
        <time>2026-08-26T16:23:46+00:00</time>
      </trkpt>
      <trkpt lat="49.93332" lon="6.08623">
        <ele>417</ele>
        <time>2026-08-26T16:23:49+00:00</time>
      </trkpt>
      <trkpt lat="49.93367" lon="6.08621">
        <ele>419</ele>
        <time>2026-08-26T16:23:52+00:00</time>
      </trkpt>
      <trkpt lat="49.93382" lon="6.08613">
        <ele>421</ele>
        <time>2026-08-26T16:23:55+00:00</time>
      </trkpt>
      <trkpt lat="49.93402" lon="6.08599">
        <ele>428</ele>
        <time>2026-08-26T16:23:58+00:00</time>
      </trkpt>
      <trkpt lat="49.93439" lon="6.08575">
        <ele>429</ele>
        <time>2026-08-26T16:24:01+00:00</time>
      </trkpt>
      <trkpt lat="49.93466" lon="6.0856">
        <ele>427</ele>
        <time>2026-08-26T16:24:04+00:00</time>
      </trkpt>
      <trkpt lat="49.93517" lon="6.08533">
        <ele>427</ele>
        <time>2026-08-26T16:24:07+00:00</time>
      </trkpt>
      <trkpt lat="49.9354" lon="6.08526">
        <ele>427</ele>
        <time>2026-08-26T16:24:10+00:00</time>
      </trkpt>
      <trkpt lat="49.93567" lon="6.08519">
        <ele>428</ele>
        <time>2026-08-26T16:24:13+00:00</time>
      </trkpt>
      <trkpt lat="49.93576" lon="6.08514">
        <ele>428</ele>
        <time>2026-08-26T16:24:16+00:00</time>
      </trkpt>
      <trkpt lat="49.93607" lon="6.08497">
        <ele>428</ele>
        <time>2026-08-26T16:24:19+00:00</time>
      </trkpt>
      <trkpt lat="49.93614" lon="6.0849">
        <ele>427</ele>
        <time>2026-08-26T16:24:22+00:00</time>
      </trkpt>
      <trkpt lat="49.9362" lon="6.08477">
        <ele>428</ele>
        <time>2026-08-26T16:24:25+00:00</time>
      </trkpt>
      <trkpt lat="49.93651" lon="6.08478">
        <ele>426</ele>
        <time>2026-08-26T16:24:28+00:00</time>
      </trkpt>
      <trkpt lat="49.93683" lon="6.0848">
        <ele>426</ele>
        <time>2026-08-26T16:24:31+00:00</time>
      </trkpt>
      <trkpt lat="49.93734" lon="6.08482">
        <ele>426</ele>
        <time>2026-08-26T16:24:34+00:00</time>
      </trkpt>
      <trkpt lat="49.9375" lon="6.0849">
        <ele>427</ele>
        <time>2026-08-26T16:24:37+00:00</time>
      </trkpt>
      <trkpt lat="49.93764" lon="6.08503">
        <ele>426</ele>
        <time>2026-08-26T16:24:40+00:00</time>
      </trkpt>
      <trkpt lat="49.93781" lon="6.08518">
        <ele>427</ele>
        <time>2026-08-26T16:24:43+00:00</time>
      </trkpt>
      <trkpt lat="49.93797" lon="6.08527">
        <ele>427</ele>
        <time>2026-08-26T16:24:46+00:00</time>
      </trkpt>
      <trkpt lat="49.93807" lon="6.08528">
        <ele>427</ele>
        <time>2026-08-26T16:24:49+00:00</time>
      </trkpt>
      <trkpt lat="49.93819" lon="6.08523">
        <ele>428</ele>
        <time>2026-08-26T16:24:52+00:00</time>
      </trkpt>
      <trkpt lat="49.93826" lon="6.08513">
        <ele>429</ele>
        <time>2026-08-26T16:24:55+00:00</time>
      </trkpt>
      <trkpt lat="49.93833" lon="6.08498">
        <ele>430</ele>
        <time>2026-08-26T16:24:58+00:00</time>
      </trkpt>
      <trkpt lat="49.93837" lon="6.0848">
        <ele>429</ele>
        <time>2026-08-26T16:25:01+00:00</time>
      </trkpt>
      <trkpt lat="49.9384" lon="6.08449">
        <ele>428</ele>
        <time>2026-08-26T16:25:04+00:00</time>
      </trkpt>
      <trkpt lat="49.9384" lon="6.08435">
        <ele>430</ele>
        <time>2026-08-26T16:25:07+00:00</time>
      </trkpt>
      <trkpt lat="49.9384" lon="6.08432">
        <ele>430</ele>
        <time>2026-08-26T16:25:10+00:00</time>
      </trkpt>
      <trkpt lat="49.93829" lon="6.08443">
        <ele>428</ele>
        <time>2026-08-26T16:25:13+00:00</time>
      </trkpt>
      <trkpt lat="49.93821" lon="6.08445">
        <ele>428</ele>
        <time>2026-08-26T16:25:16+00:00</time>
      </trkpt>
      <trkpt lat="49.93811" lon="6.08443">
        <ele>428</ele>
        <time>2026-08-26T16:25:19+00:00</time>
      </trkpt>
      <trkpt lat="49.93804" lon="6.08437">
        <ele>427</ele>
        <time>2026-08-26T16:25:22+00:00</time>
      </trkpt>
      <trkpt lat="49.93798" lon="6.08426">
        <ele>427</ele>
        <time>2026-08-26T16:25:25+00:00</time>
      </trkpt>
      <trkpt lat="49.93794" lon="6.0841">
        <ele>426</ele>
        <time>2026-08-26T16:25:28+00:00</time>
      </trkpt>
      <trkpt lat="49.93771" lon="6.08398">
        <ele>425</ele>
        <time>2026-08-26T16:25:31+00:00</time>
      </trkpt>
      <trkpt lat="49.93748" lon="6.08376">
        <ele>424</ele>
        <time>2026-08-26T16:25:34+00:00</time>
      </trkpt>
      <trkpt lat="49.93711" lon="6.0834">
        <ele>423</ele>
        <time>2026-08-26T16:25:37+00:00</time>
      </trkpt>
      <trkpt lat="49.93693" lon="6.08326">
        <ele>422</ele>
        <time>2026-08-26T16:25:40+00:00</time>
      </trkpt>
      <trkpt lat="49.93675" lon="6.08317">
        <ele>422</ele>
        <time>2026-08-26T16:25:43+00:00</time>
      </trkpt>
      <trkpt lat="49.93633" lon="6.08302">
        <ele>421</ele>
        <time>2026-08-26T16:25:46+00:00</time>
      </trkpt>
      <trkpt lat="49.93628" lon="6.08291">
        <ele>419</ele>
        <time>2026-08-26T16:25:49+00:00</time>
      </trkpt>
      <trkpt lat="49.93626" lon="6.08284">
        <ele>418</ele>
        <time>2026-08-26T16:25:52+00:00</time>
      </trkpt>
      <trkpt lat="49.93612" lon="6.08251">
        <ele>416</ele>
        <time>2026-08-26T16:25:55+00:00</time>
      </trkpt>
      <trkpt lat="49.93598" lon="6.08217">
        <ele>413</ele>
        <time>2026-08-26T16:25:58+00:00</time>
      </trkpt>
      <trkpt lat="49.9358" lon="6.08176">
        <ele>411</ele>
        <time>2026-08-26T16:26:01+00:00</time>
      </trkpt>
      <trkpt lat="49.93567" lon="6.08133">
        <ele>411</ele>
        <time>2026-08-26T16:26:04+00:00</time>
      </trkpt>
      <trkpt lat="49.93559" lon="6.081">
        <ele>411</ele>
        <time>2026-08-26T16:26:07+00:00</time>
      </trkpt>
      <trkpt lat="49.93551" lon="6.08066">
        <ele>412</ele>
        <time>2026-08-26T16:26:10+00:00</time>
      </trkpt>
      <trkpt lat="49.93542" lon="6.08034">
        <ele>413</ele>
        <time>2026-08-26T16:26:13+00:00</time>
      </trkpt>
      <trkpt lat="49.93532" lon="6.07998">
        <ele>413</ele>
        <time>2026-08-26T16:26:16+00:00</time>
      </trkpt>
      <trkpt lat="49.93517" lon="6.07957">
        <ele>413</ele>
        <time>2026-08-26T16:26:19+00:00</time>
      </trkpt>
      <trkpt lat="49.93502" lon="6.07916">
        <ele>408</ele>
        <time>2026-08-26T16:26:22+00:00</time>
      </trkpt>
      <trkpt lat="49.93481" lon="6.07861">
        <ele>407</ele>
        <time>2026-08-26T16:26:25+00:00</time>
      </trkpt>
      <trkpt lat="49.93467" lon="6.07832">
        <ele>406</ele>
        <time>2026-08-26T16:26:28+00:00</time>
      </trkpt>
      <trkpt lat="49.9345" lon="6.07797">
        <ele>403</ele>
        <time>2026-08-26T16:26:31+00:00</time>
      </trkpt>
      <trkpt lat="49.93443" lon="6.07766">
        <ele>401</ele>
        <time>2026-08-26T16:26:34+00:00</time>
      </trkpt>
      <trkpt lat="49.93439" lon="6.07722">
        <ele>401</ele>
        <time>2026-08-26T16:26:37+00:00</time>
      </trkpt>
      <trkpt lat="49.93439" lon="6.07701">
        <ele>398</ele>
        <time>2026-08-26T16:26:40+00:00</time>
      </trkpt>
      <trkpt lat="49.93435" lon="6.07668">
        <ele>395</ele>
        <time>2026-08-26T16:26:43+00:00</time>
      </trkpt>
      <trkpt lat="49.93428" lon="6.07615">
        <ele>389</ele>
        <time>2026-08-26T16:26:46+00:00</time>
      </trkpt>
      <trkpt lat="49.93429" lon="6.07565">
        <ele>384</ele>
        <time>2026-08-26T16:26:49+00:00</time>
      </trkpt>
      <trkpt lat="49.93427" lon="6.07538">
        <ele>379</ele>
        <time>2026-08-26T16:26:52+00:00</time>
      </trkpt>
      <trkpt lat="49.93422" lon="6.0751">
        <ele>376</ele>
        <time>2026-08-26T16:26:55+00:00</time>
      </trkpt>
      <trkpt lat="49.93417" lon="6.07483">
        <ele>373</ele>
        <time>2026-08-26T16:26:58+00:00</time>
      </trkpt>
      <trkpt lat="49.93403" lon="6.07433">
        <ele>370</ele>
        <time>2026-08-26T16:27:01+00:00</time>
      </trkpt>
      <trkpt lat="49.93383" lon="6.0739">
        <ele>359</ele>
        <time>2026-08-26T16:27:04+00:00</time>
      </trkpt>
      <trkpt lat="49.93372" lon="6.07379">
        <ele>356</ele>
        <time>2026-08-26T16:27:07+00:00</time>
      </trkpt>
      <trkpt lat="49.93372" lon="6.07373">
        <ele>356</ele>
        <time>2026-08-26T16:27:10+00:00</time>
      </trkpt>
      <trkpt lat="49.93388" lon="6.07378">
        <ele>359</ele>
        <time>2026-08-26T16:27:13+00:00</time>
      </trkpt>
      <trkpt lat="49.93399" lon="6.07385">
        <ele>358</ele>
        <time>2026-08-26T16:27:16+00:00</time>
      </trkpt>
      <trkpt lat="49.93428" lon="6.07394">
        <ele>358</ele>
        <time>2026-08-26T16:27:19+00:00</time>
      </trkpt>
      <trkpt lat="49.93445" lon="6.07406">
        <ele>357</ele>
        <time>2026-08-26T16:27:22+00:00</time>
      </trkpt>
      <trkpt lat="49.93454" lon="6.0742">
        <ele>358</ele>
        <time>2026-08-26T16:27:25+00:00</time>
      </trkpt>
      <trkpt lat="49.93461" lon="6.07443">
        <ele>355</ele>
        <time>2026-08-26T16:27:28+00:00</time>
      </trkpt>
      <trkpt lat="49.93465" lon="6.0745">
        <ele>355</ele>
        <time>2026-08-26T16:27:31+00:00</time>
      </trkpt>
      <trkpt lat="49.93467" lon="6.07442">
        <ele>355</ele>
        <time>2026-08-26T16:27:34+00:00</time>
      </trkpt>
      <trkpt lat="49.93464" lon="6.074">
        <ele>347</ele>
        <time>2026-08-26T16:27:37+00:00</time>
      </trkpt>
      <trkpt lat="49.93459" lon="6.07375">
        <ele>349</ele>
        <time>2026-08-26T16:27:40+00:00</time>
      </trkpt>
      <trkpt lat="49.93449" lon="6.07344">
        <ele>343</ele>
        <time>2026-08-26T16:27:43+00:00</time>
      </trkpt>
      <trkpt lat="49.93432" lon="6.07312">
        <ele>339</ele>
        <time>2026-08-26T16:27:46+00:00</time>
      </trkpt>
      <trkpt lat="49.93423" lon="6.07304">
        <ele>330</ele>
        <time>2026-08-26T16:27:49+00:00</time>
      </trkpt>
      <trkpt lat="49.93407" lon="6.07304">
        <ele>336</ele>
        <time>2026-08-26T16:27:52+00:00</time>
      </trkpt>
      <trkpt lat="49.93405" lon="6.073">
        <ele>336</ele>
        <time>2026-08-26T16:27:55+00:00</time>
      </trkpt>
      <trkpt lat="49.93406" lon="6.07294">
        <ele>332</ele>
        <time>2026-08-26T16:27:58+00:00</time>
      </trkpt>
      <trkpt lat="49.9341" lon="6.07288">
        <ele>328</ele>
        <time>2026-08-26T16:28:01+00:00</time>
      </trkpt>
      <trkpt lat="49.93417" lon="6.07282">
        <ele>328</ele>
        <time>2026-08-26T16:28:04+00:00</time>
      </trkpt>
      <trkpt lat="49.93426" lon="6.07281">
        <ele>324</ele>
        <time>2026-08-26T16:28:07+00:00</time>
      </trkpt>
      <trkpt lat="49.93438" lon="6.07287">
        <ele>326</ele>
        <time>2026-08-26T16:28:10+00:00</time>
      </trkpt>
      <trkpt lat="49.93454" lon="6.07302">
        <ele>325</ele>
        <time>2026-08-26T16:28:13+00:00</time>
      </trkpt>
      <trkpt lat="49.93476" lon="6.07326">
        <ele>321</ele>
        <time>2026-08-26T16:28:16+00:00</time>
      </trkpt>
      <trkpt lat="49.93502" lon="6.07367">
        <ele>316</ele>
        <time>2026-08-26T16:28:19+00:00</time>
      </trkpt>
      <trkpt lat="49.93514" lon="6.07396">
        <ele>315</ele>
        <time>2026-08-26T16:28:22+00:00</time>
      </trkpt>
      <trkpt lat="49.93516" lon="6.07398">
        <ele>313</ele>
        <time>2026-08-26T16:28:25+00:00</time>
      </trkpt>
      <trkpt lat="49.93519" lon="6.07396">
        <ele>313</ele>
        <time>2026-08-26T16:28:28+00:00</time>
      </trkpt>
      <trkpt lat="49.93519" lon="6.07391">
        <ele>313</ele>
        <time>2026-08-26T16:28:31+00:00</time>
      </trkpt>
      <trkpt lat="49.93509" lon="6.07359">
        <ele>314</ele>
        <time>2026-08-26T16:28:34+00:00</time>
      </trkpt>
      <trkpt lat="49.93494" lon="6.07309">
        <ele>308</ele>
        <time>2026-08-26T16:28:37+00:00</time>
      </trkpt>
      <trkpt lat="49.93484" lon="6.07275">
        <ele>305</ele>
        <time>2026-08-26T16:28:40+00:00</time>
      </trkpt>
      <trkpt lat="49.93472" lon="6.07232">
        <ele>297</ele>
        <time>2026-08-26T16:28:43+00:00</time>
      </trkpt>
      <trkpt lat="49.93462" lon="6.07208">
        <ele>291</ele>
        <time>2026-08-26T16:28:46+00:00</time>
      </trkpt>
      <trkpt lat="49.93453" lon="6.07197">
        <ele>289</ele>
        <time>2026-08-26T16:28:49+00:00</time>
      </trkpt>
      <trkpt lat="49.93442" lon="6.07189">
        <ele>290</ele>
        <time>2026-08-26T16:28:52+00:00</time>
      </trkpt>
      <trkpt lat="49.9344" lon="6.07184">
        <ele>285</ele>
        <time>2026-08-26T16:28:55+00:00</time>
      </trkpt>
      <trkpt lat="49.93442" lon="6.07181">
        <ele>285</ele>
        <time>2026-08-26T16:28:58+00:00</time>
      </trkpt>
      <trkpt lat="49.93446" lon="6.07181">
        <ele>285</ele>
        <time>2026-08-26T16:29:01+00:00</time>
      </trkpt>
      <trkpt lat="49.9346" lon="6.0719">
        <ele>289</ele>
        <time>2026-08-26T16:29:04+00:00</time>
      </trkpt>
      <trkpt lat="49.93473" lon="6.07202">
        <ele>288</ele>
        <time>2026-08-26T16:29:07+00:00</time>
      </trkpt>
      <trkpt lat="49.93492" lon="6.07229">
        <ele>289</ele>
        <time>2026-08-26T16:29:10+00:00</time>
      </trkpt>
      <trkpt lat="49.93511" lon="6.07262">
        <ele>288</ele>
        <time>2026-08-26T16:29:13+00:00</time>
      </trkpt>
      <trkpt lat="49.93545" lon="6.07323">
        <ele>287</ele>
        <time>2026-08-26T16:29:16+00:00</time>
      </trkpt>
      <trkpt lat="49.93559" lon="6.07348">
        <ele>285</ele>
        <time>2026-08-26T16:29:19+00:00</time>
      </trkpt>
      <trkpt lat="49.93565" lon="6.07351">
        <ele>277</ele>
        <time>2026-08-26T16:29:22+00:00</time>
      </trkpt>
      <trkpt lat="49.93548" lon="6.073">
        <ele>282</ele>
        <time>2026-08-26T16:29:25+00:00</time>
      </trkpt>
      <trkpt lat="49.93536" lon="6.07262">
        <ele>277</ele>
        <time>2026-08-26T16:29:28+00:00</time>
      </trkpt>
      <trkpt lat="49.93514" lon="6.07196">
        <ele>264</ele>
        <time>2026-08-26T16:29:31+00:00</time>
      </trkpt>
      <trkpt lat="49.93499" lon="6.07155">
        <ele>262</ele>
        <time>2026-08-26T16:29:34+00:00</time>
      </trkpt>
      <trkpt lat="49.93491" lon="6.07137">
        <ele>253</ele>
        <time>2026-08-26T16:29:37+00:00</time>
      </trkpt>
      <trkpt lat="49.93479" lon="6.07122">
        <ele>253</ele>
        <time>2026-08-26T16:29:40+00:00</time>
      </trkpt>
      <trkpt lat="49.93473" lon="6.07117">
        <ele>251</ele>
        <time>2026-08-26T16:29:43+00:00</time>
      </trkpt>
      <trkpt lat="49.9346" lon="6.07113">
        <ele>249</ele>
        <time>2026-08-26T16:29:46+00:00</time>
      </trkpt>
      <trkpt lat="49.9346" lon="6.07106">
        <ele>247</ele>
        <time>2026-08-26T16:29:49+00:00</time>
      </trkpt>
      <trkpt lat="49.93468" lon="6.07106">
        <ele>249</ele>
        <time>2026-08-26T16:29:52+00:00</time>
      </trkpt>
      <trkpt lat="49.93469" lon="6.07104">
        <ele>249</ele>
        <time>2026-08-26T16:29:55+00:00</time>
      </trkpt>
      <trkpt lat="49.93464" lon="6.07088">
        <ele>243</ele>
        <time>2026-08-26T16:29:58+00:00</time>
      </trkpt>
      <trkpt lat="49.93459" lon="6.07072">
        <ele>241</ele>
        <time>2026-08-26T16:30:01+00:00</time>
      </trkpt>
      <trkpt lat="49.93462" lon="6.07067">
        <ele>240</ele>
        <time>2026-08-26T16:30:04+00:00</time>
      </trkpt>
      <trkpt lat="49.93455" lon="6.07049">
        <ele>240</ele>
        <time>2026-08-26T16:30:07+00:00</time>
      </trkpt>
      <trkpt lat="49.93447" lon="6.0703">
        <ele>240</ele>
        <time>2026-08-26T16:30:10+00:00</time>
      </trkpt>
      <trkpt lat="49.93449" lon="6.06986">
        <ele>240</ele>
        <time>2026-08-26T16:30:13+00:00</time>
      </trkpt>
      <trkpt lat="49.93449" lon="6.06945">
        <ele>241</ele>
        <time>2026-08-26T16:30:16+00:00</time>
      </trkpt>
      <trkpt lat="49.93455" lon="6.06884">
        <ele>241</ele>
        <time>2026-08-26T16:30:19+00:00</time>
      </trkpt>
      <trkpt lat="49.93464" lon="6.0683">
        <ele>242</ele>
        <time>2026-08-26T16:30:22+00:00</time>
      </trkpt>
      <trkpt lat="49.93467" lon="6.06823">
        <ele>242</ele>
        <time>2026-08-26T16:30:25+00:00</time>
      </trkpt>
      <trkpt lat="49.93473" lon="6.06815">
        <ele>243</ele>
        <time>2026-08-26T16:30:28+00:00</time>
      </trkpt>
      <trkpt lat="49.93486" lon="6.06803">
        <ele>243</ele>
        <time>2026-08-26T16:30:31+00:00</time>
      </trkpt>
      <trkpt lat="49.93494" lon="6.06787">
        <ele>243</ele>
        <time>2026-08-26T16:30:34+00:00</time>
      </trkpt>
      <trkpt lat="49.93502" lon="6.06758">
        <ele>245</ele>
        <time>2026-08-26T16:30:37+00:00</time>
      </trkpt>
      <trkpt lat="49.93513" lon="6.06717">
        <ele>246</ele>
        <time>2026-08-26T16:30:40+00:00</time>
      </trkpt>
      <trkpt lat="49.93522" lon="6.06655">
        <ele>249</ele>
        <time>2026-08-26T16:30:43+00:00</time>
      </trkpt>
      <trkpt lat="49.93522" lon="6.06634">
        <ele>250</ele>
        <time>2026-08-26T16:30:46+00:00</time>
      </trkpt>
      <trkpt lat="49.93513" lon="6.06593">
        <ele>252</ele>
        <time>2026-08-26T16:30:49+00:00</time>
      </trkpt>
      <trkpt lat="49.93515" lon="6.06577">
        <ele>254</ele>
        <time>2026-08-26T16:30:52+00:00</time>
      </trkpt>
      <trkpt lat="49.93517" lon="6.06566">
        <ele>250</ele>
        <time>2026-08-26T16:30:55+00:00</time>
      </trkpt>
      <trkpt lat="49.93523" lon="6.06553">
        <ele>250</ele>
        <time>2026-08-26T16:30:58+00:00</time>
      </trkpt>
      <trkpt lat="49.93533" lon="6.06543">
        <ele>248</ele>
        <time>2026-08-26T16:31:01+00:00</time>
      </trkpt>
      <trkpt lat="49.93551" lon="6.06535">
        <ele>248</ele>
        <time>2026-08-26T16:31:04+00:00</time>
      </trkpt>
      <trkpt lat="49.93564" lon="6.06534">
        <ele>250</ele>
        <time>2026-08-26T16:31:07+00:00</time>
      </trkpt>
      <trkpt lat="49.93581" lon="6.06531">
        <ele>255</ele>
        <time>2026-08-26T16:31:10+00:00</time>
      </trkpt>
      <trkpt lat="49.93602" lon="6.06522">
        <ele>261</ele>
        <time>2026-08-26T16:31:13+00:00</time>
      </trkpt>
      <trkpt lat="49.93625" lon="6.06512">
        <ele>263</ele>
        <time>2026-08-26T16:31:16+00:00</time>
      </trkpt>
      <trkpt lat="49.93636" lon="6.06511">
        <ele>268</ele>
        <time>2026-08-26T16:31:19+00:00</time>
      </trkpt>
      <trkpt lat="49.93637" lon="6.06511">
        <ele>268</ele>
        <time>2026-08-26T16:31:22+00:00</time>
      </trkpt>
      <trkpt lat="49.93636" lon="6.06511">
        <ele>268</ele>
        <time>2026-08-26T16:31:25+00:00</time>
      </trkpt>
      <trkpt lat="49.93648" lon="6.0652">
        <ele>263</ele>
        <time>2026-08-26T16:31:28+00:00</time>
      </trkpt>
      <trkpt lat="49.93658" lon="6.0652">
        <ele>265</ele>
        <time>2026-08-26T16:31:31+00:00</time>
      </trkpt>
      <trkpt lat="49.93667" lon="6.06516">
        <ele>263</ele>
        <time>2026-08-26T16:31:34+00:00</time>
      </trkpt>
      <trkpt lat="49.93682" lon="6.06519">
        <ele>257</ele>
        <time>2026-08-26T16:31:37+00:00</time>
      </trkpt>
      <trkpt lat="49.93695" lon="6.0651">
        <ele>267</ele>
        <time>2026-08-26T16:31:40+00:00</time>
      </trkpt>
      <trkpt lat="49.93724" lon="6.06508">
        <ele>267</ele>
        <time>2026-08-26T16:31:43+00:00</time>
      </trkpt>
      <trkpt lat="49.93779" lon="6.06503">
        <ele>267</ele>
        <time>2026-08-26T16:31:46+00:00</time>
      </trkpt>
      <trkpt lat="49.93803" lon="6.06497">
        <ele>271</ele>
        <time>2026-08-26T16:31:49+00:00</time>
      </trkpt>
      <trkpt lat="49.93833" lon="6.06489">
        <ele>271</ele>
        <time>2026-08-26T16:31:52+00:00</time>
      </trkpt>
      <trkpt lat="49.93854" lon="6.06481">
        <ele>272</ele>
        <time>2026-08-26T16:31:55+00:00</time>
      </trkpt>
      <trkpt lat="49.93876" lon="6.06473">
        <ele>272</ele>
        <time>2026-08-26T16:31:58+00:00</time>
      </trkpt>
      <trkpt lat="49.93904" lon="6.06456">
        <ele>272</ele>
        <time>2026-08-26T16:32:01+00:00</time>
      </trkpt>
      <trkpt lat="49.93945" lon="6.06438">
        <ele>270</ele>
        <time>2026-08-26T16:32:04+00:00</time>
      </trkpt>
      <trkpt lat="49.93975" lon="6.06431">
        <ele>269</ele>
        <time>2026-08-26T16:32:07+00:00</time>
      </trkpt>
      <trkpt lat="49.94005" lon="6.06424">
        <ele>267</ele>
        <time>2026-08-26T16:32:10+00:00</time>
      </trkpt>
      <trkpt lat="49.94045" lon="6.06415">
        <ele>267</ele>
        <time>2026-08-26T16:32:13+00:00</time>
      </trkpt>
      <trkpt lat="49.9407" lon="6.06406">
        <ele>270</ele>
        <time>2026-08-26T16:32:16+00:00</time>
      </trkpt>
      <trkpt lat="49.941" lon="6.06379">
        <ele>274</ele>
        <time>2026-08-26T16:32:19+00:00</time>
      </trkpt>
      <trkpt lat="49.94115" lon="6.06369">
        <ele>277</ele>
        <time>2026-08-26T16:32:22+00:00</time>
      </trkpt>
      <trkpt lat="49.9413" lon="6.06364">
        <ele>283</ele>
        <time>2026-08-26T16:32:25+00:00</time>
      </trkpt>
      <trkpt lat="49.94147" lon="6.06359">
        <ele>283</ele>
        <time>2026-08-26T16:32:28+00:00</time>
      </trkpt>
      <trkpt lat="49.94172" lon="6.06356">
        <ele>286</ele>
        <time>2026-08-26T16:32:31+00:00</time>
      </trkpt>
      <trkpt lat="49.9419" lon="6.06359">
        <ele>286</ele>
        <time>2026-08-26T16:32:34+00:00</time>
      </trkpt>
      <trkpt lat="49.94205" lon="6.06371">
        <ele>290</ele>
        <time>2026-08-26T16:32:37+00:00</time>
      </trkpt>
      <trkpt lat="49.94224" lon="6.06392">
        <ele>291</ele>
        <time>2026-08-26T16:32:40+00:00</time>
      </trkpt>
      <trkpt lat="49.94244" lon="6.06412">
        <ele>295</ele>
        <time>2026-08-26T16:32:43+00:00</time>
      </trkpt>
      <trkpt lat="49.94264" lon="6.06434">
        <ele>296</ele>
        <time>2026-08-26T16:32:46+00:00</time>
      </trkpt>
      <trkpt lat="49.94294" lon="6.06456">
        <ele>296</ele>
        <time>2026-08-26T16:32:49+00:00</time>
      </trkpt>
      <trkpt lat="49.94315" lon="6.06462">
        <ele>295</ele>
        <time>2026-08-26T16:32:52+00:00</time>
      </trkpt>
      <trkpt lat="49.94337" lon="6.06462">
        <ele>295</ele>
        <time>2026-08-26T16:32:55+00:00</time>
      </trkpt>
      <trkpt lat="49.94352" lon="6.06467">
        <ele>292</ele>
        <time>2026-08-26T16:32:58+00:00</time>
      </trkpt>
      <trkpt lat="49.9437" lon="6.06482">
        <ele>296</ele>
        <time>2026-08-26T16:33:01+00:00</time>
      </trkpt>
      <trkpt lat="49.94371" lon="6.06484">
        <ele>293</ele>
        <time>2026-08-26T16:33:04+00:00</time>
      </trkpt>
      <trkpt lat="49.94382" lon="6.06504">
        <ele>298</ele>
        <time>2026-08-26T16:33:07+00:00</time>
      </trkpt>
      <trkpt lat="49.94407" lon="6.06533">
        <ele>303</ele>
        <time>2026-08-26T16:33:10+00:00</time>
      </trkpt>
      <trkpt lat="49.94429" lon="6.06544">
        <ele>300</ele>
        <time>2026-08-26T16:33:13+00:00</time>
      </trkpt>
      <trkpt lat="49.9445" lon="6.06544">
        <ele>297</ele>
        <time>2026-08-26T16:33:16+00:00</time>
      </trkpt>
      <trkpt lat="49.94473" lon="6.06533">
        <ele>298</ele>
        <time>2026-08-26T16:33:19+00:00</time>
      </trkpt>
      <trkpt lat="49.94508" lon="6.06521">
        <ele>299</ele>
        <time>2026-08-26T16:33:22+00:00</time>
      </trkpt>
      <trkpt lat="49.94529" lon="6.06508">
        <ele>302</ele>
        <time>2026-08-26T16:33:25+00:00</time>
      </trkpt>
      <trkpt lat="49.94553" lon="6.06493">
        <ele>298</ele>
        <time>2026-08-26T16:33:28+00:00</time>
      </trkpt>
      <trkpt lat="49.94579" lon="6.06476">
        <ele>295</ele>
        <time>2026-08-26T16:33:31+00:00</time>
      </trkpt>
      <trkpt lat="49.94603" lon="6.06458">
        <ele>295</ele>
        <time>2026-08-26T16:33:34+00:00</time>
      </trkpt>
      <trkpt lat="49.94619" lon="6.06442">
        <ele>295</ele>
        <time>2026-08-26T16:33:37+00:00</time>
      </trkpt>
      <trkpt lat="49.94635" lon="6.06412">
        <ele>298</ele>
        <time>2026-08-26T16:33:40+00:00</time>
      </trkpt>
      <trkpt lat="49.94645" lon="6.06373">
        <ele>299</ele>
        <time>2026-08-26T16:33:43+00:00</time>
      </trkpt>
      <trkpt lat="49.94653" lon="6.06361">
        <ele>298</ele>
        <time>2026-08-26T16:33:46+00:00</time>
      </trkpt>
      <trkpt lat="49.94661" lon="6.06356">
        <ele>298</ele>
        <time>2026-08-26T16:33:49+00:00</time>
      </trkpt>
      <trkpt lat="49.94671" lon="6.06348">
        <ele>301</ele>
        <time>2026-08-26T16:33:52+00:00</time>
      </trkpt>
      <trkpt lat="49.94695" lon="6.06321">
        <ele>298</ele>
        <time>2026-08-26T16:33:55+00:00</time>
      </trkpt>
      <trkpt lat="49.94717" lon="6.06289">
        <ele>298</ele>
        <time>2026-08-26T16:33:58+00:00</time>
      </trkpt>
      <trkpt lat="49.94728" lon="6.0628">
        <ele>296</ele>
        <time>2026-08-26T16:34:01+00:00</time>
      </trkpt>
      <trkpt lat="49.94737" lon="6.06279">
        <ele>297</ele>
        <time>2026-08-26T16:34:04+00:00</time>
      </trkpt>
      <trkpt lat="49.94756" lon="6.06286">
        <ele>297</ele>
        <time>2026-08-26T16:34:07+00:00</time>
      </trkpt>
      <trkpt lat="49.94767" lon="6.06295">
        <ele>297</ele>
        <time>2026-08-26T16:34:10+00:00</time>
      </trkpt>
      <trkpt lat="49.94787" lon="6.06319">
        <ele>298</ele>
        <time>2026-08-26T16:34:13+00:00</time>
      </trkpt>
      <trkpt lat="49.94798" lon="6.06326">
        <ele>302</ele>
        <time>2026-08-26T16:34:16+00:00</time>
      </trkpt>
      <trkpt lat="49.94817" lon="6.06332">
        <ele>299</ele>
        <time>2026-08-26T16:34:19+00:00</time>
      </trkpt>
      <trkpt lat="49.94833" lon="6.06336">
        <ele>302</ele>
        <time>2026-08-26T16:34:22+00:00</time>
      </trkpt>
      <trkpt lat="49.9484" lon="6.0634">
        <ele>299</ele>
        <time>2026-08-26T16:34:25+00:00</time>
      </trkpt>
      <trkpt lat="49.94833" lon="6.06336">
        <ele>302</ele>
        <time>2026-08-26T16:34:28+00:00</time>
      </trkpt>
      <trkpt lat="49.94817" lon="6.06332">
        <ele>299</ele>
        <time>2026-08-26T16:34:31+00:00</time>
      </trkpt>
      <trkpt lat="49.94835" lon="6.06349">
        <ele>303</ele>
        <time>2026-08-26T16:34:34+00:00</time>
      </trkpt>
      <trkpt lat="49.94826" lon="6.06352">
        <ele>306</ele>
        <time>2026-08-26T16:34:37+00:00</time>
      </trkpt>
      <trkpt lat="49.94798" lon="6.0635">
        <ele>312</ele>
        <time>2026-08-26T16:34:40+00:00</time>
      </trkpt>
      <trkpt lat="49.94777" lon="6.06362">
        <ele>318</ele>
        <time>2026-08-26T16:34:43+00:00</time>
      </trkpt>
      <trkpt lat="49.9475" lon="6.06353">
        <ele>320</ele>
        <time>2026-08-26T16:34:46+00:00</time>
      </trkpt>
      <trkpt lat="49.94743" lon="6.06354">
        <ele>320</ele>
        <time>2026-08-26T16:34:49+00:00</time>
      </trkpt>
      <trkpt lat="49.94735" lon="6.0635">
        <ele>315</ele>
        <time>2026-08-26T16:34:52+00:00</time>
      </trkpt>
      <trkpt lat="49.94741" lon="6.06368">
        <ele>323</ele>
        <time>2026-08-26T16:34:55+00:00</time>
      </trkpt>
      <trkpt lat="49.94737" lon="6.06368">
        <ele>319</ele>
        <time>2026-08-26T16:34:58+00:00</time>
      </trkpt>
      <trkpt lat="49.94736" lon="6.0637">
        <ele>319</ele>
        <time>2026-08-26T16:35:01+00:00</time>
      </trkpt>
      <trkpt lat="49.94738" lon="6.06377">
        <ele>319</ele>
        <time>2026-08-26T16:35:04+00:00</time>
      </trkpt>
      <trkpt lat="49.94745" lon="6.06384">
        <ele>325</ele>
        <time>2026-08-26T16:35:07+00:00</time>
      </trkpt>
      <trkpt lat="49.9475" lon="6.06409">
        <ele>326</ele>
        <time>2026-08-26T16:35:10+00:00</time>
      </trkpt>
      <trkpt lat="49.94755" lon="6.06412">
        <ele>332</ele>
        <time>2026-08-26T16:35:13+00:00</time>
      </trkpt>
      <trkpt lat="49.94767" lon="6.0644">
        <ele>337</ele>
        <time>2026-08-26T16:35:16+00:00</time>
      </trkpt>
      <trkpt lat="49.94779" lon="6.06469">
        <ele>341</ele>
        <time>2026-08-26T16:35:19+00:00</time>
      </trkpt>
      <trkpt lat="49.94783" lon="6.06475">
        <ele>347</ele>
        <time>2026-08-26T16:35:22+00:00</time>
      </trkpt>
      <trkpt lat="49.94788" lon="6.06486">
        <ele>346</ele>
        <time>2026-08-26T16:35:25+00:00</time>
      </trkpt>
      <trkpt lat="49.94791" lon="6.06487">
        <ele>351</ele>
        <time>2026-08-26T16:35:28+00:00</time>
      </trkpt>
      <trkpt lat="49.94797" lon="6.06496">
        <ele>351</ele>
        <time>2026-08-26T16:35:31+00:00</time>
      </trkpt>
      <trkpt lat="49.94802" lon="6.06507">
        <ele>355</ele>
        <time>2026-08-26T16:35:34+00:00</time>
      </trkpt>
      <trkpt lat="49.94808" lon="6.06529">
        <ele>351</ele>
        <time>2026-08-26T16:35:37+00:00</time>
      </trkpt>
      <trkpt lat="49.94816" lon="6.06569">
        <ele>348</ele>
        <time>2026-08-26T16:35:40+00:00</time>
      </trkpt>
      <trkpt lat="49.94817" lon="6.06588">
        <ele>348</ele>
        <time>2026-08-26T16:35:43+00:00</time>
      </trkpt>
      <trkpt lat="49.9482" lon="6.06607">
        <ele>347</ele>
        <time>2026-08-26T16:35:46+00:00</time>
      </trkpt>
      <trkpt lat="49.94828" lon="6.06631">
        <ele>347</ele>
        <time>2026-08-26T16:35:49+00:00</time>
      </trkpt>
      <trkpt lat="49.94829" lon="6.06644">
        <ele>346</ele>
        <time>2026-08-26T16:35:52+00:00</time>
      </trkpt>
      <trkpt lat="49.94829" lon="6.06645">
        <ele>346</ele>
        <time>2026-08-26T16:35:55+00:00</time>
      </trkpt>
      <trkpt lat="49.94838" lon="6.06684">
        <ele>351</ele>
        <time>2026-08-26T16:35:58+00:00</time>
      </trkpt>
      <trkpt lat="49.94849" lon="6.06729">
        <ele>356</ele>
        <time>2026-08-26T16:36:01+00:00</time>
      </trkpt>
      <trkpt lat="49.94859" lon="6.06761">
        <ele>357</ele>
        <time>2026-08-26T16:36:04+00:00</time>
      </trkpt>
      <trkpt lat="49.94861" lon="6.06779">
        <ele>356</ele>
        <time>2026-08-26T16:36:07+00:00</time>
      </trkpt>
      <trkpt lat="49.94865" lon="6.06785">
        <ele>357</ele>
        <time>2026-08-26T16:36:10+00:00</time>
      </trkpt>
      <trkpt lat="49.94868" lon="6.06796">
        <ele>358</ele>
        <time>2026-08-26T16:36:13+00:00</time>
      </trkpt>
      <trkpt lat="49.9487" lon="6.06821">
        <ele>360</ele>
        <time>2026-08-26T16:36:16+00:00</time>
      </trkpt>
      <trkpt lat="49.94877" lon="6.06853">
        <ele>365</ele>
        <time>2026-08-26T16:36:19+00:00</time>
      </trkpt>
      <trkpt lat="49.94882" lon="6.06872">
        <ele>371</ele>
        <time>2026-08-26T16:36:22+00:00</time>
      </trkpt>
      <trkpt lat="49.94885" lon="6.06873">
        <ele>371</ele>
        <time>2026-08-26T16:36:25+00:00</time>
      </trkpt>
      <trkpt lat="49.94891" lon="6.06908">
        <ele>381</ele>
        <time>2026-08-26T16:36:28+00:00</time>
      </trkpt>
      <trkpt lat="49.94895" lon="6.06918">
        <ele>383</ele>
        <time>2026-08-26T16:36:31+00:00</time>
      </trkpt>
      <trkpt lat="49.94898" lon="6.06932">
        <ele>386</ele>
        <time>2026-08-26T16:36:34+00:00</time>
      </trkpt>
      <trkpt lat="49.949" lon="6.06935">
        <ele>386</ele>
        <time>2026-08-26T16:36:37+00:00</time>
      </trkpt>
      <trkpt lat="49.94901" lon="6.06949">
        <ele>389</ele>
        <time>2026-08-26T16:36:40+00:00</time>
      </trkpt>
      <trkpt lat="49.94903" lon="6.0695">
        <ele>392</ele>
        <time>2026-08-26T16:36:43+00:00</time>
      </trkpt>
      <trkpt lat="49.94906" lon="6.06961">
        <ele>396</ele>
        <time>2026-08-26T16:36:46+00:00</time>
      </trkpt>
      <trkpt lat="49.94904" lon="6.06967">
        <ele>396</ele>
        <time>2026-08-26T16:36:49+00:00</time>
      </trkpt>
      <trkpt lat="49.94904" lon="6.06976">
        <ele>400</ele>
        <time>2026-08-26T16:36:52+00:00</time>
      </trkpt>
      <trkpt lat="49.94908" lon="6.07001">
        <ele>408</ele>
        <time>2026-08-26T16:36:55+00:00</time>
      </trkpt>
      <trkpt lat="49.94909" lon="6.07028">
        <ele>412</ele>
        <time>2026-08-26T16:36:58+00:00</time>
      </trkpt>
      <trkpt lat="49.94912" lon="6.07064">
        <ele>421</ele>
        <time>2026-08-26T16:37:01+00:00</time>
      </trkpt>
      <trkpt lat="49.94915" lon="6.07104">
        <ele>423</ele>
        <time>2026-08-26T16:37:04+00:00</time>
      </trkpt>
      <trkpt lat="49.94915" lon="6.07126">
        <ele>424</ele>
        <time>2026-08-26T16:37:07+00:00</time>
      </trkpt>
      <trkpt lat="49.94912" lon="6.07153">
        <ele>427</ele>
        <time>2026-08-26T16:37:10+00:00</time>
      </trkpt>
      <trkpt lat="49.94908" lon="6.07185">
        <ele>431</ele>
        <time>2026-08-26T16:37:13+00:00</time>
      </trkpt>
      <trkpt lat="49.94909" lon="6.07208">
        <ele>433</ele>
        <time>2026-08-26T16:37:16+00:00</time>
      </trkpt>
      <trkpt lat="49.94911" lon="6.07234">
        <ele>438</ele>
        <time>2026-08-26T16:37:19+00:00</time>
      </trkpt>
      <trkpt lat="49.94914" lon="6.07266">
        <ele>443</ele>
        <time>2026-08-26T16:37:22+00:00</time>
      </trkpt>
      <trkpt lat="49.94914" lon="6.07289">
        <ele>444</ele>
        <time>2026-08-26T16:37:25+00:00</time>
      </trkpt>
      <trkpt lat="49.9492" lon="6.07326">
        <ele>448</ele>
        <time>2026-08-26T16:37:28+00:00</time>
      </trkpt>
      <trkpt lat="49.94921" lon="6.07342">
        <ele>450</ele>
        <time>2026-08-26T16:37:31+00:00</time>
      </trkpt>
      <trkpt lat="49.94925" lon="6.07385">
        <ele>453</ele>
        <time>2026-08-26T16:37:34+00:00</time>
      </trkpt>
      <trkpt lat="49.94928" lon="6.07429">
        <ele>456</ele>
        <time>2026-08-26T16:37:37+00:00</time>
      </trkpt>
      <trkpt lat="49.94934" lon="6.07496">
        <ele>462</ele>
        <time>2026-08-26T16:37:40+00:00</time>
      </trkpt>
      <trkpt lat="49.94943" lon="6.07545">
        <ele>467</ele>
        <time>2026-08-26T16:37:43+00:00</time>
      </trkpt>
      <trkpt lat="49.94946" lon="6.0758">
        <ele>470</ele>
        <time>2026-08-26T16:37:46+00:00</time>
      </trkpt>
      <trkpt lat="49.9495" lon="6.07621">
        <ele>474</ele>
        <time>2026-08-26T16:37:49+00:00</time>
      </trkpt>
      <trkpt lat="49.94957" lon="6.07657">
        <ele>476</ele>
        <time>2026-08-26T16:37:52+00:00</time>
      </trkpt>
      <trkpt lat="49.94959" lon="6.0767">
        <ele>477</ele>
        <time>2026-08-26T16:37:55+00:00</time>
      </trkpt>
      <trkpt lat="49.94944" lon="6.07694">
        <ele>478</ele>
        <time>2026-08-26T16:37:58+00:00</time>
      </trkpt>
      <trkpt lat="49.94923" lon="6.07729">
        <ele>478</ele>
        <time>2026-08-26T16:38:01+00:00</time>
      </trkpt>
      <trkpt lat="49.94899" lon="6.07773">
        <ele>480</ele>
        <time>2026-08-26T16:38:04+00:00</time>
      </trkpt>
      <trkpt lat="49.9488" lon="6.07809">
        <ele>481</ele>
        <time>2026-08-26T16:38:07+00:00</time>
      </trkpt>
      <trkpt lat="49.94861" lon="6.07845">
        <ele>483</ele>
        <time>2026-08-26T16:38:10+00:00</time>
      </trkpt>
      <trkpt lat="49.94838" lon="6.07888">
        <ele>486</ele>
        <time>2026-08-26T16:38:13+00:00</time>
      </trkpt>
      <trkpt lat="49.94824" lon="6.07918">
        <ele>487</ele>
        <time>2026-08-26T16:38:16+00:00</time>
      </trkpt>
      <trkpt lat="49.9482" lon="6.07936">
        <ele>487</ele>
        <time>2026-08-26T16:38:19+00:00</time>
      </trkpt>
      <trkpt lat="49.94819" lon="6.07936">
        <ele>487</ele>
        <time>2026-08-26T16:38:22+00:00</time>
      </trkpt>
      <trkpt lat="49.9482" lon="6.07936">
        <ele>487</ele>
        <time>2026-08-26T16:38:25+00:00</time>
      </trkpt>
      <trkpt lat="49.94821" lon="6.07943">
        <ele>487</ele>
        <time>2026-08-26T16:38:28+00:00</time>
      </trkpt>
      <trkpt lat="49.94864" lon="6.07944">
        <ele>486</ele>
        <time>2026-08-26T16:38:31+00:00</time>
      </trkpt>
      <trkpt lat="49.94888" lon="6.07941">
        <ele>486</ele>
        <time>2026-08-26T16:38:34+00:00</time>
      </trkpt>
      <trkpt lat="49.94917" lon="6.07938">
        <ele>486</ele>
        <time>2026-08-26T16:38:37+00:00</time>
      </trkpt>
      <trkpt lat="49.94936" lon="6.0794">
        <ele>486</ele>
        <time>2026-08-26T16:38:40+00:00</time>
      </trkpt>
      <trkpt lat="49.94967" lon="6.07948">
        <ele>488</ele>
        <time>2026-08-26T16:38:43+00:00</time>
      </trkpt>
      <trkpt lat="49.94983" lon="6.07955">
        <ele>488</ele>
        <time>2026-08-26T16:38:46+00:00</time>
      </trkpt>
      <trkpt lat="49.95005" lon="6.07973">
        <ele>489</ele>
        <time>2026-08-26T16:38:49+00:00</time>
      </trkpt>
      <trkpt lat="49.95027" lon="6.0799">
        <ele>489</ele>
        <time>2026-08-26T16:38:52+00:00</time>
      </trkpt>
      <trkpt lat="49.95054" lon="6.08012">
        <ele>490</ele>
        <time>2026-08-26T16:38:55+00:00</time>
      </trkpt>
      <trkpt lat="49.95076" lon="6.08035">
        <ele>491</ele>
        <time>2026-08-26T16:38:58+00:00</time>
      </trkpt>
      <trkpt lat="49.95109" lon="6.08072">
        <ele>493</ele>
        <time>2026-08-26T16:39:01+00:00</time>
      </trkpt>
      <trkpt lat="49.95115" lon="6.08079">
        <ele>493</ele>
        <time>2026-08-26T16:39:04+00:00</time>
      </trkpt>
      <trkpt lat="49.9512" lon="6.08064">
        <ele>494</ele>
        <time>2026-08-26T16:39:07+00:00</time>
      </trkpt>
      <trkpt lat="49.9513" lon="6.08025">
        <ele>494</ele>
        <time>2026-08-26T16:39:10+00:00</time>
      </trkpt>
      <trkpt lat="49.95143" lon="6.07986">
        <ele>493</ele>
        <time>2026-08-26T16:39:13+00:00</time>
      </trkpt>
      <trkpt lat="49.95169" lon="6.07909">
        <ele>490</ele>
        <time>2026-08-26T16:39:16+00:00</time>
      </trkpt>
      <trkpt lat="49.95171" lon="6.07861">
        <ele>488</ele>
        <time>2026-08-26T16:39:19+00:00</time>
      </trkpt>
      <trkpt lat="49.95175" lon="6.07823">
        <ele>486</ele>
        <time>2026-08-26T16:39:22+00:00</time>
      </trkpt>
      <trkpt lat="49.95178" lon="6.07807">
        <ele>485</ele>
        <time>2026-08-26T16:39:25+00:00</time>
      </trkpt>
      <trkpt lat="49.95187" lon="6.07783">
        <ele>484</ele>
        <time>2026-08-26T16:39:28+00:00</time>
      </trkpt>
      <trkpt lat="49.95197" lon="6.07755">
        <ele>481</ele>
        <time>2026-08-26T16:39:31+00:00</time>
      </trkpt>
      <trkpt lat="49.95201" lon="6.0775">
        <ele>480</ele>
        <time>2026-08-26T16:39:34+00:00</time>
      </trkpt>
      <trkpt lat="49.95209" lon="6.07749">
        <ele>480</ele>
        <time>2026-08-26T16:39:37+00:00</time>
      </trkpt>
      <trkpt lat="49.95216" lon="6.07758">
        <ele>479</ele>
        <time>2026-08-26T16:39:40+00:00</time>
      </trkpt>
      <trkpt lat="49.95221" lon="6.07769">
        <ele>478</ele>
        <time>2026-08-26T16:39:43+00:00</time>
      </trkpt>
      <trkpt lat="49.95234" lon="6.07798">
        <ele>479</ele>
        <time>2026-08-26T16:39:46+00:00</time>
      </trkpt>
      <trkpt lat="49.95248" lon="6.07812">
        <ele>478</ele>
        <time>2026-08-26T16:39:49+00:00</time>
      </trkpt>
      <trkpt lat="49.95273" lon="6.07812">
        <ele>478</ele>
        <time>2026-08-26T16:39:52+00:00</time>
      </trkpt>
      <trkpt lat="49.95299" lon="6.07812">
        <ele>477</ele>
        <time>2026-08-26T16:39:55+00:00</time>
      </trkpt>
      <trkpt lat="49.95333" lon="6.07812">
        <ele>471</ele>
        <time>2026-08-26T16:39:58+00:00</time>
      </trkpt>
      <trkpt lat="49.95354" lon="6.07807">
        <ele>468</ele>
        <time>2026-08-26T16:40:01+00:00</time>
      </trkpt>
      <trkpt lat="49.9537" lon="6.07796">
        <ele>465</ele>
        <time>2026-08-26T16:40:04+00:00</time>
      </trkpt>
      <trkpt lat="49.95382" lon="6.07782">
        <ele>464</ele>
        <time>2026-08-26T16:40:07+00:00</time>
      </trkpt>
      <trkpt lat="49.95396" lon="6.07761">
        <ele>462</ele>
        <time>2026-08-26T16:40:10+00:00</time>
      </trkpt>
      <trkpt lat="49.95417" lon="6.07729">
        <ele>456</ele>
        <time>2026-08-26T16:40:13+00:00</time>
      </trkpt>
      <trkpt lat="49.9543" lon="6.0772">
        <ele>454</ele>
        <time>2026-08-26T16:40:16+00:00</time>
      </trkpt>
      <trkpt lat="49.9545" lon="6.0771">
        <ele>451</ele>
        <time>2026-08-26T16:40:19+00:00</time>
      </trkpt>
      <trkpt lat="49.9548" lon="6.07695">
        <ele>446</ele>
        <time>2026-08-26T16:40:22+00:00</time>
      </trkpt>
      <trkpt lat="49.95518" lon="6.07667">
        <ele>440</ele>
        <time>2026-08-26T16:40:25+00:00</time>
      </trkpt>
      <trkpt lat="49.95537" lon="6.07663">
        <ele>437</ele>
        <time>2026-08-26T16:40:28+00:00</time>
      </trkpt>
      <trkpt lat="49.95547" lon="6.07643">
        <ele>436</ele>
        <time>2026-08-26T16:40:31+00:00</time>
      </trkpt>
      <trkpt lat="49.9556" lon="6.07627">
        <ele>435</ele>
        <time>2026-08-26T16:40:34+00:00</time>
      </trkpt>
      <trkpt lat="49.95571" lon="6.07609">
        <ele>435</ele>
        <time>2026-08-26T16:40:37+00:00</time>
      </trkpt>
      <trkpt lat="49.95584" lon="6.07594">
        <ele>434</ele>
        <time>2026-08-26T16:40:40+00:00</time>
      </trkpt>
      <trkpt lat="49.95596" lon="6.07583">
        <ele>433</ele>
        <time>2026-08-26T16:40:43+00:00</time>
      </trkpt>
      <trkpt lat="49.95621" lon="6.07568">
        <ele>432</ele>
        <time>2026-08-26T16:40:46+00:00</time>
      </trkpt>
      <trkpt lat="49.95646" lon="6.07552">
        <ele>431</ele>
        <time>2026-08-26T16:40:49+00:00</time>
      </trkpt>
      <trkpt lat="49.95682" lon="6.0753">
        <ele>428</ele>
        <time>2026-08-26T16:40:52+00:00</time>
      </trkpt>
      <trkpt lat="49.95696" lon="6.07526">
        <ele>424</ele>
        <time>2026-08-26T16:40:55+00:00</time>
      </trkpt>
      <trkpt lat="49.95706" lon="6.07519">
        <ele>426</ele>
        <time>2026-08-26T16:40:58+00:00</time>
      </trkpt>
      <trkpt lat="49.95713" lon="6.07502">
        <ele>424</ele>
        <time>2026-08-26T16:41:01+00:00</time>
      </trkpt>
      <trkpt lat="49.95719" lon="6.07472">
        <ele>421</ele>
        <time>2026-08-26T16:41:04+00:00</time>
      </trkpt>
      <trkpt lat="49.95717" lon="6.07439">
        <ele>412</ele>
        <time>2026-08-26T16:41:07+00:00</time>
      </trkpt>
      <trkpt lat="49.95711" lon="6.07414">
        <ele>410</ele>
        <time>2026-08-26T16:41:10+00:00</time>
      </trkpt>
      <trkpt lat="49.95702" lon="6.07389">
        <ele>407</ele>
        <time>2026-08-26T16:41:13+00:00</time>
      </trkpt>
      <trkpt lat="49.95689" lon="6.07352">
        <ele>400</ele>
        <time>2026-08-26T16:41:16+00:00</time>
      </trkpt>
      <trkpt lat="49.95677" lon="6.07324">
        <ele>387</ele>
        <time>2026-08-26T16:41:19+00:00</time>
      </trkpt>
      <trkpt lat="49.95664" lon="6.07296">
        <ele>377</ele>
        <time>2026-08-26T16:41:22+00:00</time>
      </trkpt>
      <trkpt lat="49.95659" lon="6.07274">
        <ele>373</ele>
        <time>2026-08-26T16:41:25+00:00</time>
      </trkpt>
      <trkpt lat="49.95657" lon="6.07241">
        <ele>372</ele>
        <time>2026-08-26T16:41:28+00:00</time>
      </trkpt>
      <trkpt lat="49.95656" lon="6.07208">
        <ele>365</ele>
        <time>2026-08-26T16:41:31+00:00</time>
      </trkpt>
      <trkpt lat="49.95658" lon="6.07179">
        <ele>362</ele>
        <time>2026-08-26T16:41:34+00:00</time>
      </trkpt>
      <trkpt lat="49.9567" lon="6.07165">
        <ele>359</ele>
        <time>2026-08-26T16:41:37+00:00</time>
      </trkpt>
      <trkpt lat="49.95676" lon="6.07167">
        <ele>359</ele>
        <time>2026-08-26T16:41:40+00:00</time>
      </trkpt>
      <trkpt lat="49.9568" lon="6.07168">
        <ele>359</ele>
        <time>2026-08-26T16:41:43+00:00</time>
      </trkpt>
      <trkpt lat="49.95682" lon="6.07165">
        <ele>358</ele>
        <time>2026-08-26T16:41:46+00:00</time>
      </trkpt>
      <trkpt lat="49.95688" lon="6.07166">
        <ele>358</ele>
        <time>2026-08-26T16:41:49+00:00</time>
      </trkpt>
      <trkpt lat="49.95692" lon="6.07165">
        <ele>356</ele>
        <time>2026-08-26T16:41:52+00:00</time>
      </trkpt>
      <trkpt lat="49.95696" lon="6.07173">
        <ele>357</ele>
        <time>2026-08-26T16:41:55+00:00</time>
      </trkpt>
      <trkpt lat="49.95699" lon="6.07171">
        <ele>357</ele>
        <time>2026-08-26T16:41:58+00:00</time>
      </trkpt>
      <trkpt lat="49.95711" lon="6.07177">
        <ele>347</ele>
        <time>2026-08-26T16:42:01+00:00</time>
      </trkpt>
      <trkpt lat="49.95721" lon="6.07169">
        <ele>353</ele>
        <time>2026-08-26T16:42:04+00:00</time>
      </trkpt>
      <trkpt lat="49.95729" lon="6.07194">
        <ele>352</ele>
        <time>2026-08-26T16:42:07+00:00</time>
      </trkpt>
      <trkpt lat="49.95732" lon="6.07159">
        <ele>352</ele>
        <time>2026-08-26T16:42:10+00:00</time>
      </trkpt>
      <trkpt lat="49.95746" lon="6.07194">
        <ele>354</ele>
        <time>2026-08-26T16:42:13+00:00</time>
      </trkpt>
      <trkpt lat="49.95768" lon="6.07223">
        <ele>356</ele>
        <time>2026-08-26T16:42:16+00:00</time>
      </trkpt>
      <trkpt lat="49.95791" lon="6.07251">
        <ele>371</ele>
        <time>2026-08-26T16:42:19+00:00</time>
      </trkpt>
      <trkpt lat="49.95813" lon="6.0728">
        <ele>375</ele>
        <time>2026-08-26T16:42:22+00:00</time>
      </trkpt>
      <trkpt lat="49.95823" lon="6.07297">
        <ele>378</ele>
        <time>2026-08-26T16:42:25+00:00</time>
      </trkpt>
      <trkpt lat="49.95826" lon="6.07296">
        <ele>378</ele>
        <time>2026-08-26T16:42:28+00:00</time>
      </trkpt>
      <trkpt lat="49.95827" lon="6.07292">
        <ele>378</ele>
        <time>2026-08-26T16:42:31+00:00</time>
      </trkpt>
      <trkpt lat="49.9582" lon="6.0727">
        <ele>382</ele>
        <time>2026-08-26T16:42:34+00:00</time>
      </trkpt>
      <trkpt lat="49.95809" lon="6.07227">
        <ele>382</ele>
        <time>2026-08-26T16:42:37+00:00</time>
      </trkpt>
      <trkpt lat="49.95798" lon="6.07184">
        <ele>382</ele>
        <time>2026-08-26T16:42:40+00:00</time>
      </trkpt>
      <trkpt lat="49.95785" lon="6.07132">
        <ele>382</ele>
        <time>2026-08-26T16:42:43+00:00</time>
      </trkpt>
      <trkpt lat="49.95779" lon="6.071">
        <ele>381</ele>
        <time>2026-08-26T16:42:46+00:00</time>
      </trkpt>
      <trkpt lat="49.95773" lon="6.07067">
        <ele>381</ele>
        <time>2026-08-26T16:42:49+00:00</time>
      </trkpt>
      <trkpt lat="49.95773" lon="6.07062">
        <ele>381</ele>
        <time>2026-08-26T16:42:52+00:00</time>
      </trkpt>
      <trkpt lat="49.95776" lon="6.07062">
        <ele>381</ele>
        <time>2026-08-26T16:42:55+00:00</time>
      </trkpt>
      <trkpt lat="49.95778" lon="6.07066">
        <ele>381</ele>
        <time>2026-08-26T16:42:58+00:00</time>
      </trkpt>
      <trkpt lat="49.95794" lon="6.07096">
        <ele>390</ele>
        <time>2026-08-26T16:43:01+00:00</time>
      </trkpt>
      <trkpt lat="49.95824" lon="6.07153">
        <ele>403</ele>
        <time>2026-08-26T16:43:04+00:00</time>
      </trkpt>
      <trkpt lat="49.95837" lon="6.07171">
        <ele>407</ele>
        <time>2026-08-26T16:43:07+00:00</time>
      </trkpt>
      <trkpt lat="49.95859" lon="6.07205">
        <ele>412</ele>
        <time>2026-08-26T16:43:10+00:00</time>
      </trkpt>
      <trkpt lat="49.95881" lon="6.07238">
        <ele>421</ele>
        <time>2026-08-26T16:43:13+00:00</time>
      </trkpt>
      <trkpt lat="49.95915" lon="6.07289">
        <ele>424</ele>
        <time>2026-08-26T16:43:16+00:00</time>
      </trkpt>
      <trkpt lat="49.9592" lon="6.07294">
        <ele>426</ele>
        <time>2026-08-26T16:43:19+00:00</time>
      </trkpt>
      <trkpt lat="49.9592" lon="6.07283">
        <ele>428</ele>
        <time>2026-08-26T16:43:22+00:00</time>
      </trkpt>
      <trkpt lat="49.95913" lon="6.07257">
        <ele>431</ele>
        <time>2026-08-26T16:43:25+00:00</time>
      </trkpt>
      <trkpt lat="49.95901" lon="6.07219">
        <ele>436</ele>
        <time>2026-08-26T16:43:28+00:00</time>
      </trkpt>
      <trkpt lat="49.95881" lon="6.07156">
        <ele>431</ele>
        <time>2026-08-26T16:43:31+00:00</time>
      </trkpt>
      <trkpt lat="49.95868" lon="6.07108">
        <ele>429</ele>
        <time>2026-08-26T16:43:34+00:00</time>
      </trkpt>
      <trkpt lat="49.95862" lon="6.07066">
        <ele>432</ele>
        <time>2026-08-26T16:43:37+00:00</time>
      </trkpt>
      <trkpt lat="49.95851" lon="6.06995">
        <ele>435</ele>
        <time>2026-08-26T16:43:40+00:00</time>
      </trkpt>
      <trkpt lat="49.95853" lon="6.06992">
        <ele>435</ele>
        <time>2026-08-26T16:43:43+00:00</time>
      </trkpt>
      <trkpt lat="49.95858" lon="6.06997">
        <ele>435</ele>
        <time>2026-08-26T16:43:46+00:00</time>
      </trkpt>
      <trkpt lat="49.95875" lon="6.07027">
        <ele>437</ele>
        <time>2026-08-26T16:43:49+00:00</time>
      </trkpt>
      <trkpt lat="49.95905" lon="6.07072">
        <ele>443</ele>
        <time>2026-08-26T16:43:52+00:00</time>
      </trkpt>
      <trkpt lat="49.95927" lon="6.07093">
        <ele>455</ele>
        <time>2026-08-26T16:43:55+00:00</time>
      </trkpt>
      <trkpt lat="49.95958" lon="6.07124">
        <ele>465</ele>
        <time>2026-08-26T16:43:58+00:00</time>
      </trkpt>
      <trkpt lat="49.95965" lon="6.07127">
        <ele>466</ele>
        <time>2026-08-26T16:44:01+00:00</time>
      </trkpt>
      <trkpt lat="49.95962" lon="6.07094">
        <ele>462</ele>
        <time>2026-08-26T16:44:04+00:00</time>
      </trkpt>
      <trkpt lat="49.95959" lon="6.07051">
        <ele>459</ele>
        <time>2026-08-26T16:44:07+00:00</time>
      </trkpt>
      <trkpt lat="49.95959" lon="6.07032">
        <ele>457</ele>
        <time>2026-08-26T16:44:10+00:00</time>
      </trkpt>
      <trkpt lat="49.95963" lon="6.07021">
        <ele>458</ele>
        <time>2026-08-26T16:44:13+00:00</time>
      </trkpt>
      <trkpt lat="49.95978" lon="6.07011">
        <ele>458</ele>
        <time>2026-08-26T16:44:16+00:00</time>
      </trkpt>
      <trkpt lat="49.95977" lon="6.07009">
        <ele>457</ele>
        <time>2026-08-26T16:44:19+00:00</time>
      </trkpt>
      <trkpt lat="49.95967" lon="6.06981">
        <ele>457</ele>
        <time>2026-08-26T16:44:22+00:00</time>
      </trkpt>
      <trkpt lat="49.95942" lon="6.06938">
        <ele>457</ele>
        <time>2026-08-26T16:44:25+00:00</time>
      </trkpt>
      <trkpt lat="49.95931" lon="6.06909">
        <ele>461</ele>
        <time>2026-08-26T16:44:28+00:00</time>
      </trkpt>
      <trkpt lat="49.95919" lon="6.06879">
        <ele>461</ele>
        <time>2026-08-26T16:44:31+00:00</time>
      </trkpt>
      <trkpt lat="49.9591" lon="6.0686">
        <ele>462</ele>
        <time>2026-08-26T16:44:34+00:00</time>
      </trkpt>
      <trkpt lat="49.95899" lon="6.06844">
        <ele>461</ele>
        <time>2026-08-26T16:44:37+00:00</time>
      </trkpt>
      <trkpt lat="49.95882" lon="6.06824">
        <ele>458</ele>
        <time>2026-08-26T16:44:40+00:00</time>
      </trkpt>
      <trkpt lat="49.95864" lon="6.06803">
        <ele>457</ele>
        <time>2026-08-26T16:44:43+00:00</time>
      </trkpt>
      <trkpt lat="49.95847" lon="6.06774">
        <ele>453</ele>
        <time>2026-08-26T16:44:46+00:00</time>
      </trkpt>
      <trkpt lat="49.95823" lon="6.06733">
        <ele>450</ele>
        <time>2026-08-26T16:44:49+00:00</time>
      </trkpt>
      <trkpt lat="49.95805" lon="6.06708">
        <ele>444</ele>
        <time>2026-08-26T16:44:52+00:00</time>
      </trkpt>
      <trkpt lat="49.95784" lon="6.06686">
        <ele>440</ele>
        <time>2026-08-26T16:44:55+00:00</time>
      </trkpt>
      <trkpt lat="49.95773" lon="6.0667">
        <ele>440</ele>
        <time>2026-08-26T16:44:58+00:00</time>
      </trkpt>
      <trkpt lat="49.95758" lon="6.0664">
        <ele>436</ele>
        <time>2026-08-26T16:45:01+00:00</time>
      </trkpt>
      <trkpt lat="49.95742" lon="6.06599">
        <ele>434</ele>
        <time>2026-08-26T16:45:04+00:00</time>
      </trkpt>
      <trkpt lat="49.95728" lon="6.06554">
        <ele>431</ele>
        <time>2026-08-26T16:45:07+00:00</time>
      </trkpt>
      <trkpt lat="49.95709" lon="6.06514">
        <ele>430</ele>
        <time>2026-08-26T16:45:10+00:00</time>
      </trkpt>
      <trkpt lat="49.95702" lon="6.06486">
        <ele>430</ele>
        <time>2026-08-26T16:45:13+00:00</time>
      </trkpt>
      <trkpt lat="49.95699" lon="6.06446">
        <ele>428</ele>
        <time>2026-08-26T16:45:16+00:00</time>
      </trkpt>
      <trkpt lat="49.95695" lon="6.06432">
        <ele>431</ele>
        <time>2026-08-26T16:45:19+00:00</time>
      </trkpt>
      <trkpt lat="49.95676" lon="6.0639">
        <ele>427</ele>
        <time>2026-08-26T16:45:22+00:00</time>
      </trkpt>
      <trkpt lat="49.95668" lon="6.06366">
        <ele>423</ele>
        <time>2026-08-26T16:45:25+00:00</time>
      </trkpt>
      <trkpt lat="49.95665" lon="6.06348">
        <ele>422</ele>
        <time>2026-08-26T16:45:28+00:00</time>
      </trkpt>
      <trkpt lat="49.95661" lon="6.06338">
        <ele>421</ele>
        <time>2026-08-26T16:45:31+00:00</time>
      </trkpt>
      <trkpt lat="49.95659" lon="6.06323">
        <ele>416</ele>
        <time>2026-08-26T16:45:34+00:00</time>
      </trkpt>
      <trkpt lat="49.95656" lon="6.06316">
        <ele>415</ele>
        <time>2026-08-26T16:45:37+00:00</time>
      </trkpt>
      <trkpt lat="49.95655" lon="6.06306">
        <ele>415</ele>
        <time>2026-08-26T16:45:40+00:00</time>
      </trkpt>
      <trkpt lat="49.95645" lon="6.06268">
        <ele>402</ele>
        <time>2026-08-26T16:45:43+00:00</time>
      </trkpt>
      <trkpt lat="49.95641" lon="6.06263">
        <ele>402</ele>
        <time>2026-08-26T16:45:46+00:00</time>
      </trkpt>
      <trkpt lat="49.95636" lon="6.06262">
        <ele>397</ele>
        <time>2026-08-26T16:45:49+00:00</time>
      </trkpt>
      <trkpt lat="49.95633" lon="6.0625">
        <ele>395</ele>
        <time>2026-08-26T16:45:52+00:00</time>
      </trkpt>
      <trkpt lat="49.95635" lon="6.06245">
        <ele>394</ele>
        <time>2026-08-26T16:45:55+00:00</time>
      </trkpt>
      <trkpt lat="49.95634" lon="6.06238">
        <ele>393</ele>
        <time>2026-08-26T16:45:58+00:00</time>
      </trkpt>
      <trkpt lat="49.95632" lon="6.06236">
        <ele>393</ele>
        <time>2026-08-26T16:46:01+00:00</time>
      </trkpt>
      <trkpt lat="49.95629" lon="6.06233">
        <ele>389</ele>
        <time>2026-08-26T16:46:04+00:00</time>
      </trkpt>
      <trkpt lat="49.95628" lon="6.06234">
        <ele>389</ele>
        <time>2026-08-26T16:46:07+00:00</time>
      </trkpt>
      <trkpt lat="49.95618" lon="6.06263">
        <ele>387</ele>
        <time>2026-08-26T16:46:10+00:00</time>
      </trkpt>
      <trkpt lat="49.95617" lon="6.06271">
        <ele>388</ele>
        <time>2026-08-26T16:46:13+00:00</time>
      </trkpt>
      <trkpt lat="49.95603" lon="6.06313">
        <ele>386</ele>
        <time>2026-08-26T16:46:16+00:00</time>
      </trkpt>
      <trkpt lat="49.956" lon="6.06327">
        <ele>387</ele>
        <time>2026-08-26T16:46:19+00:00</time>
      </trkpt>
      <trkpt lat="49.95594" lon="6.06338">
        <ele>382</ele>
        <time>2026-08-26T16:46:22+00:00</time>
      </trkpt>
      <trkpt lat="49.95587" lon="6.06363">
        <ele>379</ele>
        <time>2026-08-26T16:46:25+00:00</time>
      </trkpt>
      <trkpt lat="49.95575" lon="6.06393">
        <ele>377</ele>
        <time>2026-08-26T16:46:28+00:00</time>
      </trkpt>
      <trkpt lat="49.95555" lon="6.06423">
        <ele>372</ele>
        <time>2026-08-26T16:46:31+00:00</time>
      </trkpt>
      <trkpt lat="49.95541" lon="6.06438">
        <ele>369</ele>
        <time>2026-08-26T16:46:34+00:00</time>
      </trkpt>
      <trkpt lat="49.95532" lon="6.0644">
        <ele>365</ele>
        <time>2026-08-26T16:46:37+00:00</time>
      </trkpt>
      <trkpt lat="49.95539" lon="6.06426">
        <ele>361</ele>
        <time>2026-08-26T16:46:40+00:00</time>
      </trkpt>
      <trkpt lat="49.95545" lon="6.06402">
        <ele>363</ele>
        <time>2026-08-26T16:46:43+00:00</time>
      </trkpt>
      <trkpt lat="49.95547" lon="6.06379">
        <ele>357</ele>
        <time>2026-08-26T16:46:46+00:00</time>
      </trkpt>
      <trkpt lat="49.95546" lon="6.06369">
        <ele>361</ele>
        <time>2026-08-26T16:46:49+00:00</time>
      </trkpt>
      <trkpt lat="49.95551" lon="6.06342">
        <ele>360</ele>
        <time>2026-08-26T16:46:52+00:00</time>
      </trkpt>
      <trkpt lat="49.95551" lon="6.06327">
        <ele>358</ele>
        <time>2026-08-26T16:46:55+00:00</time>
      </trkpt>
      <trkpt lat="49.95551" lon="6.06325">
        <ele>358</ele>
        <time>2026-08-26T16:46:58+00:00</time>
      </trkpt>
      <trkpt lat="49.95548" lon="6.06328">
        <ele>352</ele>
        <time>2026-08-26T16:47:01+00:00</time>
      </trkpt>
      <trkpt lat="49.95547" lon="6.06326">
        <ele>352</ele>
        <time>2026-08-26T16:47:04+00:00</time>
      </trkpt>
      <trkpt lat="49.95547" lon="6.06295">
        <ele>348</ele>
        <time>2026-08-26T16:47:07+00:00</time>
      </trkpt>
      <trkpt lat="49.95545" lon="6.06294">
        <ele>348</ele>
        <time>2026-08-26T16:47:10+00:00</time>
      </trkpt>
      <trkpt lat="49.95533" lon="6.06319">
        <ele>344</ele>
        <time>2026-08-26T16:47:13+00:00</time>
      </trkpt>
      <trkpt lat="49.95526" lon="6.06326">
        <ele>337</ele>
        <time>2026-08-26T16:47:16+00:00</time>
      </trkpt>
      <trkpt lat="49.95525" lon="6.06298">
        <ele>339</ele>
        <time>2026-08-26T16:47:19+00:00</time>
      </trkpt>
      <trkpt lat="49.95523" lon="6.06287">
        <ele>331</ele>
        <time>2026-08-26T16:47:22+00:00</time>
      </trkpt>
      <trkpt lat="49.95534" lon="6.06244">
        <ele>334</ele>
        <time>2026-08-26T16:47:25+00:00</time>
      </trkpt>
      <trkpt lat="49.95536" lon="6.06225">
        <ele>332</ele>
        <time>2026-08-26T16:47:28+00:00</time>
      </trkpt>
      <trkpt lat="49.95532" lon="6.06233">
        <ele>333</ele>
        <time>2026-08-26T16:47:31+00:00</time>
      </trkpt>
      <trkpt lat="49.95519" lon="6.06281">
        <ele>322</ele>
        <time>2026-08-26T16:47:34+00:00</time>
      </trkpt>
      <trkpt lat="49.95511" lon="6.06298">
        <ele>324</ele>
        <time>2026-08-26T16:47:37+00:00</time>
      </trkpt>
      <trkpt lat="49.95502" lon="6.06328">
        <ele>323</ele>
        <time>2026-08-26T16:47:40+00:00</time>
      </trkpt>
      <trkpt lat="49.95488" lon="6.06363">
        <ele>321</ele>
        <time>2026-08-26T16:47:43+00:00</time>
      </trkpt>
      <trkpt lat="49.95476" lon="6.06402">
        <ele>320</ele>
        <time>2026-08-26T16:47:46+00:00</time>
      </trkpt>
      <trkpt lat="49.9547" lon="6.06416">
        <ele>318</ele>
        <time>2026-08-26T16:47:49+00:00</time>
      </trkpt>
      <trkpt lat="49.95455" lon="6.0643">
        <ele>312</ele>
        <time>2026-08-26T16:47:52+00:00</time>
      </trkpt>
      <trkpt lat="49.9545" lon="6.06442">
        <ele>310</ele>
        <time>2026-08-26T16:47:55+00:00</time>
      </trkpt>
      <trkpt lat="49.95448" lon="6.06458">
        <ele>311</ele>
        <time>2026-08-26T16:47:58+00:00</time>
      </trkpt>
      <trkpt lat="49.95448" lon="6.0646">
        <ele>309</ele>
        <time>2026-08-26T16:48:01+00:00</time>
      </trkpt>
      <trkpt lat="49.95445" lon="6.06457">
        <ele>309</ele>
        <time>2026-08-26T16:48:04+00:00</time>
      </trkpt>
      <trkpt lat="49.95439" lon="6.06451">
        <ele>310</ele>
        <time>2026-08-26T16:48:07+00:00</time>
      </trkpt>
      <trkpt lat="49.95432" lon="6.06442">
        <ele>315</ele>
        <time>2026-08-26T16:48:10+00:00</time>
      </trkpt>
      <trkpt lat="49.95429" lon="6.06418">
        <ele>317</ele>
        <time>2026-08-26T16:48:13+00:00</time>
      </trkpt>
      <trkpt lat="49.95429" lon="6.06404">
        <ele>319</ele>
        <time>2026-08-26T16:48:16+00:00</time>
      </trkpt>
      <trkpt lat="49.95432" lon="6.06393">
        <ele>321</ele>
        <time>2026-08-26T16:48:19+00:00</time>
      </trkpt>
      <trkpt lat="49.95442" lon="6.06369">
        <ele>321</ele>
        <time>2026-08-26T16:48:22+00:00</time>
      </trkpt>
      <trkpt lat="49.95438" lon="6.0637">
        <ele>325</ele>
        <time>2026-08-26T16:48:25+00:00</time>
      </trkpt>
      <trkpt lat="49.95434" lon="6.06375">
        <ele>325</ele>
        <time>2026-08-26T16:48:28+00:00</time>
      </trkpt>
      <trkpt lat="49.95429" lon="6.06377">
        <ele>324</ele>
        <time>2026-08-26T16:48:31+00:00</time>
      </trkpt>
      <trkpt lat="49.95419" lon="6.06372">
        <ele>321</ele>
        <time>2026-08-26T16:48:34+00:00</time>
      </trkpt>
      <trkpt lat="49.95416" lon="6.06373">
        <ele>323</ele>
        <time>2026-08-26T16:48:37+00:00</time>
      </trkpt>
      <trkpt lat="49.95409" lon="6.06381">
        <ele>320</ele>
        <time>2026-08-26T16:48:40+00:00</time>
      </trkpt>
      <trkpt lat="49.95401" lon="6.06378">
        <ele>322</ele>
        <time>2026-08-26T16:48:43+00:00</time>
      </trkpt>
      <trkpt lat="49.95398" lon="6.06368">
        <ele>322</ele>
        <time>2026-08-26T16:48:46+00:00</time>
      </trkpt>
      <trkpt lat="49.95399" lon="6.06361">
        <ele>322</ele>
        <time>2026-08-26T16:48:49+00:00</time>
      </trkpt>
      <trkpt lat="49.95401" lon="6.06351">
        <ele>326</ele>
        <time>2026-08-26T16:48:52+00:00</time>
      </trkpt>
      <trkpt lat="49.95403" lon="6.06337">
        <ele>330</ele>
        <time>2026-08-26T16:48:55+00:00</time>
      </trkpt>
      <trkpt lat="49.95409" lon="6.06328">
        <ele>332</ele>
        <time>2026-08-26T16:48:58+00:00</time>
      </trkpt>
      <trkpt lat="49.95413" lon="6.06306">
        <ele>338</ele>
        <time>2026-08-26T16:49:01+00:00</time>
      </trkpt>
      <trkpt lat="49.95413" lon="6.06274">
        <ele>346</ele>
        <time>2026-08-26T16:49:04+00:00</time>
      </trkpt>
      <trkpt lat="49.95414" lon="6.06261">
        <ele>349</ele>
        <time>2026-08-26T16:49:07+00:00</time>
      </trkpt>
      <trkpt lat="49.95412" lon="6.06248">
        <ele>355</ele>
        <time>2026-08-26T16:49:10+00:00</time>
      </trkpt>
      <trkpt lat="49.95408" lon="6.06237">
        <ele>357</ele>
        <time>2026-08-26T16:49:13+00:00</time>
      </trkpt>
      <trkpt lat="49.95408" lon="6.06228">
        <ele>360</ele>
        <time>2026-08-26T16:49:16+00:00</time>
      </trkpt>
      <trkpt lat="49.95405" lon="6.06219">
        <ele>363</ele>
        <time>2026-08-26T16:49:19+00:00</time>
      </trkpt>
      <trkpt lat="49.95401" lon="6.06214">
        <ele>363</ele>
        <time>2026-08-26T16:49:22+00:00</time>
      </trkpt>
      <trkpt lat="49.95399" lon="6.06201">
        <ele>366</ele>
        <time>2026-08-26T16:49:25+00:00</time>
      </trkpt>
      <trkpt lat="49.95396" lon="6.06197">
        <ele>371</ele>
        <time>2026-08-26T16:49:28+00:00</time>
      </trkpt>
      <trkpt lat="49.95394" lon="6.0619">
        <ele>377</ele>
        <time>2026-08-26T16:49:31+00:00</time>
      </trkpt>
      <trkpt lat="49.95395" lon="6.06184">
        <ele>377</ele>
        <time>2026-08-26T16:49:34+00:00</time>
      </trkpt>
      <trkpt lat="49.95389" lon="6.06161">
        <ele>385</ele>
        <time>2026-08-26T16:49:37+00:00</time>
      </trkpt>
      <trkpt lat="49.95389" lon="6.06145">
        <ele>392</ele>
        <time>2026-08-26T16:49:40+00:00</time>
      </trkpt>
      <trkpt lat="49.95385" lon="6.06145">
        <ele>392</ele>
        <time>2026-08-26T16:49:43+00:00</time>
      </trkpt>
      <trkpt lat="49.95375" lon="6.06132">
        <ele>394</ele>
        <time>2026-08-26T16:49:46+00:00</time>
      </trkpt>
      <trkpt lat="49.95375" lon="6.06132">
        <ele>394</ele>
        <time>2026-08-26T16:49:49+00:00</time>
      </trkpt>
      <trkpt lat="49.95375" lon="6.06132">
        <ele>394</ele>
        <time>2026-08-26T16:49:52+00:00</time>
      </trkpt>
      <trkpt lat="49.95379" lon="6.06129">
        <ele>398</ele>
        <time>2026-08-26T16:49:55+00:00</time>
      </trkpt>
      <trkpt lat="49.95386" lon="6.06116">
        <ele>400</ele>
        <time>2026-08-26T16:49:58+00:00</time>
      </trkpt>
      <trkpt lat="49.95393" lon="6.06097">
        <ele>402</ele>
        <time>2026-08-26T16:50:01+00:00</time>
      </trkpt>
      <trkpt lat="49.95401" lon="6.06079">
        <ele>402</ele>
        <time>2026-08-26T16:50:04+00:00</time>
      </trkpt>
      <trkpt lat="49.95406" lon="6.0606">
        <ele>403</ele>
        <time>2026-08-26T16:50:07+00:00</time>
      </trkpt>
      <trkpt lat="49.95409" lon="6.06034">
        <ele>406</ele>
        <time>2026-08-26T16:50:10+00:00</time>
      </trkpt>
      <trkpt lat="49.95409" lon="6.06008">
        <ele>408</ele>
        <time>2026-08-26T16:50:13+00:00</time>
      </trkpt>
      <trkpt lat="49.95408" lon="6.05985">
        <ele>408</ele>
        <time>2026-08-26T16:50:16+00:00</time>
      </trkpt>
      <trkpt lat="49.95407" lon="6.0596">
        <ele>408</ele>
        <time>2026-08-26T16:50:19+00:00</time>
      </trkpt>
      <trkpt lat="49.95402" lon="6.05912">
        <ele>408</ele>
        <time>2026-08-26T16:50:22+00:00</time>
      </trkpt>
      <trkpt lat="49.95393" lon="6.0586">
        <ele>409</ele>
        <time>2026-08-26T16:50:25+00:00</time>
      </trkpt>
      <trkpt lat="49.9539" lon="6.05824">
        <ele>411</ele>
        <time>2026-08-26T16:50:28+00:00</time>
      </trkpt>
      <trkpt lat="49.95389" lon="6.05783">
        <ele>413</ele>
        <time>2026-08-26T16:50:31+00:00</time>
      </trkpt>
      <trkpt lat="49.95397" lon="6.05747">
        <ele>416</ele>
        <time>2026-08-26T16:50:34+00:00</time>
      </trkpt>
      <trkpt lat="49.95397" lon="6.05742">
        <ele>416</ele>
        <time>2026-08-26T16:50:37+00:00</time>
      </trkpt>
      <trkpt lat="49.95395" lon="6.05736">
        <ele>418</ele>
        <time>2026-08-26T16:50:40+00:00</time>
      </trkpt>
      <trkpt lat="49.95392" lon="6.05737">
        <ele>418</ele>
        <time>2026-08-26T16:50:43+00:00</time>
      </trkpt>
      <trkpt lat="49.9539" lon="6.05742">
        <ele>416</ele>
        <time>2026-08-26T16:50:46+00:00</time>
      </trkpt>
      <trkpt lat="49.9538" lon="6.05782">
        <ele>418</ele>
        <time>2026-08-26T16:50:49+00:00</time>
      </trkpt>
      <trkpt lat="49.95375" lon="6.05813">
        <ele>421</ele>
        <time>2026-08-26T16:50:52+00:00</time>
      </trkpt>
      <trkpt lat="49.95372" lon="6.05851">
        <ele>421</ele>
        <time>2026-08-26T16:50:55+00:00</time>
      </trkpt>
      <trkpt lat="49.95369" lon="6.05899">
        <ele>425</ele>
        <time>2026-08-26T16:50:58+00:00</time>
      </trkpt>
      <trkpt lat="49.95365" lon="6.05925">
        <ele>428</ele>
        <time>2026-08-26T16:51:01+00:00</time>
      </trkpt>
      <trkpt lat="49.95359" lon="6.0594">
        <ele>429</ele>
        <time>2026-08-26T16:51:04+00:00</time>
      </trkpt>
      <trkpt lat="49.95346" lon="6.05957">
        <ele>429</ele>
        <time>2026-08-26T16:51:07+00:00</time>
      </trkpt>
      <trkpt lat="49.95338" lon="6.05965">
        <ele>429</ele>
        <time>2026-08-26T16:51:10+00:00</time>
      </trkpt>
      <trkpt lat="49.9533" lon="6.05969">
        <ele>429</ele>
        <time>2026-08-26T16:51:13+00:00</time>
      </trkpt>
      <trkpt lat="49.95322" lon="6.05969">
        <ele>430</ele>
        <time>2026-08-26T16:51:16+00:00</time>
      </trkpt>
      <trkpt lat="49.95316" lon="6.05967">
        <ele>431</ele>
        <time>2026-08-26T16:51:19+00:00</time>
      </trkpt>
      <trkpt lat="49.95316" lon="6.05967">
        <ele>431</ele>
        <time>2026-08-26T16:51:22+00:00</time>
      </trkpt>
      <trkpt lat="49.95313" lon="6.05964">
        <ele>431</ele>
        <time>2026-08-26T16:51:25+00:00</time>
      </trkpt>
      <trkpt lat="49.95311" lon="6.05955">
        <ele>432</ele>
        <time>2026-08-26T16:51:28+00:00</time>
      </trkpt>
      <trkpt lat="49.95313" lon="6.05943">
        <ele>433</ele>
        <time>2026-08-26T16:51:31+00:00</time>
      </trkpt>
      <trkpt lat="49.95317" lon="6.05934">
        <ele>433</ele>
        <time>2026-08-26T16:51:34+00:00</time>
      </trkpt>
      <trkpt lat="49.9531" lon="6.05911">
        <ele>434</ele>
        <time>2026-08-26T16:51:37+00:00</time>
      </trkpt>
      <trkpt lat="49.95295" lon="6.05882">
        <ele>437</ele>
        <time>2026-08-26T16:51:40+00:00</time>
      </trkpt>
      <trkpt lat="49.95277" lon="6.05848">
        <ele>437</ele>
        <time>2026-08-26T16:51:43+00:00</time>
      </trkpt>
      <trkpt lat="49.95271" lon="6.0584">
        <ele>440</ele>
        <time>2026-08-26T16:51:46+00:00</time>
      </trkpt>
      <trkpt lat="49.95252" lon="6.05826">
        <ele>437</ele>
        <time>2026-08-26T16:51:49+00:00</time>
      </trkpt>
      <trkpt lat="49.95235" lon="6.05799">
        <ele>437</ele>
        <time>2026-08-26T16:51:52+00:00</time>
      </trkpt>
      <trkpt lat="49.95221" lon="6.05785">
        <ele>437</ele>
        <time>2026-08-26T16:51:55+00:00</time>
      </trkpt>
      <trkpt lat="49.95211" lon="6.05774">
        <ele>438</ele>
        <time>2026-08-26T16:51:58+00:00</time>
      </trkpt>
      <trkpt lat="49.95204" lon="6.0576">
        <ele>439</ele>
        <time>2026-08-26T16:52:01+00:00</time>
      </trkpt>
      <trkpt lat="49.95195" lon="6.05719">
        <ele>440</ele>
        <time>2026-08-26T16:52:04+00:00</time>
      </trkpt>
      <trkpt lat="49.95185" lon="6.05678">
        <ele>442</ele>
        <time>2026-08-26T16:52:07+00:00</time>
      </trkpt>
      <trkpt lat="49.95171" lon="6.05615">
        <ele>444</ele>
        <time>2026-08-26T16:52:10+00:00</time>
      </trkpt>
      <trkpt lat="49.95158" lon="6.05577">
        <ele>444</ele>
        <time>2026-08-26T16:52:13+00:00</time>
      </trkpt>
      <trkpt lat="49.95142" lon="6.05584">
        <ele>443</ele>
        <time>2026-08-26T16:52:16+00:00</time>
      </trkpt>
      <trkpt lat="49.95129" lon="6.05585">
        <ele>443</ele>
        <time>2026-08-26T16:52:19+00:00</time>
      </trkpt>
      <trkpt lat="49.95115" lon="6.05586">
        <ele>443</ele>
        <time>2026-08-26T16:52:22+00:00</time>
      </trkpt>
      <trkpt lat="49.9511" lon="6.05566">
        <ele>443</ele>
        <time>2026-08-26T16:52:25+00:00</time>
      </trkpt>
      <trkpt lat="49.95102" lon="6.05533">
        <ele>440</ele>
        <time>2026-08-26T16:52:28+00:00</time>
      </trkpt>
      <trkpt lat="49.9509" lon="6.05471">
        <ele>437</ele>
        <time>2026-08-26T16:52:31+00:00</time>
      </trkpt>
      <trkpt lat="49.95071" lon="6.05418">
        <ele>433</ele>
        <time>2026-08-26T16:52:34+00:00</time>
      </trkpt>
      <trkpt lat="49.95069" lon="6.05401">
        <ele>431</ele>
        <time>2026-08-26T16:52:37+00:00</time>
      </trkpt>
      <trkpt lat="49.95072" lon="6.05385">
        <ele>435</ele>
        <time>2026-08-26T16:52:40+00:00</time>
      </trkpt>
      <trkpt lat="49.95078" lon="6.0537">
        <ele>432</ele>
        <time>2026-08-26T16:52:43+00:00</time>
      </trkpt>
      <trkpt lat="49.95082" lon="6.0536">
        <ele>438</ele>
        <time>2026-08-26T16:52:46+00:00</time>
      </trkpt>
      <trkpt lat="49.95084" lon="6.05345">
        <ele>438</ele>
        <time>2026-08-26T16:52:49+00:00</time>
      </trkpt>
      <trkpt lat="49.95083" lon="6.05317">
        <ele>438</ele>
        <time>2026-08-26T16:52:52+00:00</time>
      </trkpt>
      <trkpt lat="49.95081" lon="6.05287">
        <ele>438</ele>
        <time>2026-08-26T16:52:55+00:00</time>
      </trkpt>
      <trkpt lat="49.9508" lon="6.05278">
        <ele>437</ele>
        <time>2026-08-26T16:52:58+00:00</time>
      </trkpt>
      <trkpt lat="49.95062" lon="6.05233">
        <ele>431</ele>
        <time>2026-08-26T16:53:01+00:00</time>
      </trkpt>
      <trkpt lat="49.95057" lon="6.05215">
        <ele>427</ele>
        <time>2026-08-26T16:53:04+00:00</time>
      </trkpt>
      <trkpt lat="49.95051" lon="6.05186">
        <ele>427</ele>
        <time>2026-08-26T16:53:07+00:00</time>
      </trkpt>
      <trkpt lat="49.95043" lon="6.05148">
        <ele>423</ele>
        <time>2026-08-26T16:53:10+00:00</time>
      </trkpt>
      <trkpt lat="49.95038" lon="6.05112">
        <ele>421</ele>
        <time>2026-08-26T16:53:13+00:00</time>
      </trkpt>
      <trkpt lat="49.95037" lon="6.05082">
        <ele>418</ele>
        <time>2026-08-26T16:53:16+00:00</time>
      </trkpt>
      <trkpt lat="49.95034" lon="6.05076">
        <ele>418</ele>
        <time>2026-08-26T16:53:19+00:00</time>
      </trkpt>
      <trkpt lat="49.95033" lon="6.05063">
        <ele>418</ele>
        <time>2026-08-26T16:53:22+00:00</time>
      </trkpt>
      <trkpt lat="49.9503" lon="6.05061">
        <ele>418</ele>
        <time>2026-08-26T16:53:25+00:00</time>
      </trkpt>
      <trkpt lat="49.95018" lon="6.05065">
        <ele>417</ele>
        <time>2026-08-26T16:53:28+00:00</time>
      </trkpt>
      <trkpt lat="49.95009" lon="6.05062">
        <ele>414</ele>
        <time>2026-08-26T16:53:31+00:00</time>
      </trkpt>
      <trkpt lat="49.95009" lon="6.05062">
        <ele>414</ele>
        <time>2026-08-26T16:53:34+00:00</time>
      </trkpt>
      <trkpt lat="49.95002" lon="6.05064">
        <ele>414</ele>
        <time>2026-08-26T16:53:37+00:00</time>
      </trkpt>
      <trkpt lat="49.94998" lon="6.05069">
        <ele>410</ele>
        <time>2026-08-26T16:53:40+00:00</time>
      </trkpt>
      <trkpt lat="49.94992" lon="6.05086">
        <ele>410</ele>
        <time>2026-08-26T16:53:43+00:00</time>
      </trkpt>
      <trkpt lat="49.94978" lon="6.05057">
        <ele>407</ele>
        <time>2026-08-26T16:53:46+00:00</time>
      </trkpt>
      <trkpt lat="49.94973" lon="6.0505">
        <ele>406</ele>
        <time>2026-08-26T16:53:49+00:00</time>
      </trkpt>
      <trkpt lat="49.94964" lon="6.05025">
        <ele>404</ele>
        <time>2026-08-26T16:53:52+00:00</time>
      </trkpt>
      <trkpt lat="49.94952" lon="6.05007">
        <ele>401</ele>
        <time>2026-08-26T16:53:55+00:00</time>
      </trkpt>
      <trkpt lat="49.9494" lon="6.0498">
        <ele>400</ele>
        <time>2026-08-26T16:53:58+00:00</time>
      </trkpt>
      <trkpt lat="49.94933" lon="6.04964">
        <ele>398</ele>
        <time>2026-08-26T16:54:01+00:00</time>
      </trkpt>
      <trkpt lat="49.94929" lon="6.04939">
        <ele>402</ele>
        <time>2026-08-26T16:54:04+00:00</time>
      </trkpt>
      <trkpt lat="49.94928" lon="6.04922">
        <ele>396</ele>
        <time>2026-08-26T16:54:07+00:00</time>
      </trkpt>
      <trkpt lat="49.94932" lon="6.04895">
        <ele>402</ele>
        <time>2026-08-26T16:54:10+00:00</time>
      </trkpt>
      <trkpt lat="49.94936" lon="6.04865">
        <ele>400</ele>
        <time>2026-08-26T16:54:13+00:00</time>
      </trkpt>
      <trkpt lat="49.94939" lon="6.04832">
        <ele>399</ele>
        <time>2026-08-26T16:54:16+00:00</time>
      </trkpt>
      <trkpt lat="49.94946" lon="6.04819">
        <ele>397</ele>
        <time>2026-08-26T16:54:19+00:00</time>
      </trkpt>
      <trkpt lat="49.94954" lon="6.04812">
        <ele>398</ele>
        <time>2026-08-26T16:54:22+00:00</time>
      </trkpt>
      <trkpt lat="49.94959" lon="6.04804">
        <ele>394</ele>
        <time>2026-08-26T16:54:25+00:00</time>
      </trkpt>
      <trkpt lat="49.94965" lon="6.04799">
        <ele>391</ele>
        <time>2026-08-26T16:54:28+00:00</time>
      </trkpt>
      <trkpt lat="49.94983" lon="6.04776">
        <ele>389</ele>
        <time>2026-08-26T16:54:31+00:00</time>
      </trkpt>
      <trkpt lat="49.94987" lon="6.04773">
        <ele>389</ele>
        <time>2026-08-26T16:54:34+00:00</time>
      </trkpt>
      <trkpt lat="49.94994" lon="6.04762">
        <ele>388</ele>
        <time>2026-08-26T16:54:37+00:00</time>
      </trkpt>
      <trkpt lat="49.95007" lon="6.04737">
        <ele>383</ele>
        <time>2026-08-26T16:54:40+00:00</time>
      </trkpt>
      <trkpt lat="49.95026" lon="6.04699">
        <ele>378</ele>
        <time>2026-08-26T16:54:43+00:00</time>
      </trkpt>
      <trkpt lat="49.95046" lon="6.04677">
        <ele>378</ele>
        <time>2026-08-26T16:54:46+00:00</time>
      </trkpt>
      <trkpt lat="49.95047" lon="6.04672">
        <ele>375</ele>
        <time>2026-08-26T16:54:49+00:00</time>
      </trkpt>
      <trkpt lat="49.95046" lon="6.04669">
        <ele>377</ele>
        <time>2026-08-26T16:54:52+00:00</time>
      </trkpt>
      <trkpt lat="49.95044" lon="6.04666">
        <ele>377</ele>
        <time>2026-08-26T16:54:55+00:00</time>
      </trkpt>
      <trkpt lat="49.95024" lon="6.04658">
        <ele>378</ele>
        <time>2026-08-26T16:54:58+00:00</time>
      </trkpt>
      <trkpt lat="49.95002" lon="6.04649">
        <ele>380</ele>
        <time>2026-08-26T16:55:01+00:00</time>
      </trkpt>
      <trkpt lat="49.94979" lon="6.04639">
        <ele>381</ele>
        <time>2026-08-26T16:55:04+00:00</time>
      </trkpt>
      <trkpt lat="49.94972" lon="6.04633">
        <ele>381</ele>
        <time>2026-08-26T16:55:07+00:00</time>
      </trkpt>
      <trkpt lat="49.94967" lon="6.04622">
        <ele>382</ele>
        <time>2026-08-26T16:55:10+00:00</time>
      </trkpt>
      <trkpt lat="49.94965" lon="6.04584">
        <ele>395</ele>
        <time>2026-08-26T16:55:13+00:00</time>
      </trkpt>
      <trkpt lat="49.94965" lon="6.04583">
        <ele>395</ele>
        <time>2026-08-26T16:55:16+00:00</time>
      </trkpt>
      <trkpt lat="49.94961" lon="6.04564">
        <ele>400</ele>
        <time>2026-08-26T16:55:19+00:00</time>
      </trkpt>
      <trkpt lat="49.94958" lon="6.04535">
        <ele>399</ele>
        <time>2026-08-26T16:55:22+00:00</time>
      </trkpt>
      <trkpt lat="49.9496" lon="6.04486">
        <ele>409</ele>
        <time>2026-08-26T16:55:25+00:00</time>
      </trkpt>
      <trkpt lat="49.94959" lon="6.0446">
        <ele>407</ele>
        <time>2026-08-26T16:55:28+00:00</time>
      </trkpt>
      <trkpt lat="49.94957" lon="6.0443">
        <ele>410</ele>
        <time>2026-08-26T16:55:31+00:00</time>
      </trkpt>
      <trkpt lat="49.94953" lon="6.04383">
        <ele>412</ele>
        <time>2026-08-26T16:55:34+00:00</time>
      </trkpt>
      <trkpt lat="49.94943" lon="6.04322">
        <ele>414</ele>
        <time>2026-08-26T16:55:37+00:00</time>
      </trkpt>
      <trkpt lat="49.94941" lon="6.04279">
        <ele>419</ele>
        <time>2026-08-26T16:55:40+00:00</time>
      </trkpt>
      <trkpt lat="49.94942" lon="6.04257">
        <ele>422</ele>
        <time>2026-08-26T16:55:43+00:00</time>
      </trkpt>
      <trkpt lat="49.94948" lon="6.04233">
        <ele>425</ele>
        <time>2026-08-26T16:55:46+00:00</time>
      </trkpt>
      <trkpt lat="49.94955" lon="6.04206">
        <ele>427</ele>
        <time>2026-08-26T16:55:49+00:00</time>
      </trkpt>
      <trkpt lat="49.94961" lon="6.042">
        <ele>428</ele>
        <time>2026-08-26T16:55:52+00:00</time>
      </trkpt>
      <trkpt lat="49.94968" lon="6.04199">
        <ele>427</ele>
        <time>2026-08-26T16:55:55+00:00</time>
      </trkpt>
      <trkpt lat="49.94984" lon="6.04209">
        <ele>431</ele>
        <time>2026-08-26T16:55:58+00:00</time>
      </trkpt>
      <trkpt lat="49.95004" lon="6.04227">
        <ele>433</ele>
        <time>2026-08-26T16:56:01+00:00</time>
      </trkpt>
      <trkpt lat="49.95025" lon="6.04246">
        <ele>434</ele>
        <time>2026-08-26T16:56:04+00:00</time>
      </trkpt>
      <trkpt lat="49.95033" lon="6.04257">
        <ele>437</ele>
        <time>2026-08-26T16:56:07+00:00</time>
      </trkpt>
      <trkpt lat="49.95046" lon="6.04287">
        <ele>444</ele>
        <time>2026-08-26T16:56:10+00:00</time>
      </trkpt>
      <trkpt lat="49.95069" lon="6.04337">
        <ele>447</ele>
        <time>2026-08-26T16:56:13+00:00</time>
      </trkpt>
      <trkpt lat="49.95088" lon="6.04367">
        <ele>447</ele>
        <time>2026-08-26T16:56:16+00:00</time>
      </trkpt>
      <trkpt lat="49.95113" lon="6.04395">
        <ele>447</ele>
        <time>2026-08-26T16:56:19+00:00</time>
      </trkpt>
      <trkpt lat="49.95138" lon="6.04434">
        <ele>444</ele>
        <time>2026-08-26T16:56:22+00:00</time>
      </trkpt>
      <trkpt lat="49.95156" lon="6.04455">
        <ele>444</ele>
        <time>2026-08-26T16:56:25+00:00</time>
      </trkpt>
      <trkpt lat="49.95176" lon="6.04477">
        <ele>444</ele>
        <time>2026-08-26T16:56:28+00:00</time>
      </trkpt>
      <trkpt lat="49.95198" lon="6.04493">
        <ele>444</ele>
        <time>2026-08-26T16:56:31+00:00</time>
      </trkpt>
      <trkpt lat="49.95216" lon="6.04498">
        <ele>447</ele>
        <time>2026-08-26T16:56:34+00:00</time>
      </trkpt>
      <trkpt lat="49.95223" lon="6.04498">
        <ele>448</ele>
        <time>2026-08-26T16:56:37+00:00</time>
      </trkpt>
      <trkpt lat="49.95249" lon="6.04471">
        <ele>454</ele>
        <time>2026-08-26T16:56:40+00:00</time>
      </trkpt>
      <trkpt lat="49.95259" lon="6.04465">
        <ele>456</ele>
        <time>2026-08-26T16:56:43+00:00</time>
      </trkpt>
      <trkpt lat="49.9529" lon="6.04456">
        <ele>461</ele>
        <time>2026-08-26T16:56:46+00:00</time>
      </trkpt>
      <trkpt lat="49.95291" lon="6.04456">
        <ele>461</ele>
        <time>2026-08-26T16:56:49+00:00</time>
      </trkpt>
      <trkpt lat="49.95317" lon="6.04445">
        <ele>463</ele>
        <time>2026-08-26T16:56:52+00:00</time>
      </trkpt>
      <trkpt lat="49.95361" lon="6.04426">
        <ele>467</ele>
        <time>2026-08-26T16:56:55+00:00</time>
      </trkpt>
      <trkpt lat="49.95369" lon="6.04361">
        <ele>468</ele>
        <time>2026-08-26T16:56:58+00:00</time>
      </trkpt>
      <trkpt lat="49.9537" lon="6.0432">
        <ele>470</ele>
        <time>2026-08-26T16:57:01+00:00</time>
      </trkpt>
      <trkpt lat="49.95368" lon="6.0429">
        <ele>470</ele>
        <time>2026-08-26T16:57:04+00:00</time>
      </trkpt>
      <trkpt lat="49.95361" lon="6.04252">
        <ele>468</ele>
        <time>2026-08-26T16:57:07+00:00</time>
      </trkpt>
      <trkpt lat="49.95356" lon="6.04216">
        <ele>464</ele>
        <time>2026-08-26T16:57:10+00:00</time>
      </trkpt>
      <trkpt lat="49.95351" lon="6.04198">
        <ele>463</ele>
        <time>2026-08-26T16:57:13+00:00</time>
      </trkpt>
      <trkpt lat="49.95342" lon="6.04151">
        <ele>463</ele>
        <time>2026-08-26T16:57:16+00:00</time>
      </trkpt>
      <trkpt lat="49.95333" lon="6.04103">
        <ele>463</ele>
        <time>2026-08-26T16:57:19+00:00</time>
      </trkpt>
      <trkpt lat="49.95325" lon="6.04056">
        <ele>463</ele>
        <time>2026-08-26T16:57:22+00:00</time>
      </trkpt>
      <trkpt lat="49.95309" lon="6.03971">
        <ele>463</ele>
        <time>2026-08-26T16:57:25+00:00</time>
      </trkpt>
      <trkpt lat="49.95299" lon="6.0393">
        <ele>463</ele>
        <time>2026-08-26T16:57:28+00:00</time>
      </trkpt>
      <trkpt lat="49.95295" lon="6.03908">
        <ele>466</ele>
        <time>2026-08-26T16:57:31+00:00</time>
      </trkpt>
      <trkpt lat="49.95285" lon="6.03876">
        <ele>466</ele>
        <time>2026-08-26T16:57:34+00:00</time>
      </trkpt>
      <trkpt lat="49.95295" lon="6.03908">
        <ele>466</ele>
        <time>2026-08-26T16:57:37+00:00</time>
      </trkpt>
      <trkpt lat="49.95299" lon="6.0393">
        <ele>463</ele>
        <time>2026-08-26T16:57:40+00:00</time>
      </trkpt>
      <trkpt lat="49.9528" lon="6.03898">
        <ele>465</ele>
        <time>2026-08-26T16:57:43+00:00</time>
      </trkpt>
      <trkpt lat="49.95261" lon="6.03866">
        <ele>464</ele>
        <time>2026-08-26T16:57:46+00:00</time>
      </trkpt>
      <trkpt lat="49.95229" lon="6.03811">
        <ele>459</ele>
        <time>2026-08-26T16:57:49+00:00</time>
      </trkpt>
      <trkpt lat="49.95208" lon="6.03784">
        <ele>458</ele>
        <time>2026-08-26T16:57:52+00:00</time>
      </trkpt>
      <trkpt lat="49.95174" lon="6.03741">
        <ele>458</ele>
        <time>2026-08-26T16:57:55+00:00</time>
      </trkpt>
      <trkpt lat="49.95162" lon="6.03719">
        <ele>458</ele>
        <time>2026-08-26T16:57:58+00:00</time>
      </trkpt>
      <trkpt lat="49.95148" lon="6.0369">
        <ele>456</ele>
        <time>2026-08-26T16:58:01+00:00</time>
      </trkpt>
      <trkpt lat="49.95126" lon="6.03642">
        <ele>450</ele>
        <time>2026-08-26T16:58:04+00:00</time>
      </trkpt>
      <trkpt lat="49.95113" lon="6.03594">
        <ele>448</ele>
        <time>2026-08-26T16:58:07+00:00</time>
      </trkpt>
      <trkpt lat="49.95103" lon="6.0358">
        <ele>446</ele>
        <time>2026-08-26T16:58:10+00:00</time>
      </trkpt>
      <trkpt lat="49.95096" lon="6.0356">
        <ele>444</ele>
        <time>2026-08-26T16:58:13+00:00</time>
      </trkpt>
      <trkpt lat="49.95079" lon="6.03522">
        <ele>438</ele>
        <time>2026-08-26T16:58:16+00:00</time>
      </trkpt>
      <trkpt lat="49.95073" lon="6.03514">
        <ele>438</ele>
        <time>2026-08-26T16:58:19+00:00</time>
      </trkpt>
      <trkpt lat="49.95066" lon="6.03552">
        <ele>437</ele>
        <time>2026-08-26T16:58:22+00:00</time>
      </trkpt>
      <trkpt lat="49.95064" lon="6.03587">
        <ele>437</ele>
        <time>2026-08-26T16:58:25+00:00</time>
      </trkpt>
      <trkpt lat="49.95061" lon="6.03625">
        <ele>437</ele>
        <time>2026-08-26T16:58:28+00:00</time>
      </trkpt>
      <trkpt lat="49.95062" lon="6.0365">
        <ele>437</ele>
        <time>2026-08-26T16:58:31+00:00</time>
      </trkpt>
      <trkpt lat="49.95067" lon="6.03675">
        <ele>437</ele>
        <time>2026-08-26T16:58:34+00:00</time>
      </trkpt>
      <trkpt lat="49.95068" lon="6.03683">
        <ele>436</ele>
        <time>2026-08-26T16:58:37+00:00</time>
      </trkpt>
      <trkpt lat="49.95065" lon="6.03689">
        <ele>436</ele>
        <time>2026-08-26T16:58:40+00:00</time>
      </trkpt>
      <trkpt lat="49.9506" lon="6.0369">
        <ele>436</ele>
        <time>2026-08-26T16:58:43+00:00</time>
      </trkpt>
      <trkpt lat="49.95056" lon="6.03685">
        <ele>436</ele>
        <time>2026-08-26T16:58:46+00:00</time>
      </trkpt>
      <trkpt lat="49.95049" lon="6.03671">
        <ele>434</ele>
        <time>2026-08-26T16:58:49+00:00</time>
      </trkpt>
      <trkpt lat="49.95036" lon="6.03654">
        <ele>431</ele>
        <time>2026-08-26T16:58:52+00:00</time>
      </trkpt>
      <trkpt lat="49.95023" lon="6.03637">
        <ele>427</ele>
        <time>2026-08-26T16:58:55+00:00</time>
      </trkpt>
      <trkpt lat="49.94996" lon="6.03665">
        <ele>427</ele>
        <time>2026-08-26T16:58:58+00:00</time>
      </trkpt>
      <trkpt lat="49.94995" lon="6.03666">
        <ele>427</ele>
        <time>2026-08-26T16:59:01+00:00</time>
      </trkpt>
      <trkpt lat="49.94985" lon="6.0367">
        <ele>426</ele>
        <time>2026-08-26T16:59:04+00:00</time>
      </trkpt>
      <trkpt lat="49.94968" lon="6.03672">
        <ele>427</ele>
        <time>2026-08-26T16:59:07+00:00</time>
      </trkpt>
      <trkpt lat="49.94949" lon="6.03674">
        <ele>428</ele>
        <time>2026-08-26T16:59:10+00:00</time>
      </trkpt>
      <trkpt lat="49.94932" lon="6.03683">
        <ele>433</ele>
        <time>2026-08-26T16:59:13+00:00</time>
      </trkpt>
      <trkpt lat="49.9492" lon="6.03687">
        <ele>435</ele>
        <time>2026-08-26T16:59:16+00:00</time>
      </trkpt>
      <trkpt lat="49.94902" lon="6.03685">
        <ele>433</ele>
        <time>2026-08-26T16:59:19+00:00</time>
      </trkpt>
      <trkpt lat="49.94878" lon="6.03677">
        <ele>433</ele>
        <time>2026-08-26T16:59:22+00:00</time>
      </trkpt>
      <trkpt lat="49.94847" lon="6.03661">
        <ele>432</ele>
        <time>2026-08-26T16:59:25+00:00</time>
      </trkpt>
      <trkpt lat="49.94825" lon="6.03646">
        <ele>431</ele>
        <time>2026-08-26T16:59:28+00:00</time>
      </trkpt>
      <trkpt lat="49.94797" lon="6.03626">
        <ele>430</ele>
        <time>2026-08-26T16:59:31+00:00</time>
      </trkpt>
      <trkpt lat="49.94779" lon="6.03605">
        <ele>430</ele>
        <time>2026-08-26T16:59:34+00:00</time>
      </trkpt>
      <trkpt lat="49.94761" lon="6.03582">
        <ele>431</ele>
        <time>2026-08-26T16:59:37+00:00</time>
      </trkpt>
      <trkpt lat="49.94741" lon="6.03563">
        <ele>432</ele>
        <time>2026-08-26T16:59:40+00:00</time>
      </trkpt>
      <trkpt lat="49.94718" lon="6.0354">
        <ele>432</ele>
        <time>2026-08-26T16:59:43+00:00</time>
      </trkpt>
      <trkpt lat="49.94694" lon="6.03513">
        <ele>433</ele>
        <time>2026-08-26T16:59:46+00:00</time>
      </trkpt>
      <trkpt lat="49.94669" lon="6.03486">
        <ele>433</ele>
        <time>2026-08-26T16:59:49+00:00</time>
      </trkpt>
      <trkpt lat="49.9464" lon="6.03454">
        <ele>429</ele>
        <time>2026-08-26T16:59:52+00:00</time>
      </trkpt>
      <trkpt lat="49.94612" lon="6.03437">
        <ele>426</ele>
        <time>2026-08-26T16:59:55+00:00</time>
      </trkpt>
      <trkpt lat="49.94594" lon="6.03407">
        <ele>425</ele>
        <time>2026-08-26T16:59:58+00:00</time>
      </trkpt>
      <trkpt lat="49.94564" lon="6.03358">
        <ele>421</ele>
        <time>2026-08-26T17:00:01+00:00</time>
      </trkpt>
      <trkpt lat="49.9456" lon="6.03347">
        <ele>419</ele>
        <time>2026-08-26T17:00:04+00:00</time>
      </trkpt>
      <trkpt lat="49.9456" lon="6.03335">
        <ele>418</ele>
        <time>2026-08-26T17:00:07+00:00</time>
      </trkpt>
      <trkpt lat="49.94567" lon="6.03308">
        <ele>417</ele>
        <time>2026-08-26T17:00:10+00:00</time>
      </trkpt>
      <trkpt lat="49.94577" lon="6.03271">
        <ele>417</ele>
        <time>2026-08-26T17:00:13+00:00</time>
      </trkpt>
      <trkpt lat="49.94578" lon="6.0325">
        <ele>415</ele>
        <time>2026-08-26T17:00:16+00:00</time>
      </trkpt>
      <trkpt lat="49.94576" lon="6.03235">
        <ele>415</ele>
        <time>2026-08-26T17:00:19+00:00</time>
      </trkpt>
      <trkpt lat="49.94571" lon="6.03219">
        <ele>412</ele>
        <time>2026-08-26T17:00:22+00:00</time>
      </trkpt>
      <trkpt lat="49.94565" lon="6.03184">
        <ele>402</ele>
        <time>2026-08-26T17:00:25+00:00</time>
      </trkpt>
      <trkpt lat="49.94554" lon="6.03126">
        <ele>393</ele>
        <time>2026-08-26T17:00:28+00:00</time>
      </trkpt>
      <trkpt lat="49.94538" lon="6.03084">
        <ele>387</ele>
        <time>2026-08-26T17:00:31+00:00</time>
      </trkpt>
      <trkpt lat="49.94532" lon="6.03091">
        <ele>388</ele>
        <time>2026-08-26T17:00:34+00:00</time>
      </trkpt>
      <trkpt lat="49.9451" lon="6.03112">
        <ele>387</ele>
        <time>2026-08-26T17:00:37+00:00</time>
      </trkpt>
      <trkpt lat="49.94468" lon="6.03153">
        <ele>384</ele>
        <time>2026-08-26T17:00:40+00:00</time>
      </trkpt>
      <trkpt lat="49.94438" lon="6.03198">
        <ele>381</ele>
        <time>2026-08-26T17:00:43+00:00</time>
      </trkpt>
      <trkpt lat="49.94417" lon="6.03238">
        <ele>378</ele>
        <time>2026-08-26T17:00:46+00:00</time>
      </trkpt>
      <trkpt lat="49.94406" lon="6.03268">
        <ele>378</ele>
        <time>2026-08-26T17:00:49+00:00</time>
      </trkpt>
      <trkpt lat="49.94394" lon="6.03299">
        <ele>378</ele>
        <time>2026-08-26T17:00:52+00:00</time>
      </trkpt>
      <trkpt lat="49.94386" lon="6.0331">
        <ele>377</ele>
        <time>2026-08-26T17:00:55+00:00</time>
      </trkpt>
      <trkpt lat="49.94384" lon="6.03312">
        <ele>378</ele>
        <time>2026-08-26T17:00:58+00:00</time>
      </trkpt>
      <trkpt lat="49.94371" lon="6.03322">
        <ele>378</ele>
        <time>2026-08-26T17:01:01+00:00</time>
      </trkpt>
      <trkpt lat="49.94351" lon="6.03333">
        <ele>379</ele>
        <time>2026-08-26T17:01:04+00:00</time>
      </trkpt>
      <trkpt lat="49.94337" lon="6.03337">
        <ele>379</ele>
        <time>2026-08-26T17:01:07+00:00</time>
      </trkpt>
      <trkpt lat="49.94324" lon="6.03336">
        <ele>379</ele>
        <time>2026-08-26T17:01:10+00:00</time>
      </trkpt>
      <trkpt lat="49.94309" lon="6.03332">
        <ele>382</ele>
        <time>2026-08-26T17:01:13+00:00</time>
      </trkpt>
      <trkpt lat="49.94295" lon="6.03325">
        <ele>385</ele>
        <time>2026-08-26T17:01:16+00:00</time>
      </trkpt>
      <trkpt lat="49.9427" lon="6.03296">
        <ele>384</ele>
        <time>2026-08-26T17:01:19+00:00</time>
      </trkpt>
      <trkpt lat="49.94244" lon="6.03266">
        <ele>383</ele>
        <time>2026-08-26T17:01:22+00:00</time>
      </trkpt>
      <trkpt lat="49.94201" lon="6.03216">
        <ele>377</ele>
        <time>2026-08-26T17:01:25+00:00</time>
      </trkpt>
      <trkpt lat="49.94183" lon="6.03201">
        <ele>373</ele>
        <time>2026-08-26T17:01:28+00:00</time>
      </trkpt>
      <trkpt lat="49.94171" lon="6.03193">
        <ele>369</ele>
        <time>2026-08-26T17:01:31+00:00</time>
      </trkpt>
      <trkpt lat="49.94161" lon="6.03194">
        <ele>367</ele>
        <time>2026-08-26T17:01:34+00:00</time>
      </trkpt>
      <trkpt lat="49.94137" lon="6.03217">
        <ele>364</ele>
        <time>2026-08-26T17:01:37+00:00</time>
      </trkpt>
      <trkpt lat="49.94111" lon="6.03234">
        <ele>362</ele>
        <time>2026-08-26T17:01:40+00:00</time>
      </trkpt>
      <trkpt lat="49.941" lon="6.03247">
        <ele>357</ele>
        <time>2026-08-26T17:01:43+00:00</time>
      </trkpt>
      <trkpt lat="49.94091" lon="6.03264">
        <ele>359</ele>
        <time>2026-08-26T17:01:46+00:00</time>
      </trkpt>
      <trkpt lat="49.94086" lon="6.0328">
        <ele>352</ele>
        <time>2026-08-26T17:01:49+00:00</time>
      </trkpt>
      <trkpt lat="49.94084" lon="6.03302">
        <ele>359</ele>
        <time>2026-08-26T17:01:52+00:00</time>
      </trkpt>
      <trkpt lat="49.94083" lon="6.03327">
        <ele>358</ele>
        <time>2026-08-26T17:01:55+00:00</time>
      </trkpt>
      <trkpt lat="49.94085" lon="6.03348">
        <ele>359</ele>
        <time>2026-08-26T17:01:58+00:00</time>
      </trkpt>
      <trkpt lat="49.94087" lon="6.03369">
        <ele>358</ele>
        <time>2026-08-26T17:02:01+00:00</time>
      </trkpt>
      <trkpt lat="49.94093" lon="6.03412">
        <ele>356</ele>
        <time>2026-08-26T17:02:04+00:00</time>
      </trkpt>
      <trkpt lat="49.94077" lon="6.03376">
        <ele>355</ele>
        <time>2026-08-26T17:02:07+00:00</time>
      </trkpt>
      <trkpt lat="49.94047" lon="6.03311">
        <ele>348</ele>
        <time>2026-08-26T17:02:10+00:00</time>
      </trkpt>
      <trkpt lat="49.94039" lon="6.03282">
        <ele>338</ele>
        <time>2026-08-26T17:02:13+00:00</time>
      </trkpt>
      <trkpt lat="49.94036" lon="6.03254">
        <ele>338</ele>
        <time>2026-08-26T17:02:16+00:00</time>
      </trkpt>
      <trkpt lat="49.94036" lon="6.03229">
        <ele>335</ele>
        <time>2026-08-26T17:02:19+00:00</time>
      </trkpt>
      <trkpt lat="49.9404" lon="6.03209">
        <ele>338</ele>
        <time>2026-08-26T17:02:22+00:00</time>
      </trkpt>
      <trkpt lat="49.94054" lon="6.03181">
        <ele>337</ele>
        <time>2026-08-26T17:02:25+00:00</time>
      </trkpt>
      <trkpt lat="49.94068" lon="6.03152">
        <ele>337</ele>
        <time>2026-08-26T17:02:28+00:00</time>
      </trkpt>
      <trkpt lat="49.94083" lon="6.03112">
        <ele>344</ele>
        <time>2026-08-26T17:02:31+00:00</time>
      </trkpt>
      <trkpt lat="49.94097" lon="6.03072">
        <ele>344</ele>
        <time>2026-08-26T17:02:34+00:00</time>
      </trkpt>
      <trkpt lat="49.94115" lon="6.03024">
        <ele>341</ele>
        <time>2026-08-26T17:02:37+00:00</time>
      </trkpt>
      <trkpt lat="49.94132" lon="6.02994">
        <ele>340</ele>
        <time>2026-08-26T17:02:40+00:00</time>
      </trkpt>
      <trkpt lat="49.94144" lon="6.02979">
        <ele>338</ele>
        <time>2026-08-26T17:02:43+00:00</time>
      </trkpt>
      <trkpt lat="49.94159" lon="6.0297">
        <ele>335</ele>
        <time>2026-08-26T17:02:46+00:00</time>
      </trkpt>
      <trkpt lat="49.94194" lon="6.02962">
        <ele>330</ele>
        <time>2026-08-26T17:02:49+00:00</time>
      </trkpt>
      <trkpt lat="49.94215" lon="6.02964">
        <ele>321</ele>
        <time>2026-08-26T17:02:52+00:00</time>
      </trkpt>
      <trkpt lat="49.94227" lon="6.02969">
        <ele>319</ele>
        <time>2026-08-26T17:02:55+00:00</time>
      </trkpt>
      <trkpt lat="49.94229" lon="6.02969">
        <ele>319</ele>
        <time>2026-08-26T17:02:58+00:00</time>
      </trkpt>
      <trkpt lat="49.94233" lon="6.02967">
        <ele>319</ele>
        <time>2026-08-26T17:03:01+00:00</time>
      </trkpt>
      <trkpt lat="49.94232" lon="6.02958">
        <ele>320</ele>
        <time>2026-08-26T17:03:04+00:00</time>
      </trkpt>
      <trkpt lat="49.94208" lon="6.02914">
        <ele>317</ele>
        <time>2026-08-26T17:03:07+00:00</time>
      </trkpt>
      <trkpt lat="49.94178" lon="6.02878">
        <ele>314</ele>
        <time>2026-08-26T17:03:10+00:00</time>
      </trkpt>
      <trkpt lat="49.94166" lon="6.02859">
        <ele>314</ele>
        <time>2026-08-26T17:03:13+00:00</time>
      </trkpt>
      <trkpt lat="49.94155" lon="6.02831">
        <ele>313</ele>
        <time>2026-08-26T17:03:16+00:00</time>
      </trkpt>
      <trkpt lat="49.94135" lon="6.02783">
        <ele>310</ele>
        <time>2026-08-26T17:03:19+00:00</time>
      </trkpt>
      <trkpt lat="49.9411" lon="6.02746">
        <ele>305</ele>
        <time>2026-08-26T17:03:22+00:00</time>
      </trkpt>
      <trkpt lat="49.94097" lon="6.02726">
        <ele>303</ele>
        <time>2026-08-26T17:03:25+00:00</time>
      </trkpt>
      <trkpt lat="49.94095" lon="6.02719">
        <ele>300</ele>
        <time>2026-08-26T17:03:28+00:00</time>
      </trkpt>
      <trkpt lat="49.94095" lon="6.02711">
        <ele>300</ele>
        <time>2026-08-26T17:03:31+00:00</time>
      </trkpt>
      <trkpt lat="49.94098" lon="6.02705">
        <ele>300</ele>
        <time>2026-08-26T17:03:34+00:00</time>
      </trkpt>
      <trkpt lat="49.94114" lon="6.02699">
        <ele>302</ele>
        <time>2026-08-26T17:03:37+00:00</time>
      </trkpt>
      <trkpt lat="49.94131" lon="6.02693">
        <ele>302</ele>
        <time>2026-08-26T17:03:40+00:00</time>
      </trkpt>
      <trkpt lat="49.94138" lon="6.02686">
        <ele>303</ele>
        <time>2026-08-26T17:03:43+00:00</time>
      </trkpt>
      <trkpt lat="49.94145" lon="6.02672">
        <ele>304</ele>
        <time>2026-08-26T17:03:46+00:00</time>
      </trkpt>
      <trkpt lat="49.94148" lon="6.02659">
        <ele>306</ele>
        <time>2026-08-26T17:03:49+00:00</time>
      </trkpt>
      <trkpt lat="49.94148" lon="6.02643">
        <ele>300</ele>
        <time>2026-08-26T17:03:52+00:00</time>
      </trkpt>
      <trkpt lat="49.94144" lon="6.02629">
        <ele>307</ele>
        <time>2026-08-26T17:03:55+00:00</time>
      </trkpt>
      <trkpt lat="49.94129" lon="6.02584">
        <ele>297</ele>
        <time>2026-08-26T17:03:58+00:00</time>
      </trkpt>
      <trkpt lat="49.94129" lon="6.02571">
        <ele>293</ele>
        <time>2026-08-26T17:04:01+00:00</time>
      </trkpt>
      <trkpt lat="49.94134" lon="6.02559">
        <ele>293</ele>
        <time>2026-08-26T17:04:04+00:00</time>
      </trkpt>
      <trkpt lat="49.94143" lon="6.02556">
        <ele>291</ele>
        <time>2026-08-26T17:04:07+00:00</time>
      </trkpt>
      <trkpt lat="49.94156" lon="6.02542">
        <ele>290</ele>
        <time>2026-08-26T17:04:10+00:00</time>
      </trkpt>
      <trkpt lat="49.94168" lon="6.02522">
        <ele>288</ele>
        <time>2026-08-26T17:04:13+00:00</time>
      </trkpt>
      <trkpt lat="49.94181" lon="6.0251">
        <ele>282</ele>
        <time>2026-08-26T17:04:16+00:00</time>
      </trkpt>
      <trkpt lat="49.94209" lon="6.0251">
        <ele>287</ele>
        <time>2026-08-26T17:04:19+00:00</time>
      </trkpt>
      <trkpt lat="49.94242" lon="6.02498">
        <ele>284</ele>
        <time>2026-08-26T17:04:22+00:00</time>
      </trkpt>
      <trkpt lat="49.94269" lon="6.02506">
        <ele>282</ele>
        <time>2026-08-26T17:04:25+00:00</time>
      </trkpt>
      <trkpt lat="49.94316" lon="6.02521">
        <ele>280</ele>
        <time>2026-08-26T17:04:28+00:00</time>
      </trkpt>
      <trkpt lat="49.94345" lon="6.02537">
        <ele>277</ele>
        <time>2026-08-26T17:04:31+00:00</time>
      </trkpt>
      <trkpt lat="49.94373" lon="6.02553">
        <ele>272</ele>
        <time>2026-08-26T17:04:34+00:00</time>
      </trkpt>
      <trkpt lat="49.94412" lon="6.02574">
        <ele>263</ele>
        <time>2026-08-26T17:04:37+00:00</time>
      </trkpt>
      <trkpt lat="49.94436" lon="6.02594">
        <ele>261</ele>
        <time>2026-08-26T17:04:40+00:00</time>
      </trkpt>
      <trkpt lat="49.94441" lon="6.02598">
        <ele>254</ele>
        <time>2026-08-26T17:04:43+00:00</time>
      </trkpt>
      <trkpt lat="49.94422" lon="6.02571">
        <ele>261</ele>
        <time>2026-08-26T17:04:46+00:00</time>
      </trkpt>
      <trkpt lat="49.94391" lon="6.02538">
        <ele>257</ele>
        <time>2026-08-26T17:04:49+00:00</time>
      </trkpt>
      <trkpt lat="49.94364" lon="6.02499">
        <ele>254</ele>
        <time>2026-08-26T17:04:52+00:00</time>
      </trkpt>
      <trkpt lat="49.9435" lon="6.02451">
        <ele>251</ele>
        <time>2026-08-26T17:04:55+00:00</time>
      </trkpt>
      <trkpt lat="49.94345" lon="6.02445">
        <ele>253</ele>
        <time>2026-08-26T17:04:58+00:00</time>
      </trkpt>
      <trkpt lat="49.94338" lon="6.02442">
        <ele>251</ele>
        <time>2026-08-26T17:05:01+00:00</time>
      </trkpt>
      <trkpt lat="49.94333" lon="6.02441">
        <ele>251</ele>
        <time>2026-08-26T17:05:04+00:00</time>
      </trkpt>
      <trkpt lat="49.94334" lon="6.02436">
        <ele>253</ele>
        <time>2026-08-26T17:05:07+00:00</time>
      </trkpt>
      <trkpt lat="49.94338" lon="6.02439">
        <ele>253</ele>
        <time>2026-08-26T17:05:10+00:00</time>
      </trkpt>
      <trkpt lat="49.94343" lon="6.02417">
        <ele>262</ele>
        <time>2026-08-26T17:05:13+00:00</time>
      </trkpt>
      <trkpt lat="49.94341" lon="6.02415">
        <ele>262</ele>
        <time>2026-08-26T17:05:16+00:00</time>
      </trkpt>
      <trkpt lat="49.94323" lon="6.02402">
        <ele>266</ele>
        <time>2026-08-26T17:05:19+00:00</time>
      </trkpt>
      <trkpt lat="49.94317" lon="6.02403">
        <ele>264</ele>
        <time>2026-08-26T17:05:22+00:00</time>
      </trkpt>
      <trkpt lat="49.94285" lon="6.02378">
        <ele>266</ele>
        <time>2026-08-26T17:05:25+00:00</time>
      </trkpt>
      <trkpt lat="49.94265" lon="6.02369">
        <ele>266</ele>
        <time>2026-08-26T17:05:28+00:00</time>
      </trkpt>
      <trkpt lat="49.94251" lon="6.02366">
        <ele>267</ele>
        <time>2026-08-26T17:05:31+00:00</time>
      </trkpt>
      <trkpt lat="49.94238" lon="6.02368">
        <ele>266</ele>
        <time>2026-08-26T17:05:34+00:00</time>
      </trkpt>
      <trkpt lat="49.94211" lon="6.02365">
        <ele>266</ele>
        <time>2026-08-26T17:05:37+00:00</time>
      </trkpt>
      <trkpt lat="49.94188" lon="6.02362">
        <ele>266</ele>
        <time>2026-08-26T17:05:40+00:00</time>
      </trkpt>
      <trkpt lat="49.94182" lon="6.02358">
        <ele>267</ele>
        <time>2026-08-26T17:05:43+00:00</time>
      </trkpt>
      <trkpt lat="49.94176" lon="6.02329">
        <ele>269</ele>
        <time>2026-08-26T17:05:46+00:00</time>
      </trkpt>
      <trkpt lat="49.94176" lon="6.02315">
        <ele>269</ele>
        <time>2026-08-26T17:05:49+00:00</time>
      </trkpt>
      <trkpt lat="49.94173" lon="6.02287">
        <ele>271</ele>
        <time>2026-08-26T17:05:52+00:00</time>
      </trkpt>
      <trkpt lat="49.94167" lon="6.0224">
        <ele>277</ele>
        <time>2026-08-26T17:05:55+00:00</time>
      </trkpt>
      <trkpt lat="49.94161" lon="6.02193">
        <ele>280</ele>
        <time>2026-08-26T17:05:58+00:00</time>
      </trkpt>
      <trkpt lat="49.94153" lon="6.02125">
        <ele>281</ele>
        <time>2026-08-26T17:06:01+00:00</time>
      </trkpt>
      <trkpt lat="49.94153" lon="6.02116">
        <ele>280</ele>
        <time>2026-08-26T17:06:04+00:00</time>
      </trkpt>
      <trkpt lat="49.94159" lon="6.02093">
        <ele>281</ele>
        <time>2026-08-26T17:06:07+00:00</time>
      </trkpt>
      <trkpt lat="49.94158" lon="6.02079">
        <ele>282</ele>
        <time>2026-08-26T17:06:10+00:00</time>
      </trkpt>
      <trkpt lat="49.9416" lon="6.02071">
        <ele>282</ele>
        <time>2026-08-26T17:06:13+00:00</time>
      </trkpt>
      <trkpt lat="49.94156" lon="6.02047">
        <ele>280</ele>
        <time>2026-08-26T17:06:16+00:00</time>
      </trkpt>
      <trkpt lat="49.94155" lon="6.02015">
        <ele>283</ele>
        <time>2026-08-26T17:06:19+00:00</time>
      </trkpt>
      <trkpt lat="49.94155" lon="6.01981">
        <ele>286</ele>
        <time>2026-08-26T17:06:22+00:00</time>
      </trkpt>
      <trkpt lat="49.94155" lon="6.01947">
        <ele>291</ele>
        <time>2026-08-26T17:06:25+00:00</time>
      </trkpt>
      <trkpt lat="49.94151" lon="6.01895">
        <ele>290</ele>
        <time>2026-08-26T17:06:28+00:00</time>
      </trkpt>
      <trkpt lat="49.94146" lon="6.01859">
        <ele>290</ele>
        <time>2026-08-26T17:06:31+00:00</time>
      </trkpt>
      <trkpt lat="49.94139" lon="6.01816">
        <ele>300</ele>
        <time>2026-08-26T17:06:34+00:00</time>
      </trkpt>
      <trkpt lat="49.94138" lon="6.01764">
        <ele>305</ele>
        <time>2026-08-26T17:06:37+00:00</time>
      </trkpt>
      <trkpt lat="49.9413" lon="6.01727">
        <ele>307</ele>
        <time>2026-08-26T17:06:40+00:00</time>
      </trkpt>
      <trkpt lat="49.94118" lon="6.01676">
        <ele>303</ele>
        <time>2026-08-26T17:06:43+00:00</time>
      </trkpt>
      <trkpt lat="49.941" lon="6.01627">
        <ele>299</ele>
        <time>2026-08-26T17:06:46+00:00</time>
      </trkpt>
      <trkpt lat="49.9409" lon="6.0161">
        <ele>288</ele>
        <time>2026-08-26T17:06:49+00:00</time>
      </trkpt>
      <trkpt lat="49.94084" lon="6.01611">
        <ele>296</ele>
        <time>2026-08-26T17:06:52+00:00</time>
      </trkpt>
      <trkpt lat="49.94078" lon="6.01612">
        <ele>291</ele>
        <time>2026-08-26T17:06:55+00:00</time>
      </trkpt>
      <trkpt lat="49.94076" lon="6.01612">
        <ele>291</ele>
        <time>2026-08-26T17:06:58+00:00</time>
      </trkpt>
      <trkpt lat="49.94067" lon="6.01604">
        <ele>293</ele>
        <time>2026-08-26T17:07:01+00:00</time>
      </trkpt>
      <trkpt lat="49.94053" lon="6.0158">
        <ele>298</ele>
        <time>2026-08-26T17:07:04+00:00</time>
      </trkpt>
      <trkpt lat="49.94048" lon="6.01564">
        <ele>295</ele>
        <time>2026-08-26T17:07:07+00:00</time>
      </trkpt>
      <trkpt lat="49.94041" lon="6.01534">
        <ele>303</ele>
        <time>2026-08-26T17:07:10+00:00</time>
      </trkpt>
      <trkpt lat="49.94038" lon="6.01499">
        <ele>306</ele>
        <time>2026-08-26T17:07:13+00:00</time>
      </trkpt>
      <trkpt lat="49.9404" lon="6.01451">
        <ele>309</ele>
        <time>2026-08-26T17:07:16+00:00</time>
      </trkpt>
      <trkpt lat="49.94044" lon="6.01414">
        <ele>314</ele>
        <time>2026-08-26T17:07:19+00:00</time>
      </trkpt>
      <trkpt lat="49.9405" lon="6.01367">
        <ele>316</ele>
        <time>2026-08-26T17:07:22+00:00</time>
      </trkpt>
      <trkpt lat="49.94061" lon="6.01308">
        <ele>318</ele>
        <time>2026-08-26T17:07:25+00:00</time>
      </trkpt>
      <trkpt lat="49.94073" lon="6.01269">
        <ele>323</ele>
        <time>2026-08-26T17:07:28+00:00</time>
      </trkpt>
      <trkpt lat="49.94091" lon="6.01238">
        <ele>328</ele>
        <time>2026-08-26T17:07:31+00:00</time>
      </trkpt>
      <trkpt lat="49.94122" lon="6.01187">
        <ele>335</ele>
        <time>2026-08-26T17:07:34+00:00</time>
      </trkpt>
      <trkpt lat="49.9414" lon="6.01167">
        <ele>340</ele>
        <time>2026-08-26T17:07:37+00:00</time>
      </trkpt>
      <trkpt lat="49.94158" lon="6.01147">
        <ele>337</ele>
        <time>2026-08-26T17:07:40+00:00</time>
      </trkpt>
      <trkpt lat="49.94183" lon="6.01129">
        <ele>335</ele>
        <time>2026-08-26T17:07:43+00:00</time>
      </trkpt>
      <trkpt lat="49.9423" lon="6.01096">
        <ele>313</ele>
        <time>2026-08-26T17:07:46+00:00</time>
      </trkpt>
      <trkpt lat="49.94265" lon="6.01081">
        <ele>313</ele>
        <time>2026-08-26T17:07:49+00:00</time>
      </trkpt>
      <trkpt lat="49.94283" lon="6.01079">
        <ele>313</ele>
        <time>2026-08-26T17:07:52+00:00</time>
      </trkpt>
      <trkpt lat="49.94294" lon="6.0108">
        <ele>309</ele>
        <time>2026-08-26T17:07:55+00:00</time>
      </trkpt>
      <trkpt lat="49.94315" lon="6.01085">
        <ele>311</ele>
        <time>2026-08-26T17:07:58+00:00</time>
      </trkpt>
      <trkpt lat="49.94346" lon="6.01093">
        <ele>310</ele>
        <time>2026-08-26T17:08:01+00:00</time>
      </trkpt>
      <trkpt lat="49.94366" lon="6.01105">
        <ele>310</ele>
        <time>2026-08-26T17:08:04+00:00</time>
      </trkpt>
      <trkpt lat="49.94367" lon="6.01105">
        <ele>310</ele>
        <time>2026-08-26T17:08:07+00:00</time>
      </trkpt>
      <trkpt lat="49.94378" lon="6.01105">
        <ele>311</ele>
        <time>2026-08-26T17:08:10+00:00</time>
      </trkpt>
      <trkpt lat="49.94388" lon="6.01099">
        <ele>318</ele>
        <time>2026-08-26T17:08:13+00:00</time>
      </trkpt>
      <trkpt lat="49.94401" lon="6.01065">
        <ele>324</ele>
        <time>2026-08-26T17:08:16+00:00</time>
      </trkpt>
      <trkpt lat="49.94404" lon="6.01045">
        <ele>326</ele>
        <time>2026-08-26T17:08:19+00:00</time>
      </trkpt>
      <trkpt lat="49.94402" lon="6.01012">
        <ele>327</ele>
        <time>2026-08-26T17:08:22+00:00</time>
      </trkpt>
      <trkpt lat="49.94397" lon="6.00987">
        <ele>333</ele>
        <time>2026-08-26T17:08:25+00:00</time>
      </trkpt>
      <trkpt lat="49.94384" lon="6.00951">
        <ele>338</ele>
        <time>2026-08-26T17:08:28+00:00</time>
      </trkpt>
      <trkpt lat="49.94372" lon="6.00915">
        <ele>340</ele>
        <time>2026-08-26T17:08:31+00:00</time>
      </trkpt>
      <trkpt lat="49.94352" lon="6.00858">
        <ele>336</ele>
        <time>2026-08-26T17:08:34+00:00</time>
      </trkpt>
      <trkpt lat="49.94341" lon="6.00829">
        <ele>339</ele>
        <time>2026-08-26T17:08:37+00:00</time>
      </trkpt>
      <trkpt lat="49.94329" lon="6.008">
        <ele>338</ele>
        <time>2026-08-26T17:08:40+00:00</time>
      </trkpt>
      <trkpt lat="49.94314" lon="6.00757">
        <ele>338</ele>
        <time>2026-08-26T17:08:43+00:00</time>
      </trkpt>
      <trkpt lat="49.943" lon="6.00715">
        <ele>352</ele>
        <time>2026-08-26T17:08:46+00:00</time>
      </trkpt>
      <trkpt lat="49.94277" lon="6.00649">
        <ele>352</ele>
        <time>2026-08-26T17:08:49+00:00</time>
      </trkpt>
      <trkpt lat="49.94267" lon="6.00613">
        <ele>349</ele>
        <time>2026-08-26T17:08:52+00:00</time>
      </trkpt>
      <trkpt lat="49.94254" lon="6.00564">
        <ele>346</ele>
        <time>2026-08-26T17:08:55+00:00</time>
      </trkpt>
      <trkpt lat="49.94244" lon="6.00532">
        <ele>340</ele>
        <time>2026-08-26T17:08:58+00:00</time>
      </trkpt>
      <trkpt lat="49.94233" lon="6.00497">
        <ele>340</ele>
        <time>2026-08-26T17:09:01+00:00</time>
      </trkpt>
      <trkpt lat="49.94217" lon="6.00451">
        <ele>341</ele>
        <time>2026-08-26T17:09:04+00:00</time>
      </trkpt>
      <trkpt lat="49.94201" lon="6.00404">
        <ele>343</ele>
        <time>2026-08-26T17:09:07+00:00</time>
      </trkpt>
      <trkpt lat="49.94185" lon="6.00358">
        <ele>351</ele>
        <time>2026-08-26T17:09:10+00:00</time>
      </trkpt>
      <trkpt lat="49.94159" lon="6.00284">
        <ele>356</ele>
        <time>2026-08-26T17:09:13+00:00</time>
      </trkpt>
      <trkpt lat="49.94153" lon="6.00256">
        <ele>362</ele>
        <time>2026-08-26T17:09:16+00:00</time>
      </trkpt>
      <trkpt lat="49.94146" lon="6.00216">
        <ele>363</ele>
        <time>2026-08-26T17:09:19+00:00</time>
      </trkpt>
      <trkpt lat="49.94136" lon="6.00153">
        <ele>364</ele>
        <time>2026-08-26T17:09:22+00:00</time>
      </trkpt>
      <trkpt lat="49.94125" lon="6.00119">
        <ele>365</ele>
        <time>2026-08-26T17:09:25+00:00</time>
      </trkpt>
      <trkpt lat="49.94123" lon="6.00104">
        <ele>366</ele>
        <time>2026-08-26T17:09:28+00:00</time>
      </trkpt>
      <trkpt lat="49.94102" lon="6.00104">
        <ele>369</ele>
        <time>2026-08-26T17:09:31+00:00</time>
      </trkpt>
      <trkpt lat="49.9407" lon="6.00088">
        <ele>382</ele>
        <time>2026-08-26T17:09:34+00:00</time>
      </trkpt>
      <trkpt lat="49.9406" lon="6.0009">
        <ele>382</ele>
        <time>2026-08-26T17:09:37+00:00</time>
      </trkpt>
      <trkpt lat="49.9407" lon="6.00108">
        <ele>383</ele>
        <time>2026-08-26T17:09:40+00:00</time>
      </trkpt>
      <trkpt lat="49.94035" lon="6.00098">
        <ele>392</ele>
        <time>2026-08-26T17:09:43+00:00</time>
      </trkpt>
      <trkpt lat="49.94028" lon="6.00094">
        <ele>394</ele>
        <time>2026-08-26T17:09:46+00:00</time>
      </trkpt>
      <trkpt lat="49.94008" lon="6.00092">
        <ele>400</ele>
        <time>2026-08-26T17:09:49+00:00</time>
      </trkpt>
      <trkpt lat="49.94035" lon="6.00131">
        <ele>400</ele>
        <time>2026-08-26T17:09:52+00:00</time>
      </trkpt>
      <trkpt lat="49.94017" lon="6.00126">
        <ele>406</ele>
        <time>2026-08-26T17:09:55+00:00</time>
      </trkpt>
      <trkpt lat="49.93992" lon="6.00114">
        <ele>408</ele>
        <time>2026-08-26T17:09:58+00:00</time>
      </trkpt>
      <trkpt lat="49.93989" lon="6.00115">
        <ele>411</ele>
        <time>2026-08-26T17:10:01+00:00</time>
      </trkpt>
      <trkpt lat="49.93995" lon="6.00125">
        <ele>411</ele>
        <time>2026-08-26T17:10:04+00:00</time>
      </trkpt>
      <trkpt lat="49.9401" lon="6.00159">
        <ele>412</ele>
        <time>2026-08-26T17:10:07+00:00</time>
      </trkpt>
      <trkpt lat="49.9398" lon="6.00157">
        <ele>423</ele>
        <time>2026-08-26T17:10:10+00:00</time>
      </trkpt>
      <trkpt lat="49.93993" lon="6.00187">
        <ele>423</ele>
        <time>2026-08-26T17:10:13+00:00</time>
      </trkpt>
      <trkpt lat="49.93996" lon="6.00203">
        <ele>429</ele>
        <time>2026-08-26T17:10:16+00:00</time>
      </trkpt>
      <trkpt lat="49.9397" lon="6.00192">
        <ele>432</ele>
        <time>2026-08-26T17:10:19+00:00</time>
      </trkpt>
      <trkpt lat="49.93938" lon="6.00183">
        <ele>441</ele>
        <time>2026-08-26T17:10:22+00:00</time>
      </trkpt>
      <trkpt lat="49.93941" lon="6.00189">
        <ele>437</ele>
        <time>2026-08-26T17:10:25+00:00</time>
      </trkpt>
      <trkpt lat="49.93948" lon="6.002">
        <ele>441</ele>
        <time>2026-08-26T17:10:28+00:00</time>
      </trkpt>
      <trkpt lat="49.93954" lon="6.00221">
        <ele>442</ele>
        <time>2026-08-26T17:10:31+00:00</time>
      </trkpt>
      <trkpt lat="49.93955" lon="6.00231">
        <ele>444</ele>
        <time>2026-08-26T17:10:34+00:00</time>
      </trkpt>
      <trkpt lat="49.93951" lon="6.00256">
        <ele>447</ele>
        <time>2026-08-26T17:10:37+00:00</time>
      </trkpt>
      <trkpt lat="49.93952" lon="6.0028">
        <ele>452</ele>
        <time>2026-08-26T17:10:40+00:00</time>
      </trkpt>
      <trkpt lat="49.9395" lon="6.00298">
        <ele>452</ele>
        <time>2026-08-26T17:10:43+00:00</time>
      </trkpt>
      <trkpt lat="49.93944" lon="6.00326">
        <ele>452</ele>
        <time>2026-08-26T17:10:46+00:00</time>
      </trkpt>
      <trkpt lat="49.93934" lon="6.00343">
        <ele>450</ele>
        <time>2026-08-26T17:10:49+00:00</time>
      </trkpt>
      <trkpt lat="49.93923" lon="6.00355">
        <ele>453</ele>
        <time>2026-08-26T17:10:52+00:00</time>
      </trkpt>
      <trkpt lat="49.9391" lon="6.00364">
        <ele>456</ele>
        <time>2026-08-26T17:10:55+00:00</time>
      </trkpt>
      <trkpt lat="49.93895" lon="6.00368">
        <ele>457</ele>
        <time>2026-08-26T17:10:58+00:00</time>
      </trkpt>
      <trkpt lat="49.93872" lon="6.00345">
        <ele>467</ele>
        <time>2026-08-26T17:11:01+00:00</time>
      </trkpt>
      <trkpt lat="49.93835" lon="6.00306">
        <ele>475</ele>
        <time>2026-08-26T17:11:04+00:00</time>
      </trkpt>
      <trkpt lat="49.93816" lon="6.00292">
        <ele>475</ele>
        <time>2026-08-26T17:11:07+00:00</time>
      </trkpt>
      <trkpt lat="49.93788" lon="6.0025">
        <ele>476</ele>
        <time>2026-08-26T17:11:10+00:00</time>
      </trkpt>
      <trkpt lat="49.93767" lon="6.00225">
        <ele>476</ele>
        <time>2026-08-26T17:11:13+00:00</time>
      </trkpt>
      <trkpt lat="49.93737" lon="6.00189">
        <ele>470</ele>
        <time>2026-08-26T17:11:16+00:00</time>
      </trkpt>
      <trkpt lat="49.93715" lon="6.00149">
        <ele>465</ele>
        <time>2026-08-26T17:11:19+00:00</time>
      </trkpt>
      <trkpt lat="49.93708" lon="6.00142">
        <ele>464</ele>
        <time>2026-08-26T17:11:22+00:00</time>
      </trkpt>
      <trkpt lat="49.937" lon="6.00134">
        <ele>464</ele>
        <time>2026-08-26T17:11:25+00:00</time>
      </trkpt>
      <trkpt lat="49.93687" lon="6.00103">
        <ele>463</ele>
        <time>2026-08-26T17:11:28+00:00</time>
      </trkpt>
      <trkpt lat="49.93671" lon="6.00067">
        <ele>463</ele>
        <time>2026-08-26T17:11:31+00:00</time>
      </trkpt>
      <trkpt lat="49.93647" lon="6.0002">
        <ele>463</ele>
        <time>2026-08-26T17:11:34+00:00</time>
      </trkpt>
      <trkpt lat="49.9363" lon="5.99989">
        <ele>464</ele>
        <time>2026-08-26T17:11:37+00:00</time>
      </trkpt>
      <trkpt lat="49.93603" lon="5.99942">
        <ele>466</ele>
        <time>2026-08-26T17:11:40+00:00</time>
      </trkpt>
      <trkpt lat="49.93584" lon="5.99905">
        <ele>466</ele>
        <time>2026-08-26T17:11:43+00:00</time>
      </trkpt>
      <trkpt lat="49.93565" lon="5.99867">
        <ele>467</ele>
        <time>2026-08-26T17:11:46+00:00</time>
      </trkpt>
      <trkpt lat="49.93537" lon="5.99814">
        <ele>470</ele>
        <time>2026-08-26T17:11:49+00:00</time>
      </trkpt>
      <trkpt lat="49.9352" lon="5.99772">
        <ele>472</ele>
        <time>2026-08-26T17:11:52+00:00</time>
      </trkpt>
      <trkpt lat="49.93508" lon="5.99731">
        <ele>474</ele>
        <time>2026-08-26T17:11:55+00:00</time>
      </trkpt>
      <trkpt lat="49.93496" lon="5.9969">
        <ele>476</ele>
        <time>2026-08-26T17:11:58+00:00</time>
      </trkpt>
      <trkpt lat="49.93483" lon="5.99648">
        <ele>478</ele>
        <time>2026-08-26T17:12:01+00:00</time>
      </trkpt>
      <trkpt lat="49.9347" lon="5.99611">
        <ele>479</ele>
        <time>2026-08-26T17:12:04+00:00</time>
      </trkpt>
      <trkpt lat="49.9345" lon="5.99553">
        <ele>480</ele>
        <time>2026-08-26T17:12:07+00:00</time>
      </trkpt>
      <trkpt lat="49.93435" lon="5.99513">
        <ele>481</ele>
        <time>2026-08-26T17:12:10+00:00</time>
      </trkpt>
      <trkpt lat="49.93413" lon="5.99469">
        <ele>481</ele>
        <time>2026-08-26T17:12:13+00:00</time>
      </trkpt>
      <trkpt lat="49.9341" lon="5.99464">
        <ele>481</ele>
        <time>2026-08-26T17:12:16+00:00</time>
      </trkpt>
      <trkpt lat="49.93409" lon="5.99501">
        <ele>480</ele>
        <time>2026-08-26T17:12:19+00:00</time>
      </trkpt>
      <trkpt lat="49.93408" lon="5.99555">
        <ele>480</ele>
        <time>2026-08-26T17:12:22+00:00</time>
      </trkpt>
      <trkpt lat="49.93409" lon="5.99592">
        <ele>479</ele>
        <time>2026-08-26T17:12:25+00:00</time>
      </trkpt>
      <trkpt lat="49.93411" lon="5.99639">
        <ele>479</ele>
        <time>2026-08-26T17:12:28+00:00</time>
      </trkpt>
      <trkpt lat="49.93414" lon="5.99678">
        <ele>478</ele>
        <time>2026-08-26T17:12:31+00:00</time>
      </trkpt>
      <trkpt lat="49.93419" lon="5.99733">
        <ele>478</ele>
        <time>2026-08-26T17:12:34+00:00</time>
      </trkpt>
      <trkpt lat="49.93404" lon="5.99742">
        <ele>476</ele>
        <time>2026-08-26T17:12:37+00:00</time>
      </trkpt>
      <trkpt lat="49.93385" lon="5.99749">
        <ele>474</ele>
        <time>2026-08-26T17:12:40+00:00</time>
      </trkpt>
      <trkpt lat="49.93358" lon="5.99754">
        <ele>471</ele>
        <time>2026-08-26T17:12:43+00:00</time>
      </trkpt>
      <trkpt lat="49.9331" lon="5.99762">
        <ele>466</ele>
        <time>2026-08-26T17:12:46+00:00</time>
      </trkpt>
      <trkpt lat="49.93268" lon="5.99763">
        <ele>462</ele>
        <time>2026-08-26T17:12:49+00:00</time>
      </trkpt>
      <trkpt lat="49.93242" lon="5.99759">
        <ele>461</ele>
        <time>2026-08-26T17:12:52+00:00</time>
      </trkpt>
      <trkpt lat="49.93219" lon="5.99754">
        <ele>453</ele>
        <time>2026-08-26T17:12:55+00:00</time>
      </trkpt>
      <trkpt lat="49.93181" lon="5.99741">
        <ele>446</ele>
        <time>2026-08-26T17:12:58+00:00</time>
      </trkpt>
      <trkpt lat="49.93154" lon="5.99734">
        <ele>445</ele>
        <time>2026-08-26T17:13:01+00:00</time>
      </trkpt>
      <trkpt lat="49.93126" lon="5.99734">
        <ele>445</ele>
        <time>2026-08-26T17:13:04+00:00</time>
      </trkpt>
      <trkpt lat="49.93118" lon="5.99737">
        <ele>444</ele>
        <time>2026-08-26T17:13:07+00:00</time>
      </trkpt>
      <trkpt lat="49.93107" lon="5.99747">
        <ele>445</ele>
        <time>2026-08-26T17:13:10+00:00</time>
      </trkpt>
      <trkpt lat="49.93101" lon="5.99759">
        <ele>444</ele>
        <time>2026-08-26T17:13:13+00:00</time>
      </trkpt>
      <trkpt lat="49.93101" lon="5.99778">
        <ele>441</ele>
        <time>2026-08-26T17:13:16+00:00</time>
      </trkpt>
      <trkpt lat="49.93106" lon="5.99818">
        <ele>440</ele>
        <time>2026-08-26T17:13:19+00:00</time>
      </trkpt>
      <trkpt lat="49.93109" lon="5.99826">
        <ele>439</ele>
        <time>2026-08-26T17:13:22+00:00</time>
      </trkpt>
      <trkpt lat="49.93099" lon="5.99829">
        <ele>437</ele>
        <time>2026-08-26T17:13:25+00:00</time>
      </trkpt>
      <trkpt lat="49.9309" lon="5.99825">
        <ele>433</ele>
        <time>2026-08-26T17:13:28+00:00</time>
      </trkpt>
      <trkpt lat="49.93077" lon="5.99815">
        <ele>431</ele>
        <time>2026-08-26T17:13:31+00:00</time>
      </trkpt>
      <trkpt lat="49.93074" lon="5.99812">
        <ele>432</ele>
        <time>2026-08-26T17:13:34+00:00</time>
      </trkpt>
      <trkpt lat="49.93061" lon="5.99798">
        <ele>431</ele>
        <time>2026-08-26T17:13:37+00:00</time>
      </trkpt>
      <trkpt lat="49.93045" lon="5.99776">
        <ele>432</ele>
        <time>2026-08-26T17:13:40+00:00</time>
      </trkpt>
      <trkpt lat="49.9304" lon="5.9976">
        <ele>432</ele>
        <time>2026-08-26T17:13:43+00:00</time>
      </trkpt>
      <trkpt lat="49.93027" lon="5.99733">
        <ele>430</ele>
        <time>2026-08-26T17:13:46+00:00</time>
      </trkpt>
      <trkpt lat="49.93003" lon="5.99708">
        <ele>424</ele>
        <time>2026-08-26T17:13:49+00:00</time>
      </trkpt>
      <trkpt lat="49.92995" lon="5.99696">
        <ele>421</ele>
        <time>2026-08-26T17:13:52+00:00</time>
      </trkpt>
      <trkpt lat="49.92972" lon="5.99682">
        <ele>424</ele>
        <time>2026-08-26T17:13:55+00:00</time>
      </trkpt>
      <trkpt lat="49.92965" lon="5.99676">
        <ele>422</ele>
        <time>2026-08-26T17:13:58+00:00</time>
      </trkpt>
      <trkpt lat="49.92951" lon="5.99648">
        <ele>424</ele>
        <time>2026-08-26T17:14:01+00:00</time>
      </trkpt>
      <trkpt lat="49.9295" lon="5.99638">
        <ele>424</ele>
        <time>2026-08-26T17:14:04+00:00</time>
      </trkpt>
      <trkpt lat="49.92952" lon="5.99631">
        <ele>423</ele>
        <time>2026-08-26T17:14:07+00:00</time>
      </trkpt>
      <trkpt lat="49.92947" lon="5.99624">
        <ele>424</ele>
        <time>2026-08-26T17:14:10+00:00</time>
      </trkpt>
      <trkpt lat="49.92925" lon="5.99616">
        <ele>421</ele>
        <time>2026-08-26T17:14:13+00:00</time>
      </trkpt>
      <trkpt lat="49.92903" lon="5.99607">
        <ele>412</ele>
        <time>2026-08-26T17:14:16+00:00</time>
      </trkpt>
      <trkpt lat="49.92892" lon="5.99593">
        <ele>408</ele>
        <time>2026-08-26T17:14:19+00:00</time>
      </trkpt>
      <trkpt lat="49.92879" lon="5.99589">
        <ele>401</ele>
        <time>2026-08-26T17:14:22+00:00</time>
      </trkpt>
      <trkpt lat="49.92868" lon="5.99579">
        <ele>397</ele>
        <time>2026-08-26T17:14:25+00:00</time>
      </trkpt>
      <trkpt lat="49.92859" lon="5.99577">
        <ele>396</ele>
        <time>2026-08-26T17:14:28+00:00</time>
      </trkpt>
      <trkpt lat="49.92853" lon="5.99583">
        <ele>397</ele>
        <time>2026-08-26T17:14:31+00:00</time>
      </trkpt>
      <trkpt lat="49.92827" lon="5.99572">
        <ele>388</ele>
        <time>2026-08-26T17:14:34+00:00</time>
      </trkpt>
      <trkpt lat="49.92822" lon="5.99567">
        <ele>389</ele>
        <time>2026-08-26T17:14:37+00:00</time>
      </trkpt>
      <trkpt lat="49.92808" lon="5.99562">
        <ele>382</ele>
        <time>2026-08-26T17:14:40+00:00</time>
      </trkpt>
      <trkpt lat="49.92799" lon="5.99551">
        <ele>380</ele>
        <time>2026-08-26T17:14:43+00:00</time>
      </trkpt>
      <trkpt lat="49.92789" lon="5.99556">
        <ele>376</ele>
        <time>2026-08-26T17:14:46+00:00</time>
      </trkpt>
      <trkpt lat="49.9277" lon="5.99546">
        <ele>373</ele>
        <time>2026-08-26T17:14:49+00:00</time>
      </trkpt>
      <trkpt lat="49.92765" lon="5.99547">
        <ele>369</ele>
        <time>2026-08-26T17:14:52+00:00</time>
      </trkpt>
      <trkpt lat="49.92747" lon="5.99544">
        <ele>363</ele>
        <time>2026-08-26T17:14:55+00:00</time>
      </trkpt>
      <trkpt lat="49.9274" lon="5.99539">
        <ele>364</ele>
        <time>2026-08-26T17:14:58+00:00</time>
      </trkpt>
      <trkpt lat="49.92724" lon="5.99543">
        <ele>358</ele>
        <time>2026-08-26T17:15:01+00:00</time>
      </trkpt>
      <trkpt lat="49.92709" lon="5.99539">
        <ele>355</ele>
        <time>2026-08-26T17:15:04+00:00</time>
      </trkpt>
      <trkpt lat="49.92701" lon="5.99535">
        <ele>355</ele>
        <time>2026-08-26T17:15:07+00:00</time>
      </trkpt>
      <trkpt lat="49.92695" lon="5.99529">
        <ele>353</ele>
        <time>2026-08-26T17:15:10+00:00</time>
      </trkpt>
      <trkpt lat="49.92694" lon="5.99522">
        <ele>353</ele>
        <time>2026-08-26T17:15:13+00:00</time>
      </trkpt>
      <trkpt lat="49.9269" lon="5.99518">
        <ele>353</ele>
        <time>2026-08-26T17:15:16+00:00</time>
      </trkpt>
      <trkpt lat="49.92682" lon="5.99516">
        <ele>353</ele>
        <time>2026-08-26T17:15:19+00:00</time>
      </trkpt>
      <trkpt lat="49.92678" lon="5.99517">
        <ele>351</ele>
        <time>2026-08-26T17:15:22+00:00</time>
      </trkpt>
      <trkpt lat="49.92675" lon="5.99524">
        <ele>349</ele>
        <time>2026-08-26T17:15:25+00:00</time>
      </trkpt>
      <trkpt lat="49.92676" lon="5.99544">
        <ele>347</ele>
        <time>2026-08-26T17:15:28+00:00</time>
      </trkpt>
      <trkpt lat="49.92676" lon="5.99552">
        <ele>346</ele>
        <time>2026-08-26T17:15:31+00:00</time>
      </trkpt>
      <trkpt lat="49.92675" lon="5.99556">
        <ele>346</ele>
        <time>2026-08-26T17:15:34+00:00</time>
      </trkpt>
      <trkpt lat="49.92656" lon="5.99541">
        <ele>340</ele>
        <time>2026-08-26T17:15:37+00:00</time>
      </trkpt>
      <trkpt lat="49.92631" lon="5.99522">
        <ele>338</ele>
        <time>2026-08-26T17:15:40+00:00</time>
      </trkpt>
      <trkpt lat="49.92618" lon="5.99506">
        <ele>332</ele>
        <time>2026-08-26T17:15:43+00:00</time>
      </trkpt>
      <trkpt lat="49.92617" lon="5.99513">
        <ele>336</ele>
        <time>2026-08-26T17:15:46+00:00</time>
      </trkpt>
      <trkpt lat="49.92619" lon="5.99523">
        <ele>330</ele>
        <time>2026-08-26T17:15:49+00:00</time>
      </trkpt>
      <trkpt lat="49.92634" lon="5.99549">
        <ele>334</ele>
        <time>2026-08-26T17:15:52+00:00</time>
      </trkpt>
      <trkpt lat="49.92655" lon="5.99585">
        <ele>332</ele>
        <time>2026-08-26T17:15:55+00:00</time>
      </trkpt>
      <trkpt lat="49.92671" lon="5.9961">
        <ele>329</ele>
        <time>2026-08-26T17:15:58+00:00</time>
      </trkpt>
      <trkpt lat="49.92685" lon="5.9963">
        <ele>326</ele>
        <time>2026-08-26T17:16:01+00:00</time>
      </trkpt>
      <trkpt lat="49.92687" lon="5.99632">
        <ele>326</ele>
        <time>2026-08-26T17:16:04+00:00</time>
      </trkpt>
      <trkpt lat="49.92689" lon="5.99639">
        <ele>326</ele>
        <time>2026-08-26T17:16:07+00:00</time>
      </trkpt>
      <trkpt lat="49.92686" lon="5.99644">
        <ele>323</ele>
        <time>2026-08-26T17:16:10+00:00</time>
      </trkpt>
      <trkpt lat="49.92682" lon="5.99644">
        <ele>323</ele>
        <time>2026-08-26T17:16:13+00:00</time>
      </trkpt>
      <trkpt lat="49.92661" lon="5.99622">
        <ele>323</ele>
        <time>2026-08-26T17:16:16+00:00</time>
      </trkpt>
      <trkpt lat="49.92627" lon="5.99596">
        <ele>322</ele>
        <time>2026-08-26T17:16:19+00:00</time>
      </trkpt>
      <trkpt lat="49.92604" lon="5.99584">
        <ele>320</ele>
        <time>2026-08-26T17:16:22+00:00</time>
      </trkpt>
      <trkpt lat="49.92582" lon="5.99579">
        <ele>317</ele>
        <time>2026-08-26T17:16:25+00:00</time>
      </trkpt>
      <trkpt lat="49.92574" lon="5.99574">
        <ele>315</ele>
        <time>2026-08-26T17:16:28+00:00</time>
      </trkpt>
      <trkpt lat="49.92554" lon="5.99572">
        <ele>311</ele>
        <time>2026-08-26T17:16:31+00:00</time>
      </trkpt>
      <trkpt lat="49.92537" lon="5.99578">
        <ele>307</ele>
        <time>2026-08-26T17:16:34+00:00</time>
      </trkpt>
      <trkpt lat="49.92515" lon="5.99579">
        <ele>304</ele>
        <time>2026-08-26T17:16:37+00:00</time>
      </trkpt>
      <trkpt lat="49.92509" lon="5.99577">
        <ele>301</ele>
        <time>2026-08-26T17:16:40+00:00</time>
      </trkpt>
      <trkpt lat="49.92505" lon="5.99569">
        <ele>301</ele>
        <time>2026-08-26T17:16:43+00:00</time>
      </trkpt>
      <trkpt lat="49.92505" lon="5.99559">
        <ele>301</ele>
        <time>2026-08-26T17:16:46+00:00</time>
      </trkpt>
      <trkpt lat="49.92507" lon="5.99548">
        <ele>301</ele>
        <time>2026-08-26T17:16:49+00:00</time>
      </trkpt>
      <trkpt lat="49.92506" lon="5.99538">
        <ele>301</ele>
        <time>2026-08-26T17:16:52+00:00</time>
      </trkpt>
      <trkpt lat="49.92501" lon="5.99536">
        <ele>301</ele>
        <time>2026-08-26T17:16:55+00:00</time>
      </trkpt>
      <trkpt lat="49.92495" lon="5.99541">
        <ele>298</ele>
        <time>2026-08-26T17:16:58+00:00</time>
      </trkpt>
      <trkpt lat="49.92491" lon="5.99554">
        <ele>297</ele>
        <time>2026-08-26T17:17:01+00:00</time>
      </trkpt>
      <trkpt lat="49.92486" lon="5.99589">
        <ele>295</ele>
        <time>2026-08-26T17:17:04+00:00</time>
      </trkpt>
      <trkpt lat="49.92489" lon="5.99618">
        <ele>292</ele>
        <time>2026-08-26T17:17:07+00:00</time>
      </trkpt>
      <trkpt lat="49.92487" lon="5.99632">
        <ele>292</ele>
        <time>2026-08-26T17:17:10+00:00</time>
      </trkpt>
      <trkpt lat="49.92482" lon="5.99651">
        <ele>291</ele>
        <time>2026-08-26T17:17:13+00:00</time>
      </trkpt>
      <trkpt lat="49.92478" lon="5.99659">
        <ele>290</ele>
        <time>2026-08-26T17:17:16+00:00</time>
      </trkpt>
      <trkpt lat="49.92474" lon="5.99665">
        <ele>289</ele>
        <time>2026-08-26T17:17:19+00:00</time>
      </trkpt>
      <trkpt lat="49.92464" lon="5.99681">
        <ele>293</ele>
        <time>2026-08-26T17:17:22+00:00</time>
      </trkpt>
      <trkpt lat="49.92455" lon="5.99704">
        <ele>293</ele>
        <time>2026-08-26T17:17:25+00:00</time>
      </trkpt>
      <trkpt lat="49.92445" lon="5.99727">
        <ele>295</ele>
        <time>2026-08-26T17:17:28+00:00</time>
      </trkpt>
      <trkpt lat="49.92428" lon="5.99756">
        <ele>298</ele>
        <time>2026-08-26T17:17:31+00:00</time>
      </trkpt>
      <trkpt lat="49.92408" lon="5.99785">
        <ele>300</ele>
        <time>2026-08-26T17:17:34+00:00</time>
      </trkpt>
      <trkpt lat="49.92386" lon="5.99764">
        <ele>302</ele>
        <time>2026-08-26T17:17:37+00:00</time>
      </trkpt>
      <trkpt lat="49.92353" lon="5.99732">
        <ele>307</ele>
        <time>2026-08-26T17:17:40+00:00</time>
      </trkpt>
      <trkpt lat="49.92336" lon="5.99707">
        <ele>310</ele>
        <time>2026-08-26T17:17:43+00:00</time>
      </trkpt>
      <trkpt lat="49.9232" lon="5.99676">
        <ele>312</ele>
        <time>2026-08-26T17:17:46+00:00</time>
      </trkpt>
      <trkpt lat="49.92316" lon="5.99653">
        <ele>314</ele>
        <time>2026-08-26T17:17:49+00:00</time>
      </trkpt>
      <trkpt lat="49.92311" lon="5.99645">
        <ele>314</ele>
        <time>2026-08-26T17:17:52+00:00</time>
      </trkpt>
      <trkpt lat="49.92298" lon="5.99624">
        <ele>317</ele>
        <time>2026-08-26T17:17:55+00:00</time>
      </trkpt>
      <trkpt lat="49.92303" lon="5.99613">
        <ele>315</ele>
        <time>2026-08-26T17:17:58+00:00</time>
      </trkpt>
      <trkpt lat="49.92296" lon="5.99596">
        <ele>318</ele>
        <time>2026-08-26T17:18:01+00:00</time>
      </trkpt>
      <trkpt lat="49.92292" lon="5.99595">
        <ele>318</ele>
        <time>2026-08-26T17:18:04+00:00</time>
      </trkpt>
      <trkpt lat="49.9229" lon="5.99597">
        <ele>320</ele>
        <time>2026-08-26T17:18:07+00:00</time>
      </trkpt>
      <trkpt lat="49.9228" lon="5.99607">
        <ele>321</ele>
        <time>2026-08-26T17:18:10+00:00</time>
      </trkpt>
      <trkpt lat="49.9228" lon="5.99608">
        <ele>321</ele>
        <time>2026-08-26T17:18:13+00:00</time>
      </trkpt>
      <trkpt lat="49.92253" lon="5.99608">
        <ele>324</ele>
        <time>2026-08-26T17:18:16+00:00</time>
      </trkpt>
      <trkpt lat="49.92247" lon="5.99619">
        <ele>325</ele>
        <time>2026-08-26T17:18:19+00:00</time>
      </trkpt>
      <trkpt lat="49.92237" lon="5.99647">
        <ele>324</ele>
        <time>2026-08-26T17:18:22+00:00</time>
      </trkpt>
      <trkpt lat="49.92224" lon="5.99694">
        <ele>324</ele>
        <time>2026-08-26T17:18:25+00:00</time>
      </trkpt>
      <trkpt lat="49.92217" lon="5.99732">
        <ele>324</ele>
        <time>2026-08-26T17:18:28+00:00</time>
      </trkpt>
      <trkpt lat="49.92207" lon="5.99786">
        <ele>323</ele>
        <time>2026-08-26T17:18:31+00:00</time>
      </trkpt>
      <trkpt lat="49.92194" lon="5.99827">
        <ele>323</ele>
        <time>2026-08-26T17:18:34+00:00</time>
      </trkpt>
      <trkpt lat="49.92172" lon="5.99879">
        <ele>324</ele>
        <time>2026-08-26T17:18:37+00:00</time>
      </trkpt>
      <trkpt lat="49.92162" lon="5.99915">
        <ele>325</ele>
        <time>2026-08-26T17:18:40+00:00</time>
      </trkpt>
      <trkpt lat="49.92154" lon="5.99951">
        <ele>330</ele>
        <time>2026-08-26T17:18:43+00:00</time>
      </trkpt>
      <trkpt lat="49.92145" lon="5.99996">
        <ele>331</ele>
        <time>2026-08-26T17:18:46+00:00</time>
      </trkpt>
      <trkpt lat="49.92141" lon="6.00001">
        <ele>330</ele>
        <time>2026-08-26T17:18:49+00:00</time>
      </trkpt>
      <trkpt lat="49.9214" lon="6.00001">
        <ele>330</ele>
        <time>2026-08-26T17:18:52+00:00</time>
      </trkpt>
      <trkpt lat="49.92141" lon="6.00001">
        <ele>330</ele>
        <time>2026-08-26T17:18:55+00:00</time>
      </trkpt>
      <trkpt lat="49.92145" lon="5.99996">
        <ele>331</ele>
        <time>2026-08-26T17:18:58+00:00</time>
      </trkpt>
      <trkpt lat="49.92123" lon="5.99977">
        <ele>340</ele>
        <time>2026-08-26T17:19:01+00:00</time>
      </trkpt>
      <trkpt lat="49.92117" lon="5.9996">
        <ele>347</ele>
        <time>2026-08-26T17:19:04+00:00</time>
      </trkpt>
      <trkpt lat="49.92106" lon="5.99959">
        <ele>345</ele>
        <time>2026-08-26T17:19:07+00:00</time>
      </trkpt>
      <trkpt lat="49.92103" lon="5.99952">
        <ele>351</ele>
        <time>2026-08-26T17:19:10+00:00</time>
      </trkpt>
      <trkpt lat="49.92111" lon="5.99949">
        <ele>350</ele>
        <time>2026-08-26T17:19:13+00:00</time>
      </trkpt>
      <trkpt lat="49.92112" lon="5.99945">
        <ele>350</ele>
        <time>2026-08-26T17:19:16+00:00</time>
      </trkpt>
      <trkpt lat="49.92111" lon="5.9994">
        <ele>350</ele>
        <time>2026-08-26T17:19:19+00:00</time>
      </trkpt>
      <trkpt lat="49.92102" lon="5.99924">
        <ele>356</ele>
        <time>2026-08-26T17:19:22+00:00</time>
      </trkpt>
      <trkpt lat="49.92087" lon="5.9992">
        <ele>363</ele>
        <time>2026-08-26T17:19:25+00:00</time>
      </trkpt>
      <trkpt lat="49.92084" lon="5.99911">
        <ele>365</ele>
        <time>2026-08-26T17:19:28+00:00</time>
      </trkpt>
      <trkpt lat="49.9208" lon="5.99906">
        <ele>369</ele>
        <time>2026-08-26T17:19:31+00:00</time>
      </trkpt>
      <trkpt lat="49.92079" lon="5.99897">
        <ele>372</ele>
        <time>2026-08-26T17:19:34+00:00</time>
      </trkpt>
      <trkpt lat="49.92071" lon="5.99884">
        <ele>374</ele>
        <time>2026-08-26T17:19:37+00:00</time>
      </trkpt>
      <trkpt lat="49.92064" lon="5.99856">
        <ele>379</ele>
        <time>2026-08-26T17:19:40+00:00</time>
      </trkpt>
      <trkpt lat="49.9205" lon="5.99832">
        <ele>381</ele>
        <time>2026-08-26T17:19:43+00:00</time>
      </trkpt>
      <trkpt lat="49.92011" lon="5.9981">
        <ele>393</ele>
        <time>2026-08-26T17:19:46+00:00</time>
      </trkpt>
      <trkpt lat="49.91987" lon="5.99799">
        <ele>396</ele>
        <time>2026-08-26T17:19:49+00:00</time>
      </trkpt>
      <trkpt lat="49.91954" lon="5.99783">
        <ele>397</ele>
        <time>2026-08-26T17:19:52+00:00</time>
      </trkpt>
      <trkpt lat="49.9193" lon="5.99769">
        <ele>400</ele>
        <time>2026-08-26T17:19:55+00:00</time>
      </trkpt>
      <trkpt lat="49.91893" lon="5.99747">
        <ele>402</ele>
        <time>2026-08-26T17:19:58+00:00</time>
      </trkpt>
      <trkpt lat="49.91885" lon="5.99746">
        <ele>404</ele>
        <time>2026-08-26T17:20:01+00:00</time>
      </trkpt>
      <trkpt lat="49.91865" lon="5.99736">
        <ele>404</ele>
        <time>2026-08-26T17:20:04+00:00</time>
      </trkpt>
      <trkpt lat="49.91839" lon="5.99724">
        <ele>404</ele>
        <time>2026-08-26T17:20:07+00:00</time>
      </trkpt>
      <trkpt lat="49.91817" lon="5.99719">
        <ele>401</ele>
        <time>2026-08-26T17:20:10+00:00</time>
      </trkpt>
      <trkpt lat="49.91792" lon="5.99713">
        <ele>397</ele>
        <time>2026-08-26T17:20:13+00:00</time>
      </trkpt>
      <trkpt lat="49.91783" lon="5.99708">
        <ele>397</ele>
        <time>2026-08-26T17:20:16+00:00</time>
      </trkpt>
      <trkpt lat="49.9178" lon="5.99699">
        <ele>400</ele>
        <time>2026-08-26T17:20:19+00:00</time>
      </trkpt>
      <trkpt lat="49.9177" lon="5.99698">
        <ele>399</ele>
        <time>2026-08-26T17:20:22+00:00</time>
      </trkpt>
      <trkpt lat="49.91762" lon="5.99692">
        <ele>396</ele>
        <time>2026-08-26T17:20:25+00:00</time>
      </trkpt>
      <trkpt lat="49.91761" lon="5.99692">
        <ele>396</ele>
        <time>2026-08-26T17:20:28+00:00</time>
      </trkpt>
      <trkpt lat="49.91757" lon="5.99686">
        <ele>396</ele>
        <time>2026-08-26T17:20:31+00:00</time>
      </trkpt>
      <trkpt lat="49.91761" lon="5.99667">
        <ele>402</ele>
        <time>2026-08-26T17:20:34+00:00</time>
      </trkpt>
      <trkpt lat="49.9176" lon="5.99649">
        <ele>404</ele>
        <time>2026-08-26T17:20:37+00:00</time>
      </trkpt>
      <trkpt lat="49.91756" lon="5.99625">
        <ele>407</ele>
        <time>2026-08-26T17:20:40+00:00</time>
      </trkpt>
      <trkpt lat="49.91752" lon="5.99601">
        <ele>410</ele>
        <time>2026-08-26T17:20:43+00:00</time>
      </trkpt>
      <trkpt lat="49.9175" lon="5.99536">
        <ele>413</ele>
        <time>2026-08-26T17:20:46+00:00</time>
      </trkpt>
      <trkpt lat="49.91752" lon="5.99523">
        <ele>416</ele>
        <time>2026-08-26T17:20:49+00:00</time>
      </trkpt>
      <trkpt lat="49.9176" lon="5.99506">
        <ele>422</ele>
        <time>2026-08-26T17:20:52+00:00</time>
      </trkpt>
      <trkpt lat="49.91765" lon="5.99491">
        <ele>426</ele>
        <time>2026-08-26T17:20:55+00:00</time>
      </trkpt>
      <trkpt lat="49.91772" lon="5.99457">
        <ele>425</ele>
        <time>2026-08-26T17:20:58+00:00</time>
      </trkpt>
      <trkpt lat="49.91756" lon="5.99456">
        <ele>431</ele>
        <time>2026-08-26T17:21:01+00:00</time>
      </trkpt>
      <trkpt lat="49.91747" lon="5.99453">
        <ele>428</ele>
        <time>2026-08-26T17:21:04+00:00</time>
      </trkpt>
      <trkpt lat="49.91732" lon="5.99439">
        <ele>428</ele>
        <time>2026-08-26T17:21:07+00:00</time>
      </trkpt>
      <trkpt lat="49.91718" lon="5.99422">
        <ele>425</ele>
        <time>2026-08-26T17:21:10+00:00</time>
      </trkpt>
      <trkpt lat="49.91707" lon="5.99405">
        <ele>427</ele>
        <time>2026-08-26T17:21:13+00:00</time>
      </trkpt>
      <trkpt lat="49.91694" lon="5.99375">
        <ele>424</ele>
        <time>2026-08-26T17:21:16+00:00</time>
      </trkpt>
      <trkpt lat="49.91691" lon="5.99368">
        <ele>424</ele>
        <time>2026-08-26T17:21:19+00:00</time>
      </trkpt>
      <trkpt lat="49.91687" lon="5.99355">
        <ele>420</ele>
        <time>2026-08-26T17:21:22+00:00</time>
      </trkpt>
      <trkpt lat="49.91683" lon="5.9933">
        <ele>420</ele>
        <time>2026-08-26T17:21:25+00:00</time>
      </trkpt>
      <trkpt lat="49.91679" lon="5.99302">
        <ele>413</ele>
        <time>2026-08-26T17:21:28+00:00</time>
      </trkpt>
      <trkpt lat="49.91677" lon="5.99265">
        <ele>412</ele>
        <time>2026-08-26T17:21:31+00:00</time>
      </trkpt>
      <trkpt lat="49.91674" lon="5.9922">
        <ele>410</ele>
        <time>2026-08-26T17:21:34+00:00</time>
      </trkpt>
      <trkpt lat="49.9167" lon="5.9921">
        <ele>406</ele>
        <time>2026-08-26T17:21:37+00:00</time>
      </trkpt>
      <trkpt lat="49.91649" lon="5.99177">
        <ele>399</ele>
        <time>2026-08-26T17:21:40+00:00</time>
      </trkpt>
      <trkpt lat="49.91636" lon="5.99144">
        <ele>399</ele>
        <time>2026-08-26T17:21:43+00:00</time>
      </trkpt>
      <trkpt lat="49.9162" lon="5.99101">
        <ele>394</ele>
        <time>2026-08-26T17:21:46+00:00</time>
      </trkpt>
      <trkpt lat="49.91613" lon="5.99075">
        <ele>389</ele>
        <time>2026-08-26T17:21:49+00:00</time>
      </trkpt>
      <trkpt lat="49.9161" lon="5.99057">
        <ele>390</ele>
        <time>2026-08-26T17:21:52+00:00</time>
      </trkpt>
      <trkpt lat="49.91604" lon="5.9904">
        <ele>385</ele>
        <time>2026-08-26T17:21:55+00:00</time>
      </trkpt>
      <trkpt lat="49.91597" lon="5.99032">
        <ele>380</ele>
        <time>2026-08-26T17:21:58+00:00</time>
      </trkpt>
      <trkpt lat="49.91594" lon="5.99024">
        <ele>380</ele>
        <time>2026-08-26T17:22:01+00:00</time>
      </trkpt>
      <trkpt lat="49.91594" lon="5.99014">
        <ele>380</ele>
        <time>2026-08-26T17:22:04+00:00</time>
      </trkpt>
      <trkpt lat="49.91578" lon="5.98956">
        <ele>374</ele>
        <time>2026-08-26T17:22:07+00:00</time>
      </trkpt>
      <trkpt lat="49.91575" lon="5.98939">
        <ele>370</ele>
        <time>2026-08-26T17:22:10+00:00</time>
      </trkpt>
      <trkpt lat="49.91562" lon="5.98896">
        <ele>369</ele>
        <time>2026-08-26T17:22:13+00:00</time>
      </trkpt>
      <trkpt lat="49.91554" lon="5.98853">
        <ele>367</ele>
        <time>2026-08-26T17:22:16+00:00</time>
      </trkpt>
      <trkpt lat="49.91546" lon="5.98809">
        <ele>366</ele>
        <time>2026-08-26T17:22:19+00:00</time>
      </trkpt>
      <trkpt lat="49.91538" lon="5.98765">
        <ele>365</ele>
        <time>2026-08-26T17:22:22+00:00</time>
      </trkpt>
      <trkpt lat="49.91536" lon="5.98742">
        <ele>366</ele>
        <time>2026-08-26T17:22:25+00:00</time>
      </trkpt>
      <trkpt lat="49.91537" lon="5.9873">
        <ele>365</ele>
        <time>2026-08-26T17:22:28+00:00</time>
      </trkpt>
      <trkpt lat="49.91541" lon="5.98721">
        <ele>365</ele>
        <time>2026-08-26T17:22:31+00:00</time>
      </trkpt>
      <trkpt lat="49.91552" lon="5.98707">
        <ele>361</ele>
        <time>2026-08-26T17:22:34+00:00</time>
      </trkpt>
      <trkpt lat="49.91566" lon="5.98683">
        <ele>361</ele>
        <time>2026-08-26T17:22:37+00:00</time>
      </trkpt>
      <trkpt lat="49.91578" lon="5.98654">
        <ele>363</ele>
        <time>2026-08-26T17:22:40+00:00</time>
      </trkpt>
      <trkpt lat="49.91585" lon="5.98633">
        <ele>369</ele>
        <time>2026-08-26T17:22:43+00:00</time>
      </trkpt>
      <trkpt lat="49.9159" lon="5.98607">
        <ele>366</ele>
        <time>2026-08-26T17:22:46+00:00</time>
      </trkpt>
      <trkpt lat="49.9159" lon="5.98597">
        <ele>373</ele>
        <time>2026-08-26T17:22:49+00:00</time>
      </trkpt>
      <trkpt lat="49.91587" lon="5.98592">
        <ele>373</ele>
        <time>2026-08-26T17:22:52+00:00</time>
      </trkpt>
      <trkpt lat="49.91582" lon="5.9859">
        <ele>373</ele>
        <time>2026-08-26T17:22:55+00:00</time>
      </trkpt>
      <trkpt lat="49.91558" lon="5.98591">
        <ele>369</ele>
        <time>2026-08-26T17:22:58+00:00</time>
      </trkpt>
      <trkpt lat="49.91548" lon="5.98588">
        <ele>372</ele>
        <time>2026-08-26T17:23:01+00:00</time>
      </trkpt>
      <trkpt lat="49.91524" lon="5.98577">
        <ele>377</ele>
        <time>2026-08-26T17:23:04+00:00</time>
      </trkpt>
      <trkpt lat="49.91504" lon="5.98564">
        <ele>376</ele>
        <time>2026-08-26T17:23:07+00:00</time>
      </trkpt>
      <trkpt lat="49.91488" lon="5.98558">
        <ele>376</ele>
        <time>2026-08-26T17:23:10+00:00</time>
      </trkpt>
      <trkpt lat="49.91485" lon="5.98553">
        <ele>376</ele>
        <time>2026-08-26T17:23:13+00:00</time>
      </trkpt>
      <trkpt lat="49.91483" lon="5.9855">
        <ele>376</ele>
        <time>2026-08-26T17:23:16+00:00</time>
      </trkpt>
      <trkpt lat="49.91469" lon="5.98505">
        <ele>382</ele>
        <time>2026-08-26T17:23:19+00:00</time>
      </trkpt>
      <trkpt lat="49.91461" lon="5.98484">
        <ele>390</ele>
        <time>2026-08-26T17:23:22+00:00</time>
      </trkpt>
      <trkpt lat="49.91449" lon="5.98461">
        <ele>385</ele>
        <time>2026-08-26T17:23:25+00:00</time>
      </trkpt>
      <trkpt lat="49.91432" lon="5.98428">
        <ele>390</ele>
        <time>2026-08-26T17:23:28+00:00</time>
      </trkpt>
      <trkpt lat="49.9142" lon="5.98398">
        <ele>390</ele>
        <time>2026-08-26T17:23:31+00:00</time>
      </trkpt>
      <trkpt lat="49.91408" lon="5.98365">
        <ele>390</ele>
        <time>2026-08-26T17:23:34+00:00</time>
      </trkpt>
      <trkpt lat="49.91394" lon="5.98335">
        <ele>395</ele>
        <time>2026-08-26T17:23:37+00:00</time>
      </trkpt>
      <trkpt lat="49.9138" lon="5.98307">
        <ele>389</ele>
        <time>2026-08-26T17:23:40+00:00</time>
      </trkpt>
      <trkpt lat="49.91365" lon="5.98276">
        <ele>388</ele>
        <time>2026-08-26T17:23:43+00:00</time>
      </trkpt>
      <trkpt lat="49.91365" lon="5.9827">
        <ele>384</ele>
        <time>2026-08-26T17:23:46+00:00</time>
      </trkpt>
      <trkpt lat="49.91364" lon="5.98262">
        <ele>384</ele>
        <time>2026-08-26T17:23:49+00:00</time>
      </trkpt>
      <trkpt lat="49.91355" lon="5.98236">
        <ele>388</ele>
        <time>2026-08-26T17:23:52+00:00</time>
      </trkpt>
      <trkpt lat="49.91344" lon="5.98207">
        <ele>394</ele>
        <time>2026-08-26T17:23:55+00:00</time>
      </trkpt>
      <trkpt lat="49.91332" lon="5.98159">
        <ele>394</ele>
        <time>2026-08-26T17:23:58+00:00</time>
      </trkpt>
      <trkpt lat="49.91311" lon="5.98144">
        <ele>392</ele>
        <time>2026-08-26T17:24:01+00:00</time>
      </trkpt>
      <trkpt lat="49.91296" lon="5.98117">
        <ele>393</ele>
        <time>2026-08-26T17:24:04+00:00</time>
      </trkpt>
      <trkpt lat="49.91286" lon="5.98083">
        <ele>395</ele>
        <time>2026-08-26T17:24:07+00:00</time>
      </trkpt>
      <trkpt lat="49.91282" lon="5.98043">
        <ele>402</ele>
        <time>2026-08-26T17:24:10+00:00</time>
      </trkpt>
      <trkpt lat="49.91282" lon="5.98026">
        <ele>404</ele>
        <time>2026-08-26T17:24:13+00:00</time>
      </trkpt>
      <trkpt lat="49.91285" lon="5.9801">
        <ele>402</ele>
        <time>2026-08-26T17:24:16+00:00</time>
      </trkpt>
      <trkpt lat="49.91288" lon="5.98007">
        <ele>404</ele>
        <time>2026-08-26T17:24:19+00:00</time>
      </trkpt>
      <trkpt lat="49.91294" lon="5.9798">
        <ele>400</ele>
        <time>2026-08-26T17:24:22+00:00</time>
      </trkpt>
      <trkpt lat="49.91307" lon="5.97952">
        <ele>398</ele>
        <time>2026-08-26T17:24:25+00:00</time>
      </trkpt>
      <trkpt lat="49.9132" lon="5.97924">
        <ele>402</ele>
        <time>2026-08-26T17:24:28+00:00</time>
      </trkpt>
      <trkpt lat="49.91332" lon="5.97905">
        <ele>405</ele>
        <time>2026-08-26T17:24:31+00:00</time>
      </trkpt>
      <trkpt lat="49.91339" lon="5.97887">
        <ele>406</ele>
        <time>2026-08-26T17:24:34+00:00</time>
      </trkpt>
      <trkpt lat="49.91347" lon="5.97864">
        <ele>408</ele>
        <time>2026-08-26T17:24:37+00:00</time>
      </trkpt>
      <trkpt lat="49.91349" lon="5.97851">
        <ele>404</ele>
        <time>2026-08-26T17:24:40+00:00</time>
      </trkpt>
      <trkpt lat="49.91349" lon="5.97835">
        <ele>405</ele>
        <time>2026-08-26T17:24:43+00:00</time>
      </trkpt>
      <trkpt lat="49.91347" lon="5.97824">
        <ele>403</ele>
        <time>2026-08-26T17:24:46+00:00</time>
      </trkpt>
      <trkpt lat="49.91345" lon="5.97818">
        <ele>399</ele>
        <time>2026-08-26T17:24:49+00:00</time>
      </trkpt>
      <trkpt lat="49.9135" lon="5.97816">
        <ele>405</ele>
        <time>2026-08-26T17:24:52+00:00</time>
      </trkpt>
      <trkpt lat="49.91355" lon="5.97807">
        <ele>403</ele>
        <time>2026-08-26T17:24:55+00:00</time>
      </trkpt>
      <trkpt lat="49.91356" lon="5.97801">
        <ele>403</ele>
        <time>2026-08-26T17:24:58+00:00</time>
      </trkpt>
      <trkpt lat="49.9136" lon="5.97794">
        <ele>406</ele>
        <time>2026-08-26T17:25:01+00:00</time>
      </trkpt>
      <trkpt lat="49.91364" lon="5.97781">
        <ele>403</ele>
        <time>2026-08-26T17:25:04+00:00</time>
      </trkpt>
      <trkpt lat="49.91363" lon="5.97758">
        <ele>399</ele>
        <time>2026-08-26T17:25:07+00:00</time>
      </trkpt>
      <trkpt lat="49.9136" lon="5.97739">
        <ele>403</ele>
        <time>2026-08-26T17:25:10+00:00</time>
      </trkpt>
      <trkpt lat="49.91353" lon="5.97741">
        <ele>396</ele>
        <time>2026-08-26T17:25:13+00:00</time>
      </trkpt>
      <trkpt lat="49.9135" lon="5.97733">
        <ele>395</ele>
        <time>2026-08-26T17:25:16+00:00</time>
      </trkpt>
      <trkpt lat="49.91357" lon="5.97715">
        <ele>395</ele>
        <time>2026-08-26T17:25:19+00:00</time>
      </trkpt>
      <trkpt lat="49.91354" lon="5.97714">
        <ele>395</ele>
        <time>2026-08-26T17:25:22+00:00</time>
      </trkpt>
      <trkpt lat="49.91344" lon="5.97718">
        <ele>389</ele>
        <time>2026-08-26T17:25:25+00:00</time>
      </trkpt>
      <trkpt lat="49.91354" lon="5.97697">
        <ele>395</ele>
        <time>2026-08-26T17:25:28+00:00</time>
      </trkpt>
      <trkpt lat="49.9136" lon="5.9769">
        <ele>397</ele>
        <time>2026-08-26T17:25:31+00:00</time>
      </trkpt>
      <trkpt lat="49.91369" lon="5.97688">
        <ele>396</ele>
        <time>2026-08-26T17:25:34+00:00</time>
      </trkpt>
      <trkpt lat="49.9137" lon="5.97683">
        <ele>395</ele>
        <time>2026-08-26T17:25:37+00:00</time>
      </trkpt>
      <trkpt lat="49.91357" lon="5.97669">
        <ele>395</ele>
        <time>2026-08-26T17:25:40+00:00</time>
      </trkpt>
      <trkpt lat="49.91342" lon="5.97665">
        <ele>394</ele>
        <time>2026-08-26T17:25:43+00:00</time>
      </trkpt>
      <trkpt lat="49.913" lon="5.97662">
        <ele>384</ele>
        <time>2026-08-26T17:25:46+00:00</time>
      </trkpt>
      <trkpt lat="49.91295" lon="5.97662">
        <ele>379</ele>
        <time>2026-08-26T17:25:49+00:00</time>
      </trkpt>
      <trkpt lat="49.91285" lon="5.9764">
        <ele>378</ele>
        <time>2026-08-26T17:25:52+00:00</time>
      </trkpt>
      <trkpt lat="49.91272" lon="5.97588">
        <ele>377</ele>
        <time>2026-08-26T17:25:55+00:00</time>
      </trkpt>
      <trkpt lat="49.91251" lon="5.97537">
        <ele>376</ele>
        <time>2026-08-26T17:25:58+00:00</time>
      </trkpt>
      <trkpt lat="49.9124" lon="5.97503">
        <ele>375</ele>
        <time>2026-08-26T17:26:01+00:00</time>
      </trkpt>
      <trkpt lat="49.91227" lon="5.9746">
        <ele>375</ele>
        <time>2026-08-26T17:26:04+00:00</time>
      </trkpt>
      <trkpt lat="49.91222" lon="5.97452">
        <ele>379</ele>
        <time>2026-08-26T17:26:07+00:00</time>
      </trkpt>
      <trkpt lat="49.91207" lon="5.97447">
        <ele>368</ele>
        <time>2026-08-26T17:26:10+00:00</time>
      </trkpt>
      <trkpt lat="49.9119" lon="5.97422">
        <ele>368</ele>
        <time>2026-08-26T17:26:13+00:00</time>
      </trkpt>
      <trkpt lat="49.9117" lon="5.97392">
        <ele>366</ele>
        <time>2026-08-26T17:26:16+00:00</time>
      </trkpt>
      <trkpt lat="49.91152" lon="5.97371">
        <ele>361</ele>
        <time>2026-08-26T17:26:19+00:00</time>
      </trkpt>
      <trkpt lat="49.91132" lon="5.97347">
        <ele>360</ele>
        <time>2026-08-26T17:26:22+00:00</time>
      </trkpt>
      <trkpt lat="49.9112" lon="5.97339">
        <ele>359</ele>
        <time>2026-08-26T17:26:25+00:00</time>
      </trkpt>
      <trkpt lat="49.91114" lon="5.97338">
        <ele>356</ele>
        <time>2026-08-26T17:26:28+00:00</time>
      </trkpt>
      <trkpt lat="49.91097" lon="5.97307">
        <ele>354</ele>
        <time>2026-08-26T17:26:31+00:00</time>
      </trkpt>
      <trkpt lat="49.91085" lon="5.97277">
        <ele>352</ele>
        <time>2026-08-26T17:26:34+00:00</time>
      </trkpt>
      <trkpt lat="49.91071" lon="5.97243">
        <ele>351</ele>
        <time>2026-08-26T17:26:37+00:00</time>
      </trkpt>
      <trkpt lat="49.91057" lon="5.97211">
        <ele>345</ele>
        <time>2026-08-26T17:26:40+00:00</time>
      </trkpt>
      <trkpt lat="49.91038" lon="5.97169">
        <ele>345</ele>
        <time>2026-08-26T17:26:43+00:00</time>
      </trkpt>
      <trkpt lat="49.91022" lon="5.97123">
        <ele>344</ele>
        <time>2026-08-26T17:26:46+00:00</time>
      </trkpt>
      <trkpt lat="49.91" lon="5.9708">
        <ele>344</ele>
        <time>2026-08-26T17:26:49+00:00</time>
      </trkpt>
      <trkpt lat="49.90985" lon="5.97046">
        <ele>345</ele>
        <time>2026-08-26T17:26:52+00:00</time>
      </trkpt>
      <trkpt lat="49.90982" lon="5.97032">
        <ele>345</ele>
        <time>2026-08-26T17:26:55+00:00</time>
      </trkpt>
      <trkpt lat="49.90983" lon="5.97016">
        <ele>345</ele>
        <time>2026-08-26T17:26:58+00:00</time>
      </trkpt>
      <trkpt lat="49.90986" lon="5.96986">
        <ele>344</ele>
        <time>2026-08-26T17:27:01+00:00</time>
      </trkpt>
      <trkpt lat="49.90988" lon="5.96976">
        <ele>343</ele>
        <time>2026-08-26T17:27:04+00:00</time>
      </trkpt>
      <trkpt lat="49.90993" lon="5.96944">
        <ele>344</ele>
        <time>2026-08-26T17:27:07+00:00</time>
      </trkpt>
      <trkpt lat="49.90999" lon="5.96903">
        <ele>333</ele>
        <time>2026-08-26T17:27:10+00:00</time>
      </trkpt>
      <trkpt lat="49.91013" lon="5.96858">
        <ele>333</ele>
        <time>2026-08-26T17:27:13+00:00</time>
      </trkpt>
      <trkpt lat="49.91026" lon="5.96825">
        <ele>334</ele>
        <time>2026-08-26T17:27:16+00:00</time>
      </trkpt>
      <trkpt lat="49.91042" lon="5.96796">
        <ele>346</ele>
        <time>2026-08-26T17:27:19+00:00</time>
      </trkpt>
      <trkpt lat="49.91062" lon="5.96746">
        <ele>346</ele>
        <time>2026-08-26T17:27:22+00:00</time>
      </trkpt>
      <trkpt lat="49.91072" lon="5.96731">
        <ele>346</ele>
        <time>2026-08-26T17:27:25+00:00</time>
      </trkpt>
      <trkpt lat="49.91097" lon="5.9671">
        <ele>341</ele>
        <time>2026-08-26T17:27:28+00:00</time>
      </trkpt>
      <trkpt lat="49.91115" lon="5.96697">
        <ele>341</ele>
        <time>2026-08-26T17:27:31+00:00</time>
      </trkpt>
      <trkpt lat="49.91131" lon="5.96691">
        <ele>343</ele>
        <time>2026-08-26T17:27:34+00:00</time>
      </trkpt>
      <trkpt lat="49.9115" lon="5.96687">
        <ele>341</ele>
        <time>2026-08-26T17:27:37+00:00</time>
      </trkpt>
      <trkpt lat="49.91177" lon="5.96681">
        <ele>343</ele>
        <time>2026-08-26T17:27:40+00:00</time>
      </trkpt>
      <trkpt lat="49.912" lon="5.96674">
        <ele>345</ele>
        <time>2026-08-26T17:27:43+00:00</time>
      </trkpt>
      <trkpt lat="49.91226" lon="5.96666">
        <ele>345</ele>
        <time>2026-08-26T17:27:46+00:00</time>
      </trkpt>
      <trkpt lat="49.91258" lon="5.9665">
        <ele>343</ele>
        <time>2026-08-26T17:27:49+00:00</time>
      </trkpt>
      <trkpt lat="49.91273" lon="5.96647">
        <ele>343</ele>
        <time>2026-08-26T17:27:52+00:00</time>
      </trkpt>
      <trkpt lat="49.91278" lon="5.96642">
        <ele>343</ele>
        <time>2026-08-26T17:27:55+00:00</time>
      </trkpt>
      <trkpt lat="49.91279" lon="5.96638">
        <ele>343</ele>
        <time>2026-08-26T17:27:58+00:00</time>
      </trkpt>
      <trkpt lat="49.91277" lon="5.96633">
        <ele>343</ele>
        <time>2026-08-26T17:28:01+00:00</time>
      </trkpt>
      <trkpt lat="49.9127" lon="5.96627">
        <ele>345</ele>
        <time>2026-08-26T17:28:04+00:00</time>
      </trkpt>
      <trkpt lat="49.91248" lon="5.96619">
        <ele>347</ele>
        <time>2026-08-26T17:28:07+00:00</time>
      </trkpt>
      <trkpt lat="49.91225" lon="5.96615">
        <ele>347</ele>
        <time>2026-08-26T17:28:10+00:00</time>
      </trkpt>
      <trkpt lat="49.912" lon="5.9661">
        <ele>348</ele>
        <time>2026-08-26T17:28:13+00:00</time>
      </trkpt>
      <trkpt lat="49.91168" lon="5.96609">
        <ele>348</ele>
        <time>2026-08-26T17:28:16+00:00</time>
      </trkpt>
      <trkpt lat="49.91135" lon="5.96608">
        <ele>348</ele>
        <time>2026-08-26T17:28:19+00:00</time>
      </trkpt>
      <trkpt lat="49.91073" lon="5.96606">
        <ele>351</ele>
        <time>2026-08-26T17:28:22+00:00</time>
      </trkpt>
      <trkpt lat="49.91038" lon="5.96615">
        <ele>352</ele>
        <time>2026-08-26T17:28:25+00:00</time>
      </trkpt>
      <trkpt lat="49.9102" lon="5.96623">
        <ele>353</ele>
        <time>2026-08-26T17:28:28+00:00</time>
      </trkpt>
      <trkpt lat="49.90985" lon="5.96647">
        <ele>355</ele>
        <time>2026-08-26T17:28:31+00:00</time>
      </trkpt>
      <trkpt lat="49.90967" lon="5.96667">
        <ele>357</ele>
        <time>2026-08-26T17:28:34+00:00</time>
      </trkpt>
      <trkpt lat="49.90949" lon="5.96687">
        <ele>357</ele>
        <time>2026-08-26T17:28:37+00:00</time>
      </trkpt>
      <trkpt lat="49.90931" lon="5.96713">
        <ele>348</ele>
        <time>2026-08-26T17:28:40+00:00</time>
      </trkpt>
      <trkpt lat="49.90907" lon="5.96748">
        <ele>347</ele>
        <time>2026-08-26T17:28:43+00:00</time>
      </trkpt>
      <trkpt lat="49.90901" lon="5.96751">
        <ele>330</ele>
        <time>2026-08-26T17:28:46+00:00</time>
      </trkpt>
      <trkpt lat="49.90896" lon="5.96748">
        <ele>333</ele>
        <time>2026-08-26T17:28:49+00:00</time>
      </trkpt>
      <trkpt lat="49.90892" lon="5.96742">
        <ele>333</ele>
        <time>2026-08-26T17:28:52+00:00</time>
      </trkpt>
      <trkpt lat="49.90885" lon="5.96718">
        <ele>346</ele>
        <time>2026-08-26T17:28:55+00:00</time>
      </trkpt>
      <trkpt lat="49.90875" lon="5.96688">
        <ele>344</ele>
        <time>2026-08-26T17:28:58+00:00</time>
      </trkpt>
      <trkpt lat="49.90866" lon="5.9665">
        <ele>337</ele>
        <time>2026-08-26T17:29:01+00:00</time>
      </trkpt>
      <trkpt lat="49.90862" lon="5.96633">
        <ele>334</ele>
        <time>2026-08-26T17:29:04+00:00</time>
      </trkpt>
      <trkpt lat="49.90866" lon="5.96632">
        <ele>334</ele>
        <time>2026-08-26T17:29:07+00:00</time>
      </trkpt>
      <trkpt lat="49.9087" lon="5.96626">
        <ele>337</ele>
        <time>2026-08-26T17:29:10+00:00</time>
      </trkpt>
      <trkpt lat="49.90871" lon="5.96618">
        <ele>338</ele>
        <time>2026-08-26T17:29:13+00:00</time>
      </trkpt>
      <trkpt lat="49.90859" lon="5.96579">
        <ele>337</ele>
        <time>2026-08-26T17:29:16+00:00</time>
      </trkpt>
      <trkpt lat="49.90856" lon="5.96558">
        <ele>337</ele>
        <time>2026-08-26T17:29:19+00:00</time>
      </trkpt>
      <trkpt lat="49.90855" lon="5.9654">
        <ele>337</ele>
        <time>2026-08-26T17:29:22+00:00</time>
      </trkpt>
      <trkpt lat="49.90851" lon="5.9652">
        <ele>338</ele>
        <time>2026-08-26T17:29:25+00:00</time>
      </trkpt>
      <trkpt lat="49.90848" lon="5.96491">
        <ele>338</ele>
        <time>2026-08-26T17:29:28+00:00</time>
      </trkpt>
      <trkpt lat="49.90843" lon="5.96454">
        <ele>331</ele>
        <time>2026-08-26T17:29:31+00:00</time>
      </trkpt>
      <trkpt lat="49.9083" lon="5.96415">
        <ele>329</ele>
        <time>2026-08-26T17:29:34+00:00</time>
      </trkpt>
      <trkpt lat="49.90826" lon="5.96379">
        <ele>329</ele>
        <time>2026-08-26T17:29:37+00:00</time>
      </trkpt>
      <trkpt lat="49.90822" lon="5.96336">
        <ele>329</ele>
        <time>2026-08-26T17:29:40+00:00</time>
      </trkpt>
      <trkpt lat="49.90828" lon="5.96308">
        <ele>334</ele>
        <time>2026-08-26T17:29:43+00:00</time>
      </trkpt>
      <trkpt lat="49.90827" lon="5.96286">
        <ele>327</ele>
        <time>2026-08-26T17:29:46+00:00</time>
      </trkpt>
      <trkpt lat="49.9083" lon="5.96261">
        <ele>339</ele>
        <time>2026-08-26T17:29:49+00:00</time>
      </trkpt>
      <trkpt lat="49.90834" lon="5.96233">
        <ele>340</ele>
        <time>2026-08-26T17:29:52+00:00</time>
      </trkpt>
      <trkpt lat="49.90835" lon="5.96217">
        <ele>344</ele>
        <time>2026-08-26T17:29:55+00:00</time>
      </trkpt>
      <trkpt lat="49.90836" lon="5.96191">
        <ele>348</ele>
        <time>2026-08-26T17:29:58+00:00</time>
      </trkpt>
      <trkpt lat="49.90838" lon="5.96163">
        <ele>351</ele>
        <time>2026-08-26T17:30:01+00:00</time>
      </trkpt>
      <trkpt lat="49.9084" lon="5.96098">
        <ele>362</ele>
        <time>2026-08-26T17:30:04+00:00</time>
      </trkpt>
      <trkpt lat="49.90837" lon="5.96074">
        <ele>361</ele>
        <time>2026-08-26T17:30:07+00:00</time>
      </trkpt>
      <trkpt lat="49.90839" lon="5.96052">
        <ele>365</ele>
        <time>2026-08-26T17:30:10+00:00</time>
      </trkpt>
      <trkpt lat="49.90841" lon="5.96031">
        <ele>369</ele>
        <time>2026-08-26T17:30:13+00:00</time>
      </trkpt>
      <trkpt lat="49.90848" lon="5.95992">
        <ele>375</ele>
        <time>2026-08-26T17:30:16+00:00</time>
      </trkpt>
      <trkpt lat="49.90849" lon="5.95973">
        <ele>376</ele>
        <time>2026-08-26T17:30:19+00:00</time>
      </trkpt>
      <trkpt lat="49.90843" lon="5.95939">
        <ele>375</ele>
        <time>2026-08-26T17:30:22+00:00</time>
      </trkpt>
      <trkpt lat="49.90846" lon="5.95919">
        <ele>376</ele>
        <time>2026-08-26T17:30:25+00:00</time>
      </trkpt>
      <trkpt lat="49.90851" lon="5.95905">
        <ele>378</ele>
        <time>2026-08-26T17:30:28+00:00</time>
      </trkpt>
      <trkpt lat="49.90853" lon="5.95892">
        <ele>374</ele>
        <time>2026-08-26T17:30:31+00:00</time>
      </trkpt>
      <trkpt lat="49.90852" lon="5.9588">
        <ele>378</ele>
        <time>2026-08-26T17:30:34+00:00</time>
      </trkpt>
      <trkpt lat="49.90851" lon="5.9586">
        <ele>379</ele>
        <time>2026-08-26T17:30:37+00:00</time>
      </trkpt>
      <trkpt lat="49.90852" lon="5.95838">
        <ele>384</ele>
        <time>2026-08-26T17:30:40+00:00</time>
      </trkpt>
      <trkpt lat="49.90857" lon="5.95819">
        <ele>381</ele>
        <time>2026-08-26T17:30:43+00:00</time>
      </trkpt>
      <trkpt lat="49.9087" lon="5.95794">
        <ele>381</ele>
        <time>2026-08-26T17:30:46+00:00</time>
      </trkpt>
      <trkpt lat="49.9088" lon="5.95769">
        <ele>382</ele>
        <time>2026-08-26T17:30:49+00:00</time>
      </trkpt>
      <trkpt lat="49.90893" lon="5.95756">
        <ele>388</ele>
        <time>2026-08-26T17:30:52+00:00</time>
      </trkpt>
      <trkpt lat="49.90901" lon="5.95744">
        <ele>390</ele>
        <time>2026-08-26T17:30:55+00:00</time>
      </trkpt>
      <trkpt lat="49.90903" lon="5.95736">
        <ele>389</ele>
        <time>2026-08-26T17:30:58+00:00</time>
      </trkpt>
      <trkpt lat="49.90903" lon="5.95729">
        <ele>390</ele>
        <time>2026-08-26T17:31:01+00:00</time>
      </trkpt>
      <trkpt lat="49.909" lon="5.95724">
        <ele>390</ele>
        <time>2026-08-26T17:31:04+00:00</time>
      </trkpt>
      <trkpt lat="49.90894" lon="5.9572">
        <ele>390</ele>
        <time>2026-08-26T17:31:07+00:00</time>
      </trkpt>
      <trkpt lat="49.90875" lon="5.95717">
        <ele>390</ele>
        <time>2026-08-26T17:31:10+00:00</time>
      </trkpt>
      <trkpt lat="49.9085" lon="5.9572">
        <ele>385</ele>
        <time>2026-08-26T17:31:13+00:00</time>
      </trkpt>
      <trkpt lat="49.90815" lon="5.95725">
        <ele>373</ele>
        <time>2026-08-26T17:31:16+00:00</time>
      </trkpt>
      <trkpt lat="49.90813" lon="5.95725">
        <ele>373</ele>
        <time>2026-08-26T17:31:19+00:00</time>
      </trkpt>
      <trkpt lat="49.90807" lon="5.95721">
        <ele>367</ele>
        <time>2026-08-26T17:31:22+00:00</time>
      </trkpt>
      <trkpt lat="49.90789" lon="5.95685">
        <ele>369</ele>
        <time>2026-08-26T17:31:25+00:00</time>
      </trkpt>
      <trkpt lat="49.90775" lon="5.95654">
        <ele>365</ele>
        <time>2026-08-26T17:31:28+00:00</time>
      </trkpt>
      <trkpt lat="49.90758" lon="5.95614">
        <ele>362</ele>
        <time>2026-08-26T17:31:31+00:00</time>
      </trkpt>
      <trkpt lat="49.90748" lon="5.9558">
        <ele>362</ele>
        <time>2026-08-26T17:31:34+00:00</time>
      </trkpt>
      <trkpt lat="49.90745" lon="5.9556">
        <ele>362</ele>
        <time>2026-08-26T17:31:37+00:00</time>
      </trkpt>
      <trkpt lat="49.90745" lon="5.95549">
        <ele>362</ele>
        <time>2026-08-26T17:31:40+00:00</time>
      </trkpt>
      <trkpt lat="49.90753" lon="5.95547">
        <ele>365</ele>
        <time>2026-08-26T17:31:43+00:00</time>
      </trkpt>
      <trkpt lat="49.90772" lon="5.95548">
        <ele>370</ele>
        <time>2026-08-26T17:31:46+00:00</time>
      </trkpt>
      <trkpt lat="49.90791" lon="5.95542">
        <ele>370</ele>
        <time>2026-08-26T17:31:49+00:00</time>
      </trkpt>
      <trkpt lat="49.90815" lon="5.95526">
        <ele>370</ele>
        <time>2026-08-26T17:31:52+00:00</time>
      </trkpt>
      <trkpt lat="49.90853" lon="5.95502">
        <ele>372</ele>
        <time>2026-08-26T17:31:55+00:00</time>
      </trkpt>
      <trkpt lat="49.90862" lon="5.95497">
        <ele>372</ele>
        <time>2026-08-26T17:31:58+00:00</time>
      </trkpt>
      <trkpt lat="49.90869" lon="5.9549">
        <ele>372</ele>
        <time>2026-08-26T17:32:01+00:00</time>
      </trkpt>
      <trkpt lat="49.90884" lon="5.95459">
        <ele>367</ele>
        <time>2026-08-26T17:32:04+00:00</time>
      </trkpt>
      <trkpt lat="49.90906" lon="5.95416">
        <ele>367</ele>
        <time>2026-08-26T17:32:07+00:00</time>
      </trkpt>
      <trkpt lat="49.90918" lon="5.95383">
        <ele>366</ele>
        <time>2026-08-26T17:32:10+00:00</time>
      </trkpt>
      <trkpt lat="49.90934" lon="5.95342">
        <ele>366</ele>
        <time>2026-08-26T17:32:13+00:00</time>
      </trkpt>
      <trkpt lat="49.90958" lon="5.95288">
        <ele>364</ele>
        <time>2026-08-26T17:32:16+00:00</time>
      </trkpt>
      <trkpt lat="49.90985" lon="5.95245">
        <ele>365</ele>
        <time>2026-08-26T17:32:19+00:00</time>
      </trkpt>
      <trkpt lat="49.91009" lon="5.95218">
        <ele>366</ele>
        <time>2026-08-26T17:32:22+00:00</time>
      </trkpt>
      <trkpt lat="49.91029" lon="5.95201">
        <ele>366</ele>
        <time>2026-08-26T17:32:25+00:00</time>
      </trkpt>
      <trkpt lat="49.91068" lon="5.95182">
        <ele>367</ele>
        <time>2026-08-26T17:32:28+00:00</time>
      </trkpt>
      <trkpt lat="49.91097" lon="5.95172">
        <ele>367</ele>
        <time>2026-08-26T17:32:31+00:00</time>
      </trkpt>
      <trkpt lat="49.91122" lon="5.95168">
        <ele>367</ele>
        <time>2026-08-26T17:32:34+00:00</time>
      </trkpt>
      <trkpt lat="49.91154" lon="5.95164">
        <ele>368</ele>
        <time>2026-08-26T17:32:37+00:00</time>
      </trkpt>
      <trkpt lat="49.91168" lon="5.95165">
        <ele>367</ele>
        <time>2026-08-26T17:32:40+00:00</time>
      </trkpt>
      <trkpt lat="49.91183" lon="5.95173">
        <ele>371</ele>
        <time>2026-08-26T17:32:43+00:00</time>
      </trkpt>
      <trkpt lat="49.912" lon="5.95181">
        <ele>374</ele>
        <time>2026-08-26T17:32:46+00:00</time>
      </trkpt>
      <trkpt lat="49.91213" lon="5.95193">
        <ele>374</ele>
        <time>2026-08-26T17:32:49+00:00</time>
      </trkpt>
      <trkpt lat="49.91224" lon="5.95198">
        <ele>374</ele>
        <time>2026-08-26T17:32:52+00:00</time>
      </trkpt>
      <trkpt lat="49.9123" lon="5.95196">
        <ele>374</ele>
        <time>2026-08-26T17:32:55+00:00</time>
      </trkpt>
      <trkpt lat="49.91234" lon="5.95192">
        <ele>374</ele>
        <time>2026-08-26T17:32:58+00:00</time>
      </trkpt>
      <trkpt lat="49.91238" lon="5.95183">
        <ele>372</ele>
        <time>2026-08-26T17:33:01+00:00</time>
      </trkpt>
      <trkpt lat="49.9125" lon="5.95137">
        <ele>367</ele>
        <time>2026-08-26T17:33:04+00:00</time>
      </trkpt>
      <trkpt lat="49.91257" lon="5.95126">
        <ele>358</ele>
        <time>2026-08-26T17:33:07+00:00</time>
      </trkpt>
      <trkpt lat="49.91272" lon="5.9512">
        <ele>365</ele>
        <time>2026-08-26T17:33:10+00:00</time>
      </trkpt>
      <trkpt lat="49.91292" lon="5.95108">
        <ele>367</ele>
        <time>2026-08-26T17:33:13+00:00</time>
      </trkpt>
      <trkpt lat="49.91332" lon="5.95093">
        <ele>370</ele>
        <time>2026-08-26T17:33:16+00:00</time>
      </trkpt>
      <trkpt lat="49.91349" lon="5.95082">
        <ele>370</ele>
        <time>2026-08-26T17:33:19+00:00</time>
      </trkpt>
      <trkpt lat="49.91382" lon="5.95073">
        <ele>371</ele>
        <time>2026-08-26T17:33:22+00:00</time>
      </trkpt>
      <trkpt lat="49.91399" lon="5.95064">
        <ele>370</ele>
        <time>2026-08-26T17:33:25+00:00</time>
      </trkpt>
      <trkpt lat="49.9142" lon="5.95047">
        <ele>370</ele>
        <time>2026-08-26T17:33:28+00:00</time>
      </trkpt>
      <trkpt lat="49.9143" lon="5.95044">
        <ele>371</ele>
        <time>2026-08-26T17:33:31+00:00</time>
      </trkpt>
      <trkpt lat="49.91448" lon="5.95043">
        <ele>373</ele>
        <time>2026-08-26T17:33:34+00:00</time>
      </trkpt>
      <trkpt lat="49.91467" lon="5.95042">
        <ele>377</ele>
        <time>2026-08-26T17:33:37+00:00</time>
      </trkpt>
      <trkpt lat="49.91481" lon="5.95048">
        <ele>375</ele>
        <time>2026-08-26T17:33:40+00:00</time>
      </trkpt>
      <trkpt lat="49.91492" lon="5.9505">
        <ele>377</ele>
        <time>2026-08-26T17:33:43+00:00</time>
      </trkpt>
      <trkpt lat="49.91499" lon="5.95055">
        <ele>377</ele>
        <time>2026-08-26T17:33:46+00:00</time>
      </trkpt>
      <trkpt lat="49.91507" lon="5.95069">
        <ele>379</ele>
        <time>2026-08-26T17:33:49+00:00</time>
      </trkpt>
      <trkpt lat="49.91513" lon="5.95085">
        <ele>379</ele>
        <time>2026-08-26T17:33:52+00:00</time>
      </trkpt>
      <trkpt lat="49.91522" lon="5.95118">
        <ele>381</ele>
        <time>2026-08-26T17:33:55+00:00</time>
      </trkpt>
      <trkpt lat="49.91534" lon="5.95154">
        <ele>387</ele>
        <time>2026-08-26T17:33:58+00:00</time>
      </trkpt>
      <trkpt lat="49.91552" lon="5.95207">
        <ele>388</ele>
        <time>2026-08-26T17:34:01+00:00</time>
      </trkpt>
      <trkpt lat="49.91574" lon="5.95254">
        <ele>390</ele>
        <time>2026-08-26T17:34:04+00:00</time>
      </trkpt>
      <trkpt lat="49.91589" lon="5.9528">
        <ele>390</ele>
        <time>2026-08-26T17:34:07+00:00</time>
      </trkpt>
      <trkpt lat="49.91606" lon="5.95309">
        <ele>381</ele>
        <time>2026-08-26T17:34:10+00:00</time>
      </trkpt>
      <trkpt lat="49.91623" lon="5.95332">
        <ele>377</ele>
        <time>2026-08-26T17:34:13+00:00</time>
      </trkpt>
      <trkpt lat="49.9164" lon="5.95356">
        <ele>372</ele>
        <time>2026-08-26T17:34:16+00:00</time>
      </trkpt>
      <trkpt lat="49.91654" lon="5.95378">
        <ele>370</ele>
        <time>2026-08-26T17:34:19+00:00</time>
      </trkpt>
      <trkpt lat="49.91644" lon="5.95346">
        <ele>368</ele>
        <time>2026-08-26T17:34:22+00:00</time>
      </trkpt>
      <trkpt lat="49.91633" lon="5.95311">
        <ele>366</ele>
        <time>2026-08-26T17:34:25+00:00</time>
      </trkpt>
      <trkpt lat="49.91623" lon="5.95281">
        <ele>366</ele>
        <time>2026-08-26T17:34:28+00:00</time>
      </trkpt>
      <trkpt lat="49.91612" lon="5.95251">
        <ele>366</ele>
        <time>2026-08-26T17:34:31+00:00</time>
      </trkpt>
      <trkpt lat="49.91598" lon="5.95205">
        <ele>366</ele>
        <time>2026-08-26T17:34:34+00:00</time>
      </trkpt>
      <trkpt lat="49.9159" lon="5.95159">
        <ele>366</ele>
        <time>2026-08-26T17:34:37+00:00</time>
      </trkpt>
      <trkpt lat="49.91588" lon="5.95124">
        <ele>362</ele>
        <time>2026-08-26T17:34:40+00:00</time>
      </trkpt>
      <trkpt lat="49.91587" lon="5.95088">
        <ele>351</ele>
        <time>2026-08-26T17:34:43+00:00</time>
      </trkpt>
      <trkpt lat="49.91589" lon="5.95047">
        <ele>345</ele>
        <time>2026-08-26T17:34:46+00:00</time>
      </trkpt>
      <trkpt lat="49.91587" lon="5.9501">
        <ele>340</ele>
        <time>2026-08-26T17:34:49+00:00</time>
      </trkpt>
      <trkpt lat="49.91583" lon="5.94969">
        <ele>331</ele>
        <time>2026-08-26T17:34:52+00:00</time>
      </trkpt>
      <trkpt lat="49.91583" lon="5.94968">
        <ele>331</ele>
        <time>2026-08-26T17:34:55+00:00</time>
      </trkpt>
      <trkpt lat="49.91577" lon="5.94932">
        <ele>327</ele>
        <time>2026-08-26T17:34:58+00:00</time>
      </trkpt>
      <trkpt lat="49.9157" lon="5.94902">
        <ele>322</ele>
        <time>2026-08-26T17:35:01+00:00</time>
      </trkpt>
      <trkpt lat="49.91556" lon="5.94861">
        <ele>311</ele>
        <time>2026-08-26T17:35:04+00:00</time>
      </trkpt>
      <trkpt lat="49.9154" lon="5.94821">
        <ele>299</ele>
        <time>2026-08-26T17:35:07+00:00</time>
      </trkpt>
      <trkpt lat="49.91535" lon="5.94805">
        <ele>296</ele>
        <time>2026-08-26T17:35:10+00:00</time>
      </trkpt>
      <trkpt lat="49.91534" lon="5.94782">
        <ele>297</ele>
        <time>2026-08-26T17:35:13+00:00</time>
      </trkpt>
      <trkpt lat="49.91511" lon="5.94784">
        <ele>297</ele>
        <time>2026-08-26T17:35:16+00:00</time>
      </trkpt>
      <trkpt lat="49.91484" lon="5.94786">
        <ele>296</ele>
        <time>2026-08-26T17:35:19+00:00</time>
      </trkpt>
      <trkpt lat="49.91458" lon="5.94792">
        <ele>296</ele>
        <time>2026-08-26T17:35:22+00:00</time>
      </trkpt>
      <trkpt lat="49.91417" lon="5.94774">
        <ele>306</ele>
        <time>2026-08-26T17:35:25+00:00</time>
      </trkpt>
      <trkpt lat="49.91407" lon="5.94772">
        <ele>305</ele>
        <time>2026-08-26T17:35:28+00:00</time>
      </trkpt>
      <trkpt lat="49.9139" lon="5.94773">
        <ele>306</ele>
        <time>2026-08-26T17:35:31+00:00</time>
      </trkpt>
      <trkpt lat="49.91373" lon="5.94775">
        <ele>313</ele>
        <time>2026-08-26T17:35:34+00:00</time>
      </trkpt>
      <trkpt lat="49.91344" lon="5.94785">
        <ele>316</ele>
        <time>2026-08-26T17:35:37+00:00</time>
      </trkpt>
      <trkpt lat="49.91331" lon="5.94789">
        <ele>319</ele>
        <time>2026-08-26T17:35:40+00:00</time>
      </trkpt>
      <trkpt lat="49.91309" lon="5.94805">
        <ele>324</ele>
        <time>2026-08-26T17:35:43+00:00</time>
      </trkpt>
      <trkpt lat="49.91268" lon="5.94837">
        <ele>325</ele>
        <time>2026-08-26T17:35:46+00:00</time>
      </trkpt>
      <trkpt lat="49.91248" lon="5.94855">
        <ele>322</ele>
        <time>2026-08-26T17:35:49+00:00</time>
      </trkpt>
      <trkpt lat="49.91224" lon="5.94876">
        <ele>327</ele>
        <time>2026-08-26T17:35:52+00:00</time>
      </trkpt>
      <trkpt lat="49.91189" lon="5.94898">
        <ele>332</ele>
        <time>2026-08-26T17:35:55+00:00</time>
      </trkpt>
      <trkpt lat="49.91175" lon="5.94902">
        <ele>332</ele>
        <time>2026-08-26T17:35:58+00:00</time>
      </trkpt>
      <trkpt lat="49.9116" lon="5.94902">
        <ele>332</ele>
        <time>2026-08-26T17:36:01+00:00</time>
      </trkpt>
      <trkpt lat="49.91144" lon="5.94898">
        <ele>334</ele>
        <time>2026-08-26T17:36:04+00:00</time>
      </trkpt>
      <trkpt lat="49.91125" lon="5.94898">
        <ele>335</ele>
        <time>2026-08-26T17:36:07+00:00</time>
      </trkpt>
      <trkpt lat="49.91116" lon="5.94896">
        <ele>335</ele>
        <time>2026-08-26T17:36:10+00:00</time>
      </trkpt>
      <trkpt lat="49.91099" lon="5.94882">
        <ele>337</ele>
        <time>2026-08-26T17:36:13+00:00</time>
      </trkpt>
      <trkpt lat="49.9109" lon="5.94879">
        <ele>337</ele>
        <time>2026-08-26T17:36:16+00:00</time>
      </trkpt>
      <trkpt lat="49.91072" lon="5.94878">
        <ele>342</ele>
        <time>2026-08-26T17:36:19+00:00</time>
      </trkpt>
      <trkpt lat="49.91051" lon="5.94877">
        <ele>342</ele>
        <time>2026-08-26T17:36:22+00:00</time>
      </trkpt>
      <trkpt lat="49.91043" lon="5.94872">
        <ele>343</ele>
        <time>2026-08-26T17:36:25+00:00</time>
      </trkpt>
      <trkpt lat="49.91016" lon="5.94863">
        <ele>342</ele>
        <time>2026-08-26T17:36:28+00:00</time>
      </trkpt>
      <trkpt lat="49.91017" lon="5.94858">
        <ele>342</ele>
        <time>2026-08-26T17:36:31+00:00</time>
      </trkpt>
      <trkpt lat="49.91019" lon="5.94852">
        <ele>342</ele>
        <time>2026-08-26T17:36:34+00:00</time>
      </trkpt>
      <trkpt lat="49.91023" lon="5.94849">
        <ele>347</ele>
        <time>2026-08-26T17:36:37+00:00</time>
      </trkpt>
      <trkpt lat="49.91031" lon="5.94826">
        <ele>343</ele>
        <time>2026-08-26T17:36:40+00:00</time>
      </trkpt>
      <trkpt lat="49.91033" lon="5.94814">
        <ele>350</ele>
        <time>2026-08-26T17:36:43+00:00</time>
      </trkpt>
      <trkpt lat="49.91039" lon="5.94786">
        <ele>344</ele>
        <time>2026-08-26T17:36:46+00:00</time>
      </trkpt>
      <trkpt lat="49.91042" lon="5.94781">
        <ele>353</ele>
        <time>2026-08-26T17:36:49+00:00</time>
      </trkpt>
      <trkpt lat="49.9105" lon="5.94781">
        <ele>358</ele>
        <time>2026-08-26T17:36:52+00:00</time>
      </trkpt>
      <trkpt lat="49.91052" lon="5.94776">
        <ele>358</ele>
        <time>2026-08-26T17:36:55+00:00</time>
      </trkpt>
      <trkpt lat="49.9106" lon="5.94772">
        <ele>348</ele>
        <time>2026-08-26T17:36:58+00:00</time>
      </trkpt>
      <trkpt lat="49.91058" lon="5.94755">
        <ele>354</ele>
        <time>2026-08-26T17:37:01+00:00</time>
      </trkpt>
      <trkpt lat="49.91058" lon="5.9474">
        <ele>346</ele>
        <time>2026-08-26T17:37:04+00:00</time>
      </trkpt>
      <trkpt lat="49.91061" lon="5.94728">
        <ele>358</ele>
        <time>2026-08-26T17:37:07+00:00</time>
      </trkpt>
      <trkpt lat="49.91059" lon="5.947">
        <ele>349</ele>
        <time>2026-08-26T17:37:10+00:00</time>
      </trkpt>
      <trkpt lat="49.91059" lon="5.94689">
        <ele>343</ele>
        <time>2026-08-26T17:37:13+00:00</time>
      </trkpt>
      <trkpt lat="49.91064" lon="5.94659">
        <ele>345</ele>
        <time>2026-08-26T17:37:16+00:00</time>
      </trkpt>
      <trkpt lat="49.91063" lon="5.9465">
        <ele>353</ele>
        <time>2026-08-26T17:37:19+00:00</time>
      </trkpt>
      <trkpt lat="49.91059" lon="5.94627">
        <ele>346</ele>
        <time>2026-08-26T17:37:22+00:00</time>
      </trkpt>
      <trkpt lat="49.9106" lon="5.94593">
        <ele>347</ele>
        <time>2026-08-26T17:37:25+00:00</time>
      </trkpt>
      <trkpt lat="49.91056" lon="5.9457">
        <ele>349</ele>
        <time>2026-08-26T17:37:28+00:00</time>
      </trkpt>
      <trkpt lat="49.91055" lon="5.94542">
        <ele>353</ele>
        <time>2026-08-26T17:37:31+00:00</time>
      </trkpt>
      <trkpt lat="49.91053" lon="5.94506">
        <ele>357</ele>
        <time>2026-08-26T17:37:34+00:00</time>
      </trkpt>
      <trkpt lat="49.91055" lon="5.94479">
        <ele>354</ele>
        <time>2026-08-26T17:37:37+00:00</time>
      </trkpt>
      <trkpt lat="49.91051" lon="5.94459">
        <ele>360</ele>
        <time>2026-08-26T17:37:40+00:00</time>
      </trkpt>
      <trkpt lat="49.91047" lon="5.94453">
        <ele>356</ele>
        <time>2026-08-26T17:37:43+00:00</time>
      </trkpt>
      <trkpt lat="49.91045" lon="5.94445">
        <ele>352</ele>
        <time>2026-08-26T17:37:46+00:00</time>
      </trkpt>
      <trkpt lat="49.91045" lon="5.94435">
        <ele>352</ele>
        <time>2026-08-26T17:37:49+00:00</time>
      </trkpt>
      <trkpt lat="49.91053" lon="5.94433">
        <ele>354</ele>
        <time>2026-08-26T17:37:52+00:00</time>
      </trkpt>
      <trkpt lat="49.91056" lon="5.94422">
        <ele>358</ele>
        <time>2026-08-26T17:37:55+00:00</time>
      </trkpt>
      <trkpt lat="49.91056" lon="5.94413">
        <ele>358</ele>
        <time>2026-08-26T17:37:58+00:00</time>
      </trkpt>
      <trkpt lat="49.91054" lon="5.94408">
        <ele>357</ele>
        <time>2026-08-26T17:38:01+00:00</time>
      </trkpt>
      <trkpt lat="49.91045" lon="5.94395">
        <ele>353</ele>
        <time>2026-08-26T17:38:04+00:00</time>
      </trkpt>
      <trkpt lat="49.91042" lon="5.94383">
        <ele>352</ele>
        <time>2026-08-26T17:38:07+00:00</time>
      </trkpt>
      <trkpt lat="49.9104" lon="5.9438">
        <ele>352</ele>
        <time>2026-08-26T17:38:10+00:00</time>
      </trkpt>
      <trkpt lat="49.91041" lon="5.94375">
        <ele>351</ele>
        <time>2026-08-26T17:38:13+00:00</time>
      </trkpt>
      <trkpt lat="49.91044" lon="5.94375">
        <ele>352</ele>
        <time>2026-08-26T17:38:16+00:00</time>
      </trkpt>
      <trkpt lat="49.91046" lon="5.94371">
        <ele>351</ele>
        <time>2026-08-26T17:38:19+00:00</time>
      </trkpt>
      <trkpt lat="49.91054" lon="5.94371">
        <ele>354</ele>
        <time>2026-08-26T17:38:22+00:00</time>
      </trkpt>
      <trkpt lat="49.91056" lon="5.94372">
        <ele>354</ele>
        <time>2026-08-26T17:38:25+00:00</time>
      </trkpt>
      <trkpt lat="49.9106" lon="5.94365">
        <ele>352</ele>
        <time>2026-08-26T17:38:28+00:00</time>
      </trkpt>
      <trkpt lat="49.91065" lon="5.94375">
        <ele>358</ele>
        <time>2026-08-26T17:38:31+00:00</time>
      </trkpt>
      <trkpt lat="49.91069" lon="5.94379">
        <ele>358</ele>
        <time>2026-08-26T17:38:34+00:00</time>
      </trkpt>
      <trkpt lat="49.91086" lon="5.94388">
        <ele>364</ele>
        <time>2026-08-26T17:38:37+00:00</time>
      </trkpt>
      <trkpt lat="49.91102" lon="5.94398">
        <ele>366</ele>
        <time>2026-08-26T17:38:40+00:00</time>
      </trkpt>
      <trkpt lat="49.91112" lon="5.94415">
        <ele>369</ele>
        <time>2026-08-26T17:38:43+00:00</time>
      </trkpt>
      <trkpt lat="49.91123" lon="5.94448">
        <ele>373</ele>
        <time>2026-08-26T17:38:46+00:00</time>
      </trkpt>
      <trkpt lat="49.91136" lon="5.94487">
        <ele>378</ele>
        <time>2026-08-26T17:38:49+00:00</time>
      </trkpt>
      <trkpt lat="49.91139" lon="5.94502">
        <ele>381</ele>
        <time>2026-08-26T17:38:52+00:00</time>
      </trkpt>
      <trkpt lat="49.9114" lon="5.94536">
        <ele>384</ele>
        <time>2026-08-26T17:38:55+00:00</time>
      </trkpt>
      <trkpt lat="49.91142" lon="5.94585">
        <ele>384</ele>
        <time>2026-08-26T17:38:58+00:00</time>
      </trkpt>
      <trkpt lat="49.9114" lon="5.94629">
        <ele>384</ele>
        <time>2026-08-26T17:39:01+00:00</time>
      </trkpt>
      <trkpt lat="49.91139" lon="5.94637">
        <ele>385</ele>
        <time>2026-08-26T17:39:04+00:00</time>
      </trkpt>
      <trkpt lat="49.91141" lon="5.94644">
        <ele>385</ele>
        <time>2026-08-26T17:39:07+00:00</time>
      </trkpt>
      <trkpt lat="49.91144" lon="5.94648">
        <ele>385</ele>
        <time>2026-08-26T17:39:10+00:00</time>
      </trkpt>
      <trkpt lat="49.91151" lon="5.9465">
        <ele>384</ele>
        <time>2026-08-26T17:39:13+00:00</time>
      </trkpt>
      <trkpt lat="49.91162" lon="5.94648">
        <ele>385</ele>
        <time>2026-08-26T17:39:16+00:00</time>
      </trkpt>
      <trkpt lat="49.91185" lon="5.94637">
        <ele>386</ele>
        <time>2026-08-26T17:39:19+00:00</time>
      </trkpt>
      <trkpt lat="49.91225" lon="5.94618">
        <ele>391</ele>
        <time>2026-08-26T17:39:22+00:00</time>
      </trkpt>
      <trkpt lat="49.91248" lon="5.94596">
        <ele>395</ele>
        <time>2026-08-26T17:39:25+00:00</time>
      </trkpt>
      <trkpt lat="49.91275" lon="5.94556">
        <ele>401</ele>
        <time>2026-08-26T17:39:28+00:00</time>
      </trkpt>
      <trkpt lat="49.91281" lon="5.94544">
        <ele>402</ele>
        <time>2026-08-26T17:39:31+00:00</time>
      </trkpt>
      <trkpt lat="49.91293" lon="5.9451">
        <ele>403</ele>
        <time>2026-08-26T17:39:34+00:00</time>
      </trkpt>
      <trkpt lat="49.91315" lon="5.94449">
        <ele>407</ele>
        <time>2026-08-26T17:39:37+00:00</time>
      </trkpt>
      <trkpt lat="49.91334" lon="5.94412">
        <ele>412</ele>
        <time>2026-08-26T17:39:40+00:00</time>
      </trkpt>
      <trkpt lat="49.91354" lon="5.94375">
        <ele>418</ele>
        <time>2026-08-26T17:39:43+00:00</time>
      </trkpt>
      <trkpt lat="49.91382" lon="5.94322">
        <ele>425</ele>
        <time>2026-08-26T17:39:46+00:00</time>
      </trkpt>
      <trkpt lat="49.91394" lon="5.94306">
        <ele>427</ele>
        <time>2026-08-26T17:39:49+00:00</time>
      </trkpt>
      <trkpt lat="49.91408" lon="5.94293">
        <ele>429</ele>
        <time>2026-08-26T17:39:52+00:00</time>
      </trkpt>
      <trkpt lat="49.91425" lon="5.94278">
        <ele>432</ele>
        <time>2026-08-26T17:39:55+00:00</time>
      </trkpt>
      <trkpt lat="49.91439" lon="5.94258">
        <ele>433</ele>
        <time>2026-08-26T17:39:58+00:00</time>
      </trkpt>
      <trkpt lat="49.91448" lon="5.94235">
        <ele>434</ele>
        <time>2026-08-26T17:40:01+00:00</time>
      </trkpt>
      <trkpt lat="49.91454" lon="5.94207">
        <ele>435</ele>
        <time>2026-08-26T17:40:04+00:00</time>
      </trkpt>
      <trkpt lat="49.91469" lon="5.9415">
        <ele>435</ele>
        <time>2026-08-26T17:40:07+00:00</time>
      </trkpt>
      <trkpt lat="49.91482" lon="5.94126">
        <ele>435</ele>
        <time>2026-08-26T17:40:10+00:00</time>
      </trkpt>
      <trkpt lat="49.91512" lon="5.94078">
        <ele>435</ele>
        <time>2026-08-26T17:40:13+00:00</time>
      </trkpt>
      <trkpt lat="49.91534" lon="5.94049">
        <ele>435</ele>
        <time>2026-08-26T17:40:16+00:00</time>
      </trkpt>
      <trkpt lat="49.91563" lon="5.94018">
        <ele>434</ele>
        <time>2026-08-26T17:40:19+00:00</time>
      </trkpt>
      <trkpt lat="49.91596" lon="5.93983">
        <ele>434</ele>
        <time>2026-08-26T17:40:22+00:00</time>
      </trkpt>
      <trkpt lat="49.91579" lon="5.93956">
        <ele>433</ele>
        <time>2026-08-26T17:40:25+00:00</time>
      </trkpt>
      <trkpt lat="49.91557" lon="5.93922">
        <ele>433</ele>
        <time>2026-08-26T17:40:28+00:00</time>
      </trkpt>
      <trkpt lat="49.91553" lon="5.9392">
        <ele>433</ele>
        <time>2026-08-26T17:40:31+00:00</time>
      </trkpt>
      <trkpt lat="49.91549" lon="5.93922">
        <ele>434</ele>
        <time>2026-08-26T17:40:34+00:00</time>
      </trkpt>
      <trkpt lat="49.9154" lon="5.93946">
        <ele>433</ele>
        <time>2026-08-26T17:40:37+00:00</time>
      </trkpt>
      <trkpt lat="49.91527" lon="5.93965">
        <ele>433</ele>
        <time>2026-08-26T17:40:40+00:00</time>
      </trkpt>
      <trkpt lat="49.91521" lon="5.93973">
        <ele>433</ele>
        <time>2026-08-26T17:40:43+00:00</time>
      </trkpt>
      <trkpt lat="49.91516" lon="5.93985">
        <ele>433</ele>
        <time>2026-08-26T17:40:46+00:00</time>
      </trkpt>
      <trkpt lat="49.91498" lon="5.93999">
        <ele>433</ele>
        <time>2026-08-26T17:40:49+00:00</time>
      </trkpt>
      <trkpt lat="49.9147" lon="5.94021">
        <ele>433</ele>
        <time>2026-08-26T17:40:52+00:00</time>
      </trkpt>
      <trkpt lat="49.91454" lon="5.94027">
        <ele>433</ele>
        <time>2026-08-26T17:40:55+00:00</time>
      </trkpt>
      <trkpt lat="49.91445" lon="5.94029">
        <ele>433</ele>
        <time>2026-08-26T17:40:58+00:00</time>
      </trkpt>
      <trkpt lat="49.91437" lon="5.94024">
        <ele>433</ele>
        <time>2026-08-26T17:41:01+00:00</time>
      </trkpt>
      <trkpt lat="49.9143" lon="5.94025">
        <ele>433</ele>
        <time>2026-08-26T17:41:04+00:00</time>
      </trkpt>
      <trkpt lat="49.91422" lon="5.94022">
        <ele>433</ele>
        <time>2026-08-26T17:41:07+00:00</time>
      </trkpt>
      <trkpt lat="49.91393" lon="5.94006">
        <ele>432</ele>
        <time>2026-08-26T17:41:10+00:00</time>
      </trkpt>
      <trkpt lat="49.9139" lon="5.94003">
        <ele>431</ele>
        <time>2026-08-26T17:41:13+00:00</time>
      </trkpt>
      <trkpt lat="49.91388" lon="5.93993">
        <ele>431</ele>
        <time>2026-08-26T17:41:16+00:00</time>
      </trkpt>
      <trkpt lat="49.91377" lon="5.93979">
        <ele>430</ele>
        <time>2026-08-26T17:41:19+00:00</time>
      </trkpt>
      <trkpt lat="49.9137" lon="5.93977">
        <ele>430</ele>
        <time>2026-08-26T17:41:22+00:00</time>
      </trkpt>
      <trkpt lat="49.91361" lon="5.93967">
        <ele>429</ele>
        <time>2026-08-26T17:41:25+00:00</time>
      </trkpt>
      <trkpt lat="49.91364" lon="5.93965">
        <ele>428</ele>
        <time>2026-08-26T17:41:28+00:00</time>
      </trkpt>
      <trkpt lat="49.91379" lon="5.93957">
        <ele>429</ele>
        <time>2026-08-26T17:41:31+00:00</time>
      </trkpt>
      <trkpt lat="49.91412" lon="5.93945">
        <ele>431</ele>
        <time>2026-08-26T17:41:34+00:00</time>
      </trkpt>
      <trkpt lat="49.91434" lon="5.93932">
        <ele>431</ele>
        <time>2026-08-26T17:41:37+00:00</time>
      </trkpt>
      <trkpt lat="49.91446" lon="5.93914">
        <ele>428</ele>
        <time>2026-08-26T17:41:40+00:00</time>
      </trkpt>
      <trkpt lat="49.91454" lon="5.93889">
        <ele>420</ele>
        <time>2026-08-26T17:41:43+00:00</time>
      </trkpt>
      <trkpt lat="49.91473" lon="5.93849">
        <ele>414</ele>
        <time>2026-08-26T17:41:46+00:00</time>
      </trkpt>
      <trkpt lat="49.91482" lon="5.93826">
        <ele>414</ele>
        <time>2026-08-26T17:41:49+00:00</time>
      </trkpt>
      <trkpt lat="49.91484" lon="5.938">
        <ele>408</ele>
        <time>2026-08-26T17:41:52+00:00</time>
      </trkpt>
      <trkpt lat="49.91483" lon="5.93785">
        <ele>406</ele>
        <time>2026-08-26T17:41:55+00:00</time>
      </trkpt>
      <trkpt lat="49.91474" lon="5.93759">
        <ele>402</ele>
        <time>2026-08-26T17:41:58+00:00</time>
      </trkpt>
      <trkpt lat="49.91464" lon="5.93728">
        <ele>396</ele>
        <time>2026-08-26T17:42:01+00:00</time>
      </trkpt>
      <trkpt lat="49.91452" lon="5.93697">
        <ele>391</ele>
        <time>2026-08-26T17:42:04+00:00</time>
      </trkpt>
      <trkpt lat="49.91439" lon="5.93663">
        <ele>381</ele>
        <time>2026-08-26T17:42:07+00:00</time>
      </trkpt>
      <trkpt lat="49.91429" lon="5.93626">
        <ele>381</ele>
        <time>2026-08-26T17:42:10+00:00</time>
      </trkpt>
      <trkpt lat="49.91426" lon="5.93624">
        <ele>381</ele>
        <time>2026-08-26T17:42:13+00:00</time>
      </trkpt>
      <trkpt lat="49.91425" lon="5.93633">
        <ele>380</ele>
        <time>2026-08-26T17:42:16+00:00</time>
      </trkpt>
      <trkpt lat="49.9143" lon="5.93656">
        <ele>380</ele>
        <time>2026-08-26T17:42:19+00:00</time>
      </trkpt>
      <trkpt lat="49.91431" lon="5.93685">
        <ele>380</ele>
        <time>2026-08-26T17:42:22+00:00</time>
      </trkpt>
      <trkpt lat="49.91425" lon="5.93739">
        <ele>374</ele>
        <time>2026-08-26T17:42:25+00:00</time>
      </trkpt>
      <trkpt lat="49.91418" lon="5.93753">
        <ele>373</ele>
        <time>2026-08-26T17:42:28+00:00</time>
      </trkpt>
      <trkpt lat="49.91407" lon="5.93759">
        <ele>372</ele>
        <time>2026-08-26T17:42:31+00:00</time>
      </trkpt>
      <trkpt lat="49.91399" lon="5.9376">
        <ele>373</ele>
        <time>2026-08-26T17:42:34+00:00</time>
      </trkpt>
      <trkpt lat="49.91379" lon="5.93752">
        <ele>370</ele>
        <time>2026-08-26T17:42:37+00:00</time>
      </trkpt>
      <trkpt lat="49.91396" lon="5.93748">
        <ele>367</ele>
        <time>2026-08-26T17:42:40+00:00</time>
      </trkpt>
      <trkpt lat="49.91406" lon="5.93741">
        <ele>369</ele>
        <time>2026-08-26T17:42:43+00:00</time>
      </trkpt>
      <trkpt lat="49.91409" lon="5.93734">
        <ele>367</ele>
        <time>2026-08-26T17:42:46+00:00</time>
      </trkpt>
      <trkpt lat="49.9141" lon="5.93723">
        <ele>367</ele>
        <time>2026-08-26T17:42:49+00:00</time>
      </trkpt>
      <trkpt lat="49.91404" lon="5.93688">
        <ele>364</ele>
        <time>2026-08-26T17:42:52+00:00</time>
      </trkpt>
      <trkpt lat="49.91397" lon="5.93659">
        <ele>361</ele>
        <time>2026-08-26T17:42:55+00:00</time>
      </trkpt>
      <trkpt lat="49.91389" lon="5.93649">
        <ele>357</ele>
        <time>2026-08-26T17:42:58+00:00</time>
      </trkpt>
      <trkpt lat="49.91382" lon="5.93634">
        <ele>357</ele>
        <time>2026-08-26T17:43:01+00:00</time>
      </trkpt>
      <trkpt lat="49.91374" lon="5.93622">
        <ele>352</ele>
        <time>2026-08-26T17:43:04+00:00</time>
      </trkpt>
      <trkpt lat="49.9137" lon="5.93621">
        <ele>352</ele>
        <time>2026-08-26T17:43:07+00:00</time>
      </trkpt>
      <trkpt lat="49.91358" lon="5.93606">
        <ele>337</ele>
        <time>2026-08-26T17:43:10+00:00</time>
      </trkpt>
      <trkpt lat="49.91348" lon="5.93588">
        <ele>331</ele>
        <time>2026-08-26T17:43:13+00:00</time>
      </trkpt>
      <trkpt lat="49.91339" lon="5.93559">
        <ele>318</ele>
        <time>2026-08-26T17:43:16+00:00</time>
      </trkpt>
      <trkpt lat="49.91333" lon="5.93545">
        <ele>315</ele>
        <time>2026-08-26T17:43:19+00:00</time>
      </trkpt>
      <trkpt lat="49.91331" lon="5.9353">
        <ele>313</ele>
        <time>2026-08-26T17:43:22+00:00</time>
      </trkpt>
      <trkpt lat="49.9133" lon="5.93484">
        <ele>311</ele>
        <time>2026-08-26T17:43:25+00:00</time>
      </trkpt>
      <trkpt lat="49.91331" lon="5.93438">
        <ele>309</ele>
        <time>2026-08-26T17:43:28+00:00</time>
      </trkpt>
      <trkpt lat="49.91329" lon="5.93388">
        <ele>301</ele>
        <time>2026-08-26T17:43:31+00:00</time>
      </trkpt>
      <trkpt lat="49.9132" lon="5.93362">
        <ele>307</ele>
        <time>2026-08-26T17:43:34+00:00</time>
      </trkpt>
      <trkpt lat="49.91319" lon="5.93351">
        <ele>302</ele>
        <time>2026-08-26T17:43:37+00:00</time>
      </trkpt>
      <trkpt lat="49.91319" lon="5.93344">
        <ele>306</ele>
        <time>2026-08-26T17:43:40+00:00</time>
      </trkpt>
      <trkpt lat="49.91323" lon="5.93336">
        <ele>308</ele>
        <time>2026-08-26T17:43:43+00:00</time>
      </trkpt>
      <trkpt lat="49.91323" lon="5.93331">
        <ele>314</ele>
        <time>2026-08-26T17:43:46+00:00</time>
      </trkpt>
      <trkpt lat="49.91322" lon="5.93326">
        <ele>315</ele>
        <time>2026-08-26T17:43:49+00:00</time>
      </trkpt>
      <trkpt lat="49.913" lon="5.93307">
        <ele>305</ele>
        <time>2026-08-26T17:43:52+00:00</time>
      </trkpt>
      <trkpt lat="49.91297" lon="5.93306">
        <ele>305</ele>
        <time>2026-08-26T17:43:55+00:00</time>
      </trkpt>
      <trkpt lat="49.91277" lon="5.93293">
        <ele>304</ele>
        <time>2026-08-26T17:43:58+00:00</time>
      </trkpt>
      <trkpt lat="49.91254" lon="5.93267">
        <ele>304</ele>
        <time>2026-08-26T17:44:01+00:00</time>
      </trkpt>
      <trkpt lat="49.91247" lon="5.93264">
        <ele>301</ele>
        <time>2026-08-26T17:44:04+00:00</time>
      </trkpt>
      <trkpt lat="49.91219" lon="5.93262">
        <ele>290</ele>
        <time>2026-08-26T17:44:07+00:00</time>
      </trkpt>
      <trkpt lat="49.91198" lon="5.93263">
        <ele>288</ele>
        <time>2026-08-26T17:44:10+00:00</time>
      </trkpt>
      <trkpt lat="49.91196" lon="5.93263">
        <ele>288</ele>
        <time>2026-08-26T17:44:13+00:00</time>
      </trkpt>
      <trkpt lat="49.91194" lon="5.93266">
        <ele>288</ele>
        <time>2026-08-26T17:44:16+00:00</time>
      </trkpt>
      <trkpt lat="49.9118" lon="5.93266">
        <ele>288</ele>
        <time>2026-08-26T17:44:19+00:00</time>
      </trkpt>
      <trkpt lat="49.91167" lon="5.93263">
        <ele>284</ele>
        <time>2026-08-26T17:44:22+00:00</time>
      </trkpt>
      <trkpt lat="49.91154" lon="5.93264">
        <ele>282</ele>
        <time>2026-08-26T17:44:25+00:00</time>
      </trkpt>
      <trkpt lat="49.9115" lon="5.93265">
        <ele>285</ele>
        <time>2026-08-26T17:44:28+00:00</time>
      </trkpt>
      <trkpt lat="49.9115" lon="5.93291">
        <ele>281</ele>
        <time>2026-08-26T17:44:31+00:00</time>
      </trkpt>
      <trkpt lat="49.9115" lon="5.93293">
        <ele>281</ele>
        <time>2026-08-26T17:44:34+00:00</time>
      </trkpt>
      <trkpt lat="49.91151" lon="5.93347">
        <ele>280</ele>
        <time>2026-08-26T17:44:37+00:00</time>
      </trkpt>
      <trkpt lat="49.91151" lon="5.93361">
        <ele>278</ele>
        <time>2026-08-26T17:44:40+00:00</time>
      </trkpt>
      <trkpt lat="49.91162" lon="5.93388">
        <ele>280</ele>
        <time>2026-08-26T17:44:43+00:00</time>
      </trkpt>
      <trkpt lat="49.91176" lon="5.93422">
        <ele>283</ele>
        <time>2026-08-26T17:44:46+00:00</time>
      </trkpt>
      <trkpt lat="49.91184" lon="5.93459">
        <ele>284</ele>
        <time>2026-08-26T17:44:49+00:00</time>
      </trkpt>
      <trkpt lat="49.91194" lon="5.93481">
        <ele>284</ele>
        <time>2026-08-26T17:44:52+00:00</time>
      </trkpt>
      <trkpt lat="49.91184" lon="5.93494">
        <ele>284</ele>
        <time>2026-08-26T17:44:55+00:00</time>
      </trkpt>
      <trkpt lat="49.91181" lon="5.93492">
        <ele>284</ele>
        <time>2026-08-26T17:44:58+00:00</time>
      </trkpt>
      <trkpt lat="49.91178" lon="5.93496">
        <ele>284</ele>
        <time>2026-08-26T17:45:01+00:00</time>
      </trkpt>
      <trkpt lat="49.91176" lon="5.93495">
        <ele>284</ele>
        <time>2026-08-26T17:45:04+00:00</time>
      </trkpt>
      <trkpt lat="49.91178" lon="5.93496">
        <ele>284</ele>
        <time>2026-08-26T17:45:07+00:00</time>
      </trkpt>
      <trkpt lat="49.91181" lon="5.93492">
        <ele>284</ele>
        <time>2026-08-26T17:45:10+00:00</time>
      </trkpt>
      <trkpt lat="49.91184" lon="5.93494">
        <ele>284</ele>
        <time>2026-08-26T17:45:13+00:00</time>
      </trkpt>
      <trkpt lat="49.91179" lon="5.935">
        <ele>284</ele>
        <time>2026-08-26T17:45:16+00:00</time>
      </trkpt>
      <trkpt lat="49.91163" lon="5.93501">
        <ele>284</ele>
        <time>2026-08-26T17:45:19+00:00</time>
      </trkpt>
      <trkpt lat="49.91142" lon="5.93492">
        <ele>283</ele>
        <time>2026-08-26T17:45:22+00:00</time>
      </trkpt>
      <trkpt lat="49.91126" lon="5.9349">
        <ele>282</ele>
        <time>2026-08-26T17:45:25+00:00</time>
      </trkpt>
      <trkpt lat="49.91111" lon="5.93493">
        <ele>283</ele>
        <time>2026-08-26T17:45:28+00:00</time>
      </trkpt>
      <trkpt lat="49.91082" lon="5.93508">
        <ele>283</ele>
        <time>2026-08-26T17:45:31+00:00</time>
      </trkpt>
      <trkpt lat="49.9106" lon="5.93515">
        <ele>283</ele>
        <time>2026-08-26T17:45:34+00:00</time>
      </trkpt>
      <trkpt lat="49.91036" lon="5.93523">
        <ele>283</ele>
        <time>2026-08-26T17:45:37+00:00</time>
      </trkpt>
      <trkpt lat="49.91032" lon="5.93531">
        <ele>277</ele>
        <time>2026-08-26T17:45:40+00:00</time>
      </trkpt>
      <trkpt lat="49.9103" lon="5.93526">
        <ele>280</ele>
        <time>2026-08-26T17:45:43+00:00</time>
      </trkpt>
      <trkpt lat="49.91028" lon="5.93524">
        <ele>282</ele>
        <time>2026-08-26T17:45:46+00:00</time>
      </trkpt>
      <trkpt lat="49.91023" lon="5.93511">
        <ele>284</ele>
        <time>2026-08-26T17:45:49+00:00</time>
      </trkpt>
      <trkpt lat="49.91014" lon="5.93508">
        <ele>288</ele>
        <time>2026-08-26T17:45:52+00:00</time>
      </trkpt>
      <trkpt lat="49.91006" lon="5.93506">
        <ele>290</ele>
        <time>2026-08-26T17:45:55+00:00</time>
      </trkpt>
      <trkpt lat="49.90997" lon="5.93508">
        <ele>292</ele>
        <time>2026-08-26T17:45:58+00:00</time>
      </trkpt>
      <trkpt lat="49.90992" lon="5.93509">
        <ele>292</ele>
        <time>2026-08-26T17:46:01+00:00</time>
      </trkpt>
      <trkpt lat="49.90991" lon="5.93511">
        <ele>293</ele>
        <time>2026-08-26T17:46:04+00:00</time>
      </trkpt>
      <trkpt lat="49.90987" lon="5.93516">
        <ele>295</ele>
        <time>2026-08-26T17:46:07+00:00</time>
      </trkpt>
      <trkpt lat="49.90983" lon="5.93521">
        <ele>296</ele>
        <time>2026-08-26T17:46:10+00:00</time>
      </trkpt>
      <trkpt lat="49.9098" lon="5.93525">
        <ele>296</ele>
        <time>2026-08-26T17:46:13+00:00</time>
      </trkpt>
      <trkpt lat="49.90979" lon="5.93527">
        <ele>297</ele>
        <time>2026-08-26T17:46:16+00:00</time>
      </trkpt>
      <trkpt lat="49.90977" lon="5.93532">
        <ele>298</ele>
        <time>2026-08-26T17:46:19+00:00</time>
      </trkpt>
      <trkpt lat="49.90975" lon="5.93541">
        <ele>298</ele>
        <time>2026-08-26T17:46:22+00:00</time>
      </trkpt>
      <trkpt lat="49.90975" lon="5.93541">
        <ele>298</ele>
        <time>2026-08-26T17:46:25+00:00</time>
      </trkpt>
      <trkpt lat="49.90962" lon="5.9356">
        <ele>298</ele>
        <time>2026-08-26T17:46:28+00:00</time>
      </trkpt>
      <trkpt lat="49.90949" lon="5.9357">
        <ele>302</ele>
        <time>2026-08-26T17:46:31+00:00</time>
      </trkpt>
      <trkpt lat="49.90939" lon="5.93569">
        <ele>304</ele>
        <time>2026-08-26T17:46:34+00:00</time>
      </trkpt>
      <trkpt lat="49.90939" lon="5.93569">
        <ele>304</ele>
        <time>2026-08-26T17:46:37+00:00</time>
      </trkpt>
      <trkpt lat="49.90938" lon="5.93542">
        <ele>304</ele>
        <time>2026-08-26T17:46:40+00:00</time>
      </trkpt>
      <trkpt lat="49.90937" lon="5.93543">
        <ele>304</ele>
        <time>2026-08-26T17:46:43+00:00</time>
      </trkpt>
      <trkpt lat="49.90938" lon="5.93542">
        <ele>304</ele>
        <time>2026-08-26T17:46:46+00:00</time>
      </trkpt>
      <trkpt lat="49.9094" lon="5.93539">
        <ele>302</ele>
        <time>2026-08-26T17:46:49+00:00</time>
      </trkpt>
      <trkpt lat="49.90951" lon="5.93519">
        <ele>300</ele>
        <time>2026-08-26T17:46:52+00:00</time>
      </trkpt>
      <trkpt lat="49.90947" lon="5.93505">
        <ele>301</ele>
        <time>2026-08-26T17:46:55+00:00</time>
      </trkpt>
      <trkpt lat="49.90957" lon="5.93501">
        <ele>302</ele>
        <time>2026-08-26T17:46:58+00:00</time>
      </trkpt>
      <trkpt lat="49.90946" lon="5.9349">
        <ele>301</ele>
        <time>2026-08-26T17:47:01+00:00</time>
      </trkpt>
      <trkpt lat="49.90946" lon="5.9349">
        <ele>301</ele>
        <time>2026-08-26T17:47:04+00:00</time>
      </trkpt>
      <trkpt lat="49.90926" lon="5.93478">
        <ele>305</ele>
        <time>2026-08-26T17:47:07+00:00</time>
      </trkpt>
      <trkpt lat="49.90892" lon="5.93464">
        <ele>304</ele>
        <time>2026-08-26T17:47:10+00:00</time>
      </trkpt>
      <trkpt lat="49.9088" lon="5.93451">
        <ele>306</ele>
        <time>2026-08-26T17:47:13+00:00</time>
      </trkpt>
      <trkpt lat="49.90876" lon="5.93449">
        <ele>303</ele>
        <time>2026-08-26T17:47:16+00:00</time>
      </trkpt>
      <trkpt lat="49.90865" lon="5.9343">
        <ele>302</ele>
        <time>2026-08-26T17:47:19+00:00</time>
      </trkpt>
      <trkpt lat="49.90875" lon="5.93431">
        <ele>301</ele>
        <time>2026-08-26T17:47:22+00:00</time>
      </trkpt>
      <trkpt lat="49.90892" lon="5.93427">
        <ele>297</ele>
        <time>2026-08-26T17:47:25+00:00</time>
      </trkpt>
      <trkpt lat="49.90881" lon="5.93417">
        <ele>299</ele>
        <time>2026-08-26T17:47:28+00:00</time>
      </trkpt>
      <trkpt lat="49.90876" lon="5.93409">
        <ele>292</ele>
        <time>2026-08-26T17:47:31+00:00</time>
      </trkpt>
      <trkpt lat="49.90846" lon="5.93405">
        <ele>300</ele>
        <time>2026-08-26T17:47:34+00:00</time>
      </trkpt>
      <trkpt lat="49.9083" lon="5.93409">
        <ele>300</ele>
        <time>2026-08-26T17:47:37+00:00</time>
      </trkpt>
      <trkpt lat="49.90815" lon="5.93408">
        <ele>301</ele>
        <time>2026-08-26T17:47:40+00:00</time>
      </trkpt>
      <trkpt lat="49.90799" lon="5.93408">
        <ele>304</ele>
        <time>2026-08-26T17:47:43+00:00</time>
      </trkpt>
      <trkpt lat="49.90781" lon="5.93403">
        <ele>305</ele>
        <time>2026-08-26T17:47:46+00:00</time>
      </trkpt>
      <trkpt lat="49.90779" lon="5.93404">
        <ele>307</ele>
        <time>2026-08-26T17:47:49+00:00</time>
      </trkpt>
      <trkpt lat="49.90771" lon="5.93405">
        <ele>307</ele>
        <time>2026-08-26T17:47:52+00:00</time>
      </trkpt>
      <trkpt lat="49.90759" lon="5.9341">
        <ele>312</ele>
        <time>2026-08-26T17:47:55+00:00</time>
      </trkpt>
      <trkpt lat="49.90735" lon="5.93427">
        <ele>317</ele>
        <time>2026-08-26T17:47:58+00:00</time>
      </trkpt>
      <trkpt lat="49.90724" lon="5.93439">
        <ele>320</ele>
        <time>2026-08-26T17:48:01+00:00</time>
      </trkpt>
      <trkpt lat="49.90708" lon="5.93464">
        <ele>323</ele>
        <time>2026-08-26T17:48:04+00:00</time>
      </trkpt>
      <trkpt lat="49.90695" lon="5.93491">
        <ele>327</ele>
        <time>2026-08-26T17:48:07+00:00</time>
      </trkpt>
      <trkpt lat="49.90714" lon="5.93509">
        <ele>327</ele>
        <time>2026-08-26T17:48:10+00:00</time>
      </trkpt>
      <trkpt lat="49.90696" lon="5.93513">
        <ele>330</ele>
        <time>2026-08-26T17:48:13+00:00</time>
      </trkpt>
      <trkpt lat="49.90681" lon="5.93526">
        <ele>331</ele>
        <time>2026-08-26T17:48:16+00:00</time>
      </trkpt>
      <trkpt lat="49.90666" lon="5.93542">
        <ele>332</ele>
        <time>2026-08-26T17:48:19+00:00</time>
      </trkpt>
      <trkpt lat="49.90658" lon="5.93547">
        <ele>333</ele>
        <time>2026-08-26T17:48:22+00:00</time>
      </trkpt>
      <trkpt lat="49.90657" lon="5.93548">
        <ele>333</ele>
        <time>2026-08-26T17:48:25+00:00</time>
      </trkpt>
      <trkpt lat="49.90652" lon="5.93556">
        <ele>334</ele>
        <time>2026-08-26T17:48:28+00:00</time>
      </trkpt>
      <trkpt lat="49.90637" lon="5.93556">
        <ele>339</ele>
        <time>2026-08-26T17:48:31+00:00</time>
      </trkpt>
      <trkpt lat="49.90625" lon="5.93551">
        <ele>342</ele>
        <time>2026-08-26T17:48:34+00:00</time>
      </trkpt>
      <trkpt lat="49.90613" lon="5.93552">
        <ele>345</ele>
        <time>2026-08-26T17:48:37+00:00</time>
      </trkpt>
      <trkpt lat="49.90593" lon="5.93558">
        <ele>354</ele>
        <time>2026-08-26T17:48:40+00:00</time>
      </trkpt>
      <trkpt lat="49.9058" lon="5.93566">
        <ele>360</ele>
        <time>2026-08-26T17:48:43+00:00</time>
      </trkpt>
      <trkpt lat="49.9057" lon="5.93577">
        <ele>372</ele>
        <time>2026-08-26T17:48:46+00:00</time>
      </trkpt>
      <trkpt lat="49.90563" lon="5.93589">
        <ele>372</ele>
        <time>2026-08-26T17:48:49+00:00</time>
      </trkpt>
      <trkpt lat="49.90561" lon="5.93593">
        <ele>373</ele>
        <time>2026-08-26T17:48:52+00:00</time>
      </trkpt>
      <trkpt lat="49.90547" lon="5.93613">
        <ele>384</ele>
        <time>2026-08-26T17:48:55+00:00</time>
      </trkpt>
      <trkpt lat="49.90527" lon="5.9364">
        <ele>385</ele>
        <time>2026-08-26T17:48:58+00:00</time>
      </trkpt>
      <trkpt lat="49.90525" lon="5.93649">
        <ele>389</ele>
        <time>2026-08-26T17:49:01+00:00</time>
      </trkpt>
      <trkpt lat="49.90526" lon="5.93659">
        <ele>388</ele>
        <time>2026-08-26T17:49:04+00:00</time>
      </trkpt>
      <trkpt lat="49.90531" lon="5.93687">
        <ele>387</ele>
        <time>2026-08-26T17:49:07+00:00</time>
      </trkpt>
      <trkpt lat="49.90532" lon="5.93699">
        <ele>387</ele>
        <time>2026-08-26T17:49:10+00:00</time>
      </trkpt>
      <trkpt lat="49.90529" lon="5.9373">
        <ele>394</ele>
        <time>2026-08-26T17:49:13+00:00</time>
      </trkpt>
      <trkpt lat="49.9052" lon="5.93769">
        <ele>394</ele>
        <time>2026-08-26T17:49:16+00:00</time>
      </trkpt>
      <trkpt lat="49.90507" lon="5.93828">
        <ele>395</ele>
        <time>2026-08-26T17:49:19+00:00</time>
      </trkpt>
      <trkpt lat="49.90502" lon="5.93838">
        <ele>393</ele>
        <time>2026-08-26T17:49:22+00:00</time>
      </trkpt>
      <trkpt lat="49.90502" lon="5.93839">
        <ele>393</ele>
        <time>2026-08-26T17:49:25+00:00</time>
      </trkpt>
      <trkpt lat="49.90494" lon="5.93844">
        <ele>396</ele>
        <time>2026-08-26T17:49:28+00:00</time>
      </trkpt>
      <trkpt lat="49.90477" lon="5.93859">
        <ele>404</ele>
        <time>2026-08-26T17:49:31+00:00</time>
      </trkpt>
      <trkpt lat="49.90469" lon="5.9387">
        <ele>406</ele>
        <time>2026-08-26T17:49:34+00:00</time>
      </trkpt>
      <trkpt lat="49.90454" lon="5.93886">
        <ele>404</ele>
        <time>2026-08-26T17:49:37+00:00</time>
      </trkpt>
      <trkpt lat="49.90437" lon="5.93905">
        <ele>406</ele>
        <time>2026-08-26T17:49:40+00:00</time>
      </trkpt>
      <trkpt lat="49.9042" lon="5.93934">
        <ele>408</ele>
        <time>2026-08-26T17:49:43+00:00</time>
      </trkpt>
      <trkpt lat="49.90416" lon="5.93955">
        <ele>413</ele>
        <time>2026-08-26T17:49:46+00:00</time>
      </trkpt>
      <trkpt lat="49.90419" lon="5.93977">
        <ele>405</ele>
        <time>2026-08-26T17:49:49+00:00</time>
      </trkpt>
      <trkpt lat="49.9043" lon="5.94017">
        <ele>407</ele>
        <time>2026-08-26T17:49:52+00:00</time>
      </trkpt>
      <trkpt lat="49.90431" lon="5.94034">
        <ele>408</ele>
        <time>2026-08-26T17:49:55+00:00</time>
      </trkpt>
      <trkpt lat="49.9043" lon="5.94061">
        <ele>410</ele>
        <time>2026-08-26T17:49:58+00:00</time>
      </trkpt>
      <trkpt lat="49.90429" lon="5.9409">
        <ele>412</ele>
        <time>2026-08-26T17:50:01+00:00</time>
      </trkpt>
      <trkpt lat="49.9043" lon="5.94125">
        <ele>410</ele>
        <time>2026-08-26T17:50:04+00:00</time>
      </trkpt>
      <trkpt lat="49.90431" lon="5.94164">
        <ele>408</ele>
        <time>2026-08-26T17:50:07+00:00</time>
      </trkpt>
      <trkpt lat="49.90427" lon="5.94192">
        <ele>407</ele>
        <time>2026-08-26T17:50:10+00:00</time>
      </trkpt>
      <trkpt lat="49.90419" lon="5.94219">
        <ele>404</ele>
        <time>2026-08-26T17:50:13+00:00</time>
      </trkpt>
      <trkpt lat="49.90407" lon="5.94238">
        <ele>399</ele>
        <time>2026-08-26T17:50:16+00:00</time>
      </trkpt>
      <trkpt lat="49.9039" lon="5.94252">
        <ele>392</ele>
        <time>2026-08-26T17:50:19+00:00</time>
      </trkpt>
      <trkpt lat="49.90376" lon="5.94257">
        <ele>392</ele>
        <time>2026-08-26T17:50:22+00:00</time>
      </trkpt>
      <trkpt lat="49.90367" lon="5.94254">
        <ele>392</ele>
        <time>2026-08-26T17:50:25+00:00</time>
      </trkpt>
      <trkpt lat="49.9033" lon="5.9422">
        <ele>403</ele>
        <time>2026-08-26T17:50:28+00:00</time>
      </trkpt>
      <trkpt lat="49.90319" lon="5.94215">
        <ele>410</ele>
        <time>2026-08-26T17:50:31+00:00</time>
      </trkpt>
      <trkpt lat="49.90305" lon="5.94209">
        <ele>407</ele>
        <time>2026-08-26T17:50:34+00:00</time>
      </trkpt>
      <trkpt lat="49.90292" lon="5.94211">
        <ele>412</ele>
        <time>2026-08-26T17:50:37+00:00</time>
      </trkpt>
      <trkpt lat="49.90281" lon="5.9422">
        <ele>409</ele>
        <time>2026-08-26T17:50:40+00:00</time>
      </trkpt>
      <trkpt lat="49.90271" lon="5.94243">
        <ele>405</ele>
        <time>2026-08-26T17:50:43+00:00</time>
      </trkpt>
      <trkpt lat="49.90261" lon="5.94283">
        <ele>401</ele>
        <time>2026-08-26T17:50:46+00:00</time>
      </trkpt>
      <trkpt lat="49.90256" lon="5.94292">
        <ele>401</ele>
        <time>2026-08-26T17:50:49+00:00</time>
      </trkpt>
      <trkpt lat="49.9024" lon="5.94302">
        <ele>398</ele>
        <time>2026-08-26T17:50:52+00:00</time>
      </trkpt>
      <trkpt lat="49.90228" lon="5.94303">
        <ele>389</ele>
        <time>2026-08-26T17:50:55+00:00</time>
      </trkpt>
      <trkpt lat="49.90215" lon="5.94295">
        <ele>396</ele>
        <time>2026-08-26T17:50:58+00:00</time>
      </trkpt>
      <trkpt lat="49.90193" lon="5.94271">
        <ele>395</ele>
        <time>2026-08-26T17:51:01+00:00</time>
      </trkpt>
      <trkpt lat="49.90156" lon="5.94233">
        <ele>395</ele>
        <time>2026-08-26T17:51:04+00:00</time>
      </trkpt>
      <trkpt lat="49.90133" lon="5.94215">
        <ele>395</ele>
        <time>2026-08-26T17:51:07+00:00</time>
      </trkpt>
      <trkpt lat="49.90099" lon="5.94189">
        <ele>396</ele>
        <time>2026-08-26T17:51:10+00:00</time>
      </trkpt>
      <trkpt lat="49.9006" lon="5.94169">
        <ele>397</ele>
        <time>2026-08-26T17:51:13+00:00</time>
      </trkpt>
      <trkpt lat="49.90033" lon="5.94149">
        <ele>394</ele>
        <time>2026-08-26T17:51:16+00:00</time>
      </trkpt>
      <trkpt lat="49.90009" lon="5.94136">
        <ele>391</ele>
        <time>2026-08-26T17:51:19+00:00</time>
      </trkpt>
      <trkpt lat="49.89974" lon="5.94118">
        <ele>390</ele>
        <time>2026-08-26T17:51:22+00:00</time>
      </trkpt>
      <trkpt lat="49.89949" lon="5.94103">
        <ele>382</ele>
        <time>2026-08-26T17:51:25+00:00</time>
      </trkpt>
      <trkpt lat="49.8991" lon="5.94078">
        <ele>377</ele>
        <time>2026-08-26T17:51:28+00:00</time>
      </trkpt>
      <trkpt lat="49.89887" lon="5.94059">
        <ele>366</ele>
        <time>2026-08-26T17:51:31+00:00</time>
      </trkpt>
      <trkpt lat="49.89851" lon="5.9403">
        <ele>366</ele>
        <time>2026-08-26T17:51:34+00:00</time>
      </trkpt>
      <trkpt lat="49.89822" lon="5.94025">
        <ele>377</ele>
        <time>2026-08-26T17:51:37+00:00</time>
      </trkpt>
      <trkpt lat="49.89767" lon="5.94015">
        <ele>380</ele>
        <time>2026-08-26T17:51:40+00:00</time>
      </trkpt>
      <trkpt lat="49.89741" lon="5.94017">
        <ele>386</ele>
        <time>2026-08-26T17:51:43+00:00</time>
      </trkpt>
      <trkpt lat="49.89701" lon="5.94019">
        <ele>396</ele>
        <time>2026-08-26T17:51:46+00:00</time>
      </trkpt>
      <trkpt lat="49.89694" lon="5.94023">
        <ele>396</ele>
        <time>2026-08-26T17:51:49+00:00</time>
      </trkpt>
      <trkpt lat="49.89677" lon="5.94044">
        <ele>398</ele>
        <time>2026-08-26T17:51:52+00:00</time>
      </trkpt>
      <trkpt lat="49.89651" lon="5.94067">
        <ele>401</ele>
        <time>2026-08-26T17:51:55+00:00</time>
      </trkpt>
      <trkpt lat="49.89625" lon="5.9409">
        <ele>402</ele>
        <time>2026-08-26T17:51:58+00:00</time>
      </trkpt>
      <trkpt lat="49.89593" lon="5.94118">
        <ele>403</ele>
        <time>2026-08-26T17:52:01+00:00</time>
      </trkpt>
      <trkpt lat="49.89572" lon="5.94134">
        <ele>403</ele>
        <time>2026-08-26T17:52:04+00:00</time>
      </trkpt>
      <trkpt lat="49.89549" lon="5.94153">
        <ele>396</ele>
        <time>2026-08-26T17:52:07+00:00</time>
      </trkpt>
      <trkpt lat="49.8953" lon="5.94164">
        <ele>392</ele>
        <time>2026-08-26T17:52:10+00:00</time>
      </trkpt>
      <trkpt lat="49.89526" lon="5.94172">
        <ele>384</ele>
        <time>2026-08-26T17:52:13+00:00</time>
      </trkpt>
      <trkpt lat="49.89526" lon="5.94179">
        <ele>384</ele>
        <time>2026-08-26T17:52:16+00:00</time>
      </trkpt>
      <trkpt lat="49.89526" lon="5.94183">
        <ele>377</ele>
        <time>2026-08-26T17:52:19+00:00</time>
      </trkpt>
      <trkpt lat="49.89531" lon="5.9419">
        <ele>385</ele>
        <time>2026-08-26T17:52:22+00:00</time>
      </trkpt>
      <trkpt lat="49.89542" lon="5.94194">
        <ele>379</ele>
        <time>2026-08-26T17:52:25+00:00</time>
      </trkpt>
      <trkpt lat="49.89562" lon="5.94191">
        <ele>379</ele>
        <time>2026-08-26T17:52:28+00:00</time>
      </trkpt>
      <trkpt lat="49.89585" lon="5.94182">
        <ele>385</ele>
        <time>2026-08-26T17:52:31+00:00</time>
      </trkpt>
      <trkpt lat="49.89615" lon="5.9417">
        <ele>391</ele>
        <time>2026-08-26T17:52:34+00:00</time>
      </trkpt>
      <trkpt lat="49.89644" lon="5.94163">
        <ele>391</ele>
        <time>2026-08-26T17:52:37+00:00</time>
      </trkpt>
      <trkpt lat="49.89672" lon="5.94157">
        <ele>390</ele>
        <time>2026-08-26T17:52:40+00:00</time>
      </trkpt>
      <trkpt lat="49.89702" lon="5.9415">
        <ele>388</ele>
        <time>2026-08-26T17:52:43+00:00</time>
      </trkpt>
      <trkpt lat="49.89737" lon="5.9416">
        <ele>387</ele>
        <time>2026-08-26T17:52:46+00:00</time>
      </trkpt>
      <trkpt lat="49.89757" lon="5.94173">
        <ele>387</ele>
        <time>2026-08-26T17:52:49+00:00</time>
      </trkpt>
      <trkpt lat="49.89778" lon="5.94186">
        <ele>386</ele>
        <time>2026-08-26T17:52:52+00:00</time>
      </trkpt>
      <trkpt lat="49.89802" lon="5.94212">
        <ele>378</ele>
        <time>2026-08-26T17:52:55+00:00</time>
      </trkpt>
      <trkpt lat="49.89827" lon="5.94238">
        <ele>378</ele>
        <time>2026-08-26T17:52:58+00:00</time>
      </trkpt>
      <trkpt lat="49.89855" lon="5.94267">
        <ele>378</ele>
        <time>2026-08-26T17:53:01+00:00</time>
      </trkpt>
      <trkpt lat="49.89872" lon="5.94287">
        <ele>378</ele>
        <time>2026-08-26T17:53:04+00:00</time>
      </trkpt>
      <trkpt lat="49.8989" lon="5.94308">
        <ele>379</ele>
        <time>2026-08-26T17:53:07+00:00</time>
      </trkpt>
      <trkpt lat="49.89906" lon="5.94332">
        <ele>377</ele>
        <time>2026-08-26T17:53:10+00:00</time>
      </trkpt>
      <trkpt lat="49.89922" lon="5.94356">
        <ele>380</ele>
        <time>2026-08-26T17:53:13+00:00</time>
      </trkpt>
      <trkpt lat="49.89939" lon="5.94392">
        <ele>379</ele>
        <time>2026-08-26T17:53:16+00:00</time>
      </trkpt>
      <trkpt lat="49.89971" lon="5.94463">
        <ele>379</ele>
        <time>2026-08-26T17:53:19+00:00</time>
      </trkpt>
      <trkpt lat="49.89986" lon="5.94497">
        <ele>378</ele>
        <time>2026-08-26T17:53:22+00:00</time>
      </trkpt>
      <trkpt lat="49.9001" lon="5.9455">
        <ele>375</ele>
        <time>2026-08-26T17:53:25+00:00</time>
      </trkpt>
      <trkpt lat="49.90023" lon="5.94589">
        <ele>375</ele>
        <time>2026-08-26T17:53:28+00:00</time>
      </trkpt>
      <trkpt lat="49.90026" lon="5.94622">
        <ele>375</ele>
        <time>2026-08-26T17:53:31+00:00</time>
      </trkpt>
      <trkpt lat="49.90025" lon="5.9465">
        <ele>377</ele>
        <time>2026-08-26T17:53:34+00:00</time>
      </trkpt>
      <trkpt lat="49.90018" lon="5.94682">
        <ele>377</ele>
        <time>2026-08-26T17:53:37+00:00</time>
      </trkpt>
      <trkpt lat="49.90008" lon="5.94713">
        <ele>378</ele>
        <time>2026-08-26T17:53:40+00:00</time>
      </trkpt>
      <trkpt lat="49.89997" lon="5.94747">
        <ele>378</ele>
        <time>2026-08-26T17:53:43+00:00</time>
      </trkpt>
      <trkpt lat="49.89984" lon="5.94808">
        <ele>379</ele>
        <time>2026-08-26T17:53:46+00:00</time>
      </trkpt>
      <trkpt lat="49.89978" lon="5.94852">
        <ele>377</ele>
        <time>2026-08-26T17:53:49+00:00</time>
      </trkpt>
      <trkpt lat="49.89975" lon="5.94897">
        <ele>377</ele>
        <time>2026-08-26T17:53:52+00:00</time>
      </trkpt>
      <trkpt lat="49.89978" lon="5.94942">
        <ele>376</ele>
        <time>2026-08-26T17:53:55+00:00</time>
      </trkpt>
      <trkpt lat="49.89988" lon="5.94997">
        <ele>375</ele>
        <time>2026-08-26T17:53:58+00:00</time>
      </trkpt>
      <trkpt lat="49.89992" lon="5.95057">
        <ele>373</ele>
        <time>2026-08-26T17:54:01+00:00</time>
      </trkpt>
      <trkpt lat="49.89999" lon="5.95091">
        <ele>371</ele>
        <time>2026-08-26T17:54:04+00:00</time>
      </trkpt>
      <trkpt lat="49.90008" lon="5.9513">
        <ele>370</ele>
        <time>2026-08-26T17:54:07+00:00</time>
      </trkpt>
      <trkpt lat="49.9002" lon="5.95161">
        <ele>367</ele>
        <time>2026-08-26T17:54:10+00:00</time>
      </trkpt>
      <trkpt lat="49.90035" lon="5.95199">
        <ele>367</ele>
        <time>2026-08-26T17:54:13+00:00</time>
      </trkpt>
      <trkpt lat="49.90049" lon="5.95226">
        <ele>367</ele>
        <time>2026-08-26T17:54:16+00:00</time>
      </trkpt>
      <trkpt lat="49.90065" lon="5.95255">
        <ele>366</ele>
        <time>2026-08-26T17:54:19+00:00</time>
      </trkpt>
      <trkpt lat="49.90094" lon="5.95305">
        <ele>366</ele>
        <time>2026-08-26T17:54:22+00:00</time>
      </trkpt>
      <trkpt lat="49.90129" lon="5.95343">
        <ele>366</ele>
        <time>2026-08-26T17:54:25+00:00</time>
      </trkpt>
      <trkpt lat="49.90147" lon="5.95368">
        <ele>364</ele>
        <time>2026-08-26T17:54:28+00:00</time>
      </trkpt>
      <trkpt lat="49.90171" lon="5.954">
        <ele>365</ele>
        <time>2026-08-26T17:54:31+00:00</time>
      </trkpt>
      <trkpt lat="49.90193" lon="5.95445">
        <ele>364</ele>
        <time>2026-08-26T17:54:34+00:00</time>
      </trkpt>
      <trkpt lat="49.90211" lon="5.95486">
        <ele>364</ele>
        <time>2026-08-26T17:54:37+00:00</time>
      </trkpt>
      <trkpt lat="49.9023" lon="5.95541">
        <ele>364</ele>
        <time>2026-08-26T17:54:40+00:00</time>
      </trkpt>
      <trkpt lat="49.90246" lon="5.95576">
        <ele>365</ele>
        <time>2026-08-26T17:54:43+00:00</time>
      </trkpt>
      <trkpt lat="49.9025" lon="5.95595">
        <ele>364</ele>
        <time>2026-08-26T17:54:46+00:00</time>
      </trkpt>
      <trkpt lat="49.90249" lon="5.95611">
        <ele>366</ele>
        <time>2026-08-26T17:54:49+00:00</time>
      </trkpt>
      <trkpt lat="49.90244" lon="5.95624">
        <ele>365</ele>
        <time>2026-08-26T17:54:52+00:00</time>
      </trkpt>
      <trkpt lat="49.90229" lon="5.95652">
        <ele>366</ele>
        <time>2026-08-26T17:54:55+00:00</time>
      </trkpt>
      <trkpt lat="49.90204" lon="5.95698">
        <ele>357</ele>
        <time>2026-08-26T17:54:58+00:00</time>
      </trkpt>
      <trkpt lat="49.90202" lon="5.95709">
        <ele>353</ele>
        <time>2026-08-26T17:55:01+00:00</time>
      </trkpt>
      <trkpt lat="49.90205" lon="5.9572">
        <ele>345</ele>
        <time>2026-08-26T17:55:04+00:00</time>
      </trkpt>
      <trkpt lat="49.90215" lon="5.95732">
        <ele>336</ele>
        <time>2026-08-26T17:55:07+00:00</time>
      </trkpt>
      <trkpt lat="49.90241" lon="5.95763">
        <ele>330</ele>
        <time>2026-08-26T17:55:10+00:00</time>
      </trkpt>
      <trkpt lat="49.90264" lon="5.95793">
        <ele>327</ele>
        <time>2026-08-26T17:55:13+00:00</time>
      </trkpt>
      <trkpt lat="49.90295" lon="5.95822">
        <ele>323</ele>
        <time>2026-08-26T17:55:16+00:00</time>
      </trkpt>
      <trkpt lat="49.90319" lon="5.95847">
        <ele>321</ele>
        <time>2026-08-26T17:55:19+00:00</time>
      </trkpt>
      <trkpt lat="49.90366" lon="5.95898">
        <ele>318</ele>
        <time>2026-08-26T17:55:22+00:00</time>
      </trkpt>
      <trkpt lat="49.90388" lon="5.95914">
        <ele>316</ele>
        <time>2026-08-26T17:55:25+00:00</time>
      </trkpt>
      <trkpt lat="49.90395" lon="5.95916">
        <ele>316</ele>
        <time>2026-08-26T17:55:28+00:00</time>
      </trkpt>
      <trkpt lat="49.90416" lon="5.95917">
        <ele>315</ele>
        <time>2026-08-26T17:55:31+00:00</time>
      </trkpt>
      <trkpt lat="49.90443" lon="5.95919">
        <ele>312</ele>
        <time>2026-08-26T17:55:34+00:00</time>
      </trkpt>
      <trkpt lat="49.90461" lon="5.95923">
        <ele>311</ele>
        <time>2026-08-26T17:55:37+00:00</time>
      </trkpt>
      <trkpt lat="49.90496" lon="5.95941">
        <ele>308</ele>
        <time>2026-08-26T17:55:40+00:00</time>
      </trkpt>
      <trkpt lat="49.90503" lon="5.9595">
        <ele>305</ele>
        <time>2026-08-26T17:55:43+00:00</time>
      </trkpt>
      <trkpt lat="49.90505" lon="5.95959">
        <ele>304</ele>
        <time>2026-08-26T17:55:46+00:00</time>
      </trkpt>
      <trkpt lat="49.90504" lon="5.95967">
        <ele>306</ele>
        <time>2026-08-26T17:55:49+00:00</time>
      </trkpt>
      <trkpt lat="49.90494" lon="5.95986">
        <ele>303</ele>
        <time>2026-08-26T17:55:52+00:00</time>
      </trkpt>
      <trkpt lat="49.90482" lon="5.95998">
        <ele>304</ele>
        <time>2026-08-26T17:55:55+00:00</time>
      </trkpt>
      <trkpt lat="49.9047" lon="5.96007">
        <ele>305</ele>
        <time>2026-08-26T17:55:58+00:00</time>
      </trkpt>
      <trkpt lat="49.9045" lon="5.96016">
        <ele>304</ele>
        <time>2026-08-26T17:56:01+00:00</time>
      </trkpt>
      <trkpt lat="49.9044" lon="5.96025">
        <ele>301</ele>
        <time>2026-08-26T17:56:04+00:00</time>
      </trkpt>
      <trkpt lat="49.90442" lon="5.96044">
        <ele>298</ele>
        <time>2026-08-26T17:56:07+00:00</time>
      </trkpt>
      <trkpt lat="49.90445" lon="5.96052">
        <ele>298</ele>
        <time>2026-08-26T17:56:10+00:00</time>
      </trkpt>
      <trkpt lat="49.90449" lon="5.96058">
        <ele>298</ele>
        <time>2026-08-26T17:56:13+00:00</time>
      </trkpt>
      <trkpt lat="49.90452" lon="5.9606">
        <ele>298</ele>
        <time>2026-08-26T17:56:16+00:00</time>
      </trkpt>
      <trkpt lat="49.90461" lon="5.96065">
        <ele>298</ele>
        <time>2026-08-26T17:56:19+00:00</time>
      </trkpt>
      <trkpt lat="49.90467" lon="5.96074">
        <ele>298</ele>
        <time>2026-08-26T17:56:22+00:00</time>
      </trkpt>
      <trkpt lat="49.90491" lon="5.96071">
        <ele>291</ele>
        <time>2026-08-26T17:56:25+00:00</time>
      </trkpt>
      <trkpt lat="49.90505" lon="5.96063">
        <ele>291</ele>
        <time>2026-08-26T17:56:28+00:00</time>
      </trkpt>
      <trkpt lat="49.9052" lon="5.96052">
        <ele>291</ele>
        <time>2026-08-26T17:56:31+00:00</time>
      </trkpt>
      <trkpt lat="49.90522" lon="5.96049">
        <ele>290</ele>
        <time>2026-08-26T17:56:34+00:00</time>
      </trkpt>
      <trkpt lat="49.9053" lon="5.96039">
        <ele>290</ele>
        <time>2026-08-26T17:56:37+00:00</time>
      </trkpt>
      <trkpt lat="49.9054" lon="5.96024">
        <ele>289</ele>
        <time>2026-08-26T17:56:40+00:00</time>
      </trkpt>
      <trkpt lat="49.90548" lon="5.96006">
        <ele>288</ele>
        <time>2026-08-26T17:56:43+00:00</time>
      </trkpt>
      <trkpt lat="49.90554" lon="5.95984">
        <ele>287</ele>
        <time>2026-08-26T17:56:46+00:00</time>
      </trkpt>
      <trkpt lat="49.90558" lon="5.95958">
        <ele>287</ele>
        <time>2026-08-26T17:56:49+00:00</time>
      </trkpt>
      <trkpt lat="49.9056" lon="5.95932">
        <ele>285</ele>
        <time>2026-08-26T17:56:52+00:00</time>
      </trkpt>
      <trkpt lat="49.90558" lon="5.95885">
        <ele>284</ele>
        <time>2026-08-26T17:56:55+00:00</time>
      </trkpt>
      <trkpt lat="49.90555" lon="5.95869">
        <ele>283</ele>
        <time>2026-08-26T17:56:58+00:00</time>
      </trkpt>
      <trkpt lat="49.90549" lon="5.95835">
        <ele>284</ele>
        <time>2026-08-26T17:57:01+00:00</time>
      </trkpt>
      <trkpt lat="49.90536" lon="5.9579">
        <ele>283</ele>
        <time>2026-08-26T17:57:04+00:00</time>
      </trkpt>
      <trkpt lat="49.90523" lon="5.95755">
        <ele>280</ele>
        <time>2026-08-26T17:57:07+00:00</time>
      </trkpt>
      <trkpt lat="49.90503" lon="5.95701">
        <ele>281</ele>
        <time>2026-08-26T17:57:10+00:00</time>
      </trkpt>
      <trkpt lat="49.905" lon="5.95693">
        <ele>277</ele>
        <time>2026-08-26T17:57:13+00:00</time>
      </trkpt>
      <trkpt lat="49.90488" lon="5.95665">
        <ele>278</ele>
        <time>2026-08-26T17:57:16+00:00</time>
      </trkpt>
      <trkpt lat="49.90474" lon="5.95629">
        <ele>276</ele>
        <time>2026-08-26T17:57:19+00:00</time>
      </trkpt>
      <trkpt lat="49.90469" lon="5.95613">
        <ele>280</ele>
        <time>2026-08-26T17:57:22+00:00</time>
      </trkpt>
      <trkpt lat="49.90465" lon="5.95593">
        <ele>275</ele>
        <time>2026-08-26T17:57:25+00:00</time>
      </trkpt>
      <trkpt lat="49.90463" lon="5.95593">
        <ele>275</ele>
        <time>2026-08-26T17:57:28+00:00</time>
      </trkpt>
      <trkpt lat="49.9046" lon="5.95593">
        <ele>280</ele>
        <time>2026-08-26T17:57:31+00:00</time>
      </trkpt>
      <trkpt lat="49.90454" lon="5.95591">
        <ele>280</ele>
        <time>2026-08-26T17:57:34+00:00</time>
      </trkpt>
      <trkpt lat="49.90454" lon="5.9559">
        <ele>280</ele>
        <time>2026-08-26T17:57:37+00:00</time>
      </trkpt>
      <trkpt lat="49.90453" lon="5.95564">
        <ele>274</ele>
        <time>2026-08-26T17:57:40+00:00</time>
      </trkpt>
      <trkpt lat="49.90456" lon="5.95542">
        <ele>273</ele>
        <time>2026-08-26T17:57:43+00:00</time>
      </trkpt>
      <trkpt lat="49.90457" lon="5.95536">
        <ele>273</ele>
        <time>2026-08-26T17:57:46+00:00</time>
      </trkpt>
      <trkpt lat="49.9046" lon="5.95535">
        <ele>273</ele>
        <time>2026-08-26T17:57:49+00:00</time>
      </trkpt>
      <trkpt lat="49.90472" lon="5.95557">
        <ele>272</ele>
        <time>2026-08-26T17:57:52+00:00</time>
      </trkpt>
      <trkpt lat="49.90477" lon="5.95565">
        <ele>272</ele>
        <time>2026-08-26T17:57:55+00:00</time>
      </trkpt>
      <trkpt lat="49.90481" lon="5.95573">
        <ele>270</ele>
        <time>2026-08-26T17:57:58+00:00</time>
      </trkpt>
      <trkpt lat="49.90486" lon="5.95582">
        <ele>270</ele>
        <time>2026-08-26T17:58:01+00:00</time>
      </trkpt>
      <trkpt lat="49.90512" lon="5.9563">
        <ele>269</ele>
        <time>2026-08-26T17:58:04+00:00</time>
      </trkpt>
      <trkpt lat="49.90523" lon="5.95651">
        <ele>269</ele>
        <time>2026-08-26T17:58:07+00:00</time>
      </trkpt>
      <trkpt lat="49.90533" lon="5.95671">
        <ele>267</ele>
        <time>2026-08-26T17:58:10+00:00</time>
      </trkpt>
      <trkpt lat="49.90537" lon="5.95681">
        <ele>269</ele>
        <time>2026-08-26T17:58:13+00:00</time>
      </trkpt>
      <trkpt lat="49.90552" lon="5.95716">
        <ele>269</ele>
        <time>2026-08-26T17:58:16+00:00</time>
      </trkpt>
      <trkpt lat="49.90577" lon="5.95776">
        <ele>269</ele>
        <time>2026-08-26T17:58:19+00:00</time>
      </trkpt>
      <trkpt lat="49.90588" lon="5.95814">
        <ele>269</ele>
        <time>2026-08-26T17:58:22+00:00</time>
      </trkpt>
      <trkpt lat="49.90599" lon="5.95858">
        <ele>268</ele>
        <time>2026-08-26T17:58:25+00:00</time>
      </trkpt>
      <trkpt lat="49.9061" lon="5.95916">
        <ele>268</ele>
        <time>2026-08-26T17:58:28+00:00</time>
      </trkpt>
      <trkpt lat="49.90617" lon="5.95973">
        <ele>268</ele>
        <time>2026-08-26T17:58:31+00:00</time>
      </trkpt>
      <trkpt lat="49.90621" lon="5.96012">
        <ele>267</ele>
        <time>2026-08-26T17:58:34+00:00</time>
      </trkpt>
      <trkpt lat="49.90621" lon="5.96057">
        <ele>267</ele>
        <time>2026-08-26T17:58:37+00:00</time>
      </trkpt>
      <trkpt lat="49.90614" lon="5.96115">
        <ele>270</ele>
        <time>2026-08-26T17:58:40+00:00</time>
      </trkpt>
      <trkpt lat="49.90608" lon="5.96137">
        <ele>272</ele>
        <time>2026-08-26T17:58:43+00:00</time>
      </trkpt>
      <trkpt lat="49.90597" lon="5.96164">
        <ele>271</ele>
        <time>2026-08-26T17:58:46+00:00</time>
      </trkpt>
      <trkpt lat="49.90585" lon="5.96182">
        <ele>271</ele>
        <time>2026-08-26T17:58:49+00:00</time>
      </trkpt>
      <trkpt lat="49.90573" lon="5.96194">
        <ele>271</ele>
        <time>2026-08-26T17:58:52+00:00</time>
      </trkpt>
      <trkpt lat="49.90559" lon="5.96208">
        <ele>269</ele>
        <time>2026-08-26T17:58:55+00:00</time>
      </trkpt>
      <trkpt lat="49.90535" lon="5.96217">
        <ele>268</ele>
        <time>2026-08-26T17:58:58+00:00</time>
      </trkpt>
      <trkpt lat="49.90501" lon="5.96229">
        <ele>267</ele>
        <time>2026-08-26T17:59:01+00:00</time>
      </trkpt>
      <trkpt lat="49.90495" lon="5.96227">
        <ele>265</ele>
        <time>2026-08-26T17:59:04+00:00</time>
      </trkpt>
      <trkpt lat="49.90472" lon="5.96209">
        <ele>267</ele>
        <time>2026-08-26T17:59:07+00:00</time>
      </trkpt>
      <trkpt lat="49.90475" lon="5.96254">
        <ele>270</ele>
        <time>2026-08-26T17:59:10+00:00</time>
      </trkpt>
      <trkpt lat="49.90474" lon="5.96269">
        <ele>266</ele>
        <time>2026-08-26T17:59:13+00:00</time>
      </trkpt>
      <trkpt lat="49.9047" lon="5.96268">
        <ele>272</ele>
        <time>2026-08-26T17:59:16+00:00</time>
      </trkpt>
      <trkpt lat="49.90468" lon="5.96267">
        <ele>272</ele>
        <time>2026-08-26T17:59:19+00:00</time>
      </trkpt>
      <trkpt lat="49.90462" lon="5.96287">
        <ele>273</ele>
        <time>2026-08-26T17:59:22+00:00</time>
      </trkpt>
      <trkpt lat="49.9046" lon="5.96289">
        <ele>279</ele>
        <time>2026-08-26T17:59:25+00:00</time>
      </trkpt>
      <trkpt lat="49.90442" lon="5.96306">
        <ele>287</ele>
        <time>2026-08-26T17:59:28+00:00</time>
      </trkpt>
      <trkpt lat="49.90439" lon="5.96315">
        <ele>296</ele>
        <time>2026-08-26T17:59:31+00:00</time>
      </trkpt>
      <trkpt lat="49.90435" lon="5.9632">
        <ele>296</ele>
        <time>2026-08-26T17:59:34+00:00</time>
      </trkpt>
      <trkpt lat="49.90435" lon="5.96328">
        <ele>295</ele>
        <time>2026-08-26T17:59:37+00:00</time>
      </trkpt>
      <trkpt lat="49.9043" lon="5.96352">
        <ele>291</ele>
        <time>2026-08-26T17:59:40+00:00</time>
      </trkpt>
      <trkpt lat="49.90425" lon="5.9638">
        <ele>304</ele>
        <time>2026-08-26T17:59:43+00:00</time>
      </trkpt>
      <trkpt lat="49.90425" lon="5.96415">
        <ele>303</ele>
        <time>2026-08-26T17:59:46+00:00</time>
      </trkpt>
      <trkpt lat="49.90426" lon="5.96451">
        <ele>303</ele>
        <time>2026-08-26T17:59:49+00:00</time>
      </trkpt>
      <trkpt lat="49.90428" lon="5.9647">
        <ele>307</ele>
        <time>2026-08-26T17:59:52+00:00</time>
      </trkpt>
      <trkpt lat="49.90434" lon="5.96496">
        <ele>299</ele>
        <time>2026-08-26T17:59:55+00:00</time>
      </trkpt>
      <trkpt lat="49.90437" lon="5.96502">
        <ele>299</ele>
        <time>2026-08-26T17:59:58+00:00</time>
      </trkpt>
      <trkpt lat="49.9044" lon="5.9652">
        <ele>298</ele>
        <time>2026-08-26T18:00:01+00:00</time>
      </trkpt>
      <trkpt lat="49.90453" lon="5.9655">
        <ele>299</ele>
        <time>2026-08-26T18:00:04+00:00</time>
      </trkpt>
      <trkpt lat="49.90463" lon="5.96578">
        <ele>301</ele>
        <time>2026-08-26T18:00:07+00:00</time>
      </trkpt>
      <trkpt lat="49.90465" lon="5.96597">
        <ele>313</ele>
        <time>2026-08-26T18:00:10+00:00</time>
      </trkpt>
      <trkpt lat="49.90471" lon="5.96613">
        <ele>305</ele>
        <time>2026-08-26T18:00:13+00:00</time>
      </trkpt>
      <trkpt lat="49.90473" lon="5.96624">
        <ele>315</ele>
        <time>2026-08-26T18:00:16+00:00</time>
      </trkpt>
      <trkpt lat="49.90479" lon="5.96633">
        <ele>318</ele>
        <time>2026-08-26T18:00:19+00:00</time>
      </trkpt>
      <trkpt lat="49.90486" lon="5.96639">
        <ele>309</ele>
        <time>2026-08-26T18:00:22+00:00</time>
      </trkpt>
      <trkpt lat="49.90498" lon="5.96668">
        <ele>310</ele>
        <time>2026-08-26T18:00:25+00:00</time>
      </trkpt>
      <trkpt lat="49.90511" lon="5.96691">
        <ele>308</ele>
        <time>2026-08-26T18:00:28+00:00</time>
      </trkpt>
      <trkpt lat="49.90533" lon="5.96736">
        <ele>310</ele>
        <time>2026-08-26T18:00:31+00:00</time>
      </trkpt>
      <trkpt lat="49.90545" lon="5.96764">
        <ele>313</ele>
        <time>2026-08-26T18:00:34+00:00</time>
      </trkpt>
      <trkpt lat="49.90553" lon="5.96778">
        <ele>312</ele>
        <time>2026-08-26T18:00:37+00:00</time>
      </trkpt>
      <trkpt lat="49.90568" lon="5.96795">
        <ele>313</ele>
        <time>2026-08-26T18:00:40+00:00</time>
      </trkpt>
      <trkpt lat="49.90578" lon="5.96802">
        <ele>314</ele>
        <time>2026-08-26T18:00:43+00:00</time>
      </trkpt>
      <trkpt lat="49.90582" lon="5.96815">
        <ele>314</ele>
        <time>2026-08-26T18:00:46+00:00</time>
      </trkpt>
      <trkpt lat="49.90587" lon="5.96823">
        <ele>315</ele>
        <time>2026-08-26T18:00:49+00:00</time>
      </trkpt>
      <trkpt lat="49.90588" lon="5.9683">
        <ele>315</ele>
        <time>2026-08-26T18:00:52+00:00</time>
      </trkpt>
      <trkpt lat="49.90588" lon="5.96839">
        <ele>316</ele>
        <time>2026-08-26T18:00:55+00:00</time>
      </trkpt>
      <trkpt lat="49.90587" lon="5.96845">
        <ele>317</ele>
        <time>2026-08-26T18:00:58+00:00</time>
      </trkpt>
      <trkpt lat="49.90582" lon="5.96852">
        <ele>317</ele>
        <time>2026-08-26T18:01:01+00:00</time>
      </trkpt>
      <trkpt lat="49.906" lon="5.96873">
        <ele>316</ele>
        <time>2026-08-26T18:01:04+00:00</time>
      </trkpt>
      <trkpt lat="49.9063" lon="5.96906">
        <ele>318</ele>
        <time>2026-08-26T18:01:07+00:00</time>
      </trkpt>
      <trkpt lat="49.90645" lon="5.96925">
        <ele>320</ele>
        <time>2026-08-26T18:01:10+00:00</time>
      </trkpt>
      <trkpt lat="49.90653" lon="5.96943">
        <ele>321</ele>
        <time>2026-08-26T18:01:13+00:00</time>
      </trkpt>
      <trkpt lat="49.90661" lon="5.96965">
        <ele>320</ele>
        <time>2026-08-26T18:01:16+00:00</time>
      </trkpt>
      <trkpt lat="49.9067" lon="5.96991">
        <ele>320</ele>
        <time>2026-08-26T18:01:19+00:00</time>
      </trkpt>
      <trkpt lat="49.90675" lon="5.97015">
        <ele>321</ele>
        <time>2026-08-26T18:01:22+00:00</time>
      </trkpt>
      <trkpt lat="49.90678" lon="5.97048">
        <ele>325</ele>
        <time>2026-08-26T18:01:25+00:00</time>
      </trkpt>
      <trkpt lat="49.90682" lon="5.97106">
        <ele>334</ele>
        <time>2026-08-26T18:01:28+00:00</time>
      </trkpt>
      <trkpt lat="49.90688" lon="5.97149">
        <ele>334</ele>
        <time>2026-08-26T18:01:31+00:00</time>
      </trkpt>
      <trkpt lat="49.90689" lon="5.9715">
        <ele>334</ele>
        <time>2026-08-26T18:01:34+00:00</time>
      </trkpt>
      <trkpt lat="49.907" lon="5.97185">
        <ele>329</ele>
        <time>2026-08-26T18:01:37+00:00</time>
      </trkpt>
      <trkpt lat="49.90716" lon="5.97215">
        <ele>327</ele>
        <time>2026-08-26T18:01:40+00:00</time>
      </trkpt>
      <trkpt lat="49.90725" lon="5.97238">
        <ele>324</ele>
        <time>2026-08-26T18:01:43+00:00</time>
      </trkpt>
      <trkpt lat="49.90729" lon="5.9726">
        <ele>326</ele>
        <time>2026-08-26T18:01:46+00:00</time>
      </trkpt>
      <trkpt lat="49.90734" lon="5.97285">
        <ele>321</ele>
        <time>2026-08-26T18:01:49+00:00</time>
      </trkpt>
      <trkpt lat="49.90746" lon="5.97325">
        <ele>316</ele>
        <time>2026-08-26T18:01:52+00:00</time>
      </trkpt>
      <trkpt lat="49.90754" lon="5.97367">
        <ele>316</ele>
        <time>2026-08-26T18:01:55+00:00</time>
      </trkpt>
      <trkpt lat="49.90769" lon="5.97442">
        <ele>316</ele>
        <time>2026-08-26T18:01:58+00:00</time>
      </trkpt>
      <trkpt lat="49.90778" lon="5.97479">
        <ele>311</ele>
        <time>2026-08-26T18:02:01+00:00</time>
      </trkpt>
      <trkpt lat="49.90792" lon="5.97531">
        <ele>307</ele>
        <time>2026-08-26T18:02:04+00:00</time>
      </trkpt>
      <trkpt lat="49.90805" lon="5.97565">
        <ele>306</ele>
        <time>2026-08-26T18:02:07+00:00</time>
      </trkpt>
      <trkpt lat="49.90828" lon="5.9759">
        <ele>302</ele>
        <time>2026-08-26T18:02:10+00:00</time>
      </trkpt>
      <trkpt lat="49.90843" lon="5.97599">
        <ele>290</ele>
        <time>2026-08-26T18:02:13+00:00</time>
      </trkpt>
      <trkpt lat="49.90859" lon="5.97599">
        <ele>283</ele>
        <time>2026-08-26T18:02:16+00:00</time>
      </trkpt>
      <trkpt lat="49.90884" lon="5.97591">
        <ele>274</ele>
        <time>2026-08-26T18:02:19+00:00</time>
      </trkpt>
      <trkpt lat="49.90899" lon="5.97594">
        <ele>274</ele>
        <time>2026-08-26T18:02:22+00:00</time>
      </trkpt>
      <trkpt lat="49.90918" lon="5.97593">
        <ele>274</ele>
        <time>2026-08-26T18:02:25+00:00</time>
      </trkpt>
      <trkpt lat="49.90944" lon="5.97591">
        <ele>268</ele>
        <time>2026-08-26T18:02:28+00:00</time>
      </trkpt>
      <trkpt lat="49.90947" lon="5.97593">
        <ele>268</ele>
        <time>2026-08-26T18:02:31+00:00</time>
      </trkpt>
      <trkpt lat="49.90968" lon="5.97591">
        <ele>268</ele>
        <time>2026-08-26T18:02:34+00:00</time>
      </trkpt>
      <trkpt lat="49.90992" lon="5.97593">
        <ele>268</ele>
        <time>2026-08-26T18:02:37+00:00</time>
      </trkpt>
      <trkpt lat="49.90998" lon="5.9759">
        <ele>270</ele>
        <time>2026-08-26T18:02:40+00:00</time>
      </trkpt>
      <trkpt lat="49.91007" lon="5.97597">
        <ele>269</ele>
        <time>2026-08-26T18:02:43+00:00</time>
      </trkpt>
      <trkpt lat="49.91028" lon="5.97608">
        <ele>268</ele>
        <time>2026-08-26T18:02:46+00:00</time>
      </trkpt>
      <trkpt lat="49.91035" lon="5.97607">
        <ele>264</ele>
        <time>2026-08-26T18:02:49+00:00</time>
      </trkpt>
      <trkpt lat="49.91035" lon="5.97608">
        <ele>264</ele>
        <time>2026-08-26T18:02:52+00:00</time>
      </trkpt>
      <trkpt lat="49.91038" lon="5.9761">
        <ele>266</ele>
        <time>2026-08-26T18:02:55+00:00</time>
      </trkpt>
      <trkpt lat="49.91048" lon="5.97648">
        <ele>265</ele>
        <time>2026-08-26T18:02:58+00:00</time>
      </trkpt>
      <trkpt lat="49.91058" lon="5.97707">
        <ele>262</ele>
        <time>2026-08-26T18:03:01+00:00</time>
      </trkpt>
      <trkpt lat="49.91061" lon="5.97746">
        <ele>260</ele>
        <time>2026-08-26T18:03:04+00:00</time>
      </trkpt>
      <trkpt lat="49.91062" lon="5.97796">
        <ele>260</ele>
        <time>2026-08-26T18:03:07+00:00</time>
      </trkpt>
      <trkpt lat="49.91059" lon="5.97817">
        <ele>264</ele>
        <time>2026-08-26T18:03:10+00:00</time>
      </trkpt>
      <trkpt lat="49.91055" lon="5.97841">
        <ele>261</ele>
        <time>2026-08-26T18:03:13+00:00</time>
      </trkpt>
      <trkpt lat="49.91048" lon="5.97858">
        <ele>263</ele>
        <time>2026-08-26T18:03:16+00:00</time>
      </trkpt>
      <trkpt lat="49.91033" lon="5.97885">
        <ele>263</ele>
        <time>2026-08-26T18:03:19+00:00</time>
      </trkpt>
      <trkpt lat="49.91014" lon="5.97905">
        <ele>264</ele>
        <time>2026-08-26T18:03:22+00:00</time>
      </trkpt>
      <trkpt lat="49.91001" lon="5.97914">
        <ele>264</ele>
        <time>2026-08-26T18:03:25+00:00</time>
      </trkpt>
      <trkpt lat="49.90996" lon="5.97914">
        <ele>265</ele>
        <time>2026-08-26T18:03:28+00:00</time>
      </trkpt>
      <trkpt lat="49.90995" lon="5.97914">
        <ele>265</ele>
        <time>2026-08-26T18:03:31+00:00</time>
      </trkpt>
      <trkpt lat="49.90996" lon="5.97914">
        <ele>265</ele>
        <time>2026-08-26T18:03:34+00:00</time>
      </trkpt>
      <trkpt lat="49.90998" lon="5.97906">
        <ele>266</ele>
        <time>2026-08-26T18:03:37+00:00</time>
      </trkpt>
      <trkpt lat="49.91016" lon="5.97887">
        <ele>265</ele>
        <time>2026-08-26T18:03:40+00:00</time>
      </trkpt>
      <trkpt lat="49.91025" lon="5.97869">
        <ele>268</ele>
        <time>2026-08-26T18:03:43+00:00</time>
      </trkpt>
      <trkpt lat="49.9103" lon="5.97852">
        <ele>266</ele>
        <time>2026-08-26T18:03:46+00:00</time>
      </trkpt>
      <trkpt lat="49.91031" lon="5.97839">
        <ele>269</ele>
        <time>2026-08-26T18:03:49+00:00</time>
      </trkpt>
      <trkpt lat="49.91029" lon="5.97826">
        <ele>271</ele>
        <time>2026-08-26T18:03:52+00:00</time>
      </trkpt>
      <trkpt lat="49.91025" lon="5.97813">
        <ele>271</ele>
        <time>2026-08-26T18:03:55+00:00</time>
      </trkpt>
      <trkpt lat="49.91018" lon="5.97803">
        <ele>273</ele>
        <time>2026-08-26T18:03:58+00:00</time>
      </trkpt>
      <trkpt lat="49.91009" lon="5.97795">
        <ele>276</ele>
        <time>2026-08-26T18:04:01+00:00</time>
      </trkpt>
      <trkpt lat="49.90998" lon="5.97792">
        <ele>279</ele>
        <time>2026-08-26T18:04:04+00:00</time>
      </trkpt>
      <trkpt lat="49.90976" lon="5.97789">
        <ele>287</ele>
        <time>2026-08-26T18:04:07+00:00</time>
      </trkpt>
      <trkpt lat="49.90947" lon="5.97789">
        <ele>287</ele>
        <time>2026-08-26T18:04:10+00:00</time>
      </trkpt>
      <trkpt lat="49.90909" lon="5.97782">
        <ele>289</ele>
        <time>2026-08-26T18:04:13+00:00</time>
      </trkpt>
      <trkpt lat="49.90896" lon="5.97776">
        <ele>291</ele>
        <time>2026-08-26T18:04:16+00:00</time>
      </trkpt>
      <trkpt lat="49.90888" lon="5.97769">
        <ele>292</ele>
        <time>2026-08-26T18:04:19+00:00</time>
      </trkpt>
      <trkpt lat="49.9087" lon="5.97739">
        <ele>294</ele>
        <time>2026-08-26T18:04:22+00:00</time>
      </trkpt>
      <trkpt lat="49.90862" lon="5.97729">
        <ele>294</ele>
        <time>2026-08-26T18:04:25+00:00</time>
      </trkpt>
      <trkpt lat="49.90856" lon="5.97725">
        <ele>295</ele>
        <time>2026-08-26T18:04:28+00:00</time>
      </trkpt>
      <trkpt lat="49.90851" lon="5.97722">
        <ele>295</ele>
        <time>2026-08-26T18:04:31+00:00</time>
      </trkpt>
      <trkpt lat="49.90837" lon="5.97716">
        <ele>298</ele>
        <time>2026-08-26T18:04:34+00:00</time>
      </trkpt>
      <trkpt lat="49.90812" lon="5.97713">
        <ele>301</ele>
        <time>2026-08-26T18:04:37+00:00</time>
      </trkpt>
      <trkpt lat="49.90803" lon="5.97707">
        <ele>303</ele>
        <time>2026-08-26T18:04:40+00:00</time>
      </trkpt>
      <trkpt lat="49.90787" lon="5.97691">
        <ele>304</ele>
        <time>2026-08-26T18:04:43+00:00</time>
      </trkpt>
      <trkpt lat="49.90766" lon="5.97666">
        <ele>308</ele>
        <time>2026-08-26T18:04:46+00:00</time>
      </trkpt>
      <trkpt lat="49.90732" lon="5.97628">
        <ele>310</ele>
        <time>2026-08-26T18:04:49+00:00</time>
      </trkpt>
      <trkpt lat="49.90711" lon="5.97606">
        <ele>320</ele>
        <time>2026-08-26T18:04:52+00:00</time>
      </trkpt>
      <trkpt lat="49.90679" lon="5.97573">
        <ele>328</ele>
        <time>2026-08-26T18:04:55+00:00</time>
      </trkpt>
      <trkpt lat="49.90658" lon="5.97559">
        <ele>329</ele>
        <time>2026-08-26T18:04:58+00:00</time>
      </trkpt>
      <trkpt lat="49.90634" lon="5.97543">
        <ele>338</ele>
        <time>2026-08-26T18:05:01+00:00</time>
      </trkpt>
      <trkpt lat="49.90614" lon="5.97534">
        <ele>337</ele>
        <time>2026-08-26T18:05:04+00:00</time>
      </trkpt>
      <trkpt lat="49.90592" lon="5.97521">
        <ele>337</ele>
        <time>2026-08-26T18:05:07+00:00</time>
      </trkpt>
      <trkpt lat="49.90567" lon="5.97506">
        <ele>342</ele>
        <time>2026-08-26T18:05:10+00:00</time>
      </trkpt>
      <trkpt lat="49.90556" lon="5.97496">
        <ele>344</ele>
        <time>2026-08-26T18:05:13+00:00</time>
      </trkpt>
      <trkpt lat="49.9054" lon="5.97471">
        <ele>347</ele>
        <time>2026-08-26T18:05:16+00:00</time>
      </trkpt>
      <trkpt lat="49.90512" lon="5.97428">
        <ele>349</ele>
        <time>2026-08-26T18:05:19+00:00</time>
      </trkpt>
      <trkpt lat="49.9049" lon="5.97376">
        <ele>351</ele>
        <time>2026-08-26T18:05:22+00:00</time>
      </trkpt>
      <trkpt lat="49.9047" lon="5.97333">
        <ele>349</ele>
        <time>2026-08-26T18:05:25+00:00</time>
      </trkpt>
      <trkpt lat="49.90465" lon="5.97315">
        <ele>349</ele>
        <time>2026-08-26T18:05:28+00:00</time>
      </trkpt>
      <trkpt lat="49.90451" lon="5.97317">
        <ele>351</ele>
        <time>2026-08-26T18:05:31+00:00</time>
      </trkpt>
      <trkpt lat="49.90442" lon="5.97311">
        <ele>350</ele>
        <time>2026-08-26T18:05:34+00:00</time>
      </trkpt>
      <trkpt lat="49.90418" lon="5.97283">
        <ele>353</ele>
        <time>2026-08-26T18:05:37+00:00</time>
      </trkpt>
      <trkpt lat="49.90394" lon="5.97256">
        <ele>353</ele>
        <time>2026-08-26T18:05:40+00:00</time>
      </trkpt>
      <trkpt lat="49.90348" lon="5.97202">
        <ele>334</ele>
        <time>2026-08-26T18:05:43+00:00</time>
      </trkpt>
      <trkpt lat="49.90338" lon="5.97192">
        <ele>332</ele>
        <time>2026-08-26T18:05:46+00:00</time>
      </trkpt>
      <trkpt lat="49.9033" lon="5.97188">
        <ele>334</ele>
        <time>2026-08-26T18:05:49+00:00</time>
      </trkpt>
      <trkpt lat="49.90321" lon="5.97186">
        <ele>333</ele>
        <time>2026-08-26T18:05:52+00:00</time>
      </trkpt>
      <trkpt lat="49.90298" lon="5.97188">
        <ele>334</ele>
        <time>2026-08-26T18:05:55+00:00</time>
      </trkpt>
      <trkpt lat="49.9028" lon="5.97185">
        <ele>335</ele>
        <time>2026-08-26T18:05:58+00:00</time>
      </trkpt>
      <trkpt lat="49.9026" lon="5.97177">
        <ele>339</ele>
        <time>2026-08-26T18:06:01+00:00</time>
      </trkpt>
      <trkpt lat="49.90252" lon="5.9717">
        <ele>337</ele>
        <time>2026-08-26T18:06:04+00:00</time>
      </trkpt>
      <trkpt lat="49.90246" lon="5.97156">
        <ele>337</ele>
        <time>2026-08-26T18:06:07+00:00</time>
      </trkpt>
      <trkpt lat="49.90243" lon="5.97152">
        <ele>340</ele>
        <time>2026-08-26T18:06:10+00:00</time>
      </trkpt>
      <trkpt lat="49.90239" lon="5.97151">
        <ele>340</ele>
        <time>2026-08-26T18:06:13+00:00</time>
      </trkpt>
      <trkpt lat="49.90228" lon="5.97162">
        <ele>335</ele>
        <time>2026-08-26T18:06:16+00:00</time>
      </trkpt>
      <trkpt lat="49.90219" lon="5.97166">
        <ele>334</ele>
        <time>2026-08-26T18:06:19+00:00</time>
      </trkpt>
      <trkpt lat="49.90187" lon="5.97164">
        <ele>333</ele>
        <time>2026-08-26T18:06:22+00:00</time>
      </trkpt>
      <trkpt lat="49.90153" lon="5.97158">
        <ele>328</ele>
        <time>2026-08-26T18:06:25+00:00</time>
      </trkpt>
      <trkpt lat="49.90132" lon="5.97161">
        <ele>317</ele>
        <time>2026-08-26T18:06:28+00:00</time>
      </trkpt>
      <trkpt lat="49.90112" lon="5.97162">
        <ele>317</ele>
        <time>2026-08-26T18:06:31+00:00</time>
      </trkpt>
      <trkpt lat="49.90106" lon="5.97166">
        <ele>318</ele>
        <time>2026-08-26T18:06:34+00:00</time>
      </trkpt>
      <trkpt lat="49.90102" lon="5.97172">
        <ele>317</ele>
        <time>2026-08-26T18:06:37+00:00</time>
      </trkpt>
      <trkpt lat="49.90102" lon="5.97181">
        <ele>317</ele>
        <time>2026-08-26T18:06:40+00:00</time>
      </trkpt>
      <trkpt lat="49.90102" lon="5.97181">
        <ele>317</ele>
        <time>2026-08-26T18:06:43+00:00</time>
      </trkpt>
      <trkpt lat="49.90102" lon="5.97181">
        <ele>317</ele>
        <time>2026-08-26T18:06:46+00:00</time>
      </trkpt>
      <trkpt lat="49.90105" lon="5.97187">
        <ele>317</ele>
        <time>2026-08-26T18:06:49+00:00</time>
      </trkpt>
      <trkpt lat="49.90125" lon="5.97197">
        <ele>318</ele>
        <time>2026-08-26T18:06:52+00:00</time>
      </trkpt>
      <trkpt lat="49.90144" lon="5.97211">
        <ele>318</ele>
        <time>2026-08-26T18:06:55+00:00</time>
      </trkpt>
      <trkpt lat="49.90165" lon="5.97238">
        <ele>318</ele>
        <time>2026-08-26T18:06:58+00:00</time>
      </trkpt>
      <trkpt lat="49.90175" lon="5.97247">
        <ele>315</ele>
        <time>2026-08-26T18:07:01+00:00</time>
      </trkpt>
      <trkpt lat="49.9019" lon="5.97255">
        <ele>318</ele>
        <time>2026-08-26T18:07:04+00:00</time>
      </trkpt>
      <trkpt lat="49.90196" lon="5.97262">
        <ele>315</ele>
        <time>2026-08-26T18:07:07+00:00</time>
      </trkpt>
      <trkpt lat="49.90209" lon="5.97291">
        <ele>316</ele>
        <time>2026-08-26T18:07:10+00:00</time>
      </trkpt>
      <trkpt lat="49.90226" lon="5.97317">
        <ele>316</ele>
        <time>2026-08-26T18:07:13+00:00</time>
      </trkpt>
      <trkpt lat="49.90244" lon="5.97351">
        <ele>316</ele>
        <time>2026-08-26T18:07:16+00:00</time>
      </trkpt>
      <trkpt lat="49.90266" lon="5.97378">
        <ele>310</ele>
        <time>2026-08-26T18:07:19+00:00</time>
      </trkpt>
      <trkpt lat="49.90305" lon="5.97428">
        <ele>304</ele>
        <time>2026-08-26T18:07:22+00:00</time>
      </trkpt>
      <trkpt lat="49.90318" lon="5.97447">
        <ele>304</ele>
        <time>2026-08-26T18:07:25+00:00</time>
      </trkpt>
      <trkpt lat="49.90333" lon="5.97477">
        <ele>305</ele>
        <time>2026-08-26T18:07:28+00:00</time>
      </trkpt>
      <trkpt lat="49.90348" lon="5.97517">
        <ele>308</ele>
        <time>2026-08-26T18:07:31+00:00</time>
      </trkpt>
      <trkpt lat="49.90359" lon="5.97553">
        <ele>307</ele>
        <time>2026-08-26T18:07:34+00:00</time>
      </trkpt>
      <trkpt lat="49.90374" lon="5.97596">
        <ele>307</ele>
        <time>2026-08-26T18:07:37+00:00</time>
      </trkpt>
      <trkpt lat="49.9039" lon="5.97638">
        <ele>297</ele>
        <time>2026-08-26T18:07:40+00:00</time>
      </trkpt>
      <trkpt lat="49.90415" lon="5.97709">
        <ele>292</ele>
        <time>2026-08-26T18:07:43+00:00</time>
      </trkpt>
      <trkpt lat="49.90426" lon="5.97734">
        <ele>291</ele>
        <time>2026-08-26T18:07:46+00:00</time>
      </trkpt>
      <trkpt lat="49.90432" lon="5.97753">
        <ele>290</ele>
        <time>2026-08-26T18:07:49+00:00</time>
      </trkpt>
      <trkpt lat="49.90443" lon="5.97772">
        <ele>289</ele>
        <time>2026-08-26T18:07:52+00:00</time>
      </trkpt>
      <trkpt lat="49.90456" lon="5.97795">
        <ele>282</ele>
        <time>2026-08-26T18:07:55+00:00</time>
      </trkpt>
      <trkpt lat="49.90459" lon="5.97809">
        <ele>281</ele>
        <time>2026-08-26T18:07:58+00:00</time>
      </trkpt>
      <trkpt lat="49.90458" lon="5.97825">
        <ele>279</ele>
        <time>2026-08-26T18:08:01+00:00</time>
      </trkpt>
      <trkpt lat="49.90453" lon="5.97849">
        <ele>276</ele>
        <time>2026-08-26T18:08:04+00:00</time>
      </trkpt>
      <trkpt lat="49.90448" lon="5.97864">
        <ele>276</ele>
        <time>2026-08-26T18:08:07+00:00</time>
      </trkpt>
      <trkpt lat="49.90437" lon="5.97887">
        <ele>276</ele>
        <time>2026-08-26T18:08:10+00:00</time>
      </trkpt>
      <trkpt lat="49.9043" lon="5.97894">
        <ele>274</ele>
        <time>2026-08-26T18:08:13+00:00</time>
      </trkpt>
      <trkpt lat="49.90411" lon="5.97899">
        <ele>275</ele>
        <time>2026-08-26T18:08:16+00:00</time>
      </trkpt>
      <trkpt lat="49.90408" lon="5.97906">
        <ele>279</ele>
        <time>2026-08-26T18:08:19+00:00</time>
      </trkpt>
      <trkpt lat="49.90409" lon="5.97914">
        <ele>279</ele>
        <time>2026-08-26T18:08:22+00:00</time>
      </trkpt>
      <trkpt lat="49.90415" lon="5.97926">
        <ele>275</ele>
        <time>2026-08-26T18:08:25+00:00</time>
      </trkpt>
      <trkpt lat="49.90417" lon="5.97938">
        <ele>277</ele>
        <time>2026-08-26T18:08:28+00:00</time>
      </trkpt>
      <trkpt lat="49.90416" lon="5.97953">
        <ele>280</ele>
        <time>2026-08-26T18:08:31+00:00</time>
      </trkpt>
      <trkpt lat="49.90404" lon="5.97992">
        <ele>290</ele>
        <time>2026-08-26T18:08:34+00:00</time>
      </trkpt>
      <trkpt lat="49.90391" lon="5.98039">
        <ele>295</ele>
        <time>2026-08-26T18:08:37+00:00</time>
      </trkpt>
      <trkpt lat="49.90377" lon="5.9808">
        <ele>297</ele>
        <time>2026-08-26T18:08:40+00:00</time>
      </trkpt>
      <trkpt lat="49.90373" lon="5.98106">
        <ele>302</ele>
        <time>2026-08-26T18:08:43+00:00</time>
      </trkpt>
      <trkpt lat="49.90371" lon="5.98138">
        <ele>297</ele>
        <time>2026-08-26T18:08:46+00:00</time>
      </trkpt>
      <trkpt lat="49.90371" lon="5.98179">
        <ele>297</ele>
        <time>2026-08-26T18:08:49+00:00</time>
      </trkpt>
      <trkpt lat="49.90371" lon="5.98243">
        <ele>297</ele>
        <time>2026-08-26T18:08:52+00:00</time>
      </trkpt>
      <trkpt lat="49.90372" lon="5.98268">
        <ele>297</ele>
        <time>2026-08-26T18:08:55+00:00</time>
      </trkpt>
      <trkpt lat="49.90376" lon="5.98296">
        <ele>296</ele>
        <time>2026-08-26T18:08:58+00:00</time>
      </trkpt>
      <trkpt lat="49.90382" lon="5.98334">
        <ele>296</ele>
        <time>2026-08-26T18:09:01+00:00</time>
      </trkpt>
      <trkpt lat="49.90389" lon="5.98376">
        <ele>304</ele>
        <time>2026-08-26T18:09:04+00:00</time>
      </trkpt>
      <trkpt lat="49.90402" lon="5.98453">
        <ele>306</ele>
        <time>2026-08-26T18:09:07+00:00</time>
      </trkpt>
      <trkpt lat="49.90419" lon="5.98513">
        <ele>303</ele>
        <time>2026-08-26T18:09:10+00:00</time>
      </trkpt>
      <trkpt lat="49.90431" lon="5.98551">
        <ele>300</ele>
        <time>2026-08-26T18:09:13+00:00</time>
      </trkpt>
      <trkpt lat="49.90452" lon="5.98614">
        <ele>299</ele>
        <time>2026-08-26T18:09:16+00:00</time>
      </trkpt>
      <trkpt lat="49.90465" lon="5.98645">
        <ele>299</ele>
        <time>2026-08-26T18:09:19+00:00</time>
      </trkpt>
      <trkpt lat="49.90483" lon="5.98682">
        <ele>299</ele>
        <time>2026-08-26T18:09:22+00:00</time>
      </trkpt>
      <trkpt lat="49.90501" lon="5.9872">
        <ele>299</ele>
        <time>2026-08-26T18:09:25+00:00</time>
      </trkpt>
      <trkpt lat="49.90524" lon="5.98768">
        <ele>302</ele>
        <time>2026-08-26T18:09:28+00:00</time>
      </trkpt>
      <trkpt lat="49.90526" lon="5.98778">
        <ele>299</ele>
        <time>2026-08-26T18:09:31+00:00</time>
      </trkpt>
      <trkpt lat="49.90525" lon="5.98787">
        <ele>301</ele>
        <time>2026-08-26T18:09:34+00:00</time>
      </trkpt>
      <trkpt lat="49.90512" lon="5.98818">
        <ele>301</ele>
        <time>2026-08-26T18:09:37+00:00</time>
      </trkpt>
      <trkpt lat="49.90513" lon="5.98827">
        <ele>305</ele>
        <time>2026-08-26T18:09:40+00:00</time>
      </trkpt>
      <trkpt lat="49.90517" lon="5.98831">
        <ele>305</ele>
        <time>2026-08-26T18:09:43+00:00</time>
      </trkpt>
      <trkpt lat="49.90527" lon="5.98831">
        <ele>301</ele>
        <time>2026-08-26T18:09:46+00:00</time>
      </trkpt>
      <trkpt lat="49.90552" lon="5.98822">
        <ele>291</ele>
        <time>2026-08-26T18:09:49+00:00</time>
      </trkpt>
      <trkpt lat="49.90565" lon="5.98823">
        <ele>290</ele>
        <time>2026-08-26T18:09:52+00:00</time>
      </trkpt>
      <trkpt lat="49.90583" lon="5.9883">
        <ele>290</ele>
        <time>2026-08-26T18:09:55+00:00</time>
      </trkpt>
      <trkpt lat="49.906" lon="5.98843">
        <ele>290</ele>
        <time>2026-08-26T18:09:58+00:00</time>
      </trkpt>
      <trkpt lat="49.90614" lon="5.98854">
        <ele>291</ele>
        <time>2026-08-26T18:10:01+00:00</time>
      </trkpt>
      <trkpt lat="49.90635" lon="5.98857">
        <ele>293</ele>
        <time>2026-08-26T18:10:04+00:00</time>
      </trkpt>
      <trkpt lat="49.90672" lon="5.98871">
        <ele>296</ele>
        <time>2026-08-26T18:10:07+00:00</time>
      </trkpt>
      <trkpt lat="49.90699" lon="5.98886">
        <ele>296</ele>
        <time>2026-08-26T18:10:10+00:00</time>
      </trkpt>
      <trkpt lat="49.9073" lon="5.98893">
        <ele>296</ele>
        <time>2026-08-26T18:10:13+00:00</time>
      </trkpt>
      <trkpt lat="49.9077" lon="5.98899">
        <ele>296</ele>
        <time>2026-08-26T18:10:16+00:00</time>
      </trkpt>
      <trkpt lat="49.9079" lon="5.98906">
        <ele>299</ele>
        <time>2026-08-26T18:10:19+00:00</time>
      </trkpt>
      <trkpt lat="49.90815" lon="5.98907">
        <ele>299</ele>
        <time>2026-08-26T18:10:22+00:00</time>
      </trkpt>
      <trkpt lat="49.9084" lon="5.98916">
        <ele>299</ele>
        <time>2026-08-26T18:10:25+00:00</time>
      </trkpt>
      <trkpt lat="49.90848" lon="5.98916">
        <ele>302</ele>
        <time>2026-08-26T18:10:28+00:00</time>
      </trkpt>
      <trkpt lat="49.90867" lon="5.9891">
        <ele>298</ele>
        <time>2026-08-26T18:10:31+00:00</time>
      </trkpt>
      <trkpt lat="49.90885" lon="5.98909">
        <ele>297</ele>
        <time>2026-08-26T18:10:34+00:00</time>
      </trkpt>
      <trkpt lat="49.90917" lon="5.989">
        <ele>296</ele>
        <time>2026-08-26T18:10:37+00:00</time>
      </trkpt>
      <trkpt lat="49.90949" lon="5.98891">
        <ele>296</ele>
        <time>2026-08-26T18:10:40+00:00</time>
      </trkpt>
      <trkpt lat="49.9101" lon="5.98874">
        <ele>295</ele>
        <time>2026-08-26T18:10:43+00:00</time>
      </trkpt>
      <trkpt lat="49.91025" lon="5.98868">
        <ele>293</ele>
        <time>2026-08-26T18:10:46+00:00</time>
      </trkpt>
      <trkpt lat="49.9101" lon="5.98868">
        <ele>295</ele>
        <time>2026-08-26T18:10:49+00:00</time>
      </trkpt>
      <trkpt lat="49.90979" lon="5.98874">
        <ele>295</ele>
        <time>2026-08-26T18:10:52+00:00</time>
      </trkpt>
      <trkpt lat="49.90956" lon="5.98875">
        <ele>295</ele>
        <time>2026-08-26T18:10:55+00:00</time>
      </trkpt>
      <trkpt lat="49.90931" lon="5.98876">
        <ele>294</ele>
        <time>2026-08-26T18:10:58+00:00</time>
      </trkpt>
      <trkpt lat="49.90901" lon="5.98873">
        <ele>292</ele>
        <time>2026-08-26T18:11:01+00:00</time>
      </trkpt>
      <trkpt lat="49.90897" lon="5.98867">
        <ele>289</ele>
        <time>2026-08-26T18:11:04+00:00</time>
      </trkpt>
      <trkpt lat="49.90899" lon="5.98862">
        <ele>289</ele>
        <time>2026-08-26T18:11:07+00:00</time>
      </trkpt>
      <trkpt lat="49.90922" lon="5.98849">
        <ele>286</ele>
        <time>2026-08-26T18:11:10+00:00</time>
      </trkpt>
      <trkpt lat="49.90963" lon="5.98827">
        <ele>279</ele>
        <time>2026-08-26T18:11:13+00:00</time>
      </trkpt>
      <trkpt lat="49.90986" lon="5.98813">
        <ele>274</ele>
        <time>2026-08-26T18:11:16+00:00</time>
      </trkpt>
      <trkpt lat="49.91016" lon="5.98795">
        <ele>271</ele>
        <time>2026-08-26T18:11:19+00:00</time>
      </trkpt>
      <trkpt lat="49.9105" lon="5.98778">
        <ele>258</ele>
        <time>2026-08-26T18:11:22+00:00</time>
      </trkpt>
      <trkpt lat="49.91055" lon="5.98772">
        <ele>258</ele>
        <time>2026-08-26T18:11:25+00:00</time>
      </trkpt>
      <trkpt lat="49.91055" lon="5.98768">
        <ele>254</ele>
        <time>2026-08-26T18:11:28+00:00</time>
      </trkpt>
      <trkpt lat="49.91057" lon="5.98747">
        <ele>251</ele>
        <time>2026-08-26T18:11:31+00:00</time>
      </trkpt>
      <trkpt lat="49.9106" lon="5.98713">
        <ele>251</ele>
        <time>2026-08-26T18:11:34+00:00</time>
      </trkpt>
      <trkpt lat="49.9106" lon="5.98687">
        <ele>253</ele>
        <time>2026-08-26T18:11:37+00:00</time>
      </trkpt>
      <trkpt lat="49.91056" lon="5.98651">
        <ele>253</ele>
        <time>2026-08-26T18:11:40+00:00</time>
      </trkpt>
      <trkpt lat="49.91052" lon="5.98615">
        <ele>254</ele>
        <time>2026-08-26T18:11:43+00:00</time>
      </trkpt>
      <trkpt lat="49.91048" lon="5.98578">
        <ele>257</ele>
        <time>2026-08-26T18:11:46+00:00</time>
      </trkpt>
      <trkpt lat="49.91049" lon="5.98565">
        <ele>264</ele>
        <time>2026-08-26T18:11:49+00:00</time>
      </trkpt>
      <trkpt lat="49.91055" lon="5.98544">
        <ele>266</ele>
        <time>2026-08-26T18:11:52+00:00</time>
      </trkpt>
      <trkpt lat="49.91065" lon="5.98536">
        <ele>277</ele>
        <time>2026-08-26T18:11:55+00:00</time>
      </trkpt>
      <trkpt lat="49.91085" lon="5.98527">
        <ele>268</ele>
        <time>2026-08-26T18:11:58+00:00</time>
      </trkpt>
      <trkpt lat="49.911" lon="5.98523">
        <ele>270</ele>
        <time>2026-08-26T18:12:01+00:00</time>
      </trkpt>
      <trkpt lat="49.91128" lon="5.98523">
        <ele>268</ele>
        <time>2026-08-26T18:12:04+00:00</time>
      </trkpt>
      <trkpt lat="49.91156" lon="5.98523">
        <ele>267</ele>
        <time>2026-08-26T18:12:07+00:00</time>
      </trkpt>
      <trkpt lat="49.91206" lon="5.98523">
        <ele>267</ele>
        <time>2026-08-26T18:12:10+00:00</time>
      </trkpt>
      <trkpt lat="49.91222" lon="5.98526">
        <ele>271</ele>
        <time>2026-08-26T18:12:13+00:00</time>
      </trkpt>
      <trkpt lat="49.91235" lon="5.9853">
        <ele>267</ele>
        <time>2026-08-26T18:12:16+00:00</time>
      </trkpt>
      <trkpt lat="49.91249" lon="5.98535">
        <ele>267</ele>
        <time>2026-08-26T18:12:19+00:00</time>
      </trkpt>
      <trkpt lat="49.91284" lon="5.98552">
        <ele>270</ele>
        <time>2026-08-26T18:12:22+00:00</time>
      </trkpt>
      <trkpt lat="49.91314" lon="5.98572">
        <ele>273</ele>
        <time>2026-08-26T18:12:25+00:00</time>
      </trkpt>
      <trkpt lat="49.91335" lon="5.98592">
        <ele>271</ele>
        <time>2026-08-26T18:12:28+00:00</time>
      </trkpt>
      <trkpt lat="49.91338" lon="5.98596">
        <ele>277</ele>
        <time>2026-08-26T18:12:31+00:00</time>
      </trkpt>
      <trkpt lat="49.91355" lon="5.9862">
        <ele>270</ele>
        <time>2026-08-26T18:12:34+00:00</time>
      </trkpt>
      <trkpt lat="49.91361" lon="5.98636">
        <ele>269</ele>
        <time>2026-08-26T18:12:37+00:00</time>
      </trkpt>
      <trkpt lat="49.91367" lon="5.98657">
        <ele>268</ele>
        <time>2026-08-26T18:12:40+00:00</time>
      </trkpt>
      <trkpt lat="49.91388" lon="5.9871">
        <ele>267</ele>
        <time>2026-08-26T18:12:43+00:00</time>
      </trkpt>
      <trkpt lat="49.91398" lon="5.98766">
        <ele>265</ele>
        <time>2026-08-26T18:12:46+00:00</time>
      </trkpt>
      <trkpt lat="49.91401" lon="5.98816">
        <ele>263</ele>
        <time>2026-08-26T18:12:49+00:00</time>
      </trkpt>
      <trkpt lat="49.91404" lon="5.98866">
        <ele>255</ele>
        <time>2026-08-26T18:12:52+00:00</time>
      </trkpt>
      <trkpt lat="49.91409" lon="5.98962">
        <ele>256</ele>
        <time>2026-08-26T18:12:55+00:00</time>
      </trkpt>
      <trkpt lat="49.91415" lon="5.99013">
        <ele>254</ele>
        <time>2026-08-26T18:12:58+00:00</time>
      </trkpt>
      <trkpt lat="49.9142" lon="5.99057">
        <ele>255</ele>
        <time>2026-08-26T18:13:01+00:00</time>
      </trkpt>
      <trkpt lat="49.91429" lon="5.9914">
        <ele>257</ele>
        <time>2026-08-26T18:13:04+00:00</time>
      </trkpt>
      <trkpt lat="49.91428" lon="5.99199">
        <ele>258</ele>
        <time>2026-08-26T18:13:07+00:00</time>
      </trkpt>
      <trkpt lat="49.91428" lon="5.99257">
        <ele>260</ele>
        <time>2026-08-26T18:13:10+00:00</time>
      </trkpt>
      <trkpt lat="49.91427" lon="5.99316">
        <ele>257</ele>
        <time>2026-08-26T18:13:13+00:00</time>
      </trkpt>
      <trkpt lat="49.91426" lon="5.99374">
        <ele>256</ele>
        <time>2026-08-26T18:13:16+00:00</time>
      </trkpt>
      <trkpt lat="49.91426" lon="5.99433">
        <ele>256</ele>
        <time>2026-08-26T18:13:19+00:00</time>
      </trkpt>
      <trkpt lat="49.91425" lon="5.99492">
        <ele>257</ele>
        <time>2026-08-26T18:13:22+00:00</time>
      </trkpt>
      <trkpt lat="49.91424" lon="5.99592">
        <ele>259</ele>
        <time>2026-08-26T18:13:25+00:00</time>
      </trkpt>
      <trkpt lat="49.91422" lon="5.99639">
        <ele>261</ele>
        <time>2026-08-26T18:13:28+00:00</time>
      </trkpt>
      <trkpt lat="49.9142" lon="5.99687">
        <ele>257</ele>
        <time>2026-08-26T18:13:31+00:00</time>
      </trkpt>
      <trkpt lat="49.91418" lon="5.99754">
        <ele>254</ele>
        <time>2026-08-26T18:13:34+00:00</time>
      </trkpt>
      <trkpt lat="49.91416" lon="5.99806">
        <ele>254</ele>
        <time>2026-08-26T18:13:37+00:00</time>
      </trkpt>
      <trkpt lat="49.91413" lon="5.99858">
        <ele>255</ele>
        <time>2026-08-26T18:13:40+00:00</time>
      </trkpt>
      <trkpt lat="49.91411" lon="5.99911">
        <ele>254</ele>
        <time>2026-08-26T18:13:43+00:00</time>
      </trkpt>
      <trkpt lat="49.91407" lon="5.99989">
        <ele>253</ele>
        <time>2026-08-26T18:13:46+00:00</time>
      </trkpt>
      <trkpt lat="49.91406" lon="6.00001">
        <ele>251</ele>
        <time>2026-08-26T18:13:49+00:00</time>
      </trkpt>
      <trkpt lat="49.91399" lon="5.99989">
        <ele>251</ele>
        <time>2026-08-26T18:13:52+00:00</time>
      </trkpt>
      <trkpt lat="49.91384" lon="5.99976">
        <ele>251</ele>
        <time>2026-08-26T18:13:55+00:00</time>
      </trkpt>
      <trkpt lat="49.91367" lon="5.99971">
        <ele>250</ele>
        <time>2026-08-26T18:13:58+00:00</time>
      </trkpt>
      <trkpt lat="49.91343" lon="5.99965">
        <ele>250</ele>
        <time>2026-08-26T18:14:01+00:00</time>
      </trkpt>
      <trkpt lat="49.91312" lon="5.99956">
        <ele>255</ele>
        <time>2026-08-26T18:14:04+00:00</time>
      </trkpt>
      <trkpt lat="49.91307" lon="5.99958">
        <ele>258</ele>
        <time>2026-08-26T18:14:07+00:00</time>
      </trkpt>
      <trkpt lat="49.91303" lon="5.99963">
        <ele>258</ele>
        <time>2026-08-26T18:14:10+00:00</time>
      </trkpt>
      <trkpt lat="49.913" lon="5.99956">
        <ele>258</ele>
        <time>2026-08-26T18:14:13+00:00</time>
      </trkpt>
      <trkpt lat="49.91303" lon="5.99963">
        <ele>258</ele>
        <time>2026-08-26T18:14:16+00:00</time>
      </trkpt>
      <trkpt lat="49.913" lon="5.99969">
        <ele>258</ele>
        <time>2026-08-26T18:14:19+00:00</time>
      </trkpt>
      <trkpt lat="49.91287" lon="6.00009">
        <ele>264</ele>
        <time>2026-08-26T18:14:22+00:00</time>
      </trkpt>
      <trkpt lat="49.91286" lon="6.00022">
        <ele>264</ele>
        <time>2026-08-26T18:14:25+00:00</time>
      </trkpt>
      <trkpt lat="49.91286" lon="6.00069">
        <ele>264</ele>
        <time>2026-08-26T18:14:28+00:00</time>
      </trkpt>
      <trkpt lat="49.91285" lon="6.00106">
        <ele>264</ele>
        <time>2026-08-26T18:14:31+00:00</time>
      </trkpt>
      <trkpt lat="49.91283" lon="6.00121">
        <ele>262</ele>
        <time>2026-08-26T18:14:34+00:00</time>
      </trkpt>
      <trkpt lat="49.9128" lon="6.00135">
        <ele>262</ele>
        <time>2026-08-26T18:14:37+00:00</time>
      </trkpt>
      <trkpt lat="49.91275" lon="6.00146">
        <ele>263</ele>
        <time>2026-08-26T18:14:40+00:00</time>
      </trkpt>
      <trkpt lat="49.91261" lon="6.00162">
        <ele>262</ele>
        <time>2026-08-26T18:14:43+00:00</time>
      </trkpt>
      <trkpt lat="49.91252" lon="6.00169">
        <ele>265</ele>
        <time>2026-08-26T18:14:46+00:00</time>
      </trkpt>
      <trkpt lat="49.91222" lon="6.00182">
        <ele>265</ele>
        <time>2026-08-26T18:14:49+00:00</time>
      </trkpt>
      <trkpt lat="49.91218" lon="6.00185">
        <ele>269</ele>
        <time>2026-08-26T18:14:52+00:00</time>
      </trkpt>
      <trkpt lat="49.91215" lon="6.0019">
        <ele>267</ele>
        <time>2026-08-26T18:14:55+00:00</time>
      </trkpt>
      <trkpt lat="49.91214" lon="6.00197">
        <ele>267</ele>
        <time>2026-08-26T18:14:58+00:00</time>
      </trkpt>
      <trkpt lat="49.91216" lon="6.00205">
        <ele>265</ele>
        <time>2026-08-26T18:15:01+00:00</time>
      </trkpt>
      <trkpt lat="49.9122" lon="6.00209">
        <ele>267</ele>
        <time>2026-08-26T18:15:04+00:00</time>
      </trkpt>
      <trkpt lat="49.91256" lon="6.00207">
        <ele>266</ele>
        <time>2026-08-26T18:15:07+00:00</time>
      </trkpt>
      <trkpt lat="49.91263" lon="6.00211">
        <ele>267</ele>
        <time>2026-08-26T18:15:10+00:00</time>
      </trkpt>
      <trkpt lat="49.91265" lon="6.00215">
        <ele>267</ele>
        <time>2026-08-26T18:15:13+00:00</time>
      </trkpt>
      <trkpt lat="49.91265" lon="6.0022">
        <ele>270</ele>
        <time>2026-08-26T18:15:16+00:00</time>
      </trkpt>
      <trkpt lat="49.91273" lon="6.00226">
        <ele>271</ele>
        <time>2026-08-26T18:15:19+00:00</time>
      </trkpt>
      <trkpt lat="49.9128" lon="6.0026">
        <ele>287</ele>
        <time>2026-08-26T18:15:22+00:00</time>
      </trkpt>
      <trkpt lat="49.91288" lon="6.003">
        <ele>288</ele>
        <time>2026-08-26T18:15:25+00:00</time>
      </trkpt>
      <trkpt lat="49.9129" lon="6.00307">
        <ele>289</ele>
        <time>2026-08-26T18:15:28+00:00</time>
      </trkpt>
      <trkpt lat="49.91302" lon="6.00344">
        <ele>290</ele>
        <time>2026-08-26T18:15:31+00:00</time>
      </trkpt>
      <trkpt lat="49.91313" lon="6.00374">
        <ele>293</ele>
        <time>2026-08-26T18:15:34+00:00</time>
      </trkpt>
      <trkpt lat="49.91325" lon="6.00406">
        <ele>301</ele>
        <time>2026-08-26T18:15:37+00:00</time>
      </trkpt>
      <trkpt lat="49.91334" lon="6.00438">
        <ele>313</ele>
        <time>2026-08-26T18:15:40+00:00</time>
      </trkpt>
      <trkpt lat="49.91345" lon="6.00473">
        <ele>326</ele>
        <time>2026-08-26T18:15:43+00:00</time>
      </trkpt>
      <trkpt lat="49.91353" lon="6.00492">
        <ele>329</ele>
        <time>2026-08-26T18:15:46+00:00</time>
      </trkpt>
      <trkpt lat="49.91361" lon="6.00516">
        <ele>331</ele>
        <time>2026-08-26T18:15:49+00:00</time>
      </trkpt>
      <trkpt lat="49.91385" lon="6.00565">
        <ele>338</ele>
        <time>2026-08-26T18:15:52+00:00</time>
      </trkpt>
      <trkpt lat="49.91405" lon="6.006">
        <ele>337</ele>
        <time>2026-08-26T18:15:55+00:00</time>
      </trkpt>
      <trkpt lat="49.91424" lon="6.00627">
        <ele>339</ele>
        <time>2026-08-26T18:15:58+00:00</time>
      </trkpt>
      <trkpt lat="49.91439" lon="6.00639">
        <ele>335</ele>
        <time>2026-08-26T18:16:01+00:00</time>
      </trkpt>
      <trkpt lat="49.91454" lon="6.0066">
        <ele>341</ele>
        <time>2026-08-26T18:16:04+00:00</time>
      </trkpt>
      <trkpt lat="49.9148" lon="6.00689">
        <ele>344</ele>
        <time>2026-08-26T18:16:07+00:00</time>
      </trkpt>
      <trkpt lat="49.9149" lon="6.00696">
        <ele>348</ele>
        <time>2026-08-26T18:16:10+00:00</time>
      </trkpt>
      <trkpt lat="49.91505" lon="6.00712">
        <ele>350</ele>
        <time>2026-08-26T18:16:13+00:00</time>
      </trkpt>
      <trkpt lat="49.91521" lon="6.00729">
        <ele>353</ele>
        <time>2026-08-26T18:16:16+00:00</time>
      </trkpt>
      <trkpt lat="49.91552" lon="6.00746">
        <ele>358</ele>
        <time>2026-08-26T18:16:19+00:00</time>
      </trkpt>
      <trkpt lat="49.91559" lon="6.00753">
        <ele>360</ele>
        <time>2026-08-26T18:16:22+00:00</time>
      </trkpt>
      <trkpt lat="49.9157" lon="6.00744">
        <ele>361</ele>
        <time>2026-08-26T18:16:25+00:00</time>
      </trkpt>
      <trkpt lat="49.91586" lon="6.00722">
        <ele>361</ele>
        <time>2026-08-26T18:16:28+00:00</time>
      </trkpt>
      <trkpt lat="49.91591" lon="6.00719">
        <ele>362</ele>
        <time>2026-08-26T18:16:31+00:00</time>
      </trkpt>
      <trkpt lat="49.91596" lon="6.0072">
        <ele>362</ele>
        <time>2026-08-26T18:16:34+00:00</time>
      </trkpt>
      <trkpt lat="49.91599" lon="6.00726">
        <ele>362</ele>
        <time>2026-08-26T18:16:37+00:00</time>
      </trkpt>
      <trkpt lat="49.91599" lon="6.00735">
        <ele>363</ele>
        <time>2026-08-26T18:16:40+00:00</time>
      </trkpt>
      <trkpt lat="49.91597" lon="6.00742">
        <ele>364</ele>
        <time>2026-08-26T18:16:43+00:00</time>
      </trkpt>
      <trkpt lat="49.91596" lon="6.00747">
        <ele>364</ele>
        <time>2026-08-26T18:16:46+00:00</time>
      </trkpt>
      <trkpt lat="49.91587" lon="6.00782">
        <ele>366</ele>
        <time>2026-08-26T18:16:49+00:00</time>
      </trkpt>
      <trkpt lat="49.91582" lon="6.00848">
        <ele>370</ele>
        <time>2026-08-26T18:16:52+00:00</time>
      </trkpt>
      <trkpt lat="49.91583" lon="6.00864">
        <ele>372</ele>
        <time>2026-08-26T18:16:55+00:00</time>
      </trkpt>
      <trkpt lat="49.91585" lon="6.00876">
        <ele>373</ele>
        <time>2026-08-26T18:16:58+00:00</time>
      </trkpt>
      <trkpt lat="49.91598" lon="6.00919">
        <ele>376</ele>
        <time>2026-08-26T18:17:01+00:00</time>
      </trkpt>
      <trkpt lat="49.9161" lon="6.00963">
        <ele>377</ele>
        <time>2026-08-26T18:17:04+00:00</time>
      </trkpt>
      <trkpt lat="49.91628" lon="6.01023">
        <ele>382</ele>
        <time>2026-08-26T18:17:07+00:00</time>
      </trkpt>
      <trkpt lat="49.91628" lon="6.01028">
        <ele>382</ele>
        <time>2026-08-26T18:17:10+00:00</time>
      </trkpt>
      <trkpt lat="49.91628" lon="6.01032">
        <ele>383</ele>
        <time>2026-08-26T18:17:13+00:00</time>
      </trkpt>
      <trkpt lat="49.91646" lon="6.01072">
        <ele>384</ele>
        <time>2026-08-26T18:17:16+00:00</time>
      </trkpt>
      <trkpt lat="49.9165" lon="6.01094">
        <ele>386</ele>
        <time>2026-08-26T18:17:19+00:00</time>
      </trkpt>
      <trkpt lat="49.91649" lon="6.01126">
        <ele>388</ele>
        <time>2026-08-26T18:17:22+00:00</time>
      </trkpt>
      <trkpt lat="49.91643" lon="6.01191">
        <ele>394</ele>
        <time>2026-08-26T18:17:25+00:00</time>
      </trkpt>
      <trkpt lat="49.91646" lon="6.01248">
        <ele>399</ele>
        <time>2026-08-26T18:17:28+00:00</time>
      </trkpt>
      <trkpt lat="49.91656" lon="6.01296">
        <ele>402</ele>
        <time>2026-08-26T18:17:31+00:00</time>
      </trkpt>
      <trkpt lat="49.91667" lon="6.01332">
        <ele>402</ele>
        <time>2026-08-26T18:17:34+00:00</time>
      </trkpt>
      <trkpt lat="49.91684" lon="6.01387">
        <ele>401</ele>
        <time>2026-08-26T18:17:37+00:00</time>
      </trkpt>
      <trkpt lat="49.91693" lon="6.01421">
        <ele>401</ele>
        <time>2026-08-26T18:17:40+00:00</time>
      </trkpt>
      <trkpt lat="49.91705" lon="6.01464">
        <ele>398</ele>
        <time>2026-08-26T18:17:43+00:00</time>
      </trkpt>
      <trkpt lat="49.91713" lon="6.01516">
        <ele>393</ele>
        <time>2026-08-26T18:17:46+00:00</time>
      </trkpt>
      <trkpt lat="49.91716" lon="6.01544">
        <ele>390</ele>
        <time>2026-08-26T18:17:49+00:00</time>
      </trkpt>
      <trkpt lat="49.91715" lon="6.01559">
        <ele>389</ele>
        <time>2026-08-26T18:17:52+00:00</time>
      </trkpt>
      <trkpt lat="49.91703" lon="6.01586">
        <ele>385</ele>
        <time>2026-08-26T18:17:55+00:00</time>
      </trkpt>
      <trkpt lat="49.91688" lon="6.0161">
        <ele>383</ele>
        <time>2026-08-26T18:17:58+00:00</time>
      </trkpt>
      <trkpt lat="49.91672" lon="6.01635">
        <ele>381</ele>
        <time>2026-08-26T18:18:01+00:00</time>
      </trkpt>
      <trkpt lat="49.91663" lon="6.01657">
        <ele>377</ele>
        <time>2026-08-26T18:18:04+00:00</time>
      </trkpt>
      <trkpt lat="49.91657" lon="6.01678">
        <ele>376</ele>
        <time>2026-08-26T18:18:07+00:00</time>
      </trkpt>
      <trkpt lat="49.9165" lon="6.01702">
        <ele>377</ele>
        <time>2026-08-26T18:18:10+00:00</time>
      </trkpt>
      <trkpt lat="49.91644" lon="6.01733">
        <ele>379</ele>
        <time>2026-08-26T18:18:13+00:00</time>
      </trkpt>
      <trkpt lat="49.91639" lon="6.01765">
        <ele>381</ele>
        <time>2026-08-26T18:18:16+00:00</time>
      </trkpt>
      <trkpt lat="49.91637" lon="6.01802">
        <ele>383</ele>
        <time>2026-08-26T18:18:19+00:00</time>
      </trkpt>
      <trkpt lat="49.91634" lon="6.01848">
        <ele>383</ele>
        <time>2026-08-26T18:18:22+00:00</time>
      </trkpt>
      <trkpt lat="49.91629" lon="6.01883">
        <ele>382</ele>
        <time>2026-08-26T18:18:25+00:00</time>
      </trkpt>
      <trkpt lat="49.9162" lon="6.01924">
        <ele>376</ele>
        <time>2026-08-26T18:18:28+00:00</time>
      </trkpt>
      <trkpt lat="49.91605" lon="6.01995">
        <ele>369</ele>
        <time>2026-08-26T18:18:31+00:00</time>
      </trkpt>
      <trkpt lat="49.91601" lon="6.02004">
        <ele>366</ele>
        <time>2026-08-26T18:18:34+00:00</time>
      </trkpt>
      <trkpt lat="49.91591" lon="6.02014">
        <ele>361</ele>
        <time>2026-08-26T18:18:37+00:00</time>
      </trkpt>
      <trkpt lat="49.91586" lon="6.0202">
        <ele>354</ele>
        <time>2026-08-26T18:18:40+00:00</time>
      </trkpt>
      <trkpt lat="49.91573" lon="6.02032">
        <ele>355</ele>
        <time>2026-08-26T18:18:43+00:00</time>
      </trkpt>
      <trkpt lat="49.91571" lon="6.02054">
        <ele>355</ele>
        <time>2026-08-26T18:18:46+00:00</time>
      </trkpt>
      <trkpt lat="49.91573" lon="6.02084">
        <ele>349</ele>
        <time>2026-08-26T18:18:49+00:00</time>
      </trkpt>
      <trkpt lat="49.91578" lon="6.02117">
        <ele>342</ele>
        <time>2026-08-26T18:18:52+00:00</time>
      </trkpt>
      <trkpt lat="49.91583" lon="6.0215">
        <ele>337</ele>
        <time>2026-08-26T18:18:55+00:00</time>
      </trkpt>
      <trkpt lat="49.91591" lon="6.02182">
        <ele>331</ele>
        <time>2026-08-26T18:18:58+00:00</time>
      </trkpt>
      <trkpt lat="49.916" lon="6.02216">
        <ele>329</ele>
        <time>2026-08-26T18:19:01+00:00</time>
      </trkpt>
      <trkpt lat="49.91603" lon="6.02247">
        <ele>332</ele>
        <time>2026-08-26T18:19:04+00:00</time>
      </trkpt>
      <trkpt lat="49.91605" lon="6.02304">
        <ele>330</ele>
        <time>2026-08-26T18:19:07+00:00</time>
      </trkpt>
      <trkpt lat="49.91604" lon="6.02309">
        <ele>336</ele>
        <time>2026-08-26T18:19:10+00:00</time>
      </trkpt>
      <trkpt lat="49.91601" lon="6.02357">
        <ele>328</ele>
        <time>2026-08-26T18:19:13+00:00</time>
      </trkpt>
      <trkpt lat="49.91596" lon="6.0241">
        <ele>318</ele>
        <time>2026-08-26T18:19:16+00:00</time>
      </trkpt>
      <trkpt lat="49.91587" lon="6.02464">
        <ele>313</ele>
        <time>2026-08-26T18:19:19+00:00</time>
      </trkpt>
      <trkpt lat="49.91584" lon="6.025">
        <ele>312</ele>
        <time>2026-08-26T18:19:22+00:00</time>
      </trkpt>
      <trkpt lat="49.9158" lon="6.02543">
        <ele>307</ele>
        <time>2026-08-26T18:19:25+00:00</time>
      </trkpt>
      <trkpt lat="49.91579" lon="6.02594">
        <ele>302</ele>
        <time>2026-08-26T18:19:28+00:00</time>
      </trkpt>
      <trkpt lat="49.91575" lon="6.0266">
        <ele>295</ele>
        <time>2026-08-26T18:19:31+00:00</time>
      </trkpt>
      <trkpt lat="49.91569" lon="6.02669">
        <ele>289</ele>
        <time>2026-08-26T18:19:34+00:00</time>
      </trkpt>
      <trkpt lat="49.91566" lon="6.02671">
        <ele>289</ele>
        <time>2026-08-26T18:19:37+00:00</time>
      </trkpt>
      <trkpt lat="49.91562" lon="6.02673">
        <ele>289</ele>
        <time>2026-08-26T18:19:40+00:00</time>
      </trkpt>
      <trkpt lat="49.91552" lon="6.02682">
        <ele>283</ele>
        <time>2026-08-26T18:19:43+00:00</time>
      </trkpt>
      <trkpt lat="49.91544" lon="6.02703">
        <ele>281</ele>
        <time>2026-08-26T18:19:46+00:00</time>
      </trkpt>
      <trkpt lat="49.91543" lon="6.02708">
        <ele>286</ele>
        <time>2026-08-26T18:19:49+00:00</time>
      </trkpt>
      <trkpt lat="49.9154" lon="6.02724">
        <ele>282</ele>
        <time>2026-08-26T18:19:52+00:00</time>
      </trkpt>
      <trkpt lat="49.91541" lon="6.02747">
        <ele>290</ele>
        <time>2026-08-26T18:19:55+00:00</time>
      </trkpt>
      <trkpt lat="49.91547" lon="6.02774">
        <ele>294</ele>
        <time>2026-08-26T18:19:58+00:00</time>
      </trkpt>
      <trkpt lat="49.9155" lon="6.02806">
        <ele>294</ele>
        <time>2026-08-26T18:20:01+00:00</time>
      </trkpt>
      <trkpt lat="49.9156" lon="6.0285">
        <ele>297</ele>
        <time>2026-08-26T18:20:04+00:00</time>
      </trkpt>
      <trkpt lat="49.91573" lon="6.0289">
        <ele>300</ele>
        <time>2026-08-26T18:20:07+00:00</time>
      </trkpt>
      <trkpt lat="49.91588" lon="6.02929">
        <ele>303</ele>
        <time>2026-08-26T18:20:10+00:00</time>
      </trkpt>
      <trkpt lat="49.91603" lon="6.02969">
        <ele>311</ele>
        <time>2026-08-26T18:20:13+00:00</time>
      </trkpt>
      <trkpt lat="49.91619" lon="6.03012">
        <ele>312</ele>
        <time>2026-08-26T18:20:16+00:00</time>
      </trkpt>
      <trkpt lat="49.91633" lon="6.03039">
        <ele>313</ele>
        <time>2026-08-26T18:20:19+00:00</time>
      </trkpt>
      <trkpt lat="49.91648" lon="6.03067">
        <ele>316</ele>
        <time>2026-08-26T18:20:22+00:00</time>
      </trkpt>
      <trkpt lat="49.91661" lon="6.03096">
        <ele>320</ele>
        <time>2026-08-26T18:20:25+00:00</time>
      </trkpt>
      <trkpt lat="49.91677" lon="6.03121">
        <ele>320</ele>
        <time>2026-08-26T18:20:28+00:00</time>
      </trkpt>
      <trkpt lat="49.91694" lon="6.03148">
        <ele>320</ele>
        <time>2026-08-26T18:20:31+00:00</time>
      </trkpt>
      <trkpt lat="49.91695" lon="6.0315">
        <ele>321</ele>
        <time>2026-08-26T18:20:34+00:00</time>
      </trkpt>
      <trkpt lat="49.91697" lon="6.03155">
        <ele>321</ele>
        <time>2026-08-26T18:20:37+00:00</time>
      </trkpt>
      <trkpt lat="49.91697" lon="6.03166">
        <ele>320</ele>
        <time>2026-08-26T18:20:40+00:00</time>
      </trkpt>
      <trkpt lat="49.91692" lon="6.03185">
        <ele>317</ele>
        <time>2026-08-26T18:20:43+00:00</time>
      </trkpt>
      <trkpt lat="49.91679" lon="6.03221">
        <ele>317</ele>
        <time>2026-08-26T18:20:46+00:00</time>
      </trkpt>
      <trkpt lat="49.9166" lon="6.03275">
        <ele>311</ele>
        <time>2026-08-26T18:20:49+00:00</time>
      </trkpt>
      <trkpt lat="49.91649" lon="6.03289">
        <ele>310</ele>
        <time>2026-08-26T18:20:52+00:00</time>
      </trkpt>
      <trkpt lat="49.91636" lon="6.03301">
        <ele>310</ele>
        <time>2026-08-26T18:20:55+00:00</time>
      </trkpt>
      <trkpt lat="49.91612" lon="6.03293">
        <ele>310</ele>
        <time>2026-08-26T18:20:58+00:00</time>
      </trkpt>
      <trkpt lat="49.91582" lon="6.03283">
        <ele>311</ele>
        <time>2026-08-26T18:21:01+00:00</time>
      </trkpt>
      <trkpt lat="49.91555" lon="6.03282">
        <ele>316</ele>
        <time>2026-08-26T18:21:04+00:00</time>
      </trkpt>
      <trkpt lat="49.91512" lon="6.03281">
        <ele>322</ele>
        <time>2026-08-26T18:21:07+00:00</time>
      </trkpt>
      <trkpt lat="49.91504" lon="6.03283">
        <ele>324</ele>
        <time>2026-08-26T18:21:10+00:00</time>
      </trkpt>
      <trkpt lat="49.91501" lon="6.03289">
        <ele>324</ele>
        <time>2026-08-26T18:21:13+00:00</time>
      </trkpt>
      <trkpt lat="49.91499" lon="6.03297">
        <ele>328</ele>
        <time>2026-08-26T18:21:16+00:00</time>
      </trkpt>
      <trkpt lat="49.915" lon="6.03304">
        <ele>330</ele>
        <time>2026-08-26T18:21:19+00:00</time>
      </trkpt>
      <trkpt lat="49.91507" lon="6.03317">
        <ele>329</ele>
        <time>2026-08-26T18:21:22+00:00</time>
      </trkpt>
      <trkpt lat="49.91516" lon="6.03341">
        <ele>328</ele>
        <time>2026-08-26T18:21:25+00:00</time>
      </trkpt>
      <trkpt lat="49.91518" lon="6.0336">
        <ele>329</ele>
        <time>2026-08-26T18:21:28+00:00</time>
      </trkpt>
      <trkpt lat="49.9152" lon="6.03391">
        <ele>327</ele>
        <time>2026-08-26T18:21:31+00:00</time>
      </trkpt>
      <trkpt lat="49.91524" lon="6.03435">
        <ele>328</ele>
        <time>2026-08-26T18:21:34+00:00</time>
      </trkpt>
      <trkpt lat="49.91536" lon="6.03469">
        <ele>327</ele>
        <time>2026-08-26T18:21:37+00:00</time>
      </trkpt>
      <trkpt lat="49.91553" lon="6.03514">
        <ele>327</ele>
        <time>2026-08-26T18:21:40+00:00</time>
      </trkpt>
      <trkpt lat="49.9157" lon="6.0357">
        <ele>326</ele>
        <time>2026-08-26T18:21:43+00:00</time>
      </trkpt>
      <trkpt lat="49.91586" lon="6.03627">
        <ele>326</ele>
        <time>2026-08-26T18:21:46+00:00</time>
      </trkpt>
      <trkpt lat="49.91596" lon="6.0366">
        <ele>326</ele>
        <time>2026-08-26T18:21:49+00:00</time>
      </trkpt>
      <trkpt lat="49.91609" lon="6.037">
        <ele>326</ele>
        <time>2026-08-26T18:21:52+00:00</time>
      </trkpt>
      <trkpt lat="49.9161" lon="6.03709">
        <ele>321</ele>
        <time>2026-08-26T18:21:55+00:00</time>
      </trkpt>
      <trkpt lat="49.91607" lon="6.03716">
        <ele>324</ele>
        <time>2026-08-26T18:21:58+00:00</time>
      </trkpt>
      <trkpt lat="49.91604" lon="6.03718">
        <ele>324</ele>
        <time>2026-08-26T18:22:01+00:00</time>
      </trkpt>
      <trkpt lat="49.91591" lon="6.03726">
        <ele>327</ele>
        <time>2026-08-26T18:22:04+00:00</time>
      </trkpt>
      <trkpt lat="49.91578" lon="6.03738">
        <ele>331</ele>
        <time>2026-08-26T18:22:07+00:00</time>
      </trkpt>
      <trkpt lat="49.91562" lon="6.03762">
        <ele>328</ele>
        <time>2026-08-26T18:22:10+00:00</time>
      </trkpt>
      <trkpt lat="49.91554" lon="6.03778">
        <ele>334</ele>
        <time>2026-08-26T18:22:13+00:00</time>
      </trkpt>
      <trkpt lat="49.91554" lon="6.03787">
        <ele>326</ele>
        <time>2026-08-26T18:22:16+00:00</time>
      </trkpt>
      <trkpt lat="49.91556" lon="6.03793">
        <ele>325</ele>
        <time>2026-08-26T18:22:19+00:00</time>
      </trkpt>
      <trkpt lat="49.91563" lon="6.03795">
        <ele>324</ele>
        <time>2026-08-26T18:22:22+00:00</time>
      </trkpt>
      <trkpt lat="49.91577" lon="6.03793">
        <ele>325</ele>
        <time>2026-08-26T18:22:25+00:00</time>
      </trkpt>
      <trkpt lat="49.91591" lon="6.03793">
        <ele>324</ele>
        <time>2026-08-26T18:22:28+00:00</time>
      </trkpt>
      <trkpt lat="49.91607" lon="6.03798">
        <ele>324</ele>
        <time>2026-08-26T18:22:31+00:00</time>
      </trkpt>
      <trkpt lat="49.91625" lon="6.03803">
        <ele>324</ele>
        <time>2026-08-26T18:22:34+00:00</time>
      </trkpt>
      <trkpt lat="49.91639" lon="6.03811">
        <ele>325</ele>
        <time>2026-08-26T18:22:37+00:00</time>
      </trkpt>
      <trkpt lat="49.91661" lon="6.03834">
        <ele>328</ele>
        <time>2026-08-26T18:22:40+00:00</time>
      </trkpt>
      <trkpt lat="49.91677" lon="6.03855">
        <ele>333</ele>
        <time>2026-08-26T18:22:43+00:00</time>
      </trkpt>
      <trkpt lat="49.9169" lon="6.03877">
        <ele>336</ele>
        <time>2026-08-26T18:22:46+00:00</time>
      </trkpt>
      <trkpt lat="49.91705" lon="6.03909">
        <ele>337</ele>
        <time>2026-08-26T18:22:49+00:00</time>
      </trkpt>
      <trkpt lat="49.91708" lon="6.03915">
        <ele>339</ele>
        <time>2026-08-26T18:22:52+00:00</time>
      </trkpt>
      <trkpt lat="49.91714" lon="6.03939">
        <ele>341</ele>
        <time>2026-08-26T18:22:55+00:00</time>
      </trkpt>
      <trkpt lat="49.91716" lon="6.03962">
        <ele>346</ele>
        <time>2026-08-26T18:22:58+00:00</time>
      </trkpt>
      <trkpt lat="49.91713" lon="6.03979">
        <ele>348</ele>
        <time>2026-08-26T18:23:01+00:00</time>
      </trkpt>
      <trkpt lat="49.91706" lon="6.04">
        <ele>355</ele>
        <time>2026-08-26T18:23:04+00:00</time>
      </trkpt>
      <trkpt lat="49.917" lon="6.04027">
        <ele>346</ele>
        <time>2026-08-26T18:23:07+00:00</time>
      </trkpt>
      <trkpt lat="49.91697" lon="6.04049">
        <ele>349</ele>
        <time>2026-08-26T18:23:10+00:00</time>
      </trkpt>
      <trkpt lat="49.91698" lon="6.0406">
        <ele>345</ele>
        <time>2026-08-26T18:23:13+00:00</time>
      </trkpt>
      <trkpt lat="49.91702" lon="6.04069">
        <ele>339</ele>
        <time>2026-08-26T18:23:16+00:00</time>
      </trkpt>
      <trkpt lat="49.91708" lon="6.04074">
        <ele>337</ele>
        <time>2026-08-26T18:23:19+00:00</time>
      </trkpt>
      <trkpt lat="49.91725" lon="6.04079">
        <ele>345</ele>
        <time>2026-08-26T18:23:22+00:00</time>
      </trkpt>
      <trkpt lat="49.91747" lon="6.04086">
        <ele>354</ele>
        <time>2026-08-26T18:23:25+00:00</time>
      </trkpt>
      <trkpt lat="49.91765" lon="6.04095">
        <ele>356</ele>
        <time>2026-08-26T18:23:28+00:00</time>
      </trkpt>
      <trkpt lat="49.91784" lon="6.04114">
        <ele>358</ele>
        <time>2026-08-26T18:23:31+00:00</time>
      </trkpt>
      <trkpt lat="49.91804" lon="6.04134">
        <ele>357</ele>
        <time>2026-08-26T18:23:34+00:00</time>
      </trkpt>
      <trkpt lat="49.9183" lon="6.04156">
        <ele>356</ele>
        <time>2026-08-26T18:23:37+00:00</time>
      </trkpt>
      <trkpt lat="49.9185" lon="6.04169">
        <ele>355</ele>
        <time>2026-08-26T18:23:40+00:00</time>
      </trkpt>
      <trkpt lat="49.91885" lon="6.04182">
        <ele>355</ele>
        <time>2026-08-26T18:23:43+00:00</time>
      </trkpt>
      <trkpt lat="49.91906" lon="6.04197">
        <ele>355</ele>
        <time>2026-08-26T18:23:46+00:00</time>
      </trkpt>
      <trkpt lat="49.91929" lon="6.04214">
        <ele>359</ele>
        <time>2026-08-26T18:23:49+00:00</time>
      </trkpt>
      <trkpt lat="49.91946" lon="6.04229">
        <ele>361</ele>
        <time>2026-08-26T18:23:52+00:00</time>
      </trkpt>
      <trkpt lat="49.9195" lon="6.04237">
        <ele>369</ele>
        <time>2026-08-26T18:23:55+00:00</time>
      </trkpt>
      <trkpt lat="49.91938" lon="6.04235">
        <ele>361</ele>
        <time>2026-08-26T18:23:58+00:00</time>
      </trkpt>
      <trkpt lat="49.91909" lon="6.04236">
        <ele>362</ele>
        <time>2026-08-26T18:24:01+00:00</time>
      </trkpt>
      <trkpt lat="49.91853" lon="6.04239">
        <ele>369</ele>
        <time>2026-08-26T18:24:04+00:00</time>
      </trkpt>
      <trkpt lat="49.9184" lon="6.04236">
        <ele>371</ele>
        <time>2026-08-26T18:24:07+00:00</time>
      </trkpt>
      <trkpt lat="49.91832" lon="6.04227">
        <ele>371</ele>
        <time>2026-08-26T18:24:10+00:00</time>
      </trkpt>
      <trkpt lat="49.91809" lon="6.0421">
        <ele>377</ele>
        <time>2026-08-26T18:24:13+00:00</time>
      </trkpt>
      <trkpt lat="49.91788" lon="6.04195">
        <ele>381</ele>
        <time>2026-08-26T18:24:16+00:00</time>
      </trkpt>
      <trkpt lat="49.91765" lon="6.04182">
        <ele>381</ele>
        <time>2026-08-26T18:24:19+00:00</time>
      </trkpt>
      <trkpt lat="49.91743" lon="6.04176">
        <ele>381</ele>
        <time>2026-08-26T18:24:22+00:00</time>
      </trkpt>
      <trkpt lat="49.91725" lon="6.04173">
        <ele>379</ele>
        <time>2026-08-26T18:24:25+00:00</time>
      </trkpt>
      <trkpt lat="49.91703" lon="6.04173">
        <ele>374</ele>
        <time>2026-08-26T18:24:28+00:00</time>
      </trkpt>
      <trkpt lat="49.9168" lon="6.04178">
        <ele>369</ele>
        <time>2026-08-26T18:24:31+00:00</time>
      </trkpt>
      <trkpt lat="49.91652" lon="6.04184">
        <ele>369</ele>
        <time>2026-08-26T18:24:34+00:00</time>
      </trkpt>
      <trkpt lat="49.91644" lon="6.04183">
        <ele>371</ele>
        <time>2026-08-26T18:24:37+00:00</time>
      </trkpt>
      <trkpt lat="49.91639" lon="6.04176">
        <ele>374</ele>
        <time>2026-08-26T18:24:40+00:00</time>
      </trkpt>
      <trkpt lat="49.91634" lon="6.04162">
        <ele>373</ele>
        <time>2026-08-26T18:24:43+00:00</time>
      </trkpt>
      <trkpt lat="49.91631" lon="6.0414">
        <ele>372</ele>
        <time>2026-08-26T18:24:46+00:00</time>
      </trkpt>
      <trkpt lat="49.91629" lon="6.04111">
        <ele>378</ele>
        <time>2026-08-26T18:24:49+00:00</time>
      </trkpt>
      <trkpt lat="49.91627" lon="6.04073">
        <ele>381</ele>
        <time>2026-08-26T18:24:52+00:00</time>
      </trkpt>
      <trkpt lat="49.91624" lon="6.04057">
        <ele>382</ele>
        <time>2026-08-26T18:24:55+00:00</time>
      </trkpt>
      <trkpt lat="49.91618" lon="6.04044">
        <ele>387</ele>
        <time>2026-08-26T18:24:58+00:00</time>
      </trkpt>
      <trkpt lat="49.91609" lon="6.04031">
        <ele>390</ele>
        <time>2026-08-26T18:25:01+00:00</time>
      </trkpt>
      <trkpt lat="49.91583" lon="6.04012">
        <ele>389</ele>
        <time>2026-08-26T18:25:04+00:00</time>
      </trkpt>
      <trkpt lat="49.91577" lon="6.04018">
        <ele>390</ele>
        <time>2026-08-26T18:25:07+00:00</time>
      </trkpt>
      <trkpt lat="49.91552" lon="6.0403">
        <ele>394</ele>
        <time>2026-08-26T18:25:10+00:00</time>
      </trkpt>
      <trkpt lat="49.91501" lon="6.04054">
        <ele>400</ele>
        <time>2026-08-26T18:25:13+00:00</time>
      </trkpt>
      <trkpt lat="49.91474" lon="6.04064">
        <ele>404</ele>
        <time>2026-08-26T18:25:16+00:00</time>
      </trkpt>
      <trkpt lat="49.91429" lon="6.0408">
        <ele>410</ele>
        <time>2026-08-26T18:25:19+00:00</time>
      </trkpt>
      <trkpt lat="49.91424" lon="6.04083">
        <ele>410</ele>
        <time>2026-08-26T18:25:22+00:00</time>
      </trkpt>
      <trkpt lat="49.91424" lon="6.04088">
        <ele>410</ele>
        <time>2026-08-26T18:25:25+00:00</time>
      </trkpt>
      <trkpt lat="49.9143" lon="6.0409">
        <ele>411</ele>
        <time>2026-08-26T18:25:28+00:00</time>
      </trkpt>
      <trkpt lat="49.91445" lon="6.04096">
        <ele>411</ele>
        <time>2026-08-26T18:25:31+00:00</time>
      </trkpt>
      <trkpt lat="49.91467" lon="6.04107">
        <ele>415</ele>
        <time>2026-08-26T18:25:34+00:00</time>
      </trkpt>
      <trkpt lat="49.91478" lon="6.04116">
        <ele>418</ele>
        <time>2026-08-26T18:25:37+00:00</time>
      </trkpt>
      <trkpt lat="49.91499" lon="6.04142">
        <ele>427</ele>
        <time>2026-08-26T18:25:40+00:00</time>
      </trkpt>
      <trkpt lat="49.91508" lon="6.04172">
        <ele>427</ele>
        <time>2026-08-26T18:25:43+00:00</time>
      </trkpt>
      <trkpt lat="49.91511" lon="6.0421">
        <ele>427</ele>
        <time>2026-08-26T18:25:46+00:00</time>
      </trkpt>
      <trkpt lat="49.91506" lon="6.04228">
        <ele>427</ele>
        <time>2026-08-26T18:25:49+00:00</time>
      </trkpt>
      <trkpt lat="49.91494" lon="6.04251">
        <ele>431</ele>
        <time>2026-08-26T18:25:52+00:00</time>
      </trkpt>
      <trkpt lat="49.91486" lon="6.04256">
        <ele>433</ele>
        <time>2026-08-26T18:25:55+00:00</time>
      </trkpt>
      <trkpt lat="49.91478" lon="6.04264">
        <ele>436</ele>
        <time>2026-08-26T18:25:58+00:00</time>
      </trkpt>
      <trkpt lat="49.91474" lon="6.0428">
        <ele>437</ele>
        <time>2026-08-26T18:26:01+00:00</time>
      </trkpt>
      <trkpt lat="49.91466" lon="6.04303">
        <ele>439</ele>
        <time>2026-08-26T18:26:04+00:00</time>
      </trkpt>
      <trkpt lat="49.91458" lon="6.04327">
        <ele>442</ele>
        <time>2026-08-26T18:26:07+00:00</time>
      </trkpt>
      <trkpt lat="49.91458" lon="6.04345">
        <ele>443</ele>
        <time>2026-08-26T18:26:10+00:00</time>
      </trkpt>
      <trkpt lat="49.91462" lon="6.04381">
        <ele>444</ele>
        <time>2026-08-26T18:26:13+00:00</time>
      </trkpt>
      <trkpt lat="49.91469" lon="6.04427">
        <ele>446</ele>
        <time>2026-08-26T18:26:16+00:00</time>
      </trkpt>
      <trkpt lat="49.91477" lon="6.04474">
        <ele>446</ele>
        <time>2026-08-26T18:26:19+00:00</time>
      </trkpt>
      <trkpt lat="49.91488" lon="6.04541">
        <ele>450</ele>
        <time>2026-08-26T18:26:22+00:00</time>
      </trkpt>
      <trkpt lat="49.91493" lon="6.04598">
        <ele>452</ele>
        <time>2026-08-26T18:26:25+00:00</time>
      </trkpt>
      <trkpt lat="49.91494" lon="6.04626">
        <ele>453</ele>
        <time>2026-08-26T18:26:28+00:00</time>
      </trkpt>
      <trkpt lat="49.9149" lon="6.04664">
        <ele>456</ele>
        <time>2026-08-26T18:26:31+00:00</time>
      </trkpt>
      <trkpt lat="49.91482" lon="6.04702">
        <ele>457</ele>
        <time>2026-08-26T18:26:34+00:00</time>
      </trkpt>
      <trkpt lat="49.91471" lon="6.04758">
        <ele>459</ele>
        <time>2026-08-26T18:26:37+00:00</time>
      </trkpt>
      <trkpt lat="49.91464" lon="6.04786">
        <ele>460</ele>
        <time>2026-08-26T18:26:40+00:00</time>
      </trkpt>
      <trkpt lat="49.9145" lon="6.04824">
        <ele>461</ele>
        <time>2026-08-26T18:26:43+00:00</time>
      </trkpt>
      <trkpt lat="49.91437" lon="6.04855">
        <ele>461</ele>
        <time>2026-08-26T18:26:46+00:00</time>
      </trkpt>
      <trkpt lat="49.91422" lon="6.04891">
        <ele>462</ele>
        <time>2026-08-26T18:26:49+00:00</time>
      </trkpt>
      <trkpt lat="49.91398" lon="6.04942">
        <ele>465</ele>
        <time>2026-08-26T18:26:52+00:00</time>
      </trkpt>
      <trkpt lat="49.91382" lon="6.04973">
        <ele>465</ele>
        <time>2026-08-26T18:26:55+00:00</time>
      </trkpt>
      <trkpt lat="49.91359" lon="6.05017">
        <ele>468</ele>
        <time>2026-08-26T18:26:58+00:00</time>
      </trkpt>
      <trkpt lat="49.91345" lon="6.05057">
        <ele>468</ele>
        <time>2026-08-26T18:27:01+00:00</time>
      </trkpt>
      <trkpt lat="49.91339" lon="6.05085">
        <ele>469</ele>
        <time>2026-08-26T18:27:04+00:00</time>
      </trkpt>
      <trkpt lat="49.91332" lon="6.05147">
        <ele>469</ele>
        <time>2026-08-26T18:27:07+00:00</time>
      </trkpt>
      <trkpt lat="49.91331" lon="6.05167">
        <ele>470</ele>
        <time>2026-08-26T18:27:10+00:00</time>
      </trkpt>
      <trkpt lat="49.9132" lon="6.052">
        <ele>472</ele>
        <time>2026-08-26T18:27:13+00:00</time>
      </trkpt>
      <trkpt lat="49.913" lon="6.05261">
        <ele>476</ele>
        <time>2026-08-26T18:27:16+00:00</time>
      </trkpt>
      <trkpt lat="49.91301" lon="6.05244">
        <ele>476</ele>
        <time>2026-08-26T18:27:19+00:00</time>
      </trkpt>
      <trkpt lat="49.91304" lon="6.05198">
        <ele>477</ele>
        <time>2026-08-26T18:27:22+00:00</time>
      </trkpt>
      <trkpt lat="49.91305" lon="6.0514">
        <ele>477</ele>
        <time>2026-08-26T18:27:25+00:00</time>
      </trkpt>
      <trkpt lat="49.91304" lon="6.05102">
        <ele>477</ele>
        <time>2026-08-26T18:27:28+00:00</time>
      </trkpt>
      <trkpt lat="49.913" lon="6.05065">
        <ele>477</ele>
        <time>2026-08-26T18:27:31+00:00</time>
      </trkpt>
      <trkpt lat="49.91296" lon="6.05018">
        <ele>478</ele>
        <time>2026-08-26T18:27:34+00:00</time>
      </trkpt>
      <trkpt lat="49.91285" lon="6.04957">
        <ele>479</ele>
        <time>2026-08-26T18:27:37+00:00</time>
      </trkpt>
      <trkpt lat="49.91279" lon="6.04944">
        <ele>480</ele>
        <time>2026-08-26T18:27:40+00:00</time>
      </trkpt>
      <trkpt lat="49.91271" lon="6.04937">
        <ele>480</ele>
        <time>2026-08-26T18:27:43+00:00</time>
      </trkpt>
      <trkpt lat="49.91266" lon="6.04937">
        <ele>480</ele>
        <time>2026-08-26T18:27:46+00:00</time>
      </trkpt>
      <trkpt lat="49.91263" lon="6.04938">
        <ele>480</ele>
        <time>2026-08-26T18:27:49+00:00</time>
      </trkpt>
      <trkpt lat="49.91255" lon="6.04943">
        <ele>481</ele>
        <time>2026-08-26T18:27:52+00:00</time>
      </trkpt>
      <trkpt lat="49.91241" lon="6.04955">
        <ele>482</ele>
        <time>2026-08-26T18:27:55+00:00</time>
      </trkpt>
      <trkpt lat="49.91223" lon="6.0497">
        <ele>484</ele>
        <time>2026-08-26T18:27:58+00:00</time>
      </trkpt>
      <trkpt lat="49.91203" lon="6.04998">
        <ele>487</ele>
        <time>2026-08-26T18:28:01+00:00</time>
      </trkpt>
      <trkpt lat="49.91175" lon="6.05042">
        <ele>492</ele>
        <time>2026-08-26T18:28:04+00:00</time>
      </trkpt>
      <trkpt lat="49.91156" lon="6.05068">
        <ele>494</ele>
        <time>2026-08-26T18:28:07+00:00</time>
      </trkpt>
      <trkpt lat="49.91127" lon="6.05107">
        <ele>498</ele>
        <time>2026-08-26T18:28:10+00:00</time>
      </trkpt>
      <trkpt lat="49.91105" lon="6.05149">
        <ele>502</ele>
        <time>2026-08-26T18:28:13+00:00</time>
      </trkpt>
      <trkpt lat="49.9109" lon="6.05184">
        <ele>504</ele>
        <time>2026-08-26T18:28:16+00:00</time>
      </trkpt>
      <trkpt lat="49.91067" lon="6.05239">
        <ele>505</ele>
        <time>2026-08-26T18:28:19+00:00</time>
      </trkpt>
      <trkpt lat="49.9106" lon="6.05255">
        <ele>505</ele>
        <time>2026-08-26T18:28:22+00:00</time>
      </trkpt>
      <trkpt lat="49.91055" lon="6.05279">
        <ele>505</ele>
        <time>2026-08-26T18:28:25+00:00</time>
      </trkpt>
      <trkpt lat="49.91055" lon="6.05288">
        <ele>505</ele>
        <time>2026-08-26T18:28:28+00:00</time>
      </trkpt>
      <trkpt lat="49.9106" lon="6.05346">
        <ele>504</ele>
        <time>2026-08-26T18:28:31+00:00</time>
      </trkpt>
      <trkpt lat="49.91066" lon="6.05404">
        <ele>503</ele>
        <time>2026-08-26T18:28:34+00:00</time>
      </trkpt>
      <trkpt lat="49.91071" lon="6.05462">
        <ele>502</ele>
        <time>2026-08-26T18:28:37+00:00</time>
      </trkpt>
      <trkpt lat="49.91077" lon="6.0552">
        <ele>502</ele>
        <time>2026-08-26T18:28:40+00:00</time>
      </trkpt>
      <trkpt lat="49.91082" lon="6.05577">
        <ele>501</ele>
        <time>2026-08-26T18:28:43+00:00</time>
      </trkpt>
      <trkpt lat="49.91088" lon="6.05635">
        <ele>501</ele>
        <time>2026-08-26T18:28:46+00:00</time>
      </trkpt>
      <trkpt lat="49.91093" lon="6.05693">
        <ele>501</ele>
        <time>2026-08-26T18:28:49+00:00</time>
      </trkpt>
      <trkpt lat="49.91102" lon="6.05787">
        <ele>500</ele>
        <time>2026-08-26T18:28:52+00:00</time>
      </trkpt>
      <trkpt lat="49.91104" lon="6.05799">
        <ele>500</ele>
        <time>2026-08-26T18:28:55+00:00</time>
      </trkpt>
      <trkpt lat="49.91105" lon="6.05806">
        <ele>500</ele>
        <time>2026-08-26T18:28:58+00:00</time>
      </trkpt>
      <trkpt lat="49.91129" lon="6.05793">
        <ele>499</ele>
        <time>2026-08-26T18:29:01+00:00</time>
      </trkpt>
      <trkpt lat="49.91139" lon="6.05836">
        <ele>499</ele>
        <time>2026-08-26T18:29:04+00:00</time>
      </trkpt>
      <trkpt lat="49.91128" lon="6.05874">
        <ele>497</ele>
        <time>2026-08-26T18:29:07+00:00</time>
      </trkpt>
      <trkpt lat="49.9111" lon="6.05937">
        <ele>496</ele>
        <time>2026-08-26T18:29:10+00:00</time>
      </trkpt>
      <trkpt lat="49.91104" lon="6.05972">
        <ele>496</ele>
        <time>2026-08-26T18:29:13+00:00</time>
      </trkpt>
      <trkpt lat="49.91104" lon="6.05979">
        <ele>496</ele>
        <time>2026-08-26T18:29:16+00:00</time>
      </trkpt>
      <trkpt lat="49.91104" lon="6.05972">
        <ele>496</ele>
        <time>2026-08-26T18:29:19+00:00</time>
      </trkpt>
      <trkpt lat="49.91131" lon="6.05969">
        <ele>495</ele>
        <time>2026-08-26T18:29:22+00:00</time>
      </trkpt>
      <trkpt lat="49.91158" lon="6.05966">
        <ele>495</ele>
        <time>2026-08-26T18:29:25+00:00</time>
      </trkpt>
      <trkpt lat="49.91192" lon="6.05962">
        <ele>493</ele>
        <time>2026-08-26T18:29:28+00:00</time>
      </trkpt>
      <trkpt lat="49.91211" lon="6.05956">
        <ele>490</ele>
        <time>2026-08-26T18:29:31+00:00</time>
      </trkpt>
      <trkpt lat="49.91229" lon="6.05939">
        <ele>488</ele>
        <time>2026-08-26T18:29:34+00:00</time>
      </trkpt>
      <trkpt lat="49.91255" lon="6.05914">
        <ele>483</ele>
        <time>2026-08-26T18:29:37+00:00</time>
      </trkpt>
      <trkpt lat="49.91282" lon="6.05889">
        <ele>481</ele>
        <time>2026-08-26T18:29:40+00:00</time>
      </trkpt>
      <trkpt lat="49.91321" lon="6.05853">
        <ele>479</ele>
        <time>2026-08-26T18:29:43+00:00</time>
      </trkpt>
      <trkpt lat="49.91343" lon="6.05844">
        <ele>476</ele>
        <time>2026-08-26T18:29:46+00:00</time>
      </trkpt>
      <trkpt lat="49.9136" lon="6.05842">
        <ele>467</ele>
        <time>2026-08-26T18:29:49+00:00</time>
      </trkpt>
      <trkpt lat="49.91375" lon="6.05842">
        <ele>465</ele>
        <time>2026-08-26T18:29:52+00:00</time>
      </trkpt>
      <trkpt lat="49.91393" lon="6.05843">
        <ele>461</ele>
        <time>2026-08-26T18:29:55+00:00</time>
      </trkpt>
      <trkpt lat="49.91397" lon="6.05844">
        <ele>461</ele>
        <time>2026-08-26T18:29:58+00:00</time>
      </trkpt>
      <trkpt lat="49.91406" lon="6.05838">
        <ele>455</ele>
        <time>2026-08-26T18:30:01+00:00</time>
      </trkpt>
      <trkpt lat="49.91418" lon="6.0582">
        <ele>453</ele>
        <time>2026-08-26T18:30:04+00:00</time>
      </trkpt>
      <trkpt lat="49.91428" lon="6.05798">
        <ele>452</ele>
        <time>2026-08-26T18:30:07+00:00</time>
      </trkpt>
      <trkpt lat="49.91434" lon="6.05779">
        <ele>449</ele>
        <time>2026-08-26T18:30:10+00:00</time>
      </trkpt>
      <trkpt lat="49.9144" lon="6.0576">
        <ele>445</ele>
        <time>2026-08-26T18:30:13+00:00</time>
      </trkpt>
      <trkpt lat="49.91447" lon="6.05724">
        <ele>440</ele>
        <time>2026-08-26T18:30:16+00:00</time>
      </trkpt>
      <trkpt lat="49.9145" lon="6.05693">
        <ele>439</ele>
        <time>2026-08-26T18:30:19+00:00</time>
      </trkpt>
      <trkpt lat="49.91451" lon="6.05659">
        <ele>439</ele>
        <time>2026-08-26T18:30:22+00:00</time>
      </trkpt>
      <trkpt lat="49.91455" lon="6.05636">
        <ele>436</ele>
        <time>2026-08-26T18:30:25+00:00</time>
      </trkpt>
      <trkpt lat="49.91461" lon="6.05635">
        <ele>434</ele>
        <time>2026-08-26T18:30:28+00:00</time>
      </trkpt>
      <trkpt lat="49.9147" lon="6.05642">
        <ele>432</ele>
        <time>2026-08-26T18:30:31+00:00</time>
      </trkpt>
      <trkpt lat="49.91478" lon="6.05658">
        <ele>434</ele>
        <time>2026-08-26T18:30:34+00:00</time>
      </trkpt>
      <trkpt lat="49.91487" lon="6.05681">
        <ele>430</ele>
        <time>2026-08-26T18:30:37+00:00</time>
      </trkpt>
      <trkpt lat="49.91496" lon="6.05706">
        <ele>426</ele>
        <time>2026-08-26T18:30:40+00:00</time>
      </trkpt>
      <trkpt lat="49.91509" lon="6.05742">
        <ele>418</ele>
        <time>2026-08-26T18:30:43+00:00</time>
      </trkpt>
      <trkpt lat="49.91524" lon="6.05772">
        <ele>410</ele>
        <time>2026-08-26T18:30:46+00:00</time>
      </trkpt>
      <trkpt lat="49.91542" lon="6.0581">
        <ele>406</ele>
        <time>2026-08-26T18:30:49+00:00</time>
      </trkpt>
      <trkpt lat="49.91556" lon="6.05843">
        <ele>405</ele>
        <time>2026-08-26T18:30:52+00:00</time>
      </trkpt>
      <trkpt lat="49.91575" lon="6.05889">
        <ele>402</ele>
        <time>2026-08-26T18:30:55+00:00</time>
      </trkpt>
      <trkpt lat="49.91579" lon="6.05892">
        <ele>399</ele>
        <time>2026-08-26T18:30:58+00:00</time>
      </trkpt>
      <trkpt lat="49.91583" lon="6.05892">
        <ele>397</ele>
        <time>2026-08-26T18:31:01+00:00</time>
      </trkpt>
      <trkpt lat="49.91586" lon="6.05887">
        <ele>398</ele>
        <time>2026-08-26T18:31:04+00:00</time>
      </trkpt>
      <trkpt lat="49.91597" lon="6.05853">
        <ele>399</ele>
        <time>2026-08-26T18:31:07+00:00</time>
      </trkpt>
      <trkpt lat="49.91603" lon="6.05792">
        <ele>396</ele>
        <time>2026-08-26T18:31:10+00:00</time>
      </trkpt>
      <trkpt lat="49.91608" lon="6.05758">
        <ele>395</ele>
        <time>2026-08-26T18:31:13+00:00</time>
      </trkpt>
      <trkpt lat="49.91611" lon="6.05748">
        <ele>389</ele>
        <time>2026-08-26T18:31:16+00:00</time>
      </trkpt>
      <trkpt lat="49.91623" lon="6.0578">
        <ele>381</ele>
        <time>2026-08-26T18:31:19+00:00</time>
      </trkpt>
      <trkpt lat="49.91641" lon="6.05829">
        <ele>372</ele>
        <time>2026-08-26T18:31:22+00:00</time>
      </trkpt>
      <trkpt lat="49.91656" lon="6.05882">
        <ele>373</ele>
        <time>2026-08-26T18:31:25+00:00</time>
      </trkpt>
      <trkpt lat="49.91656" lon="6.05892">
        <ele>370</ele>
        <time>2026-08-26T18:31:28+00:00</time>
      </trkpt>
      <trkpt lat="49.91656" lon="6.05894">
        <ele>370</ele>
        <time>2026-08-26T18:31:31+00:00</time>
      </trkpt>
      <trkpt lat="49.91653" lon="6.05903">
        <ele>371</ele>
        <time>2026-08-26T18:31:34+00:00</time>
      </trkpt>
      <trkpt lat="49.91643" lon="6.05919">
        <ele>375</ele>
        <time>2026-08-26T18:31:37+00:00</time>
      </trkpt>
      <trkpt lat="49.91632" lon="6.05928">
        <ele>378</ele>
        <time>2026-08-26T18:31:40+00:00</time>
      </trkpt>
      <trkpt lat="49.9162" lon="6.05943">
        <ele>379</ele>
        <time>2026-08-26T18:31:43+00:00</time>
      </trkpt>
      <trkpt lat="49.91593" lon="6.05965">
        <ele>381</ele>
        <time>2026-08-26T18:31:46+00:00</time>
      </trkpt>
      <trkpt lat="49.91579" lon="6.05984">
        <ele>377</ele>
        <time>2026-08-26T18:31:49+00:00</time>
      </trkpt>
      <trkpt lat="49.91575" lon="6.05991">
        <ele>382</ele>
        <time>2026-08-26T18:31:52+00:00</time>
      </trkpt>
      <trkpt lat="49.91575" lon="6.05997">
        <ele>382</ele>
        <time>2026-08-26T18:31:55+00:00</time>
      </trkpt>
      <trkpt lat="49.91577" lon="6.06003">
        <ele>381</ele>
        <time>2026-08-26T18:31:58+00:00</time>
      </trkpt>
      <trkpt lat="49.91594" lon="6.06013">
        <ele>376</ele>
        <time>2026-08-26T18:32:01+00:00</time>
      </trkpt>
      <trkpt lat="49.91617" lon="6.06027">
        <ele>376</ele>
        <time>2026-08-26T18:32:04+00:00</time>
      </trkpt>
      <trkpt lat="49.91644" lon="6.06038">
        <ele>370</ele>
        <time>2026-08-26T18:32:07+00:00</time>
      </trkpt>
      <trkpt lat="49.91671" lon="6.06046">
        <ele>368</ele>
        <time>2026-08-26T18:32:10+00:00</time>
      </trkpt>
      <trkpt lat="49.9172" lon="6.0606">
        <ele>365</ele>
        <time>2026-08-26T18:32:13+00:00</time>
      </trkpt>
      <trkpt lat="49.91745" lon="6.0607">
        <ele>363</ele>
        <time>2026-08-26T18:32:16+00:00</time>
      </trkpt>
      <trkpt lat="49.91758" lon="6.06078">
        <ele>361</ele>
        <time>2026-08-26T18:32:19+00:00</time>
      </trkpt>
      <trkpt lat="49.91761" lon="6.06082">
        <ele>363</ele>
        <time>2026-08-26T18:32:22+00:00</time>
      </trkpt>
      <trkpt lat="49.91771" lon="6.06093">
        <ele>361</ele>
        <time>2026-08-26T18:32:25+00:00</time>
      </trkpt>
      <trkpt lat="49.91778" lon="6.0611">
        <ele>364</ele>
        <time>2026-08-26T18:32:28+00:00</time>
      </trkpt>
      <trkpt lat="49.91794" lon="6.06171">
        <ele>365</ele>
        <time>2026-08-26T18:32:31+00:00</time>
      </trkpt>
      <trkpt lat="49.91809" lon="6.06218">
        <ele>361</ele>
        <time>2026-08-26T18:32:34+00:00</time>
      </trkpt>
      <trkpt lat="49.91832" lon="6.06266">
        <ele>358</ele>
        <time>2026-08-26T18:32:37+00:00</time>
      </trkpt>
      <trkpt lat="49.9186" lon="6.06313">
        <ele>356</ele>
        <time>2026-08-26T18:32:40+00:00</time>
      </trkpt>
      <trkpt lat="49.91878" lon="6.06339">
        <ele>355</ele>
        <time>2026-08-26T18:32:43+00:00</time>
      </trkpt>
      <trkpt lat="49.91903" lon="6.06375">
        <ele>342</ele>
        <time>2026-08-26T18:32:46+00:00</time>
      </trkpt>
      <trkpt lat="49.91913" lon="6.06392">
        <ele>337</ele>
        <time>2026-08-26T18:32:49+00:00</time>
      </trkpt>
      <trkpt lat="49.91917" lon="6.06402">
        <ele>341</ele>
        <time>2026-08-26T18:32:52+00:00</time>
      </trkpt>
      <trkpt lat="49.91921" lon="6.06419">
        <ele>334</ele>
        <time>2026-08-26T18:32:55+00:00</time>
      </trkpt>
      <trkpt lat="49.9192" lon="6.06435">
        <ele>340</ele>
        <time>2026-08-26T18:32:58+00:00</time>
      </trkpt>
      <trkpt lat="49.91916" lon="6.06475">
        <ele>338</ele>
        <time>2026-08-26T18:33:01+00:00</time>
      </trkpt>
      <trkpt lat="49.91911" lon="6.06533">
        <ele>344</ele>
        <time>2026-08-26T18:33:04+00:00</time>
      </trkpt>
      <trkpt lat="49.91908" lon="6.06543">
        <ele>351</ele>
        <time>2026-08-26T18:33:07+00:00</time>
      </trkpt>
      <trkpt lat="49.91904" lon="6.06541">
        <ele>351</ele>
        <time>2026-08-26T18:33:10+00:00</time>
      </trkpt>
      <trkpt lat="49.91902" lon="6.06556">
        <ele>351</ele>
        <time>2026-08-26T18:33:13+00:00</time>
      </trkpt>
      <trkpt lat="49.91899" lon="6.06618">
        <ele>363</ele>
        <time>2026-08-26T18:33:16+00:00</time>
      </trkpt>
      <trkpt lat="49.91899" lon="6.06652">
        <ele>363</ele>
        <time>2026-08-26T18:33:19+00:00</time>
      </trkpt>
      <trkpt lat="49.91903" lon="6.06702">
        <ele>363</ele>
        <time>2026-08-26T18:33:22+00:00</time>
      </trkpt>
      <trkpt lat="49.91905" lon="6.06717">
        <ele>364</ele>
        <time>2026-08-26T18:33:25+00:00</time>
      </trkpt>
      <trkpt lat="49.91917" lon="6.06757">
        <ele>349</ele>
        <time>2026-08-26T18:33:28+00:00</time>
      </trkpt>
      <trkpt lat="49.91923" lon="6.06763">
        <ele>340</ele>
        <time>2026-08-26T18:33:31+00:00</time>
      </trkpt>
      <trkpt lat="49.91925" lon="6.06769">
        <ele>340</ele>
        <time>2026-08-26T18:33:34+00:00</time>
      </trkpt>
      <trkpt lat="49.91933" lon="6.06792">
        <ele>334</ele>
        <time>2026-08-26T18:33:37+00:00</time>
      </trkpt>
      <trkpt lat="49.91941" lon="6.06781">
        <ele>329</ele>
        <time>2026-08-26T18:33:40+00:00</time>
      </trkpt>
      <trkpt lat="49.91945" lon="6.06779">
        <ele>327</ele>
        <time>2026-08-26T18:33:43+00:00</time>
      </trkpt>
      <trkpt lat="49.91948" lon="6.06808">
        <ele>331</ele>
        <time>2026-08-26T18:33:46+00:00</time>
      </trkpt>
      <trkpt lat="49.91943" lon="6.06819">
        <ele>325</ele>
        <time>2026-08-26T18:33:49+00:00</time>
      </trkpt>
      <trkpt lat="49.91934" lon="6.06816">
        <ele>332</ele>
        <time>2026-08-26T18:33:52+00:00</time>
      </trkpt>
      <trkpt lat="49.91927" lon="6.06823">
        <ele>330</ele>
        <time>2026-08-26T18:33:55+00:00</time>
      </trkpt>
      <trkpt lat="49.9192" lon="6.06835">
        <ele>332</ele>
        <time>2026-08-26T18:33:58+00:00</time>
      </trkpt>
      <trkpt lat="49.91917" lon="6.06833">
        <ele>334</ele>
        <time>2026-08-26T18:34:01+00:00</time>
      </trkpt>
      <trkpt lat="49.91915" lon="6.06835">
        <ele>334</ele>
        <time>2026-08-26T18:34:04+00:00</time>
      </trkpt>
      <trkpt lat="49.91912" lon="6.0684">
        <ele>334</ele>
        <time>2026-08-26T18:34:07+00:00</time>
      </trkpt>
      <trkpt lat="49.91901" lon="6.0685">
        <ele>330</ele>
        <time>2026-08-26T18:34:10+00:00</time>
      </trkpt>
      <trkpt lat="49.91897" lon="6.0685">
        <ele>337</ele>
        <time>2026-08-26T18:34:13+00:00</time>
      </trkpt>
      <trkpt lat="49.9189" lon="6.06863">
        <ele>334</ele>
        <time>2026-08-26T18:34:16+00:00</time>
      </trkpt>
      <trkpt lat="49.91886" lon="6.06881">
        <ele>329</ele>
        <time>2026-08-26T18:34:19+00:00</time>
      </trkpt>
      <trkpt lat="49.91878" lon="6.0689">
        <ele>332</ele>
        <time>2026-08-26T18:34:22+00:00</time>
      </trkpt>
      <trkpt lat="49.91875" lon="6.06889">
        <ele>332</ele>
        <time>2026-08-26T18:34:25+00:00</time>
      </trkpt>
      <trkpt lat="49.91869" lon="6.06897">
        <ele>329</ele>
        <time>2026-08-26T18:34:28+00:00</time>
      </trkpt>
      <trkpt lat="49.91858" lon="6.06896">
        <ele>336</ele>
        <time>2026-08-26T18:34:31+00:00</time>
      </trkpt>
      <trkpt lat="49.91842" lon="6.06905">
        <ele>331</ele>
        <time>2026-08-26T18:34:34+00:00</time>
      </trkpt>
      <trkpt lat="49.9183" lon="6.06917">
        <ele>345</ele>
        <time>2026-08-26T18:34:37+00:00</time>
      </trkpt>
      <trkpt lat="49.9183" lon="6.06918">
        <ele>345</ele>
        <time>2026-08-26T18:34:40+00:00</time>
      </trkpt>
      <trkpt lat="49.9182" lon="6.06933">
        <ele>334</ele>
        <time>2026-08-26T18:34:43+00:00</time>
      </trkpt>
      <trkpt lat="49.91815" lon="6.06931">
        <ele>340</ele>
        <time>2026-08-26T18:34:46+00:00</time>
      </trkpt>
      <trkpt lat="49.91808" lon="6.06941">
        <ele>342</ele>
        <time>2026-08-26T18:34:49+00:00</time>
      </trkpt>
      <trkpt lat="49.918" lon="6.0694">
        <ele>342</ele>
        <time>2026-08-26T18:34:52+00:00</time>
      </trkpt>
      <trkpt lat="49.91778" lon="6.06965">
        <ele>345</ele>
        <time>2026-08-26T18:34:55+00:00</time>
      </trkpt>
      <trkpt lat="49.91775" lon="6.06974">
        <ele>358</ele>
        <time>2026-08-26T18:34:58+00:00</time>
      </trkpt>
      <trkpt lat="49.91777" lon="6.06985">
        <ele>357</ele>
        <time>2026-08-26T18:35:01+00:00</time>
      </trkpt>
      <trkpt lat="49.91782" lon="6.06999">
        <ele>348</ele>
        <time>2026-08-26T18:35:04+00:00</time>
      </trkpt>
      <trkpt lat="49.91782" lon="6.07004">
        <ele>345</ele>
        <time>2026-08-26T18:35:07+00:00</time>
      </trkpt>
      <trkpt lat="49.91778" lon="6.0701">
        <ele>349</ele>
        <time>2026-08-26T18:35:10+00:00</time>
      </trkpt>
      <trkpt lat="49.9177" lon="6.0703">
        <ele>348</ele>
        <time>2026-08-26T18:35:13+00:00</time>
      </trkpt>
      <trkpt lat="49.91761" lon="6.07032">
        <ele>346</ele>
        <time>2026-08-26T18:35:16+00:00</time>
      </trkpt>
      <trkpt lat="49.91754" lon="6.07044">
        <ele>348</ele>
        <time>2026-08-26T18:35:19+00:00</time>
      </trkpt>
      <trkpt lat="49.91753" lon="6.07059">
        <ele>345</ele>
        <time>2026-08-26T18:35:22+00:00</time>
      </trkpt>
      <trkpt lat="49.91751" lon="6.07067">
        <ele>342</ele>
        <time>2026-08-26T18:35:25+00:00</time>
      </trkpt>
      <trkpt lat="49.91748" lon="6.07069">
        <ele>348</ele>
        <time>2026-08-26T18:35:28+00:00</time>
      </trkpt>
      <trkpt lat="49.91738" lon="6.07085">
        <ele>347</ele>
        <time>2026-08-26T18:35:31+00:00</time>
      </trkpt>
      <trkpt lat="49.91734" lon="6.07095">
        <ele>344</ele>
        <time>2026-08-26T18:35:34+00:00</time>
      </trkpt>
      <trkpt lat="49.91727" lon="6.07101">
        <ele>343</ele>
        <time>2026-08-26T18:35:37+00:00</time>
      </trkpt>
      <trkpt lat="49.91722" lon="6.0711">
        <ele>341</ele>
        <time>2026-08-26T18:35:40+00:00</time>
      </trkpt>
      <trkpt lat="49.91718" lon="6.0712">
        <ele>336</ele>
        <time>2026-08-26T18:35:43+00:00</time>
      </trkpt>
      <trkpt lat="49.91717" lon="6.07129">
        <ele>336</ele>
        <time>2026-08-26T18:35:46+00:00</time>
      </trkpt>
      <trkpt lat="49.91715" lon="6.07133">
        <ele>335</ele>
        <time>2026-08-26T18:35:49+00:00</time>
      </trkpt>
      <trkpt lat="49.91712" lon="6.07134">
        <ele>335</ele>
        <time>2026-08-26T18:35:52+00:00</time>
      </trkpt>
      <trkpt lat="49.91694" lon="6.07134">
        <ele>335</ele>
        <time>2026-08-26T18:35:55+00:00</time>
      </trkpt>
      <trkpt lat="49.91689" lon="6.07132">
        <ele>326</ele>
        <time>2026-08-26T18:35:58+00:00</time>
      </trkpt>
      <trkpt lat="49.91681" lon="6.07137">
        <ele>326</ele>
        <time>2026-08-26T18:36:01+00:00</time>
      </trkpt>
      <trkpt lat="49.9167" lon="6.07171">
        <ele>334</ele>
        <time>2026-08-26T18:36:04+00:00</time>
      </trkpt>
      <trkpt lat="49.91649" lon="6.07226">
        <ele>329</ele>
        <time>2026-08-26T18:36:07+00:00</time>
      </trkpt>
      <trkpt lat="49.9164" lon="6.07258">
        <ele>327</ele>
        <time>2026-08-26T18:36:10+00:00</time>
      </trkpt>
      <trkpt lat="49.91626" lon="6.07289">
        <ele>325</ele>
        <time>2026-08-26T18:36:13+00:00</time>
      </trkpt>
      <trkpt lat="49.91613" lon="6.07323">
        <ele>320</ele>
        <time>2026-08-26T18:36:16+00:00</time>
      </trkpt>
      <trkpt lat="49.91596" lon="6.07369">
        <ele>316</ele>
        <time>2026-08-26T18:36:19+00:00</time>
      </trkpt>
      <trkpt lat="49.91574" lon="6.07382">
        <ele>315</ele>
        <time>2026-08-26T18:36:22+00:00</time>
      </trkpt>
      <trkpt lat="49.91549" lon="6.07397">
        <ele>315</ele>
        <time>2026-08-26T18:36:25+00:00</time>
      </trkpt>
      <trkpt lat="49.91525" lon="6.07409">
        <ele>314</ele>
        <time>2026-08-26T18:36:28+00:00</time>
      </trkpt>
      <trkpt lat="49.91494" lon="6.07424">
        <ele>313</ele>
        <time>2026-08-26T18:36:31+00:00</time>
      </trkpt>
      <trkpt lat="49.91467" lon="6.07431">
        <ele>311</ele>
        <time>2026-08-26T18:36:34+00:00</time>
      </trkpt>
      <trkpt lat="49.91419" lon="6.07443">
        <ele>311</ele>
        <time>2026-08-26T18:36:37+00:00</time>
      </trkpt>
      <trkpt lat="49.91395" lon="6.07446">
        <ele>312</ele>
        <time>2026-08-26T18:36:40+00:00</time>
      </trkpt>
      <trkpt lat="49.91367" lon="6.07449">
        <ele>314</ele>
        <time>2026-08-26T18:36:43+00:00</time>
      </trkpt>
      <trkpt lat="49.91357" lon="6.07445">
        <ele>313</ele>
        <time>2026-08-26T18:36:46+00:00</time>
      </trkpt>
      <trkpt lat="49.91351" lon="6.07438">
        <ele>316</ele>
        <time>2026-08-26T18:36:49+00:00</time>
      </trkpt>
      <trkpt lat="49.91351" lon="6.07438">
        <ele>316</ele>
        <time>2026-08-26T18:36:52+00:00</time>
      </trkpt>
      <trkpt lat="49.91342" lon="6.07407">
        <ele>317</ele>
        <time>2026-08-26T18:36:55+00:00</time>
      </trkpt>
      <trkpt lat="49.91329" lon="6.07352">
        <ele>319</ele>
        <time>2026-08-26T18:36:58+00:00</time>
      </trkpt>
      <trkpt lat="49.91321" lon="6.07331">
        <ele>323</ele>
        <time>2026-08-26T18:37:01+00:00</time>
      </trkpt>
      <trkpt lat="49.91315" lon="6.07308">
        <ele>324</ele>
        <time>2026-08-26T18:37:04+00:00</time>
      </trkpt>
      <trkpt lat="49.91307" lon="6.07281">
        <ele>325</ele>
        <time>2026-08-26T18:37:07+00:00</time>
      </trkpt>
      <trkpt lat="49.91298" lon="6.07256">
        <ele>325</ele>
        <time>2026-08-26T18:37:10+00:00</time>
      </trkpt>
      <trkpt lat="49.91294" lon="6.07253">
        <ele>328</ele>
        <time>2026-08-26T18:37:13+00:00</time>
      </trkpt>
      <trkpt lat="49.91291" lon="6.07255">
        <ele>328</ele>
        <time>2026-08-26T18:37:16+00:00</time>
      </trkpt>
      <trkpt lat="49.91288" lon="6.07262">
        <ele>323</ele>
        <time>2026-08-26T18:37:19+00:00</time>
      </trkpt>
      <trkpt lat="49.91279" lon="6.07302">
        <ele>325</ele>
        <time>2026-08-26T18:37:22+00:00</time>
      </trkpt>
      <trkpt lat="49.91269" lon="6.07334">
        <ele>327</ele>
        <time>2026-08-26T18:37:25+00:00</time>
      </trkpt>
      <trkpt lat="49.9126" lon="6.07347">
        <ele>326</ele>
        <time>2026-08-26T18:37:28+00:00</time>
      </trkpt>
      <trkpt lat="49.91247" lon="6.07362">
        <ele>327</ele>
        <time>2026-08-26T18:37:31+00:00</time>
      </trkpt>
      <trkpt lat="49.91233" lon="6.07378">
        <ele>329</ele>
        <time>2026-08-26T18:37:34+00:00</time>
      </trkpt>
      <trkpt lat="49.91209" lon="6.07389">
        <ele>336</ele>
        <time>2026-08-26T18:37:37+00:00</time>
      </trkpt>
      <trkpt lat="49.91179" lon="6.07403">
        <ele>342</ele>
        <time>2026-08-26T18:37:40+00:00</time>
      </trkpt>
      <trkpt lat="49.91163" lon="6.07406">
        <ele>344</ele>
        <time>2026-08-26T18:37:43+00:00</time>
      </trkpt>
      <trkpt lat="49.91155" lon="6.0741">
        <ele>346</ele>
        <time>2026-08-26T18:37:46+00:00</time>
      </trkpt>
      <trkpt lat="49.91134" lon="6.07418">
        <ele>348</ele>
        <time>2026-08-26T18:37:49+00:00</time>
      </trkpt>
      <trkpt lat="49.91113" lon="6.07427">
        <ele>350</ele>
        <time>2026-08-26T18:37:52+00:00</time>
      </trkpt>
      <trkpt lat="49.91097" lon="6.07431">
        <ele>351</ele>
        <time>2026-08-26T18:37:55+00:00</time>
      </trkpt>
      <trkpt lat="49.91085" lon="6.0743">
        <ele>355</ele>
        <time>2026-08-26T18:37:58+00:00</time>
      </trkpt>
      <trkpt lat="49.91074" lon="6.07426">
        <ele>354</ele>
        <time>2026-08-26T18:38:01+00:00</time>
      </trkpt>
      <trkpt lat="49.91053" lon="6.07411">
        <ele>355</ele>
        <time>2026-08-26T18:38:04+00:00</time>
      </trkpt>
      <trkpt lat="49.91042" lon="6.07408">
        <ele>359</ele>
        <time>2026-08-26T18:38:07+00:00</time>
      </trkpt>
      <trkpt lat="49.91017" lon="6.0741">
        <ele>364</ele>
        <time>2026-08-26T18:38:10+00:00</time>
      </trkpt>
      <trkpt lat="49.90987" lon="6.0742">
        <ele>364</ele>
        <time>2026-08-26T18:38:13+00:00</time>
      </trkpt>
      <trkpt lat="49.9098" lon="6.07426">
        <ele>366</ele>
        <time>2026-08-26T18:38:16+00:00</time>
      </trkpt>
      <trkpt lat="49.90971" lon="6.07439">
        <ele>362</ele>
        <time>2026-08-26T18:38:19+00:00</time>
      </trkpt>
      <trkpt lat="49.90964" lon="6.07452">
        <ele>359</ele>
        <time>2026-08-26T18:38:22+00:00</time>
      </trkpt>
      <trkpt lat="49.90957" lon="6.07457">
        <ele>364</ele>
        <time>2026-08-26T18:38:25+00:00</time>
      </trkpt>
      <trkpt lat="49.90949" lon="6.07457">
        <ele>360</ele>
        <time>2026-08-26T18:38:28+00:00</time>
      </trkpt>
      <trkpt lat="49.90924" lon="6.0745">
        <ele>363</ele>
        <time>2026-08-26T18:38:31+00:00</time>
      </trkpt>
      <trkpt lat="49.90892" lon="6.0746">
        <ele>363</ele>
        <time>2026-08-26T18:38:34+00:00</time>
      </trkpt>
      <trkpt lat="49.90877" lon="6.07454">
        <ele>365</ele>
        <time>2026-08-26T18:38:37+00:00</time>
      </trkpt>
      <trkpt lat="49.90859" lon="6.07457">
        <ele>370</ele>
        <time>2026-08-26T18:38:40+00:00</time>
      </trkpt>
      <trkpt lat="49.9085" lon="6.07464">
        <ele>365</ele>
        <time>2026-08-26T18:38:43+00:00</time>
      </trkpt>
      <trkpt lat="49.90823" lon="6.07475">
        <ele>370</ele>
        <time>2026-08-26T18:38:46+00:00</time>
      </trkpt>
      <trkpt lat="49.90816" lon="6.07481">
        <ele>368</ele>
        <time>2026-08-26T18:38:49+00:00</time>
      </trkpt>
      <trkpt lat="49.90798" lon="6.07505">
        <ele>361</ele>
        <time>2026-08-26T18:38:52+00:00</time>
      </trkpt>
      <trkpt lat="49.90784" lon="6.07511">
        <ele>357</ele>
        <time>2026-08-26T18:38:55+00:00</time>
      </trkpt>
      <trkpt lat="49.90777" lon="6.07511">
        <ele>364</ele>
        <time>2026-08-26T18:38:58+00:00</time>
      </trkpt>
      <trkpt lat="49.90772" lon="6.0751">
        <ele>359</ele>
        <time>2026-08-26T18:39:01+00:00</time>
      </trkpt>
      <trkpt lat="49.90764" lon="6.07513">
        <ele>363</ele>
        <time>2026-08-26T18:39:04+00:00</time>
      </trkpt>
      <trkpt lat="49.90749" lon="6.07522">
        <ele>367</ele>
        <time>2026-08-26T18:39:07+00:00</time>
      </trkpt>
      <trkpt lat="49.90732" lon="6.07533">
        <ele>367</ele>
        <time>2026-08-26T18:39:10+00:00</time>
      </trkpt>
      <trkpt lat="49.90716" lon="6.07552">
        <ele>370</ele>
        <time>2026-08-26T18:39:13+00:00</time>
      </trkpt>
      <trkpt lat="49.90703" lon="6.07577">
        <ele>369</ele>
        <time>2026-08-26T18:39:16+00:00</time>
      </trkpt>
      <trkpt lat="49.9069" lon="6.07609">
        <ele>370</ele>
        <time>2026-08-26T18:39:19+00:00</time>
      </trkpt>
      <trkpt lat="49.90669" lon="6.07644">
        <ele>368</ele>
        <time>2026-08-26T18:39:22+00:00</time>
      </trkpt>
      <trkpt lat="49.90656" lon="6.07674">
        <ele>367</ele>
        <time>2026-08-26T18:39:25+00:00</time>
      </trkpt>
      <trkpt lat="49.9064" lon="6.07708">
        <ele>360</ele>
        <time>2026-08-26T18:39:28+00:00</time>
      </trkpt>
      <trkpt lat="49.90627" lon="6.07734">
        <ele>360</ele>
        <time>2026-08-26T18:39:31+00:00</time>
      </trkpt>
      <trkpt lat="49.90613" lon="6.07761">
        <ele>360</ele>
        <time>2026-08-26T18:39:34+00:00</time>
      </trkpt>
      <trkpt lat="49.90611" lon="6.07763">
        <ele>359</ele>
        <time>2026-08-26T18:39:37+00:00</time>
      </trkpt>
      <trkpt lat="49.90607" lon="6.07766">
        <ele>357</ele>
        <time>2026-08-26T18:39:40+00:00</time>
      </trkpt>
      <trkpt lat="49.90608" lon="6.07813">
        <ele>360</ele>
        <time>2026-08-26T18:39:43+00:00</time>
      </trkpt>
      <trkpt lat="49.90607" lon="6.07822">
        <ele>361</ele>
        <time>2026-08-26T18:39:46+00:00</time>
      </trkpt>
      <trkpt lat="49.90604" lon="6.07829">
        <ele>361</ele>
        <time>2026-08-26T18:39:49+00:00</time>
      </trkpt>
      <trkpt lat="49.906" lon="6.07832">
        <ele>362</ele>
        <time>2026-08-26T18:39:52+00:00</time>
      </trkpt>
      <trkpt lat="49.90594" lon="6.07836">
        <ele>361</ele>
        <time>2026-08-26T18:39:55+00:00</time>
      </trkpt>
      <trkpt lat="49.90585" lon="6.07845">
        <ele>360</ele>
        <time>2026-08-26T18:39:58+00:00</time>
      </trkpt>
      <trkpt lat="49.90585" lon="6.07845">
        <ele>360</ele>
        <time>2026-08-26T18:40:01+00:00</time>
      </trkpt>
      <trkpt lat="49.90582" lon="6.07852">
        <ele>362</ele>
        <time>2026-08-26T18:40:04+00:00</time>
      </trkpt>
      <trkpt lat="49.90574" lon="6.07875">
        <ele>362</ele>
        <time>2026-08-26T18:40:07+00:00</time>
      </trkpt>
      <trkpt lat="49.90577" lon="6.07899">
        <ele>363</ele>
        <time>2026-08-26T18:40:10+00:00</time>
      </trkpt>
      <trkpt lat="49.90575" lon="6.0791">
        <ele>363</ele>
        <time>2026-08-26T18:40:13+00:00</time>
      </trkpt>
      <trkpt lat="49.9057" lon="6.07923">
        <ele>364</ele>
        <time>2026-08-26T18:40:16+00:00</time>
      </trkpt>
      <trkpt lat="49.90567" lon="6.07931">
        <ele>364</ele>
        <time>2026-08-26T18:40:19+00:00</time>
      </trkpt>
      <trkpt lat="49.9056" lon="6.07952">
        <ele>363</ele>
        <time>2026-08-26T18:40:22+00:00</time>
      </trkpt>
      <trkpt lat="49.9056" lon="6.07959">
        <ele>363</ele>
        <time>2026-08-26T18:40:25+00:00</time>
      </trkpt>
      <trkpt lat="49.90562" lon="6.07967">
        <ele>363</ele>
        <time>2026-08-26T18:40:28+00:00</time>
      </trkpt>
      <trkpt lat="49.90567" lon="6.07975">
        <ele>362</ele>
        <time>2026-08-26T18:40:31+00:00</time>
      </trkpt>
      <trkpt lat="49.90569" lon="6.07974">
        <ele>362</ele>
        <time>2026-08-26T18:40:34+00:00</time>
      </trkpt>
      <trkpt lat="49.90563" lon="6.07995">
        <ele>360</ele>
        <time>2026-08-26T18:40:37+00:00</time>
      </trkpt>
      <trkpt lat="49.90549" lon="6.08006">
        <ele>356</ele>
        <time>2026-08-26T18:40:40+00:00</time>
      </trkpt>
      <trkpt lat="49.90548" lon="6.08007">
        <ele>356</ele>
        <time>2026-08-26T18:40:43+00:00</time>
      </trkpt>
      <trkpt lat="49.90545" lon="6.08005">
        <ele>356</ele>
        <time>2026-08-26T18:40:46+00:00</time>
      </trkpt>
      <trkpt lat="49.90542" lon="6.08008">
        <ele>356</ele>
        <time>2026-08-26T18:40:49+00:00</time>
      </trkpt>
      <trkpt lat="49.90517" lon="6.07973">
        <ele>351</ele>
        <time>2026-08-26T18:40:52+00:00</time>
      </trkpt>
      <trkpt lat="49.90515" lon="6.07967">
        <ele>351</ele>
        <time>2026-08-26T18:40:55+00:00</time>
      </trkpt>
      <trkpt lat="49.90516" lon="6.07945">
        <ele>352</ele>
        <time>2026-08-26T18:40:58+00:00</time>
      </trkpt>
      <trkpt lat="49.90518" lon="6.07938">
        <ele>349</ele>
        <time>2026-08-26T18:41:01+00:00</time>
      </trkpt>
      <trkpt lat="49.90526" lon="6.07911">
        <ele>352</ele>
        <time>2026-08-26T18:41:04+00:00</time>
      </trkpt>
      <trkpt lat="49.9054" lon="6.07883">
        <ele>352</ele>
        <time>2026-08-26T18:41:07+00:00</time>
      </trkpt>
      <trkpt lat="49.90551" lon="6.07868">
        <ele>357</ele>
        <time>2026-08-26T18:41:10+00:00</time>
      </trkpt>
      <trkpt lat="49.90556" lon="6.07855">
        <ele>354</ele>
        <time>2026-08-26T18:41:13+00:00</time>
      </trkpt>
      <trkpt lat="49.90569" lon="6.07833">
        <ele>354</ele>
        <time>2026-08-26T18:41:16+00:00</time>
      </trkpt>
      <trkpt lat="49.90571" lon="6.07826">
        <ele>355</ele>
        <time>2026-08-26T18:41:19+00:00</time>
      </trkpt>
      <trkpt lat="49.9057" lon="6.07819">
        <ele>355</ele>
        <time>2026-08-26T18:41:22+00:00</time>
      </trkpt>
      <trkpt lat="49.90559" lon="6.07832">
        <ele>354</ele>
        <time>2026-08-26T18:41:25+00:00</time>
      </trkpt>
      <trkpt lat="49.90545" lon="6.0785">
        <ele>352</ele>
        <time>2026-08-26T18:41:28+00:00</time>
      </trkpt>
      <trkpt lat="49.90516" lon="6.07894">
        <ele>347</ele>
        <time>2026-08-26T18:41:31+00:00</time>
      </trkpt>
      <trkpt lat="49.90508" lon="6.0791">
        <ele>346</ele>
        <time>2026-08-26T18:41:34+00:00</time>
      </trkpt>
      <trkpt lat="49.90501" lon="6.07927">
        <ele>345</ele>
        <time>2026-08-26T18:41:37+00:00</time>
      </trkpt>
      <trkpt lat="49.90497" lon="6.07946">
        <ele>344</ele>
        <time>2026-08-26T18:41:40+00:00</time>
      </trkpt>
      <trkpt lat="49.90494" lon="6.07966">
        <ele>343</ele>
        <time>2026-08-26T18:41:43+00:00</time>
      </trkpt>
      <trkpt lat="49.90494" lon="6.08007">
        <ele>340</ele>
        <time>2026-08-26T18:41:46+00:00</time>
      </trkpt>
      <trkpt lat="49.90498" lon="6.08026">
        <ele>339</ele>
        <time>2026-08-26T18:41:49+00:00</time>
      </trkpt>
      <trkpt lat="49.9051" lon="6.08061">
        <ele>337</ele>
        <time>2026-08-26T18:41:52+00:00</time>
      </trkpt>
      <trkpt lat="49.90513" lon="6.08067">
        <ele>337</ele>
        <time>2026-08-26T18:41:55+00:00</time>
      </trkpt>
      <trkpt lat="49.90518" lon="6.08076">
        <ele>335</ele>
        <time>2026-08-26T18:41:58+00:00</time>
      </trkpt>
      <trkpt lat="49.90537" lon="6.08102">
        <ele>335</ele>
        <time>2026-08-26T18:42:01+00:00</time>
      </trkpt>
      <trkpt lat="49.90548" lon="6.08112">
        <ele>329</ele>
        <time>2026-08-26T18:42:04+00:00</time>
      </trkpt>
      <trkpt lat="49.90572" lon="6.08126">
        <ele>334</ele>
        <time>2026-08-26T18:42:07+00:00</time>
      </trkpt>
      <trkpt lat="49.90596" lon="6.08133">
        <ele>334</ele>
        <time>2026-08-26T18:42:10+00:00</time>
      </trkpt>
      <trkpt lat="49.90629" lon="6.08142">
        <ele>330</ele>
        <time>2026-08-26T18:42:13+00:00</time>
      </trkpt>
      <trkpt lat="49.9067" lon="6.08154">
        <ele>326</ele>
        <time>2026-08-26T18:42:16+00:00</time>
      </trkpt>
      <trkpt lat="49.90687" lon="6.08161">
        <ele>321</ele>
        <time>2026-08-26T18:42:19+00:00</time>
      </trkpt>
      <trkpt lat="49.907" lon="6.0817">
        <ele>316</ele>
        <time>2026-08-26T18:42:22+00:00</time>
      </trkpt>
      <trkpt lat="49.907" lon="6.08166">
        <ele>318</ele>
        <time>2026-08-26T18:42:25+00:00</time>
      </trkpt>
      <trkpt lat="49.907" lon="6.08163">
        <ele>326</ele>
        <time>2026-08-26T18:42:28+00:00</time>
      </trkpt>
      <trkpt lat="49.90699" lon="6.0815">
        <ele>322</ele>
        <time>2026-08-26T18:42:31+00:00</time>
      </trkpt>
      <trkpt lat="49.90689" lon="6.08108">
        <ele>325</ele>
        <time>2026-08-26T18:42:34+00:00</time>
      </trkpt>
      <trkpt lat="49.90684" lon="6.08074">
        <ele>324</ele>
        <time>2026-08-26T18:42:37+00:00</time>
      </trkpt>
      <trkpt lat="49.9067" lon="6.08038">
        <ele>322</ele>
        <time>2026-08-26T18:42:40+00:00</time>
      </trkpt>
      <trkpt lat="49.90666" lon="6.0799">
        <ele>324</ele>
        <time>2026-08-26T18:42:43+00:00</time>
      </trkpt>
      <trkpt lat="49.90667" lon="6.07943">
        <ele>323</ele>
        <time>2026-08-26T18:42:46+00:00</time>
      </trkpt>
      <trkpt lat="49.90672" lon="6.07926">
        <ele>320</ele>
        <time>2026-08-26T18:42:49+00:00</time>
      </trkpt>
      <trkpt lat="49.90674" lon="6.07889">
        <ele>323</ele>
        <time>2026-08-26T18:42:52+00:00</time>
      </trkpt>
      <trkpt lat="49.90677" lon="6.07874">
        <ele>325</ele>
        <time>2026-08-26T18:42:55+00:00</time>
      </trkpt>
      <trkpt lat="49.90681" lon="6.07867">
        <ele>320</ele>
        <time>2026-08-26T18:42:58+00:00</time>
      </trkpt>
      <trkpt lat="49.90689" lon="6.07854">
        <ele>323</ele>
        <time>2026-08-26T18:43:01+00:00</time>
      </trkpt>
      <trkpt lat="49.90697" lon="6.07835">
        <ele>317</ele>
        <time>2026-08-26T18:43:04+00:00</time>
      </trkpt>
      <trkpt lat="49.90704" lon="6.07812">
        <ele>321</ele>
        <time>2026-08-26T18:43:07+00:00</time>
      </trkpt>
      <trkpt lat="49.90706" lon="6.07783">
        <ele>320</ele>
        <time>2026-08-26T18:43:10+00:00</time>
      </trkpt>
      <trkpt lat="49.90709" lon="6.0777">
        <ele>322</ele>
        <time>2026-08-26T18:43:13+00:00</time>
      </trkpt>
      <trkpt lat="49.90724" lon="6.07747">
        <ele>308</ele>
        <time>2026-08-26T18:43:16+00:00</time>
      </trkpt>
      <trkpt lat="49.90744" lon="6.07715">
        <ele>302</ele>
        <time>2026-08-26T18:43:19+00:00</time>
      </trkpt>
      <trkpt lat="49.90762" lon="6.07692">
        <ele>299</ele>
        <time>2026-08-26T18:43:22+00:00</time>
      </trkpt>
      <trkpt lat="49.90783" lon="6.07665">
        <ele>297</ele>
        <time>2026-08-26T18:43:25+00:00</time>
      </trkpt>
      <trkpt lat="49.90804" lon="6.0765">
        <ele>292</ele>
        <time>2026-08-26T18:43:28+00:00</time>
      </trkpt>
      <trkpt lat="49.9084" lon="6.0763">
        <ele>291</ele>
        <time>2026-08-26T18:43:31+00:00</time>
      </trkpt>
      <trkpt lat="49.90861" lon="6.07621">
        <ele>291</ele>
        <time>2026-08-26T18:43:34+00:00</time>
      </trkpt>
      <trkpt lat="49.90884" lon="6.07612">
        <ele>285</ele>
        <time>2026-08-26T18:43:37+00:00</time>
      </trkpt>
      <trkpt lat="49.90905" lon="6.0761">
        <ele>276</ele>
        <time>2026-08-26T18:43:40+00:00</time>
      </trkpt>
      <trkpt lat="49.90912" lon="6.07612">
        <ele>273</ele>
        <time>2026-08-26T18:43:43+00:00</time>
      </trkpt>
      <trkpt lat="49.90939" lon="6.07612">
        <ele>267</ele>
        <time>2026-08-26T18:43:46+00:00</time>
      </trkpt>
      <trkpt lat="49.90947" lon="6.07615">
        <ele>266</ele>
        <time>2026-08-26T18:43:49+00:00</time>
      </trkpt>
      <trkpt lat="49.90971" lon="6.07616">
        <ele>264</ele>
        <time>2026-08-26T18:43:52+00:00</time>
      </trkpt>
      <trkpt lat="49.90981" lon="6.07619">
        <ele>264</ele>
        <time>2026-08-26T18:43:55+00:00</time>
      </trkpt>
      <trkpt lat="49.90989" lon="6.07619">
        <ele>264</ele>
        <time>2026-08-26T18:43:58+00:00</time>
      </trkpt>
      <trkpt lat="49.91014" lon="6.07622">
        <ele>258</ele>
        <time>2026-08-26T18:44:01+00:00</time>
      </trkpt>
      <trkpt lat="49.91048" lon="6.07641">
        <ele>252</ele>
        <time>2026-08-26T18:44:04+00:00</time>
      </trkpt>
      <trkpt lat="49.91069" lon="6.07656">
        <ele>250</ele>
        <time>2026-08-26T18:44:07+00:00</time>
      </trkpt>
      <trkpt lat="49.91073" lon="6.07662">
        <ele>246</ele>
        <time>2026-08-26T18:44:10+00:00</time>
      </trkpt>
      <trkpt lat="49.91074" lon="6.07667">
        <ele>246</ele>
        <time>2026-08-26T18:44:13+00:00</time>
      </trkpt>
      <trkpt lat="49.91055" lon="6.0766">
        <ele>247</ele>
        <time>2026-08-26T18:44:16+00:00</time>
      </trkpt>
      <trkpt lat="49.91026" lon="6.07654">
        <ele>245</ele>
        <time>2026-08-26T18:44:19+00:00</time>
      </trkpt>
      <trkpt lat="49.91001" lon="6.07652">
        <ele>243</ele>
        <time>2026-08-26T18:44:22+00:00</time>
      </trkpt>
      <trkpt lat="49.90978" lon="6.07654">
        <ele>245</ele>
        <time>2026-08-26T18:44:25+00:00</time>
      </trkpt>
      <trkpt lat="49.90952" lon="6.07659">
        <ele>248</ele>
        <time>2026-08-26T18:44:28+00:00</time>
      </trkpt>
      <trkpt lat="49.90914" lon="6.07666">
        <ele>248</ele>
        <time>2026-08-26T18:44:31+00:00</time>
      </trkpt>
      <trkpt lat="49.90879" lon="6.0768">
        <ele>248</ele>
        <time>2026-08-26T18:44:34+00:00</time>
      </trkpt>
      <trkpt lat="49.90856" lon="6.07694">
        <ele>250</ele>
        <time>2026-08-26T18:44:37+00:00</time>
      </trkpt>
      <trkpt lat="49.90846" lon="6.07702">
        <ele>251</ele>
        <time>2026-08-26T18:44:40+00:00</time>
      </trkpt>
      <trkpt lat="49.90836" lon="6.07718">
        <ele>250</ele>
        <time>2026-08-26T18:44:43+00:00</time>
      </trkpt>
      <trkpt lat="49.90814" lon="6.07736">
        <ele>250</ele>
        <time>2026-08-26T18:44:46+00:00</time>
      </trkpt>
      <trkpt lat="49.90806" lon="6.07747">
        <ele>252</ele>
        <time>2026-08-26T18:44:49+00:00</time>
      </trkpt>
      <trkpt lat="49.90795" lon="6.07766">
        <ele>249</ele>
        <time>2026-08-26T18:44:52+00:00</time>
      </trkpt>
      <trkpt lat="49.90787" lon="6.07777">
        <ele>253</ele>
        <time>2026-08-26T18:44:55+00:00</time>
      </trkpt>
      <trkpt lat="49.90781" lon="6.07786">
        <ele>249</ele>
        <time>2026-08-26T18:44:58+00:00</time>
      </trkpt>
      <trkpt lat="49.90773" lon="6.07801">
        <ele>252</ele>
        <time>2026-08-26T18:45:01+00:00</time>
      </trkpt>
      <trkpt lat="49.90769" lon="6.0782">
        <ele>259</ele>
        <time>2026-08-26T18:45:04+00:00</time>
      </trkpt>
      <trkpt lat="49.90757" lon="6.07858">
        <ele>271</ele>
        <time>2026-08-26T18:45:07+00:00</time>
      </trkpt>
      <trkpt lat="49.90732" lon="6.07907">
        <ele>272</ele>
        <time>2026-08-26T18:45:10+00:00</time>
      </trkpt>
      <trkpt lat="49.90726" lon="6.07918">
        <ele>281</ele>
        <time>2026-08-26T18:45:13+00:00</time>
      </trkpt>
      <trkpt lat="49.90733" lon="6.07926">
        <ele>271</ele>
        <time>2026-08-26T18:45:16+00:00</time>
      </trkpt>
      <trkpt lat="49.90736" lon="6.0793">
        <ele>273</ele>
        <time>2026-08-26T18:45:19+00:00</time>
      </trkpt>
      <trkpt lat="49.90737" lon="6.07943">
        <ele>272</ele>
        <time>2026-08-26T18:45:22+00:00</time>
      </trkpt>
      <trkpt lat="49.90743" lon="6.07924">
        <ele>270</ele>
        <time>2026-08-26T18:45:25+00:00</time>
      </trkpt>
      <trkpt lat="49.90744" lon="6.07932">
        <ele>268</ele>
        <time>2026-08-26T18:45:28+00:00</time>
      </trkpt>
      <trkpt lat="49.90743" lon="6.07942">
        <ele>267</ele>
        <time>2026-08-26T18:45:31+00:00</time>
      </trkpt>
      <trkpt lat="49.90743" lon="6.07952">
        <ele>264</ele>
        <time>2026-08-26T18:45:34+00:00</time>
      </trkpt>
      <trkpt lat="49.90744" lon="6.0797">
        <ele>261</ele>
        <time>2026-08-26T18:45:37+00:00</time>
      </trkpt>
      <trkpt lat="49.90752" lon="6.08">
        <ele>242</ele>
        <time>2026-08-26T18:45:40+00:00</time>
      </trkpt>
      <trkpt lat="49.90763" lon="6.08042">
        <ele>235</ele>
        <time>2026-08-26T18:45:43+00:00</time>
      </trkpt>
      <trkpt lat="49.90764" lon="6.0805">
        <ele>240</ele>
        <time>2026-08-26T18:45:46+00:00</time>
      </trkpt>
      <trkpt lat="49.9078" lon="6.08089">
        <ele>237</ele>
        <time>2026-08-26T18:45:49+00:00</time>
      </trkpt>
      <trkpt lat="49.90794" lon="6.08117">
        <ele>240</ele>
        <time>2026-08-26T18:45:52+00:00</time>
      </trkpt>
      <trkpt lat="49.90809" lon="6.08138">
        <ele>239</ele>
        <time>2026-08-26T18:45:55+00:00</time>
      </trkpt>
      <trkpt lat="49.90822" lon="6.08155">
        <ele>240</ele>
        <time>2026-08-26T18:45:58+00:00</time>
      </trkpt>
      <trkpt lat="49.90837" lon="6.08168">
        <ele>239</ele>
        <time>2026-08-26T18:46:01+00:00</time>
      </trkpt>
      <trkpt lat="49.90858" lon="6.08186">
        <ele>240</ele>
        <time>2026-08-26T18:46:04+00:00</time>
      </trkpt>
      <trkpt lat="49.90865" lon="6.08191">
        <ele>239</ele>
        <time>2026-08-26T18:46:07+00:00</time>
      </trkpt>
      <trkpt lat="49.90878" lon="6.08208">
        <ele>241</ele>
        <time>2026-08-26T18:46:10+00:00</time>
      </trkpt>
      <trkpt lat="49.90899" lon="6.08228">
        <ele>239</ele>
        <time>2026-08-26T18:46:13+00:00</time>
      </trkpt>
      <trkpt lat="49.90911" lon="6.08244">
        <ele>240</ele>
        <time>2026-08-26T18:46:16+00:00</time>
      </trkpt>
      <trkpt lat="49.90931" lon="6.08257">
        <ele>237</ele>
        <time>2026-08-26T18:46:19+00:00</time>
      </trkpt>
      <trkpt lat="49.90955" lon="6.08282">
        <ele>236</ele>
        <time>2026-08-26T18:46:22+00:00</time>
      </trkpt>
      <trkpt lat="49.90965" lon="6.08287">
        <ele>233</ele>
        <time>2026-08-26T18:46:25+00:00</time>
      </trkpt>
      <trkpt lat="49.90983" lon="6.083">
        <ele>238</ele>
        <time>2026-08-26T18:46:28+00:00</time>
      </trkpt>
      <trkpt lat="49.91007" lon="6.08316">
        <ele>236</ele>
        <time>2026-08-26T18:46:31+00:00</time>
      </trkpt>
      <trkpt lat="49.91035" lon="6.08323">
        <ele>237</ele>
        <time>2026-08-26T18:46:34+00:00</time>
      </trkpt>
      <trkpt lat="49.91058" lon="6.08335">
        <ele>236</ele>
        <time>2026-08-26T18:46:37+00:00</time>
      </trkpt>
      <trkpt lat="49.91088" lon="6.0835">
        <ele>236</ele>
        <time>2026-08-26T18:46:40+00:00</time>
      </trkpt>
      <trkpt lat="49.91108" lon="6.08365">
        <ele>238</ele>
        <time>2026-08-26T18:46:43+00:00</time>
      </trkpt>
      <trkpt lat="49.91131" lon="6.08382">
        <ele>239</ele>
        <time>2026-08-26T18:46:46+00:00</time>
      </trkpt>
      <trkpt lat="49.91157" lon="6.08398">
        <ele>239</ele>
        <time>2026-08-26T18:46:49+00:00</time>
      </trkpt>
      <trkpt lat="49.91206" lon="6.08427">
        <ele>225</ele>
        <time>2026-08-26T18:46:52+00:00</time>
      </trkpt>
      <trkpt lat="49.91216" lon="6.08439">
        <ele>224</ele>
        <time>2026-08-26T18:46:55+00:00</time>
      </trkpt>
      <trkpt lat="49.91236" lon="6.08458">
        <ele>225</ele>
        <time>2026-08-26T18:46:58+00:00</time>
      </trkpt>
      <trkpt lat="49.9127" lon="6.08492">
        <ele>224</ele>
        <time>2026-08-26T18:47:01+00:00</time>
      </trkpt>
      <trkpt lat="49.91302" lon="6.08525">
        <ele>224</ele>
        <time>2026-08-26T18:47:04+00:00</time>
      </trkpt>
      <trkpt lat="49.91319" lon="6.08556">
        <ele>227</ele>
        <time>2026-08-26T18:47:07+00:00</time>
      </trkpt>
      <trkpt lat="49.91329" lon="6.08592">
        <ele>228</ele>
        <time>2026-08-26T18:47:10+00:00</time>
      </trkpt>
      <trkpt lat="49.91344" lon="6.08644">
        <ele>229</ele>
        <time>2026-08-26T18:47:13+00:00</time>
      </trkpt>
      <trkpt lat="49.91348" lon="6.0867">
        <ele>231</ele>
        <time>2026-08-26T18:47:16+00:00</time>
      </trkpt>
      <trkpt lat="49.91349" lon="6.08692">
        <ele>229</ele>
        <time>2026-08-26T18:47:19+00:00</time>
      </trkpt>
      <trkpt lat="49.91348" lon="6.08733">
        <ele>228</ele>
        <time>2026-08-26T18:47:22+00:00</time>
      </trkpt>
      <trkpt lat="49.91347" lon="6.08739">
        <ele>230</ele>
        <time>2026-08-26T18:47:25+00:00</time>
      </trkpt>
      <trkpt lat="49.91345" lon="6.08743">
        <ele>229</ele>
        <time>2026-08-26T18:47:28+00:00</time>
      </trkpt>
      <trkpt lat="49.91341" lon="6.08743">
        <ele>229</ele>
        <time>2026-08-26T18:47:31+00:00</time>
      </trkpt>
      <trkpt lat="49.91343" lon="6.08761">
        <ele>228</ele>
        <time>2026-08-26T18:47:34+00:00</time>
      </trkpt>
      <trkpt lat="49.91344" lon="6.08767">
        <ele>228</ele>
        <time>2026-08-26T18:47:37+00:00</time>
      </trkpt>
      <trkpt lat="49.91344" lon="6.08774">
        <ele>227</ele>
        <time>2026-08-26T18:47:40+00:00</time>
      </trkpt>
      <trkpt lat="49.91348" lon="6.08786">
        <ele>226</ele>
        <time>2026-08-26T18:47:43+00:00</time>
      </trkpt>
      <trkpt lat="49.91353" lon="6.08794">
        <ele>225</ele>
        <time>2026-08-26T18:47:46+00:00</time>
      </trkpt>
      <trkpt lat="49.9136" lon="6.08802">
        <ele>224</ele>
        <time>2026-08-26T18:47:49+00:00</time>
      </trkpt>
      <trkpt lat="49.91381" lon="6.08819">
        <ele>222</ele>
        <time>2026-08-26T18:47:52+00:00</time>
      </trkpt>
      <trkpt lat="49.91417" lon="6.08847">
        <ele>225</ele>
        <time>2026-08-26T18:47:55+00:00</time>
      </trkpt>
      <trkpt lat="49.91422" lon="6.0885">
        <ele>224</ele>
        <time>2026-08-26T18:47:58+00:00</time>
      </trkpt>
      <trkpt lat="49.91431" lon="6.08816">
        <ele>228</ele>
        <time>2026-08-26T18:48:01+00:00</time>
      </trkpt>
      <trkpt lat="49.91435" lon="6.0882">
        <ele>228</ele>
        <time>2026-08-26T18:48:04+00:00</time>
      </trkpt>
      <trkpt lat="49.91434" lon="6.08826">
        <ele>228</ele>
        <time>2026-08-26T18:48:07+00:00</time>
      </trkpt>
      <trkpt lat="49.91435" lon="6.08834">
        <ele>229</ele>
        <time>2026-08-26T18:48:10+00:00</time>
      </trkpt>
      <trkpt lat="49.91437" lon="6.08828">
        <ele>228</ele>
        <time>2026-08-26T18:48:13+00:00</time>
      </trkpt>
      <trkpt lat="49.91446" lon="6.08796">
        <ele>233</ele>
        <time>2026-08-26T18:48:16+00:00</time>
      </trkpt>
      <trkpt lat="49.9145" lon="6.08784">
        <ele>245</ele>
        <time>2026-08-26T18:48:19+00:00</time>
      </trkpt>
      <trkpt lat="49.9146" lon="6.0876">
        <ele>254</ele>
        <time>2026-08-26T18:48:22+00:00</time>
      </trkpt>
      <trkpt lat="49.91471" lon="6.08733">
        <ele>265</ele>
        <time>2026-08-26T18:48:25+00:00</time>
      </trkpt>
      <trkpt lat="49.91482" lon="6.08699">
        <ele>275</ele>
        <time>2026-08-26T18:48:28+00:00</time>
      </trkpt>
      <trkpt lat="49.91496" lon="6.08657">
        <ele>281</ele>
        <time>2026-08-26T18:48:31+00:00</time>
      </trkpt>
      <trkpt lat="49.91501" lon="6.08622">
        <ele>289</ele>
        <time>2026-08-26T18:48:34+00:00</time>
      </trkpt>
      <trkpt lat="49.91502" lon="6.08589">
        <ele>292</ele>
        <time>2026-08-26T18:48:37+00:00</time>
      </trkpt>
      <trkpt lat="49.91506" lon="6.08563">
        <ele>291</ele>
        <time>2026-08-26T18:48:40+00:00</time>
      </trkpt>
      <trkpt lat="49.91517" lon="6.08581">
        <ele>299</ele>
        <time>2026-08-26T18:48:43+00:00</time>
      </trkpt>
      <trkpt lat="49.91523" lon="6.0861">
        <ele>301</ele>
        <time>2026-08-26T18:48:46+00:00</time>
      </trkpt>
      <trkpt lat="49.91532" lon="6.0862">
        <ele>302</ele>
        <time>2026-08-26T18:48:49+00:00</time>
      </trkpt>
      <trkpt lat="49.91536" lon="6.0863">
        <ele>302</ele>
        <time>2026-08-26T18:48:52+00:00</time>
      </trkpt>
      <trkpt lat="49.91542" lon="6.08662">
        <ele>307</ele>
        <time>2026-08-26T18:48:55+00:00</time>
      </trkpt>
      <trkpt lat="49.91541" lon="6.08675">
        <ele>308</ele>
        <time>2026-08-26T18:48:58+00:00</time>
      </trkpt>
      <trkpt lat="49.9156" lon="6.08683">
        <ele>315</ele>
        <time>2026-08-26T18:49:01+00:00</time>
      </trkpt>
      <trkpt lat="49.91576" lon="6.08693">
        <ele>324</ele>
        <time>2026-08-26T18:49:04+00:00</time>
      </trkpt>
      <trkpt lat="49.91577" lon="6.08696">
        <ele>324</ele>
        <time>2026-08-26T18:49:07+00:00</time>
      </trkpt>
      <trkpt lat="49.91582" lon="6.08696">
        <ele>326</ele>
        <time>2026-08-26T18:49:10+00:00</time>
      </trkpt>
      <trkpt lat="49.91591" lon="6.08702">
        <ele>332</ele>
        <time>2026-08-26T18:49:13+00:00</time>
      </trkpt>
      <trkpt lat="49.91593" lon="6.08706">
        <ele>332</ele>
        <time>2026-08-26T18:49:16+00:00</time>
      </trkpt>
      <trkpt lat="49.91585" lon="6.08711">
        <ele>334</ele>
        <time>2026-08-26T18:49:19+00:00</time>
      </trkpt>
      <trkpt lat="49.91577" lon="6.08724">
        <ele>335</ele>
        <time>2026-08-26T18:49:22+00:00</time>
      </trkpt>
      <trkpt lat="49.91577" lon="6.08728">
        <ele>335</ele>
        <time>2026-08-26T18:49:25+00:00</time>
      </trkpt>
      <trkpt lat="49.91577" lon="6.08733">
        <ele>340</ele>
        <time>2026-08-26T18:49:28+00:00</time>
      </trkpt>
      <trkpt lat="49.91582" lon="6.08735">
        <ele>344</ele>
        <time>2026-08-26T18:49:31+00:00</time>
      </trkpt>
      <trkpt lat="49.91583" lon="6.08743">
        <ele>347</ele>
        <time>2026-08-26T18:49:34+00:00</time>
      </trkpt>
      <trkpt lat="49.91596" lon="6.08742">
        <ele>350</ele>
        <time>2026-08-26T18:49:37+00:00</time>
      </trkpt>
      <trkpt lat="49.916" lon="6.08746">
        <ele>350</ele>
        <time>2026-08-26T18:49:40+00:00</time>
      </trkpt>
      <trkpt lat="49.916" lon="6.08754">
        <ele>353</ele>
        <time>2026-08-26T18:49:43+00:00</time>
      </trkpt>
      <trkpt lat="49.91604" lon="6.08757">
        <ele>356</ele>
        <time>2026-08-26T18:49:46+00:00</time>
      </trkpt>
      <trkpt lat="49.91618" lon="6.08759">
        <ele>360</ele>
        <time>2026-08-26T18:49:49+00:00</time>
      </trkpt>
      <trkpt lat="49.91631" lon="6.08764">
        <ele>366</ele>
        <time>2026-08-26T18:49:52+00:00</time>
      </trkpt>
      <trkpt lat="49.91641" lon="6.08772">
        <ele>368</ele>
        <time>2026-08-26T18:49:55+00:00</time>
      </trkpt>
      <trkpt lat="49.91641" lon="6.08774">
        <ele>368</ele>
        <time>2026-08-26T18:49:58+00:00</time>
      </trkpt>
      <trkpt lat="49.91628" lon="6.08793">
        <ele>373</ele>
        <time>2026-08-26T18:50:01+00:00</time>
      </trkpt>
      <trkpt lat="49.91629" lon="6.08795">
        <ele>373</ele>
        <time>2026-08-26T18:50:04+00:00</time>
      </trkpt>
      <trkpt lat="49.91645" lon="6.08811">
        <ele>379</ele>
        <time>2026-08-26T18:50:07+00:00</time>
      </trkpt>
      <trkpt lat="49.91638" lon="6.08817">
        <ele>380</ele>
        <time>2026-08-26T18:50:10+00:00</time>
      </trkpt>
      <trkpt lat="49.91626" lon="6.0882">
        <ele>379</ele>
        <time>2026-08-26T18:50:13+00:00</time>
      </trkpt>
      <trkpt lat="49.91622" lon="6.08824">
        <ele>380</ele>
        <time>2026-08-26T18:50:16+00:00</time>
      </trkpt>
      <trkpt lat="49.91621" lon="6.08828">
        <ele>380</ele>
        <time>2026-08-26T18:50:19+00:00</time>
      </trkpt>
      <trkpt lat="49.91632" lon="6.08831">
        <ele>384</ele>
        <time>2026-08-26T18:50:22+00:00</time>
      </trkpt>
      <trkpt lat="49.91635" lon="6.0883">
        <ele>384</ele>
        <time>2026-08-26T18:50:25+00:00</time>
      </trkpt>
      <trkpt lat="49.91641" lon="6.08834">
        <ele>384</ele>
        <time>2026-08-26T18:50:28+00:00</time>
      </trkpt>
      <trkpt lat="49.91636" lon="6.0884">
        <ele>386</ele>
        <time>2026-08-26T18:50:31+00:00</time>
      </trkpt>
      <trkpt lat="49.91631" lon="6.08846">
        <ele>386</ele>
        <time>2026-08-26T18:50:34+00:00</time>
      </trkpt>
      <trkpt lat="49.91624" lon="6.08847">
        <ele>385</ele>
        <time>2026-08-26T18:50:37+00:00</time>
      </trkpt>
      <trkpt lat="49.91622" lon="6.0885">
        <ele>385</ele>
        <time>2026-08-26T18:50:40+00:00</time>
      </trkpt>
      <trkpt lat="49.91622" lon="6.08861">
        <ele>391</ele>
        <time>2026-08-26T18:50:43+00:00</time>
      </trkpt>
      <trkpt lat="49.9161" lon="6.08886">
        <ele>395</ele>
        <time>2026-08-26T18:50:46+00:00</time>
      </trkpt>
      <trkpt lat="49.91607" lon="6.08897">
        <ele>395</ele>
        <time>2026-08-26T18:50:49+00:00</time>
      </trkpt>
      <trkpt lat="49.91604" lon="6.08903">
        <ele>398</ele>
        <time>2026-08-26T18:50:52+00:00</time>
      </trkpt>
      <trkpt lat="49.91595" lon="6.08925">
        <ele>397</ele>
        <time>2026-08-26T18:50:55+00:00</time>
      </trkpt>
      <trkpt lat="49.91586" lon="6.08949">
        <ele>400</ele>
        <time>2026-08-26T18:50:58+00:00</time>
      </trkpt>
      <trkpt lat="49.91586" lon="6.08961">
        <ele>404</ele>
        <time>2026-08-26T18:51:01+00:00</time>
      </trkpt>
      <trkpt lat="49.91607" lon="6.08971">
        <ele>410</ele>
        <time>2026-08-26T18:51:04+00:00</time>
      </trkpt>
      <trkpt lat="49.91608" lon="6.08974">
        <ele>410</ele>
        <time>2026-08-26T18:51:07+00:00</time>
      </trkpt>
      <trkpt lat="49.91605" lon="6.09001">
        <ele>419</ele>
        <time>2026-08-26T18:51:10+00:00</time>
      </trkpt>
      <trkpt lat="49.91616" lon="6.09">
        <ele>421</ele>
        <time>2026-08-26T18:51:13+00:00</time>
      </trkpt>
      <trkpt lat="49.91618" lon="6.09002">
        <ele>421</ele>
        <time>2026-08-26T18:51:16+00:00</time>
      </trkpt>
      <trkpt lat="49.91619" lon="6.09015">
        <ele>424</ele>
        <time>2026-08-26T18:51:19+00:00</time>
      </trkpt>
      <trkpt lat="49.91614" lon="6.09045">
        <ele>430</ele>
        <time>2026-08-26T18:51:22+00:00</time>
      </trkpt>
      <trkpt lat="49.91615" lon="6.09049">
        <ele>430</ele>
        <time>2026-08-26T18:51:25+00:00</time>
      </trkpt>
      <trkpt lat="49.91618" lon="6.09051">
        <ele>432</ele>
        <time>2026-08-26T18:51:28+00:00</time>
      </trkpt>
      <trkpt lat="49.9162" lon="6.09057">
        <ele>432</ele>
        <time>2026-08-26T18:51:31+00:00</time>
      </trkpt>
      <trkpt lat="49.9162" lon="6.0907">
        <ele>434</ele>
        <time>2026-08-26T18:51:34+00:00</time>
      </trkpt>
      <trkpt lat="49.91605" lon="6.09101">
        <ele>439</ele>
        <time>2026-08-26T18:51:37+00:00</time>
      </trkpt>
      <trkpt lat="49.91586" lon="6.09144">
        <ele>442</ele>
        <time>2026-08-26T18:51:40+00:00</time>
      </trkpt>
      <trkpt lat="49.91583" lon="6.09163">
        <ele>446</ele>
        <time>2026-08-26T18:51:43+00:00</time>
      </trkpt>
      <trkpt lat="49.91576" lon="6.09175">
        <ele>447</ele>
        <time>2026-08-26T18:51:46+00:00</time>
      </trkpt>
      <trkpt lat="49.91574" lon="6.09182">
        <ele>449</ele>
        <time>2026-08-26T18:51:49+00:00</time>
      </trkpt>
      <trkpt lat="49.91569" lon="6.09203">
        <ele>450</ele>
        <time>2026-08-26T18:51:52+00:00</time>
      </trkpt>
      <trkpt lat="49.91562" lon="6.09249">
        <ele>454</ele>
        <time>2026-08-26T18:51:55+00:00</time>
      </trkpt>
      <trkpt lat="49.91554" lon="6.09295">
        <ele>453</ele>
        <time>2026-08-26T18:51:58+00:00</time>
      </trkpt>
      <trkpt lat="49.91544" lon="6.09358">
        <ele>453</ele>
        <time>2026-08-26T18:52:01+00:00</time>
      </trkpt>
      <trkpt lat="49.91538" lon="6.09383">
        <ele>453</ele>
        <time>2026-08-26T18:52:04+00:00</time>
      </trkpt>
      <trkpt lat="49.91529" lon="6.09405">
        <ele>453</ele>
        <time>2026-08-26T18:52:07+00:00</time>
      </trkpt>
      <trkpt lat="49.91511" lon="6.09441">
        <ele>456</ele>
        <time>2026-08-26T18:52:10+00:00</time>
      </trkpt>
      <trkpt lat="49.91494" lon="6.09483">
        <ele>457</ele>
        <time>2026-08-26T18:52:13+00:00</time>
      </trkpt>
      <trkpt lat="49.9148" lon="6.09526">
        <ele>458</ele>
        <time>2026-08-26T18:52:16+00:00</time>
      </trkpt>
      <trkpt lat="49.91467" lon="6.09569">
        <ele>458</ele>
        <time>2026-08-26T18:52:19+00:00</time>
      </trkpt>
      <trkpt lat="49.91446" lon="6.09634">
        <ele>458</ele>
        <time>2026-08-26T18:52:22+00:00</time>
      </trkpt>
      <trkpt lat="49.91443" lon="6.09647">
        <ele>458</ele>
        <time>2026-08-26T18:52:25+00:00</time>
      </trkpt>
      <trkpt lat="49.91433" lon="6.09653">
        <ele>456</ele>
        <time>2026-08-26T18:52:28+00:00</time>
      </trkpt>
      <trkpt lat="49.91414" lon="6.0968">
        <ele>452</ele>
        <time>2026-08-26T18:52:31+00:00</time>
      </trkpt>
      <trkpt lat="49.91388" lon="6.09719">
        <ele>452</ele>
        <time>2026-08-26T18:52:34+00:00</time>
      </trkpt>
      <trkpt lat="49.91366" lon="6.09726">
        <ele>452</ele>
        <time>2026-08-26T18:52:37+00:00</time>
      </trkpt>
      <trkpt lat="49.91344" lon="6.09733">
        <ele>453</ele>
        <time>2026-08-26T18:52:40+00:00</time>
      </trkpt>
      <trkpt lat="49.91341" lon="6.09723">
        <ele>456</ele>
        <time>2026-08-26T18:52:43+00:00</time>
      </trkpt>
      <trkpt lat="49.9135" lon="6.09703">
        <ele>454</ele>
        <time>2026-08-26T18:52:46+00:00</time>
      </trkpt>
      <trkpt lat="49.9135" lon="6.09683">
        <ele>452</ele>
        <time>2026-08-26T18:52:49+00:00</time>
      </trkpt>
      <trkpt lat="49.91339" lon="6.0965">
        <ele>455</ele>
        <time>2026-08-26T18:52:52+00:00</time>
      </trkpt>
      <trkpt lat="49.91317" lon="6.09586">
        <ele>456</ele>
        <time>2026-08-26T18:52:55+00:00</time>
      </trkpt>
      <trkpt lat="49.91304" lon="6.09547">
        <ele>456</ele>
        <time>2026-08-26T18:52:58+00:00</time>
      </trkpt>
      <trkpt lat="49.91296" lon="6.09506">
        <ele>456</ele>
        <time>2026-08-26T18:53:01+00:00</time>
      </trkpt>
      <trkpt lat="49.91281" lon="6.09451">
        <ele>456</ele>
        <time>2026-08-26T18:53:04+00:00</time>
      </trkpt>
      <trkpt lat="49.91275" lon="6.09436">
        <ele>458</ele>
        <time>2026-08-26T18:53:07+00:00</time>
      </trkpt>
      <trkpt lat="49.91262" lon="6.09421">
        <ele>459</ele>
        <time>2026-08-26T18:53:10+00:00</time>
      </trkpt>
      <trkpt lat="49.91251" lon="6.09413">
        <ele>461</ele>
        <time>2026-08-26T18:53:13+00:00</time>
      </trkpt>
      <trkpt lat="49.91241" lon="6.09409">
        <ele>462</ele>
        <time>2026-08-26T18:53:16+00:00</time>
      </trkpt>
      <trkpt lat="49.91229" lon="6.09408">
        <ele>466</ele>
        <time>2026-08-26T18:53:19+00:00</time>
      </trkpt>
      <trkpt lat="49.91216" lon="6.09413">
        <ele>468</ele>
        <time>2026-08-26T18:53:22+00:00</time>
      </trkpt>
      <trkpt lat="49.91205" lon="6.09413">
        <ele>471</ele>
        <time>2026-08-26T18:53:25+00:00</time>
      </trkpt>
      <trkpt lat="49.91189" lon="6.0941">
        <ele>474</ele>
        <time>2026-08-26T18:53:28+00:00</time>
      </trkpt>
      <trkpt lat="49.91172" lon="6.09407">
        <ele>474</ele>
        <time>2026-08-26T18:53:31+00:00</time>
      </trkpt>
      <trkpt lat="49.91164" lon="6.09402">
        <ele>477</ele>
        <time>2026-08-26T18:53:34+00:00</time>
      </trkpt>
      <trkpt lat="49.91145" lon="6.09403">
        <ele>472</ele>
        <time>2026-08-26T18:53:37+00:00</time>
      </trkpt>
      <trkpt lat="49.91139" lon="6.09395">
        <ele>474</ele>
        <time>2026-08-26T18:53:40+00:00</time>
      </trkpt>
      <trkpt lat="49.91129" lon="6.09378">
        <ele>471</ele>
        <time>2026-08-26T18:53:43+00:00</time>
      </trkpt>
      <trkpt lat="49.91126" lon="6.09365">
        <ele>470</ele>
        <time>2026-08-26T18:53:46+00:00</time>
      </trkpt>
      <trkpt lat="49.91114" lon="6.09361">
        <ele>469</ele>
        <time>2026-08-26T18:53:49+00:00</time>
      </trkpt>
      <trkpt lat="49.91097" lon="6.09361">
        <ele>466</ele>
        <time>2026-08-26T18:53:52+00:00</time>
      </trkpt>
      <trkpt lat="49.91082" lon="6.09359">
        <ele>465</ele>
        <time>2026-08-26T18:53:55+00:00</time>
      </trkpt>
      <trkpt lat="49.91074" lon="6.09355">
        <ele>463</ele>
        <time>2026-08-26T18:53:58+00:00</time>
      </trkpt>
      <trkpt lat="49.91067" lon="6.09348">
        <ele>462</ele>
        <time>2026-08-26T18:54:01+00:00</time>
      </trkpt>
      <trkpt lat="49.91051" lon="6.0934">
        <ele>461</ele>
        <time>2026-08-26T18:54:04+00:00</time>
      </trkpt>
      <trkpt lat="49.91046" lon="6.09333">
        <ele>458</ele>
        <time>2026-08-26T18:54:07+00:00</time>
      </trkpt>
      <trkpt lat="49.91042" lon="6.09319">
        <ele>457</ele>
        <time>2026-08-26T18:54:10+00:00</time>
      </trkpt>
      <trkpt lat="49.91037" lon="6.09308">
        <ele>456</ele>
        <time>2026-08-26T18:54:13+00:00</time>
      </trkpt>
      <trkpt lat="49.91026" lon="6.09295">
        <ele>455</ele>
        <time>2026-08-26T18:54:16+00:00</time>
      </trkpt>
      <trkpt lat="49.91017" lon="6.09291">
        <ele>453</ele>
        <time>2026-08-26T18:54:19+00:00</time>
      </trkpt>
      <trkpt lat="49.91001" lon="6.09275">
        <ele>450</ele>
        <time>2026-08-26T18:54:22+00:00</time>
      </trkpt>
      <trkpt lat="49.90999" lon="6.09271">
        <ele>446</ele>
        <time>2026-08-26T18:54:25+00:00</time>
      </trkpt>
      <trkpt lat="49.90997" lon="6.09255">
        <ele>445</ele>
        <time>2026-08-26T18:54:28+00:00</time>
      </trkpt>
      <trkpt lat="49.90992" lon="6.09248">
        <ele>445</ele>
        <time>2026-08-26T18:54:31+00:00</time>
      </trkpt>
      <trkpt lat="49.90986" lon="6.0923">
        <ele>443</ele>
        <time>2026-08-26T18:54:34+00:00</time>
      </trkpt>
      <trkpt lat="49.90985" lon="6.09219">
        <ele>443</ele>
        <time>2026-08-26T18:54:37+00:00</time>
      </trkpt>
      <trkpt lat="49.90982" lon="6.09213">
        <ele>443</ele>
        <time>2026-08-26T18:54:40+00:00</time>
      </trkpt>
      <trkpt lat="49.90965" lon="6.0921">
        <ele>440</ele>
        <time>2026-08-26T18:54:43+00:00</time>
      </trkpt>
      <trkpt lat="49.90943" lon="6.09224">
        <ele>436</ele>
        <time>2026-08-26T18:54:46+00:00</time>
      </trkpt>
      <trkpt lat="49.9094" lon="6.09225">
        <ele>436</ele>
        <time>2026-08-26T18:54:49+00:00</time>
      </trkpt>
      <trkpt lat="49.90935" lon="6.09222">
        <ele>436</ele>
        <time>2026-08-26T18:54:52+00:00</time>
      </trkpt>
      <trkpt lat="49.90931" lon="6.09224">
        <ele>436</ele>
        <time>2026-08-26T18:54:55+00:00</time>
      </trkpt>
      <trkpt lat="49.90929" lon="6.09222">
        <ele>438</ele>
        <time>2026-08-26T18:54:58+00:00</time>
      </trkpt>
      <trkpt lat="49.90917" lon="6.0919">
        <ele>433</ele>
        <time>2026-08-26T18:55:01+00:00</time>
      </trkpt>
      <trkpt lat="49.90905" lon="6.09176">
        <ele>428</ele>
        <time>2026-08-26T18:55:04+00:00</time>
      </trkpt>
      <trkpt lat="49.90892" lon="6.09164">
        <ele>425</ele>
        <time>2026-08-26T18:55:07+00:00</time>
      </trkpt>
      <trkpt lat="49.90877" lon="6.09151">
        <ele>420</ele>
        <time>2026-08-26T18:55:10+00:00</time>
      </trkpt>
      <trkpt lat="49.90842" lon="6.0912">
        <ele>409</ele>
        <time>2026-08-26T18:55:13+00:00</time>
      </trkpt>
      <trkpt lat="49.90829" lon="6.09099">
        <ele>401</ele>
        <time>2026-08-26T18:55:16+00:00</time>
      </trkpt>
      <trkpt lat="49.9082" lon="6.09095">
        <ele>398</ele>
        <time>2026-08-26T18:55:19+00:00</time>
      </trkpt>
      <trkpt lat="49.90793" lon="6.09085">
        <ele>387</ele>
        <time>2026-08-26T18:55:22+00:00</time>
      </trkpt>
      <trkpt lat="49.90771" lon="6.09074">
        <ele>380</ele>
        <time>2026-08-26T18:55:25+00:00</time>
      </trkpt>
      <trkpt lat="49.90746" lon="6.09062">
        <ele>375</ele>
        <time>2026-08-26T18:55:28+00:00</time>
      </trkpt>
      <trkpt lat="49.90739" lon="6.09055">
        <ele>374</ele>
        <time>2026-08-26T18:55:31+00:00</time>
      </trkpt>
      <trkpt lat="49.90727" lon="6.09042">
        <ele>374</ele>
        <time>2026-08-26T18:55:34+00:00</time>
      </trkpt>
      <trkpt lat="49.90695" lon="6.09011">
        <ele>373</ele>
        <time>2026-08-26T18:55:37+00:00</time>
      </trkpt>
      <trkpt lat="49.90693" lon="6.0901">
        <ele>373</ele>
        <time>2026-08-26T18:55:40+00:00</time>
      </trkpt>
      <trkpt lat="49.9068" lon="6.09003">
        <ele>373</ele>
        <time>2026-08-26T18:55:43+00:00</time>
      </trkpt>
      <trkpt lat="49.90658" lon="6.08996">
        <ele>373</ele>
        <time>2026-08-26T18:55:46+00:00</time>
      </trkpt>
      <trkpt lat="49.90637" lon="6.08985">
        <ele>373</ele>
        <time>2026-08-26T18:55:49+00:00</time>
      </trkpt>
      <trkpt lat="49.90622" lon="6.08978">
        <ele>374</ele>
        <time>2026-08-26T18:55:52+00:00</time>
      </trkpt>
      <trkpt lat="49.90617" lon="6.08972">
        <ele>373</ele>
        <time>2026-08-26T18:55:55+00:00</time>
      </trkpt>
      <trkpt lat="49.90605" lon="6.08947">
        <ele>372</ele>
        <time>2026-08-26T18:55:58+00:00</time>
      </trkpt>
      <trkpt lat="49.90597" lon="6.08935">
        <ele>374</ele>
        <time>2026-08-26T18:56:01+00:00</time>
      </trkpt>
      <trkpt lat="49.90583" lon="6.0892">
        <ele>371</ele>
        <time>2026-08-26T18:56:04+00:00</time>
      </trkpt>
      <trkpt lat="49.90567" lon="6.08904">
        <ele>366</ele>
        <time>2026-08-26T18:56:07+00:00</time>
      </trkpt>
      <trkpt lat="49.90536" lon="6.08878">
        <ele>356</ele>
        <time>2026-08-26T18:56:10+00:00</time>
      </trkpt>
      <trkpt lat="49.9052" lon="6.08866">
        <ele>352</ele>
        <time>2026-08-26T18:56:13+00:00</time>
      </trkpt>
      <trkpt lat="49.90504" lon="6.08859">
        <ele>344</ele>
        <time>2026-08-26T18:56:16+00:00</time>
      </trkpt>
      <trkpt lat="49.90486" lon="6.08846">
        <ele>338</ele>
        <time>2026-08-26T18:56:19+00:00</time>
      </trkpt>
      <trkpt lat="49.9047" lon="6.08831">
        <ele>333</ele>
        <time>2026-08-26T18:56:22+00:00</time>
      </trkpt>
      <trkpt lat="49.90457" lon="6.08826">
        <ele>331</ele>
        <time>2026-08-26T18:56:25+00:00</time>
      </trkpt>
      <trkpt lat="49.90444" lon="6.08823">
        <ele>329</ele>
        <time>2026-08-26T18:56:28+00:00</time>
      </trkpt>
      <trkpt lat="49.90432" lon="6.08821">
        <ele>325</ele>
        <time>2026-08-26T18:56:31+00:00</time>
      </trkpt>
      <trkpt lat="49.90415" lon="6.08813">
        <ele>320</ele>
        <time>2026-08-26T18:56:34+00:00</time>
      </trkpt>
      <trkpt lat="49.90394" lon="6.08804">
        <ele>315</ele>
        <time>2026-08-26T18:56:37+00:00</time>
      </trkpt>
      <trkpt lat="49.90383" lon="6.08796">
        <ele>311</ele>
        <time>2026-08-26T18:56:40+00:00</time>
      </trkpt>
      <trkpt lat="49.90362" lon="6.08784">
        <ele>305</ele>
        <time>2026-08-26T18:56:43+00:00</time>
      </trkpt>
      <trkpt lat="49.9033" lon="6.08766">
        <ele>300</ele>
        <time>2026-08-26T18:56:46+00:00</time>
      </trkpt>
      <trkpt lat="49.903" lon="6.08761">
        <ele>295</ele>
        <time>2026-08-26T18:56:49+00:00</time>
      </trkpt>
      <trkpt lat="49.90271" lon="6.08757">
        <ele>290</ele>
        <time>2026-08-26T18:56:52+00:00</time>
      </trkpt>
      <trkpt lat="49.90237" lon="6.08752">
        <ele>287</ele>
        <time>2026-08-26T18:56:55+00:00</time>
      </trkpt>
      <trkpt lat="49.90207" lon="6.08751">
        <ele>284</ele>
        <time>2026-08-26T18:56:58+00:00</time>
      </trkpt>
      <trkpt lat="49.9019" lon="6.08747">
        <ele>283</ele>
        <time>2026-08-26T18:57:01+00:00</time>
      </trkpt>
      <trkpt lat="49.90166" lon="6.08741">
        <ele>280</ele>
        <time>2026-08-26T18:57:04+00:00</time>
      </trkpt>
      <trkpt lat="49.90151" lon="6.08746">
        <ele>279</ele>
        <time>2026-08-26T18:57:07+00:00</time>
      </trkpt>
      <trkpt lat="49.90142" lon="6.08752">
        <ele>277</ele>
        <time>2026-08-26T18:57:10+00:00</time>
      </trkpt>
      <trkpt lat="49.90124" lon="6.08773">
        <ele>274</ele>
        <time>2026-08-26T18:57:13+00:00</time>
      </trkpt>
      <trkpt lat="49.90105" lon="6.08796">
        <ele>271</ele>
        <time>2026-08-26T18:57:16+00:00</time>
      </trkpt>
      <trkpt lat="49.90094" lon="6.08819">
        <ele>271</ele>
        <time>2026-08-26T18:57:19+00:00</time>
      </trkpt>
      <trkpt lat="49.9009" lon="6.08833">
        <ele>272</ele>
        <time>2026-08-26T18:57:22+00:00</time>
      </trkpt>
      <trkpt lat="49.90088" lon="6.08837">
        <ele>269</ele>
        <time>2026-08-26T18:57:25+00:00</time>
      </trkpt>
      <trkpt lat="49.90084" lon="6.08837">
        <ele>269</ele>
        <time>2026-08-26T18:57:28+00:00</time>
      </trkpt>
      <trkpt lat="49.90082" lon="6.08833">
        <ele>269</ele>
        <time>2026-08-26T18:57:31+00:00</time>
      </trkpt>
      <trkpt lat="49.90082" lon="6.08819">
        <ele>268</ele>
        <time>2026-08-26T18:57:34+00:00</time>
      </trkpt>
      <trkpt lat="49.90088" lon="6.08791">
        <ele>267</ele>
        <time>2026-08-26T18:57:37+00:00</time>
      </trkpt>
      <trkpt lat="49.90096" lon="6.08758">
        <ele>264</ele>
        <time>2026-08-26T18:57:40+00:00</time>
      </trkpt>
      <trkpt lat="49.90107" lon="6.0872">
        <ele>263</ele>
        <time>2026-08-26T18:57:43+00:00</time>
      </trkpt>
      <trkpt lat="49.90094" lon="6.08738">
        <ele>260</ele>
        <time>2026-08-26T18:57:46+00:00</time>
      </trkpt>
      <trkpt lat="49.90067" lon="6.08756">
        <ele>251</ele>
        <time>2026-08-26T18:57:49+00:00</time>
      </trkpt>
      <trkpt lat="49.90052" lon="6.08772">
        <ele>249</ele>
        <time>2026-08-26T18:57:52+00:00</time>
      </trkpt>
      <trkpt lat="49.90025" lon="6.08819">
        <ele>241</ele>
        <time>2026-08-26T18:57:55+00:00</time>
      </trkpt>
      <trkpt lat="49.90014" lon="6.08846">
        <ele>240</ele>
        <time>2026-08-26T18:57:58+00:00</time>
      </trkpt>
      <trkpt lat="49.90006" lon="6.08856">
        <ele>238</ele>
        <time>2026-08-26T18:58:01+00:00</time>
      </trkpt>
      <trkpt lat="49.90001" lon="6.08863">
        <ele>238</ele>
        <time>2026-08-26T18:58:04+00:00</time>
      </trkpt>
      <trkpt lat="49.89999" lon="6.08866">
        <ele>235</ele>
        <time>2026-08-26T18:58:07+00:00</time>
      </trkpt>
      <trkpt lat="49.89997" lon="6.08875">
        <ele>235</ele>
        <time>2026-08-26T18:58:10+00:00</time>
      </trkpt>
      <trkpt lat="49.89998" lon="6.08885">
        <ele>235</ele>
        <time>2026-08-26T18:58:13+00:00</time>
      </trkpt>
      <trkpt lat="49.90006" lon="6.08912">
        <ele>233</ele>
        <time>2026-08-26T18:58:16+00:00</time>
      </trkpt>
      <trkpt lat="49.89982" lon="6.0891">
        <ele>231</ele>
        <time>2026-08-26T18:58:19+00:00</time>
      </trkpt>
      <trkpt lat="49.8996" lon="6.08901">
        <ele>227</ele>
        <time>2026-08-26T18:58:22+00:00</time>
      </trkpt>
      <trkpt lat="49.89937" lon="6.08895">
        <ele>226</ele>
        <time>2026-08-26T18:58:25+00:00</time>
      </trkpt>
      <trkpt lat="49.89932" lon="6.08894">
        <ele>225</ele>
        <time>2026-08-26T18:58:28+00:00</time>
      </trkpt>
      <trkpt lat="49.89929" lon="6.08912">
        <ele>224</ele>
        <time>2026-08-26T18:58:31+00:00</time>
      </trkpt>
      <trkpt lat="49.89921" lon="6.0893">
        <ele>226</ele>
        <time>2026-08-26T18:58:34+00:00</time>
      </trkpt>
      <trkpt lat="49.89897" lon="6.08959">
        <ele>223</ele>
        <time>2026-08-26T18:58:37+00:00</time>
      </trkpt>
      <trkpt lat="49.89867" lon="6.08998">
        <ele>222</ele>
        <time>2026-08-26T18:58:40+00:00</time>
      </trkpt>
      <trkpt lat="49.89849" lon="6.09019">
        <ele>223</ele>
        <time>2026-08-26T18:58:43+00:00</time>
      </trkpt>
      <trkpt lat="49.89831" lon="6.09041">
        <ele>223</ele>
        <time>2026-08-26T18:58:46+00:00</time>
      </trkpt>
      <trkpt lat="49.89822" lon="6.09054">
        <ele>223</ele>
        <time>2026-08-26T18:58:49+00:00</time>
      </trkpt>
      <trkpt lat="49.89805" lon="6.09073">
        <ele>223</ele>
        <time>2026-08-26T18:58:52+00:00</time>
      </trkpt>
      <trkpt lat="49.89781" lon="6.09101">
        <ele>224</ele>
        <time>2026-08-26T18:58:55+00:00</time>
      </trkpt>
      <trkpt lat="49.89783" lon="6.09105">
        <ele>224</ele>
        <time>2026-08-26T18:58:58+00:00</time>
      </trkpt>
      <trkpt lat="49.89784" lon="6.09108">
        <ele>224</ele>
        <time>2026-08-26T18:59:01+00:00</time>
      </trkpt>
      <trkpt lat="49.89776" lon="6.09128">
        <ele>225</ele>
        <time>2026-08-26T18:59:04+00:00</time>
      </trkpt>
      <trkpt lat="49.89782" lon="6.09149">
        <ele>226</ele>
        <time>2026-08-26T18:59:07+00:00</time>
      </trkpt>
      <trkpt lat="49.89787" lon="6.09158">
        <ele>227</ele>
        <time>2026-08-26T18:59:10+00:00</time>
      </trkpt>
      <trkpt lat="49.89787" lon="6.09169">
        <ele>228</ele>
        <time>2026-08-26T18:59:13+00:00</time>
      </trkpt>
      <trkpt lat="49.89795" lon="6.09187">
        <ele>229</ele>
        <time>2026-08-26T18:59:16+00:00</time>
      </trkpt>
      <trkpt lat="49.898" lon="6.09193">
        <ele>230</ele>
        <time>2026-08-26T18:59:19+00:00</time>
      </trkpt>
      <trkpt lat="49.89817" lon="6.09197">
        <ele>231</ele>
        <time>2026-08-26T18:59:22+00:00</time>
      </trkpt>
      <trkpt lat="49.89826" lon="6.09208">
        <ele>232</ele>
        <time>2026-08-26T18:59:25+00:00</time>
      </trkpt>
      <trkpt lat="49.89832" lon="6.09224">
        <ele>233</ele>
        <time>2026-08-26T18:59:28+00:00</time>
      </trkpt>
      <trkpt lat="49.89832" lon="6.0923">
        <ele>233</ele>
        <time>2026-08-26T18:59:31+00:00</time>
      </trkpt>
      <trkpt lat="49.8983" lon="6.09234">
        <ele>233</ele>
        <time>2026-08-26T18:59:34+00:00</time>
      </trkpt>
      <trkpt lat="49.89822" lon="6.09243">
        <ele>236</ele>
        <time>2026-08-26T18:59:37+00:00</time>
      </trkpt>
      <trkpt lat="49.89816" lon="6.09245">
        <ele>237</ele>
        <time>2026-08-26T18:59:40+00:00</time>
      </trkpt>
      <trkpt lat="49.8981" lon="6.09244">
        <ele>237</ele>
        <time>2026-08-26T18:59:43+00:00</time>
      </trkpt>
      <trkpt lat="49.89801" lon="6.09239">
        <ele>237</ele>
        <time>2026-08-26T18:59:46+00:00</time>
      </trkpt>
      <trkpt lat="49.89798" lon="6.09249">
        <ele>239</ele>
        <time>2026-08-26T18:59:49+00:00</time>
      </trkpt>
      <trkpt lat="49.89803" lon="6.09259">
        <ele>239</ele>
        <time>2026-08-26T18:59:52+00:00</time>
      </trkpt>
      <trkpt lat="49.89812" lon="6.09295">
        <ele>246</ele>
        <time>2026-08-26T18:59:55+00:00</time>
      </trkpt>
      <trkpt lat="49.89819" lon="6.09338">
        <ele>254</ele>
        <time>2026-08-26T18:59:58+00:00</time>
      </trkpt>
      <trkpt lat="49.89824" lon="6.0939">
        <ele>257</ele>
        <time>2026-08-26T19:00:01+00:00</time>
      </trkpt>
      <trkpt lat="49.8983" lon="6.09423">
        <ele>259</ele>
        <time>2026-08-26T19:00:04+00:00</time>
      </trkpt>
      <trkpt lat="49.89833" lon="6.09434">
        <ele>261</ele>
        <time>2026-08-26T19:00:07+00:00</time>
      </trkpt>
      <trkpt lat="49.89843" lon="6.09458">
        <ele>264</ele>
        <time>2026-08-26T19:00:10+00:00</time>
      </trkpt>
      <trkpt lat="49.89853" lon="6.09482">
        <ele>271</ele>
        <time>2026-08-26T19:00:13+00:00</time>
      </trkpt>
      <trkpt lat="49.89857" lon="6.09502">
        <ele>273</ele>
        <time>2026-08-26T19:00:16+00:00</time>
      </trkpt>
      <trkpt lat="49.89857" lon="6.09504">
        <ele>273</ele>
        <time>2026-08-26T19:00:19+00:00</time>
      </trkpt>
      <trkpt lat="49.89858" lon="6.09514">
        <ele>275</ele>
        <time>2026-08-26T19:00:22+00:00</time>
      </trkpt>
      <trkpt lat="49.89856" lon="6.09524">
        <ele>276</ele>
        <time>2026-08-26T19:00:25+00:00</time>
      </trkpt>
      <trkpt lat="49.8985" lon="6.09533">
        <ele>278</ele>
        <time>2026-08-26T19:00:28+00:00</time>
      </trkpt>
      <trkpt lat="49.89846" lon="6.0954">
        <ele>279</ele>
        <time>2026-08-26T19:00:31+00:00</time>
      </trkpt>
      <trkpt lat="49.89823" lon="6.09587">
        <ele>282</ele>
        <time>2026-08-26T19:00:34+00:00</time>
      </trkpt>
      <trkpt lat="49.89809" lon="6.0965">
        <ele>286</ele>
        <time>2026-08-26T19:00:37+00:00</time>
      </trkpt>
      <trkpt lat="49.89807" lon="6.0967">
        <ele>288</ele>
        <time>2026-08-26T19:00:40+00:00</time>
      </trkpt>
      <trkpt lat="49.89806" lon="6.09713">
        <ele>291</ele>
        <time>2026-08-26T19:00:43+00:00</time>
      </trkpt>
      <trkpt lat="49.89804" lon="6.09746">
        <ele>295</ele>
        <time>2026-08-26T19:00:46+00:00</time>
      </trkpt>
      <trkpt lat="49.89799" lon="6.09806">
        <ele>302</ele>
        <time>2026-08-26T19:00:49+00:00</time>
      </trkpt>
      <trkpt lat="49.8979" lon="6.09859">
        <ele>309</ele>
        <time>2026-08-26T19:00:52+00:00</time>
      </trkpt>
      <trkpt lat="49.89779" lon="6.09892">
        <ele>315</ele>
        <time>2026-08-26T19:00:55+00:00</time>
      </trkpt>
      <trkpt lat="49.89765" lon="6.09935">
        <ele>322</ele>
        <time>2026-08-26T19:00:58+00:00</time>
      </trkpt>
      <trkpt lat="49.89754" lon="6.09953">
        <ele>325</ele>
        <time>2026-08-26T19:01:01+00:00</time>
      </trkpt>
      <trkpt lat="49.89743" lon="6.09964">
        <ele>326</ele>
        <time>2026-08-26T19:01:04+00:00</time>
      </trkpt>
      <trkpt lat="49.89734" lon="6.09977">
        <ele>326</ele>
        <time>2026-08-26T19:01:07+00:00</time>
      </trkpt>
      <trkpt lat="49.89731" lon="6.09992">
        <ele>329</ele>
        <time>2026-08-26T19:01:10+00:00</time>
      </trkpt>
      <trkpt lat="49.89732" lon="6.10001">
        <ele>330</ele>
        <time>2026-08-26T19:01:13+00:00</time>
      </trkpt>
      <trkpt lat="49.89739" lon="6.10008">
        <ele>330</ele>
        <time>2026-08-26T19:01:16+00:00</time>
      </trkpt>
      <trkpt lat="49.89751" lon="6.10011">
        <ele>336</ele>
        <time>2026-08-26T19:01:19+00:00</time>
      </trkpt>
      <trkpt lat="49.89762" lon="6.1002">
        <ele>337</ele>
        <time>2026-08-26T19:01:22+00:00</time>
      </trkpt>
      <trkpt lat="49.89777" lon="6.10045">
        <ele>339</ele>
        <time>2026-08-26T19:01:25+00:00</time>
      </trkpt>
      <trkpt lat="49.89777" lon="6.10051">
        <ele>341</ele>
        <time>2026-08-26T19:01:28+00:00</time>
      </trkpt>
      <trkpt lat="49.89785" lon="6.10078">
        <ele>344</ele>
        <time>2026-08-26T19:01:31+00:00</time>
      </trkpt>
      <trkpt lat="49.89798" lon="6.10106">
        <ele>344</ele>
        <time>2026-08-26T19:01:34+00:00</time>
      </trkpt>
      <trkpt lat="49.89814" lon="6.10131">
        <ele>344</ele>
        <time>2026-08-26T19:01:37+00:00</time>
      </trkpt>
      <trkpt lat="49.89832" lon="6.1016">
        <ele>344</ele>
        <time>2026-08-26T19:01:40+00:00</time>
      </trkpt>
      <trkpt lat="49.89846" lon="6.10173">
        <ele>348</ele>
        <time>2026-08-26T19:01:43+00:00</time>
      </trkpt>
      <trkpt lat="49.89861" lon="6.10182">
        <ele>343</ele>
        <time>2026-08-26T19:01:46+00:00</time>
      </trkpt>
      <trkpt lat="49.89879" lon="6.10193">
        <ele>342</ele>
        <time>2026-08-26T19:01:49+00:00</time>
      </trkpt>
      <trkpt lat="49.89891" lon="6.10204">
        <ele>342</ele>
        <time>2026-08-26T19:01:52+00:00</time>
      </trkpt>
      <trkpt lat="49.89905" lon="6.10224">
        <ele>340</ele>
        <time>2026-08-26T19:01:55+00:00</time>
      </trkpt>
      <trkpt lat="49.89917" lon="6.10249">
        <ele>336</ele>
        <time>2026-08-26T19:01:58+00:00</time>
      </trkpt>
      <trkpt lat="49.89919" lon="6.10254">
        <ele>335</ele>
        <time>2026-08-26T19:02:01+00:00</time>
      </trkpt>
      <trkpt lat="49.89928" lon="6.10282">
        <ele>333</ele>
        <time>2026-08-26T19:02:04+00:00</time>
      </trkpt>
      <trkpt lat="49.89938" lon="6.10311">
        <ele>331</ele>
        <time>2026-08-26T19:02:07+00:00</time>
      </trkpt>
      <trkpt lat="49.89959" lon="6.10369">
        <ele>330</ele>
        <time>2026-08-26T19:02:10+00:00</time>
      </trkpt>
      <trkpt lat="49.89963" lon="6.10385">
        <ele>329</ele>
        <time>2026-08-26T19:02:13+00:00</time>
      </trkpt>
      <trkpt lat="49.89972" lon="6.1043">
        <ele>326</ele>
        <time>2026-08-26T19:02:16+00:00</time>
      </trkpt>
      <trkpt lat="49.8998" lon="6.10474">
        <ele>322</ele>
        <time>2026-08-26T19:02:19+00:00</time>
      </trkpt>
      <trkpt lat="49.89989" lon="6.10519">
        <ele>321</ele>
        <time>2026-08-26T19:02:22+00:00</time>
      </trkpt>
      <trkpt lat="49.89998" lon="6.10568">
        <ele>321</ele>
        <time>2026-08-26T19:02:25+00:00</time>
      </trkpt>
      <trkpt lat="49.89996" lon="6.10616">
        <ele>321</ele>
        <time>2026-08-26T19:02:28+00:00</time>
      </trkpt>
      <trkpt lat="49.89985" lon="6.10669">
        <ele>321</ele>
        <time>2026-08-26T19:02:31+00:00</time>
      </trkpt>
      <trkpt lat="49.89975" lon="6.10702">
        <ele>320</ele>
        <time>2026-08-26T19:02:34+00:00</time>
      </trkpt>
      <trkpt lat="49.89958" lon="6.10721">
        <ele>320</ele>
        <time>2026-08-26T19:02:37+00:00</time>
      </trkpt>
      <trkpt lat="49.89949" lon="6.10733">
        <ele>322</ele>
        <time>2026-08-26T19:02:40+00:00</time>
      </trkpt>
      <trkpt lat="49.89947" lon="6.10745">
        <ele>323</ele>
        <time>2026-08-26T19:02:43+00:00</time>
      </trkpt>
      <trkpt lat="49.89946" lon="6.10769">
        <ele>324</ele>
        <time>2026-08-26T19:02:46+00:00</time>
      </trkpt>
      <trkpt lat="49.89948" lon="6.10802">
        <ele>326</ele>
        <time>2026-08-26T19:02:49+00:00</time>
      </trkpt>
      <trkpt lat="49.89954" lon="6.10839">
        <ele>326</ele>
        <time>2026-08-26T19:02:52+00:00</time>
      </trkpt>
      <trkpt lat="49.8996" lon="6.10863">
        <ele>327</ele>
        <time>2026-08-26T19:02:55+00:00</time>
      </trkpt>
      <trkpt lat="49.89967" lon="6.10879">
        <ele>327</ele>
        <time>2026-08-26T19:02:58+00:00</time>
      </trkpt>
      <trkpt lat="49.89984" lon="6.10898">
        <ele>327</ele>
        <time>2026-08-26T19:03:01+00:00</time>
      </trkpt>
      <trkpt lat="49.89988" lon="6.10899">
        <ele>328</ele>
        <time>2026-08-26T19:03:04+00:00</time>
      </trkpt>
      <trkpt lat="49.90011" lon="6.1089">
        <ele>327</ele>
        <time>2026-08-26T19:03:07+00:00</time>
      </trkpt>
      <trkpt lat="49.90036" lon="6.10884">
        <ele>326</ele>
        <time>2026-08-26T19:03:10+00:00</time>
      </trkpt>
      <trkpt lat="49.90041" lon="6.10886">
        <ele>326</ele>
        <time>2026-08-26T19:03:13+00:00</time>
      </trkpt>
      <trkpt lat="49.90044" lon="6.1089">
        <ele>326</ele>
        <time>2026-08-26T19:03:16+00:00</time>
      </trkpt>
      <trkpt lat="49.90044" lon="6.10897">
        <ele>326</ele>
        <time>2026-08-26T19:03:19+00:00</time>
      </trkpt>
      <trkpt lat="49.90043" lon="6.10903">
        <ele>326</ele>
        <time>2026-08-26T19:03:22+00:00</time>
      </trkpt>
      <trkpt lat="49.90041" lon="6.10911">
        <ele>325</ele>
        <time>2026-08-26T19:03:25+00:00</time>
      </trkpt>
      <trkpt lat="49.90031" lon="6.10947">
        <ele>326</ele>
        <time>2026-08-26T19:03:28+00:00</time>
      </trkpt>
      <trkpt lat="49.90029" lon="6.10967">
        <ele>327</ele>
        <time>2026-08-26T19:03:31+00:00</time>
      </trkpt>
      <trkpt lat="49.90031" lon="6.10987">
        <ele>328</ele>
        <time>2026-08-26T19:03:34+00:00</time>
      </trkpt>
      <trkpt lat="49.90036" lon="6.11007">
        <ele>329</ele>
        <time>2026-08-26T19:03:37+00:00</time>
      </trkpt>
      <trkpt lat="49.90047" lon="6.11036">
        <ele>333</ele>
        <time>2026-08-26T19:03:40+00:00</time>
      </trkpt>
      <trkpt lat="49.90022" lon="6.11033">
        <ele>333</ele>
        <time>2026-08-26T19:03:43+00:00</time>
      </trkpt>
      <trkpt lat="49.89987" lon="6.11028">
        <ele>333</ele>
        <time>2026-08-26T19:03:46+00:00</time>
      </trkpt>
      <trkpt lat="49.89955" lon="6.11021">
        <ele>333</ele>
        <time>2026-08-26T19:03:49+00:00</time>
      </trkpt>
      <trkpt lat="49.89945" lon="6.11013">
        <ele>337</ele>
        <time>2026-08-26T19:03:52+00:00</time>
      </trkpt>
      <trkpt lat="49.8994" lon="6.11013">
        <ele>337</ele>
        <time>2026-08-26T19:03:55+00:00</time>
      </trkpt>
      <trkpt lat="49.89921" lon="6.11006">
        <ele>334</ele>
        <time>2026-08-26T19:03:58+00:00</time>
      </trkpt>
      <trkpt lat="49.89919" lon="6.11005">
        <ele>332</ele>
        <time>2026-08-26T19:04:01+00:00</time>
      </trkpt>
      <trkpt lat="49.89918" lon="6.11006">
        <ele>332</ele>
        <time>2026-08-26T19:04:04+00:00</time>
      </trkpt>
      <trkpt lat="49.8992" lon="6.11013">
        <ele>333</ele>
        <time>2026-08-26T19:04:07+00:00</time>
      </trkpt>
      <trkpt lat="49.89927" lon="6.1102">
        <ele>337</ele>
        <time>2026-08-26T19:04:10+00:00</time>
      </trkpt>
      <trkpt lat="49.89937" lon="6.11037">
        <ele>340</ele>
        <time>2026-08-26T19:04:13+00:00</time>
      </trkpt>
      <trkpt lat="49.89948" lon="6.11055">
        <ele>343</ele>
        <time>2026-08-26T19:04:16+00:00</time>
      </trkpt>
      <trkpt lat="49.89956" lon="6.11065">
        <ele>344</ele>
        <time>2026-08-26T19:04:19+00:00</time>
      </trkpt>
      <trkpt lat="49.89967" lon="6.11089">
        <ele>347</ele>
        <time>2026-08-26T19:04:22+00:00</time>
      </trkpt>
      <trkpt lat="49.89972" lon="6.11106">
        <ele>352</ele>
        <time>2026-08-26T19:04:25+00:00</time>
      </trkpt>
      <trkpt lat="49.89985" lon="6.11132">
        <ele>358</ele>
        <time>2026-08-26T19:04:28+00:00</time>
      </trkpt>
      <trkpt lat="49.89989" lon="6.11146">
        <ele>361</ele>
        <time>2026-08-26T19:04:31+00:00</time>
      </trkpt>
      <trkpt lat="49.89999" lon="6.11171">
        <ele>366</ele>
        <time>2026-08-26T19:04:34+00:00</time>
      </trkpt>
      <trkpt lat="49.90011" lon="6.11201">
        <ele>371</ele>
        <time>2026-08-26T19:04:37+00:00</time>
      </trkpt>
      <trkpt lat="49.9002" lon="6.11232">
        <ele>376</ele>
        <time>2026-08-26T19:04:40+00:00</time>
      </trkpt>
      <trkpt lat="49.9003" lon="6.11263">
        <ele>380</ele>
        <time>2026-08-26T19:04:43+00:00</time>
      </trkpt>
      <trkpt lat="49.90043" lon="6.11284">
        <ele>384</ele>
        <time>2026-08-26T19:04:46+00:00</time>
      </trkpt>
      <trkpt lat="49.90046" lon="6.11293">
        <ele>386</ele>
        <time>2026-08-26T19:04:49+00:00</time>
      </trkpt>
      <trkpt lat="49.90046" lon="6.11302">
        <ele>388</ele>
        <time>2026-08-26T19:04:52+00:00</time>
      </trkpt>
      <trkpt lat="49.90042" lon="6.11311">
        <ele>389</ele>
        <time>2026-08-26T19:04:55+00:00</time>
      </trkpt>
      <trkpt lat="49.90042" lon="6.11327">
        <ele>390</ele>
        <time>2026-08-26T19:04:58+00:00</time>
      </trkpt>
      <trkpt lat="49.90049" lon="6.11349">
        <ele>390</ele>
        <time>2026-08-26T19:05:01+00:00</time>
      </trkpt>
      <trkpt lat="49.90063" lon="6.11365">
        <ele>391</ele>
        <time>2026-08-26T19:05:04+00:00</time>
      </trkpt>
      <trkpt lat="49.90086" lon="6.11373">
        <ele>388</ele>
        <time>2026-08-26T19:05:07+00:00</time>
      </trkpt>
      <trkpt lat="49.90095" lon="6.11383">
        <ele>389</ele>
        <time>2026-08-26T19:05:10+00:00</time>
      </trkpt>
      <trkpt lat="49.90121" lon="6.11394">
        <ele>388</ele>
        <time>2026-08-26T19:05:13+00:00</time>
      </trkpt>
      <trkpt lat="49.90145" lon="6.11404">
        <ele>389</ele>
        <time>2026-08-26T19:05:16+00:00</time>
      </trkpt>
      <trkpt lat="49.90163" lon="6.11424">
        <ele>389</ele>
        <time>2026-08-26T19:05:19+00:00</time>
      </trkpt>
      <trkpt lat="49.90182" lon="6.11445">
        <ele>393</ele>
        <time>2026-08-26T19:05:22+00:00</time>
      </trkpt>
      <trkpt lat="49.90203" lon="6.11471">
        <ele>395</ele>
        <time>2026-08-26T19:05:25+00:00</time>
      </trkpt>
      <trkpt lat="49.90226" lon="6.11499">
        <ele>400</ele>
        <time>2026-08-26T19:05:28+00:00</time>
      </trkpt>
      <trkpt lat="49.90249" lon="6.11528">
        <ele>404</ele>
        <time>2026-08-26T19:05:31+00:00</time>
      </trkpt>
      <trkpt lat="49.90273" lon="6.11558">
        <ele>409</ele>
        <time>2026-08-26T19:05:34+00:00</time>
      </trkpt>
      <trkpt lat="49.90281" lon="6.11562">
        <ele>411</ele>
        <time>2026-08-26T19:05:37+00:00</time>
      </trkpt>
      <trkpt lat="49.9029" lon="6.11562">
        <ele>411</ele>
        <time>2026-08-26T19:05:40+00:00</time>
      </trkpt>
      <trkpt lat="49.90313" lon="6.11555">
        <ele>416</ele>
        <time>2026-08-26T19:05:43+00:00</time>
      </trkpt>
      <trkpt lat="49.90341" lon="6.11546">
        <ele>419</ele>
        <time>2026-08-26T19:05:46+00:00</time>
      </trkpt>
      <trkpt lat="49.90345" lon="6.11596">
        <ele>419</ele>
        <time>2026-08-26T19:05:49+00:00</time>
      </trkpt>
      <trkpt lat="49.90349" lon="6.11647">
        <ele>419</ele>
        <time>2026-08-26T19:05:52+00:00</time>
      </trkpt>
      <trkpt lat="49.90353" lon="6.11698">
        <ele>419</ele>
        <time>2026-08-26T19:05:55+00:00</time>
      </trkpt>
      <trkpt lat="49.90358" lon="6.11753">
        <ele>419</ele>
        <time>2026-08-26T19:05:58+00:00</time>
      </trkpt>
      <trkpt lat="49.90362" lon="6.11799">
        <ele>419</ele>
        <time>2026-08-26T19:06:01+00:00</time>
      </trkpt>
      <trkpt lat="49.90366" lon="6.11841">
        <ele>417</ele>
        <time>2026-08-26T19:06:04+00:00</time>
      </trkpt>
      <trkpt lat="49.90373" lon="6.11915">
        <ele>417</ele>
        <time>2026-08-26T19:06:07+00:00</time>
      </trkpt>
      <trkpt lat="49.90373" lon="6.11951">
        <ele>417</ele>
        <time>2026-08-26T19:06:10+00:00</time>
      </trkpt>
      <trkpt lat="49.90359" lon="6.11985">
        <ele>414</ele>
        <time>2026-08-26T19:06:13+00:00</time>
      </trkpt>
      <trkpt lat="49.90337" lon="6.12038">
        <ele>411</ele>
        <time>2026-08-26T19:06:16+00:00</time>
      </trkpt>
      <trkpt lat="49.90325" lon="6.12075">
        <ele>409</ele>
        <time>2026-08-26T19:06:19+00:00</time>
      </trkpt>
      <trkpt lat="49.90316" lon="6.12111">
        <ele>408</ele>
        <time>2026-08-26T19:06:22+00:00</time>
      </trkpt>
      <trkpt lat="49.90308" lon="6.12165">
        <ele>407</ele>
        <time>2026-08-26T19:06:25+00:00</time>
      </trkpt>
      <trkpt lat="49.90293" lon="6.1218">
        <ele>407</ele>
        <time>2026-08-26T19:06:28+00:00</time>
      </trkpt>
      <trkpt lat="49.90263" lon="6.12198">
        <ele>404</ele>
        <time>2026-08-26T19:06:31+00:00</time>
      </trkpt>
      <trkpt lat="49.90243" lon="6.12221">
        <ele>404</ele>
        <time>2026-08-26T19:06:34+00:00</time>
      </trkpt>
      <trkpt lat="49.90228" lon="6.12241">
        <ele>405</ele>
        <time>2026-08-26T19:06:37+00:00</time>
      </trkpt>
      <trkpt lat="49.90209" lon="6.12263">
        <ele>405</ele>
        <time>2026-08-26T19:06:40+00:00</time>
      </trkpt>
      <trkpt lat="49.90188" lon="6.12288">
        <ele>406</ele>
        <time>2026-08-26T19:06:43+00:00</time>
      </trkpt>
      <trkpt lat="49.90187" lon="6.1229">
        <ele>406</ele>
        <time>2026-08-26T19:06:46+00:00</time>
      </trkpt>
      <trkpt lat="49.90172" lon="6.12315">
        <ele>408</ele>
        <time>2026-08-26T19:06:49+00:00</time>
      </trkpt>
      <trkpt lat="49.90156" lon="6.12342">
        <ele>410</ele>
        <time>2026-08-26T19:06:52+00:00</time>
      </trkpt>
      <trkpt lat="49.90137" lon="6.12385">
        <ele>412</ele>
        <time>2026-08-26T19:06:55+00:00</time>
      </trkpt>
      <trkpt lat="49.90119" lon="6.12423">
        <ele>413</ele>
        <time>2026-08-26T19:06:58+00:00</time>
      </trkpt>
      <trkpt lat="49.90101" lon="6.12462">
        <ele>414</ele>
        <time>2026-08-26T19:07:01+00:00</time>
      </trkpt>
      <trkpt lat="49.90077" lon="6.12514">
        <ele>416</ele>
        <time>2026-08-26T19:07:04+00:00</time>
      </trkpt>
      <trkpt lat="49.90054" lon="6.12557">
        <ele>416</ele>
        <time>2026-08-26T19:07:07+00:00</time>
      </trkpt>
      <trkpt lat="49.90032" lon="6.12606">
        <ele>414</ele>
        <time>2026-08-26T19:07:10+00:00</time>
      </trkpt>
      <trkpt lat="49.90024" lon="6.12642">
        <ele>414</ele>
        <time>2026-08-26T19:07:13+00:00</time>
      </trkpt>
      <trkpt lat="49.90021" lon="6.12678">
        <ele>413</ele>
        <time>2026-08-26T19:07:16+00:00</time>
      </trkpt>
      <trkpt lat="49.90012" lon="6.12709">
        <ele>411</ele>
        <time>2026-08-26T19:07:19+00:00</time>
      </trkpt>
      <trkpt lat="49.90004" lon="6.12752">
        <ele>406</ele>
        <time>2026-08-26T19:07:22+00:00</time>
      </trkpt>
      <trkpt lat="49.90002" lon="6.1277">
        <ele>406</ele>
        <time>2026-08-26T19:07:25+00:00</time>
      </trkpt>
      <trkpt lat="49.89999" lon="6.12808">
        <ele>402</ele>
        <time>2026-08-26T19:07:28+00:00</time>
      </trkpt>
      <trkpt lat="49.89997" lon="6.12842">
        <ele>401</ele>
        <time>2026-08-26T19:07:31+00:00</time>
      </trkpt>
      <trkpt lat="49.89996" lon="6.12876">
        <ele>400</ele>
        <time>2026-08-26T19:07:34+00:00</time>
      </trkpt>
      <trkpt lat="49.89999" lon="6.12908">
        <ele>398</ele>
        <time>2026-08-26T19:07:37+00:00</time>
      </trkpt>
      <trkpt lat="49.90007" lon="6.1295">
        <ele>397</ele>
        <time>2026-08-26T19:07:40+00:00</time>
      </trkpt>
      <trkpt lat="49.90009" lon="6.12976">
        <ele>395</ele>
        <time>2026-08-26T19:07:43+00:00</time>
      </trkpt>
      <trkpt lat="49.90008" lon="6.13001">
        <ele>394</ele>
        <time>2026-08-26T19:07:46+00:00</time>
      </trkpt>
      <trkpt lat="49.90007" lon="6.13032">
        <ele>394</ele>
        <time>2026-08-26T19:07:49+00:00</time>
      </trkpt>
      <trkpt lat="49.9001" lon="6.13049">
        <ele>392</ele>
        <time>2026-08-26T19:07:52+00:00</time>
      </trkpt>
      <trkpt lat="49.90023" lon="6.13043">
        <ele>394</ele>
        <time>2026-08-26T19:07:55+00:00</time>
      </trkpt>
      <trkpt lat="49.90036" lon="6.13043">
        <ele>395</ele>
        <time>2026-08-26T19:07:58+00:00</time>
      </trkpt>
      <trkpt lat="49.90044" lon="6.13049">
        <ele>394</ele>
        <time>2026-08-26T19:08:01+00:00</time>
      </trkpt>
      <trkpt lat="49.90051" lon="6.13059">
        <ele>396</ele>
        <time>2026-08-26T19:08:04+00:00</time>
      </trkpt>
      <trkpt lat="49.90056" lon="6.13072">
        <ele>394</ele>
        <time>2026-08-26T19:08:07+00:00</time>
      </trkpt>
      <trkpt lat="49.90056" lon="6.1308">
        <ele>394</ele>
        <time>2026-08-26T19:08:10+00:00</time>
      </trkpt>
      <trkpt lat="49.90063" lon="6.13096">
        <ele>395</ele>
        <time>2026-08-26T19:08:13+00:00</time>
      </trkpt>
      <trkpt lat="49.90075" lon="6.13123">
        <ele>395</ele>
        <time>2026-08-26T19:08:16+00:00</time>
      </trkpt>
      <trkpt lat="49.9009" lon="6.13139">
        <ele>395</ele>
        <time>2026-08-26T19:08:19+00:00</time>
      </trkpt>
      <trkpt lat="49.90102" lon="6.13149">
        <ele>395</ele>
        <time>2026-08-26T19:08:22+00:00</time>
      </trkpt>
      <trkpt lat="49.90128" lon="6.1316">
        <ele>395</ele>
        <time>2026-08-26T19:08:25+00:00</time>
      </trkpt>
      <trkpt lat="49.90154" lon="6.13171">
        <ele>395</ele>
        <time>2026-08-26T19:08:28+00:00</time>
      </trkpt>
      <trkpt lat="49.90191" lon="6.13186">
        <ele>399</ele>
        <time>2026-08-26T19:08:31+00:00</time>
      </trkpt>
      <trkpt lat="49.90203" lon="6.13188">
        <ele>399</ele>
        <time>2026-08-26T19:08:34+00:00</time>
      </trkpt>
      <trkpt lat="49.90224" lon="6.13182">
        <ele>400</ele>
        <time>2026-08-26T19:08:37+00:00</time>
      </trkpt>
      <trkpt lat="49.90242" lon="6.13167">
        <ele>400</ele>
        <time>2026-08-26T19:08:40+00:00</time>
      </trkpt>
      <trkpt lat="49.90252" lon="6.13153">
        <ele>400</ele>
        <time>2026-08-26T19:08:43+00:00</time>
      </trkpt>
      <trkpt lat="49.90261" lon="6.13133">
        <ele>400</ele>
        <time>2026-08-26T19:08:46+00:00</time>
      </trkpt>
      <trkpt lat="49.90267" lon="6.13124">
        <ele>400</ele>
        <time>2026-08-26T19:08:49+00:00</time>
      </trkpt>
      <trkpt lat="49.90274" lon="6.13121">
        <ele>399</ele>
        <time>2026-08-26T19:08:52+00:00</time>
      </trkpt>
      <trkpt lat="49.90284" lon="6.1313">
        <ele>398</ele>
        <time>2026-08-26T19:08:55+00:00</time>
      </trkpt>
      <trkpt lat="49.90303" lon="6.13162">
        <ele>397</ele>
        <time>2026-08-26T19:08:58+00:00</time>
      </trkpt>
      <trkpt lat="49.90336" lon="6.1322">
        <ele>397</ele>
        <time>2026-08-26T19:09:01+00:00</time>
      </trkpt>
      <trkpt lat="49.90363" lon="6.13266">
        <ele>394</ele>
        <time>2026-08-26T19:09:04+00:00</time>
      </trkpt>
      <trkpt lat="49.90381" lon="6.13293">
        <ele>392</ele>
        <time>2026-08-26T19:09:07+00:00</time>
      </trkpt>
      <trkpt lat="49.90405" lon="6.1333">
        <ele>391</ele>
        <time>2026-08-26T19:09:10+00:00</time>
      </trkpt>
      <trkpt lat="49.90419" lon="6.13347">
        <ele>391</ele>
        <time>2026-08-26T19:09:13+00:00</time>
      </trkpt>
      <trkpt lat="49.90433" lon="6.1336">
        <ele>391</ele>
        <time>2026-08-26T19:09:16+00:00</time>
      </trkpt>
      <trkpt lat="49.9046" lon="6.13373">
        <ele>390</ele>
        <time>2026-08-26T19:09:19+00:00</time>
      </trkpt>
      <trkpt lat="49.90487" lon="6.13386">
        <ele>388</ele>
        <time>2026-08-26T19:09:22+00:00</time>
      </trkpt>
      <trkpt lat="49.90538" lon="6.13411">
        <ele>387</ele>
        <time>2026-08-26T19:09:25+00:00</time>
      </trkpt>
      <trkpt lat="49.90574" lon="6.13439">
        <ele>386</ele>
        <time>2026-08-26T19:09:28+00:00</time>
      </trkpt>
      <trkpt lat="49.90594" lon="6.13457">
        <ele>386</ele>
        <time>2026-08-26T19:09:31+00:00</time>
      </trkpt>
      <trkpt lat="49.90616" lon="6.13478">
        <ele>385</ele>
        <time>2026-08-26T19:09:34+00:00</time>
      </trkpt>
      <trkpt lat="49.90628" lon="6.13488">
        <ele>385</ele>
        <time>2026-08-26T19:09:37+00:00</time>
      </trkpt>
      <trkpt lat="49.90644" lon="6.13493">
        <ele>384</ele>
        <time>2026-08-26T19:09:40+00:00</time>
      </trkpt>
      <trkpt lat="49.90651" lon="6.13504">
        <ele>383</ele>
        <time>2026-08-26T19:09:43+00:00</time>
      </trkpt>
      <trkpt lat="49.90662" lon="6.13515">
        <ele>384</ele>
        <time>2026-08-26T19:09:46+00:00</time>
      </trkpt>
      <trkpt lat="49.90682" lon="6.1353">
        <ele>383</ele>
        <time>2026-08-26T19:09:49+00:00</time>
      </trkpt>
      <trkpt lat="49.90703" lon="6.13546">
        <ele>383</ele>
        <time>2026-08-26T19:09:52+00:00</time>
      </trkpt>
      <trkpt lat="49.90735" lon="6.13568">
        <ele>382</ele>
        <time>2026-08-26T19:09:55+00:00</time>
      </trkpt>
      <trkpt lat="49.90757" lon="6.13586">
        <ele>382</ele>
        <time>2026-08-26T19:09:58+00:00</time>
      </trkpt>
      <trkpt lat="49.90787" lon="6.1361">
        <ele>381</ele>
        <time>2026-08-26T19:10:01+00:00</time>
      </trkpt>
      <trkpt lat="49.90804" lon="6.13629">
        <ele>380</ele>
        <time>2026-08-26T19:10:04+00:00</time>
      </trkpt>
      <trkpt lat="49.90833" lon="6.13672">
        <ele>375</ele>
        <time>2026-08-26T19:10:07+00:00</time>
      </trkpt>
      <trkpt lat="49.90835" lon="6.13675">
        <ele>375</ele>
        <time>2026-08-26T19:10:10+00:00</time>
      </trkpt>
      <trkpt lat="49.90843" lon="6.13678">
        <ele>373</ele>
        <time>2026-08-26T19:10:13+00:00</time>
      </trkpt>
      <trkpt lat="49.90862" lon="6.13676">
        <ele>369</ele>
        <time>2026-08-26T19:10:16+00:00</time>
      </trkpt>
      <trkpt lat="49.90876" lon="6.13678">
        <ele>367</ele>
        <time>2026-08-26T19:10:19+00:00</time>
      </trkpt>
      <trkpt lat="49.90902" lon="6.13687">
        <ele>359</ele>
        <time>2026-08-26T19:10:22+00:00</time>
      </trkpt>
      <trkpt lat="49.90923" lon="6.13706">
        <ele>352</ele>
        <time>2026-08-26T19:10:25+00:00</time>
      </trkpt>
      <trkpt lat="49.90952" lon="6.13731">
        <ele>341</ele>
        <time>2026-08-26T19:10:28+00:00</time>
      </trkpt>
      <trkpt lat="49.90965" lon="6.1374">
        <ele>337</ele>
        <time>2026-08-26T19:10:31+00:00</time>
      </trkpt>
      <trkpt lat="49.90985" lon="6.13749">
        <ele>333</ele>
        <time>2026-08-26T19:10:34+00:00</time>
      </trkpt>
      <trkpt lat="49.91016" lon="6.13762">
        <ele>323</ele>
        <time>2026-08-26T19:10:37+00:00</time>
      </trkpt>
      <trkpt lat="49.91058" lon="6.13776">
        <ele>323</ele>
        <time>2026-08-26T19:10:40+00:00</time>
      </trkpt>
      <trkpt lat="49.91064" lon="6.13776">
        <ele>323</ele>
        <time>2026-08-26T19:10:43+00:00</time>
      </trkpt>
      <trkpt lat="49.91069" lon="6.13773">
        <ele>323</ele>
        <time>2026-08-26T19:10:46+00:00</time>
      </trkpt>
      <trkpt lat="49.91077" lon="6.13761">
        <ele>322</ele>
        <time>2026-08-26T19:10:49+00:00</time>
      </trkpt>
      <trkpt lat="49.91079" lon="6.13758">
        <ele>323</ele>
        <time>2026-08-26T19:10:52+00:00</time>
      </trkpt>
      <trkpt lat="49.9108" lon="6.13758">
        <ele>323</ele>
        <time>2026-08-26T19:10:55+00:00</time>
      </trkpt>
      <trkpt lat="49.91095" lon="6.13736">
        <ele>315</ele>
        <time>2026-08-26T19:10:58+00:00</time>
      </trkpt>
      <trkpt lat="49.91102" lon="6.13722">
        <ele>307</ele>
        <time>2026-08-26T19:11:01+00:00</time>
      </trkpt>
      <trkpt lat="49.91106" lon="6.13724">
        <ele>307</ele>
        <time>2026-08-26T19:11:04+00:00</time>
      </trkpt>
      <trkpt lat="49.91108" lon="6.1373">
        <ele>307</ele>
        <time>2026-08-26T19:11:07+00:00</time>
      </trkpt>
      <trkpt lat="49.91112" lon="6.13747">
        <ele>298</ele>
        <time>2026-08-26T19:11:10+00:00</time>
      </trkpt>
      <trkpt lat="49.91114" lon="6.13749">
        <ele>298</ele>
        <time>2026-08-26T19:11:13+00:00</time>
      </trkpt>
      <trkpt lat="49.91116" lon="6.13747">
        <ele>298</ele>
        <time>2026-08-26T19:11:16+00:00</time>
      </trkpt>
      <trkpt lat="49.91129" lon="6.13717">
        <ele>291</ele>
        <time>2026-08-26T19:11:19+00:00</time>
      </trkpt>
      <trkpt lat="49.91131" lon="6.13706">
        <ele>276</ele>
        <time>2026-08-26T19:11:22+00:00</time>
      </trkpt>
      <trkpt lat="49.91132" lon="6.13695">
        <ele>276</ele>
        <time>2026-08-26T19:11:25+00:00</time>
      </trkpt>
      <trkpt lat="49.91135" lon="6.13687">
        <ele>275</ele>
        <time>2026-08-26T19:11:28+00:00</time>
      </trkpt>
      <trkpt lat="49.91135" lon="6.13672">
        <ele>274</ele>
        <time>2026-08-26T19:11:31+00:00</time>
      </trkpt>
      <trkpt lat="49.91137" lon="6.13675">
        <ele>274</ele>
        <time>2026-08-26T19:11:34+00:00</time>
      </trkpt>
      <trkpt lat="49.91144" lon="6.13669">
        <ele>266</ele>
        <time>2026-08-26T19:11:37+00:00</time>
      </trkpt>
      <trkpt lat="49.91158" lon="6.13654">
        <ele>266</ele>
        <time>2026-08-26T19:11:40+00:00</time>
      </trkpt>
      <trkpt lat="49.91169" lon="6.13676">
        <ele>266</ele>
        <time>2026-08-26T19:11:43+00:00</time>
      </trkpt>
      <trkpt lat="49.91173" lon="6.13688">
        <ele>266</ele>
        <time>2026-08-26T19:11:46+00:00</time>
      </trkpt>
      <trkpt lat="49.91181" lon="6.13684">
        <ele>268</ele>
        <time>2026-08-26T19:11:49+00:00</time>
      </trkpt>
      <trkpt lat="49.91191" lon="6.13706">
        <ele>270</ele>
        <time>2026-08-26T19:11:52+00:00</time>
      </trkpt>
      <trkpt lat="49.91192" lon="6.13709">
        <ele>270</ele>
        <time>2026-08-26T19:11:55+00:00</time>
      </trkpt>
      <trkpt lat="49.9119" lon="6.13711">
        <ele>270</ele>
        <time>2026-08-26T19:11:58+00:00</time>
      </trkpt>
      <trkpt lat="49.91196" lon="6.13723">
        <ele>270</ele>
        <time>2026-08-26T19:12:01+00:00</time>
      </trkpt>
      <trkpt lat="49.91196" lon="6.13729">
        <ele>270</ele>
        <time>2026-08-26T19:12:04+00:00</time>
      </trkpt>
      <trkpt lat="49.91199" lon="6.13735">
        <ele>271</ele>
        <time>2026-08-26T19:12:07+00:00</time>
      </trkpt>
      <trkpt lat="49.912" lon="6.13735">
        <ele>271</ele>
        <time>2026-08-26T19:12:10+00:00</time>
      </trkpt>
      <trkpt lat="49.912" lon="6.13733">
        <ele>271</ele>
        <time>2026-08-26T19:12:13+00:00</time>
      </trkpt>
      <trkpt lat="49.91202" lon="6.13734">
        <ele>276</ele>
        <time>2026-08-26T19:12:16+00:00</time>
      </trkpt>
      <trkpt lat="49.91202" lon="6.13732">
        <ele>276</ele>
        <time>2026-08-26T19:12:19+00:00</time>
      </trkpt>
      <trkpt lat="49.91205" lon="6.13731">
        <ele>276</ele>
        <time>2026-08-26T19:12:22+00:00</time>
      </trkpt>
      <trkpt lat="49.91207" lon="6.1372">
        <ele>274</ele>
        <time>2026-08-26T19:12:25+00:00</time>
      </trkpt>
      <trkpt lat="49.91209" lon="6.13719">
        <ele>273</ele>
        <time>2026-08-26T19:12:28+00:00</time>
      </trkpt>
      <trkpt lat="49.91211" lon="6.13721">
        <ele>283</ele>
        <time>2026-08-26T19:12:31+00:00</time>
      </trkpt>
      <trkpt lat="49.91212" lon="6.13739">
        <ele>285</ele>
        <time>2026-08-26T19:12:34+00:00</time>
      </trkpt>
      <trkpt lat="49.91213" lon="6.13741">
        <ele>287</ele>
        <time>2026-08-26T19:12:37+00:00</time>
      </trkpt>
      <trkpt lat="49.91215" lon="6.1374">
        <ele>287</ele>
        <time>2026-08-26T19:12:40+00:00</time>
      </trkpt>
      <trkpt lat="49.91219" lon="6.13722">
        <ele>283</ele>
        <time>2026-08-26T19:12:43+00:00</time>
      </trkpt>
      <trkpt lat="49.91223" lon="6.13723">
        <ele>290</ele>
        <time>2026-08-26T19:12:46+00:00</time>
      </trkpt>
      <trkpt lat="49.91227" lon="6.13746">
        <ele>296</ele>
        <time>2026-08-26T19:12:49+00:00</time>
      </trkpt>
      <trkpt lat="49.91232" lon="6.13757">
        <ele>303</ele>
        <time>2026-08-26T19:12:52+00:00</time>
      </trkpt>
      <trkpt lat="49.91232" lon="6.13765">
        <ele>305</ele>
        <time>2026-08-26T19:12:55+00:00</time>
      </trkpt>
      <trkpt lat="49.91236" lon="6.13773">
        <ele>307</ele>
        <time>2026-08-26T19:12:58+00:00</time>
      </trkpt>
      <trkpt lat="49.91236" lon="6.13773">
        <ele>307</ele>
        <time>2026-08-26T19:13:01+00:00</time>
      </trkpt>
      <trkpt lat="49.91236" lon="6.13773">
        <ele>307</ele>
        <time>2026-08-26T19:13:04+00:00</time>
      </trkpt>
      <trkpt lat="49.91232" lon="6.13803">
        <ele>298</ele>
        <time>2026-08-26T19:13:07+00:00</time>
      </trkpt>
      <trkpt lat="49.91227" lon="6.13844">
        <ele>294</ele>
        <time>2026-08-26T19:13:10+00:00</time>
      </trkpt>
      <trkpt lat="49.91225" lon="6.13845">
        <ele>294</ele>
        <time>2026-08-26T19:13:13+00:00</time>
      </trkpt>
      <trkpt lat="49.91219" lon="6.1383">
        <ele>291</ele>
        <time>2026-08-26T19:13:16+00:00</time>
      </trkpt>
      <trkpt lat="49.91217" lon="6.1383">
        <ele>291</ele>
        <time>2026-08-26T19:13:19+00:00</time>
      </trkpt>
      <trkpt lat="49.9121" lon="6.13856">
        <ele>288</ele>
        <time>2026-08-26T19:13:22+00:00</time>
      </trkpt>
      <trkpt lat="49.912" lon="6.13865">
        <ele>279</ele>
        <time>2026-08-26T19:13:25+00:00</time>
      </trkpt>
      <trkpt lat="49.91198" lon="6.13874">
        <ele>279</ele>
        <time>2026-08-26T19:13:28+00:00</time>
      </trkpt>
      <trkpt lat="49.91196" lon="6.13868">
        <ele>279</ele>
        <time>2026-08-26T19:13:31+00:00</time>
      </trkpt>
      <trkpt lat="49.91191" lon="6.13873">
        <ele>279</ele>
        <time>2026-08-26T19:13:34+00:00</time>
      </trkpt>
      <trkpt lat="49.91186" lon="6.13884">
        <ele>276</ele>
        <time>2026-08-26T19:13:37+00:00</time>
      </trkpt>
      <trkpt lat="49.91184" lon="6.13885">
        <ele>276</ele>
        <time>2026-08-26T19:13:40+00:00</time>
      </trkpt>
      <trkpt lat="49.91175" lon="6.13904">
        <ele>273</ele>
        <time>2026-08-26T19:13:43+00:00</time>
      </trkpt>
      <trkpt lat="49.91172" lon="6.13906">
        <ele>273</ele>
        <time>2026-08-26T19:13:46+00:00</time>
      </trkpt>
      <trkpt lat="49.91168" lon="6.13911">
        <ele>271</ele>
        <time>2026-08-26T19:13:49+00:00</time>
      </trkpt>
      <trkpt lat="49.91171" lon="6.1391">
        <ele>273</ele>
        <time>2026-08-26T19:13:52+00:00</time>
      </trkpt>
      <trkpt lat="49.91166" lon="6.13918">
        <ele>271</ele>
        <time>2026-08-26T19:13:55+00:00</time>
      </trkpt>
      <trkpt lat="49.91164" lon="6.1392">
        <ele>270</ele>
        <time>2026-08-26T19:13:58+00:00</time>
      </trkpt>
      <trkpt lat="49.91153" lon="6.13928">
        <ele>269</ele>
        <time>2026-08-26T19:14:01+00:00</time>
      </trkpt>
      <trkpt lat="49.91153" lon="6.13931">
        <ele>269</ele>
        <time>2026-08-26T19:14:04+00:00</time>
      </trkpt>
      <trkpt lat="49.91157" lon="6.13929">
        <ele>270</ele>
        <time>2026-08-26T19:14:07+00:00</time>
      </trkpt>
      <trkpt lat="49.91163" lon="6.1393">
        <ele>270</ele>
        <time>2026-08-26T19:14:10+00:00</time>
      </trkpt>
      <trkpt lat="49.91163" lon="6.13933">
        <ele>270</ele>
        <time>2026-08-26T19:14:13+00:00</time>
      </trkpt>
      <trkpt lat="49.9116" lon="6.13934">
        <ele>269</ele>
        <time>2026-08-26T19:14:16+00:00</time>
      </trkpt>
      <trkpt lat="49.91161" lon="6.13937">
        <ele>270</ele>
        <time>2026-08-26T19:14:19+00:00</time>
      </trkpt>
      <trkpt lat="49.91163" lon="6.13936">
        <ele>270</ele>
        <time>2026-08-26T19:14:22+00:00</time>
      </trkpt>
      <trkpt lat="49.91162" lon="6.1394">
        <ele>270</ele>
        <time>2026-08-26T19:14:25+00:00</time>
      </trkpt>
      <trkpt lat="49.91163" lon="6.13945">
        <ele>269</ele>
        <time>2026-08-26T19:14:28+00:00</time>
      </trkpt>
      <trkpt lat="49.91164" lon="6.13951">
        <ele>267</ele>
        <time>2026-08-26T19:14:31+00:00</time>
      </trkpt>
      <trkpt lat="49.91196" lon="6.13929">
        <ele>270</ele>
        <time>2026-08-26T19:14:34+00:00</time>
      </trkpt>
      <trkpt lat="49.91215" lon="6.1392">
        <ele>271</ele>
        <time>2026-08-26T19:14:37+00:00</time>
      </trkpt>
      <trkpt lat="49.91241" lon="6.13908">
        <ele>275</ele>
        <time>2026-08-26T19:14:40+00:00</time>
      </trkpt>
      <trkpt lat="49.91284" lon="6.13889">
        <ele>278</ele>
        <time>2026-08-26T19:14:43+00:00</time>
      </trkpt>
      <trkpt lat="49.91306" lon="6.13872">
        <ele>281</ele>
        <time>2026-08-26T19:14:46+00:00</time>
      </trkpt>
      <trkpt lat="49.91336" lon="6.1385">
        <ele>289</ele>
        <time>2026-08-26T19:14:49+00:00</time>
      </trkpt>
      <trkpt lat="49.91359" lon="6.13837">
        <ele>287</ele>
        <time>2026-08-26T19:14:52+00:00</time>
      </trkpt>
      <trkpt lat="49.91389" lon="6.1382">
        <ele>285</ele>
        <time>2026-08-26T19:14:55+00:00</time>
      </trkpt>
      <trkpt lat="49.91395" lon="6.13832">
        <ele>281</ele>
        <time>2026-08-26T19:14:58+00:00</time>
      </trkpt>
      <trkpt lat="49.91395" lon="6.13831">
        <ele>281</ele>
        <time>2026-08-26T19:15:01+00:00</time>
      </trkpt>
      <trkpt lat="49.91395" lon="6.13832">
        <ele>281</ele>
        <time>2026-08-26T19:15:04+00:00</time>
      </trkpt>
      <trkpt lat="49.91408" lon="6.13853">
        <ele>285</ele>
        <time>2026-08-26T19:15:07+00:00</time>
      </trkpt>
      <trkpt lat="49.91413" lon="6.13859">
        <ele>285</ele>
        <time>2026-08-26T19:15:10+00:00</time>
      </trkpt>
      <trkpt lat="49.91419" lon="6.1386">
        <ele>285</ele>
        <time>2026-08-26T19:15:13+00:00</time>
      </trkpt>
      <trkpt lat="49.91439" lon="6.13856">
        <ele>285</ele>
        <time>2026-08-26T19:15:16+00:00</time>
      </trkpt>
      <trkpt lat="49.91466" lon="6.1385">
        <ele>286</ele>
        <time>2026-08-26T19:15:19+00:00</time>
      </trkpt>
      <trkpt lat="49.91489" lon="6.13841">
        <ele>293</ele>
        <time>2026-08-26T19:15:22+00:00</time>
      </trkpt>
      <trkpt lat="49.91517" lon="6.1383">
        <ele>293</ele>
        <time>2026-08-26T19:15:25+00:00</time>
      </trkpt>
      <trkpt lat="49.91548" lon="6.1382">
        <ele>305</ele>
        <time>2026-08-26T19:15:28+00:00</time>
      </trkpt>
      <trkpt lat="49.91559" lon="6.13819">
        <ele>305</ele>
        <time>2026-08-26T19:15:31+00:00</time>
      </trkpt>
      <trkpt lat="49.91588" lon="6.13822">
        <ele>313</ele>
        <time>2026-08-26T19:15:34+00:00</time>
      </trkpt>
      <trkpt lat="49.91616" lon="6.13824">
        <ele>310</ele>
        <time>2026-08-26T19:15:37+00:00</time>
      </trkpt>
      <trkpt lat="49.91665" lon="6.13829">
        <ele>315</ele>
        <time>2026-08-26T19:15:40+00:00</time>
      </trkpt>
      <trkpt lat="49.91673" lon="6.13832">
        <ele>313</ele>
        <time>2026-08-26T19:15:43+00:00</time>
      </trkpt>
      <trkpt lat="49.91694" lon="6.13849">
        <ele>320</ele>
        <time>2026-08-26T19:15:46+00:00</time>
      </trkpt>
      <trkpt lat="49.91701" lon="6.1385">
        <ele>321</ele>
        <time>2026-08-26T19:15:49+00:00</time>
      </trkpt>
      <trkpt lat="49.91725" lon="6.13847">
        <ele>324</ele>
        <time>2026-08-26T19:15:52+00:00</time>
      </trkpt>
      <trkpt lat="49.91765" lon="6.13842">
        <ele>325</ele>
        <time>2026-08-26T19:15:55+00:00</time>
      </trkpt>
      <trkpt lat="49.91796" lon="6.13851">
        <ele>325</ele>
        <time>2026-08-26T19:15:58+00:00</time>
      </trkpt>
      <trkpt lat="49.91816" lon="6.1385">
        <ele>325</ele>
        <time>2026-08-26T19:16:01+00:00</time>
      </trkpt>
      <trkpt lat="49.91818" lon="6.13853">
        <ele>326</ele>
        <time>2026-08-26T19:16:04+00:00</time>
      </trkpt>
      <trkpt lat="49.91816" lon="6.13858">
        <ele>326</ele>
        <time>2026-08-26T19:16:07+00:00</time>
      </trkpt>
      <trkpt lat="49.9181" lon="6.13861">
        <ele>328</ele>
        <time>2026-08-26T19:16:10+00:00</time>
      </trkpt>
      <trkpt lat="49.91789" lon="6.13863">
        <ele>328</ele>
        <time>2026-08-26T19:16:13+00:00</time>
      </trkpt>
      <trkpt lat="49.91759" lon="6.13866">
        <ele>332</ele>
        <time>2026-08-26T19:16:16+00:00</time>
      </trkpt>
      <trkpt lat="49.91721" lon="6.13887">
        <ele>334</ele>
        <time>2026-08-26T19:16:19+00:00</time>
      </trkpt>
      <trkpt lat="49.91713" lon="6.13895">
        <ele>337</ele>
        <time>2026-08-26T19:16:22+00:00</time>
      </trkpt>
      <trkpt lat="49.91704" lon="6.1391">
        <ele>342</ele>
        <time>2026-08-26T19:16:25+00:00</time>
      </trkpt>
      <trkpt lat="49.91698" lon="6.1392">
        <ele>351</ele>
        <time>2026-08-26T19:16:28+00:00</time>
      </trkpt>
      <trkpt lat="49.91687" lon="6.13927">
        <ele>343</ele>
        <time>2026-08-26T19:16:31+00:00</time>
      </trkpt>
      <trkpt lat="49.91674" lon="6.13924">
        <ele>351</ele>
        <time>2026-08-26T19:16:34+00:00</time>
      </trkpt>
      <trkpt lat="49.91652" lon="6.13908">
        <ele>344</ele>
        <time>2026-08-26T19:16:37+00:00</time>
      </trkpt>
      <trkpt lat="49.91634" lon="6.13905">
        <ele>344</ele>
        <time>2026-08-26T19:16:40+00:00</time>
      </trkpt>
      <trkpt lat="49.91624" lon="6.13907">
        <ele>341</ele>
        <time>2026-08-26T19:16:43+00:00</time>
      </trkpt>
      <trkpt lat="49.91609" lon="6.13919">
        <ele>342</ele>
        <time>2026-08-26T19:16:46+00:00</time>
      </trkpt>
      <trkpt lat="49.91578" lon="6.13937">
        <ele>347</ele>
        <time>2026-08-26T19:16:49+00:00</time>
      </trkpt>
      <trkpt lat="49.9155" lon="6.13961">
        <ele>348</ele>
        <time>2026-08-26T19:16:52+00:00</time>
      </trkpt>
      <trkpt lat="49.91532" lon="6.13968">
        <ele>349</ele>
        <time>2026-08-26T19:16:55+00:00</time>
      </trkpt>
      <trkpt lat="49.91516" lon="6.13981">
        <ele>348</ele>
        <time>2026-08-26T19:16:58+00:00</time>
      </trkpt>
      <trkpt lat="49.91508" lon="6.13987">
        <ele>345</ele>
        <time>2026-08-26T19:17:01+00:00</time>
      </trkpt>
      <trkpt lat="49.91489" lon="6.14008">
        <ele>348</ele>
        <time>2026-08-26T19:17:04+00:00</time>
      </trkpt>
      <trkpt lat="49.91459" lon="6.14041">
        <ele>352</ele>
        <time>2026-08-26T19:17:07+00:00</time>
      </trkpt>
      <trkpt lat="49.91427" lon="6.14082">
        <ele>359</ele>
        <time>2026-08-26T19:17:10+00:00</time>
      </trkpt>
      <trkpt lat="49.91408" lon="6.14098">
        <ele>360</ele>
        <time>2026-08-26T19:17:13+00:00</time>
      </trkpt>
      <trkpt lat="49.91408" lon="6.14108">
        <ele>360</ele>
        <time>2026-08-26T19:17:16+00:00</time>
      </trkpt>
      <trkpt lat="49.91413" lon="6.14114">
        <ele>361</ele>
        <time>2026-08-26T19:17:19+00:00</time>
      </trkpt>
      <trkpt lat="49.91416" lon="6.14115">
        <ele>361</ele>
        <time>2026-08-26T19:17:22+00:00</time>
      </trkpt>
      <trkpt lat="49.91432" lon="6.14102">
        <ele>363</ele>
        <time>2026-08-26T19:17:25+00:00</time>
      </trkpt>
      <trkpt lat="49.91452" lon="6.14084">
        <ele>365</ele>
        <time>2026-08-26T19:17:28+00:00</time>
      </trkpt>
      <trkpt lat="49.91473" lon="6.14071">
        <ele>367</ele>
        <time>2026-08-26T19:17:31+00:00</time>
      </trkpt>
      <trkpt lat="49.91497" lon="6.14057">
        <ele>369</ele>
        <time>2026-08-26T19:17:34+00:00</time>
      </trkpt>
      <trkpt lat="49.91529" lon="6.14041">
        <ele>380</ele>
        <time>2026-08-26T19:17:37+00:00</time>
      </trkpt>
      <trkpt lat="49.91535" lon="6.14039">
        <ele>382</ele>
        <time>2026-08-26T19:17:40+00:00</time>
      </trkpt>
      <trkpt lat="49.91558" lon="6.14037">
        <ele>388</ele>
        <time>2026-08-26T19:17:43+00:00</time>
      </trkpt>
      <trkpt lat="49.9159" lon="6.14035">
        <ele>392</ele>
        <time>2026-08-26T19:17:46+00:00</time>
      </trkpt>
      <trkpt lat="49.91605" lon="6.14037">
        <ele>393</ele>
        <time>2026-08-26T19:17:49+00:00</time>
      </trkpt>
      <trkpt lat="49.91619" lon="6.14047">
        <ele>393</ele>
        <time>2026-08-26T19:17:52+00:00</time>
      </trkpt>
      <trkpt lat="49.9163" lon="6.14059">
        <ele>395</ele>
        <time>2026-08-26T19:17:55+00:00</time>
      </trkpt>
      <trkpt lat="49.91642" lon="6.14076">
        <ele>394</ele>
        <time>2026-08-26T19:17:58+00:00</time>
      </trkpt>
      <trkpt lat="49.91656" lon="6.14095">
        <ele>394</ele>
        <time>2026-08-26T19:18:01+00:00</time>
      </trkpt>
      <trkpt lat="49.91675" lon="6.14115">
        <ele>394</ele>
        <time>2026-08-26T19:18:04+00:00</time>
      </trkpt>
      <trkpt lat="49.91685" lon="6.14123">
        <ele>393</ele>
        <time>2026-08-26T19:18:07+00:00</time>
      </trkpt>
      <trkpt lat="49.91709" lon="6.14129">
        <ele>395</ele>
        <time>2026-08-26T19:18:10+00:00</time>
      </trkpt>
      <trkpt lat="49.91721" lon="6.14125">
        <ele>397</ele>
        <time>2026-08-26T19:18:13+00:00</time>
      </trkpt>
      <trkpt lat="49.91737" lon="6.14115">
        <ele>399</ele>
        <time>2026-08-26T19:18:16+00:00</time>
      </trkpt>
      <trkpt lat="49.91738" lon="6.14113">
        <ele>399</ele>
        <time>2026-08-26T19:18:19+00:00</time>
      </trkpt>
      <trkpt lat="49.91753" lon="6.1409">
        <ele>404</ele>
        <time>2026-08-26T19:18:22+00:00</time>
      </trkpt>
      <trkpt lat="49.91768" lon="6.14067">
        <ele>405</ele>
        <time>2026-08-26T19:18:25+00:00</time>
      </trkpt>
      <trkpt lat="49.91777" lon="6.14061">
        <ele>406</ele>
        <time>2026-08-26T19:18:28+00:00</time>
      </trkpt>
      <trkpt lat="49.91801" lon="6.14056">
        <ele>407</ele>
        <time>2026-08-26T19:18:31+00:00</time>
      </trkpt>
      <trkpt lat="49.91841" lon="6.14047">
        <ele>410</ele>
        <time>2026-08-26T19:18:34+00:00</time>
      </trkpt>
      <trkpt lat="49.91853" lon="6.14046">
        <ele>410</ele>
        <time>2026-08-26T19:18:37+00:00</time>
      </trkpt>
      <trkpt lat="49.91861" lon="6.1405">
        <ele>411</ele>
        <time>2026-08-26T19:18:40+00:00</time>
      </trkpt>
      <trkpt lat="49.91873" lon="6.14061">
        <ele>411</ele>
        <time>2026-08-26T19:18:43+00:00</time>
      </trkpt>
      <trkpt lat="49.91875" lon="6.14065">
        <ele>411</ele>
        <time>2026-08-26T19:18:46+00:00</time>
      </trkpt>
      <trkpt lat="49.91873" lon="6.1407">
        <ele>413</ele>
        <time>2026-08-26T19:18:49+00:00</time>
      </trkpt>
      <trkpt lat="49.91857" lon="6.14064">
        <ele>413</ele>
        <time>2026-08-26T19:18:52+00:00</time>
      </trkpt>
      <trkpt lat="49.91851" lon="6.14064">
        <ele>413</ele>
        <time>2026-08-26T19:18:55+00:00</time>
      </trkpt>
      <trkpt lat="49.9184" lon="6.14074">
        <ele>415</ele>
        <time>2026-08-26T19:18:58+00:00</time>
      </trkpt>
      <trkpt lat="49.91835" lon="6.14084">
        <ele>415</ele>
        <time>2026-08-26T19:19:01+00:00</time>
      </trkpt>
      <trkpt lat="49.91833" lon="6.14093">
        <ele>416</ele>
        <time>2026-08-26T19:19:04+00:00</time>
      </trkpt>
      <trkpt lat="49.9183" lon="6.14123">
        <ele>415</ele>
        <time>2026-08-26T19:19:07+00:00</time>
      </trkpt>
      <trkpt lat="49.91833" lon="6.14129">
        <ele>417</ele>
        <time>2026-08-26T19:19:10+00:00</time>
      </trkpt>
      <trkpt lat="49.91837" lon="6.14128">
        <ele>417</ele>
        <time>2026-08-26T19:19:13+00:00</time>
      </trkpt>
      <trkpt lat="49.91851" lon="6.14108">
        <ele>419</ele>
        <time>2026-08-26T19:19:16+00:00</time>
      </trkpt>
      <trkpt lat="49.9186" lon="6.14109">
        <ele>419</ele>
        <time>2026-08-26T19:19:19+00:00</time>
      </trkpt>
      <trkpt lat="49.9187" lon="6.14126">
        <ele>421</ele>
        <time>2026-08-26T19:19:22+00:00</time>
      </trkpt>
      <trkpt lat="49.91873" lon="6.14162">
        <ele>425</ele>
        <time>2026-08-26T19:19:25+00:00</time>
      </trkpt>
      <trkpt lat="49.91876" lon="6.14204">
        <ele>427</ele>
        <time>2026-08-26T19:19:28+00:00</time>
      </trkpt>
      <trkpt lat="49.91877" lon="6.14209">
        <ele>427</ele>
        <time>2026-08-26T19:19:31+00:00</time>
      </trkpt>
      <trkpt lat="49.91883" lon="6.14244">
        <ele>430</ele>
        <time>2026-08-26T19:19:34+00:00</time>
      </trkpt>
      <trkpt lat="49.91898" lon="6.14291">
        <ele>433</ele>
        <time>2026-08-26T19:19:37+00:00</time>
      </trkpt>
      <trkpt lat="49.91909" lon="6.14346">
        <ele>433</ele>
        <time>2026-08-26T19:19:40+00:00</time>
      </trkpt>
      <trkpt lat="49.91919" lon="6.14374">
        <ele>434</ele>
        <time>2026-08-26T19:19:43+00:00</time>
      </trkpt>
      <trkpt lat="49.91927" lon="6.14405">
        <ele>435</ele>
        <time>2026-08-26T19:19:46+00:00</time>
      </trkpt>
      <trkpt lat="49.91935" lon="6.14446">
        <ele>436</ele>
        <time>2026-08-26T19:19:49+00:00</time>
      </trkpt>
      <trkpt lat="49.91948" lon="6.14517">
        <ele>437</ele>
        <time>2026-08-26T19:19:52+00:00</time>
      </trkpt>
      <trkpt lat="49.91951" lon="6.1456">
        <ele>439</ele>
        <time>2026-08-26T19:19:55+00:00</time>
      </trkpt>
      <trkpt lat="49.91952" lon="6.14588">
        <ele>439</ele>
        <time>2026-08-26T19:19:58+00:00</time>
      </trkpt>
      <trkpt lat="49.91954" lon="6.14621">
        <ele>439</ele>
        <time>2026-08-26T19:20:01+00:00</time>
      </trkpt>
      <trkpt lat="49.9196" lon="6.14658">
        <ele>439</ele>
        <time>2026-08-26T19:20:04+00:00</time>
      </trkpt>
      <trkpt lat="49.91967" lon="6.14707">
        <ele>439</ele>
        <time>2026-08-26T19:20:07+00:00</time>
      </trkpt>
      <trkpt lat="49.91969" lon="6.14734">
        <ele>440</ele>
        <time>2026-08-26T19:20:10+00:00</time>
      </trkpt>
      <trkpt lat="49.9197" lon="6.14781">
        <ele>441</ele>
        <time>2026-08-26T19:20:13+00:00</time>
      </trkpt>
      <trkpt lat="49.9197" lon="6.14828">
        <ele>442</ele>
        <time>2026-08-26T19:20:16+00:00</time>
      </trkpt>
      <trkpt lat="49.91971" lon="6.14888">
        <ele>442</ele>
        <time>2026-08-26T19:20:19+00:00</time>
      </trkpt>
      <trkpt lat="49.91969" lon="6.14913">
        <ele>441</ele>
        <time>2026-08-26T19:20:22+00:00</time>
      </trkpt>
      <trkpt lat="49.91962" lon="6.14923">
        <ele>441</ele>
        <time>2026-08-26T19:20:25+00:00</time>
      </trkpt>
      <trkpt lat="49.91938" lon="6.14927">
        <ele>438</ele>
        <time>2026-08-26T19:20:28+00:00</time>
      </trkpt>
      <trkpt lat="49.91909" lon="6.14933">
        <ele>434</ele>
        <time>2026-08-26T19:20:31+00:00</time>
      </trkpt>
      <trkpt lat="49.91875" lon="6.14951">
        <ele>429</ele>
        <time>2026-08-26T19:20:34+00:00</time>
      </trkpt>
      <trkpt lat="49.91848" lon="6.14959">
        <ele>423</ele>
        <time>2026-08-26T19:20:37+00:00</time>
      </trkpt>
      <trkpt lat="49.91798" lon="6.14974">
        <ele>415</ele>
        <time>2026-08-26T19:20:40+00:00</time>
      </trkpt>
      <trkpt lat="49.91781" lon="6.14974">
        <ele>415</ele>
        <time>2026-08-26T19:20:43+00:00</time>
      </trkpt>
      <trkpt lat="49.91767" lon="6.14969">
        <ele>415</ele>
        <time>2026-08-26T19:20:46+00:00</time>
      </trkpt>
      <trkpt lat="49.91763" lon="6.14965">
        <ele>414</ele>
        <time>2026-08-26T19:20:49+00:00</time>
      </trkpt>
      <trkpt lat="49.91753" lon="6.14985">
        <ele>416</ele>
        <time>2026-08-26T19:20:52+00:00</time>
      </trkpt>
      <trkpt lat="49.91752" lon="6.15">
        <ele>416</ele>
        <time>2026-08-26T19:20:55+00:00</time>
      </trkpt>
      <trkpt lat="49.91759" lon="6.15043">
        <ele>419</ele>
        <time>2026-08-26T19:20:58+00:00</time>
      </trkpt>
      <trkpt lat="49.91765" lon="6.15086">
        <ele>420</ele>
        <time>2026-08-26T19:21:01+00:00</time>
      </trkpt>
      <trkpt lat="49.91776" lon="6.15155">
        <ele>422</ele>
        <time>2026-08-26T19:21:04+00:00</time>
      </trkpt>
      <trkpt lat="49.91777" lon="6.15217">
        <ele>423</ele>
        <time>2026-08-26T19:21:07+00:00</time>
      </trkpt>
      <trkpt lat="49.91781" lon="6.1525">
        <ele>424</ele>
        <time>2026-08-26T19:21:10+00:00</time>
      </trkpt>
      <trkpt lat="49.91785" lon="6.15284">
        <ele>424</ele>
        <time>2026-08-26T19:21:13+00:00</time>
      </trkpt>
      <trkpt lat="49.91785" lon="6.15284">
        <ele>424</ele>
        <time>2026-08-26T19:21:16+00:00</time>
      </trkpt>
      <trkpt lat="49.91785" lon="6.15291">
        <ele>424</ele>
        <time>2026-08-26T19:21:19+00:00</time>
      </trkpt>
      <trkpt lat="49.91802" lon="6.15297">
        <ele>425</ele>
        <time>2026-08-26T19:21:22+00:00</time>
      </trkpt>
      <trkpt lat="49.91807" lon="6.15321">
        <ele>425</ele>
        <time>2026-08-26T19:21:25+00:00</time>
      </trkpt>
      <trkpt lat="49.91815" lon="6.15344">
        <ele>425</ele>
        <time>2026-08-26T19:21:28+00:00</time>
      </trkpt>
      <trkpt lat="49.91824" lon="6.15372">
        <ele>425</ele>
        <time>2026-08-26T19:21:31+00:00</time>
      </trkpt>
      <trkpt lat="49.91834" lon="6.15396">
        <ele>425</ele>
        <time>2026-08-26T19:21:34+00:00</time>
      </trkpt>
      <trkpt lat="49.9185" lon="6.15429">
        <ele>426</ele>
        <time>2026-08-26T19:21:37+00:00</time>
      </trkpt>
      <trkpt lat="49.91877" lon="6.15484">
        <ele>426</ele>
        <time>2026-08-26T19:21:40+00:00</time>
      </trkpt>
      <trkpt lat="49.91894" lon="6.15516">
        <ele>427</ele>
        <time>2026-08-26T19:21:43+00:00</time>
      </trkpt>
      <trkpt lat="49.91923" lon="6.15569">
        <ele>428</ele>
        <time>2026-08-26T19:21:46+00:00</time>
      </trkpt>
      <trkpt lat="49.91939" lon="6.15604">
        <ele>428</ele>
        <time>2026-08-26T19:21:49+00:00</time>
      </trkpt>
      <trkpt lat="49.91954" lon="6.15639">
        <ele>427</ele>
        <time>2026-08-26T19:21:52+00:00</time>
      </trkpt>
      <trkpt lat="49.91954" lon="6.15647">
        <ele>429</ele>
        <time>2026-08-26T19:21:55+00:00</time>
      </trkpt>
      <trkpt lat="49.91951" lon="6.15653">
        <ele>428</ele>
        <time>2026-08-26T19:21:58+00:00</time>
      </trkpt>
      <trkpt lat="49.91935" lon="6.15668">
        <ele>426</ele>
        <time>2026-08-26T19:22:01+00:00</time>
      </trkpt>
      <trkpt lat="49.91918" lon="6.15684">
        <ele>422</ele>
        <time>2026-08-26T19:22:04+00:00</time>
      </trkpt>
      <trkpt lat="49.91916" lon="6.15688">
        <ele>422</ele>
        <time>2026-08-26T19:22:07+00:00</time>
      </trkpt>
      <trkpt lat="49.91916" lon="6.15693">
        <ele>422</ele>
        <time>2026-08-26T19:22:10+00:00</time>
      </trkpt>
      <trkpt lat="49.91936" lon="6.15727">
        <ele>422</ele>
        <time>2026-08-26T19:22:13+00:00</time>
      </trkpt>
      <trkpt lat="49.91956" lon="6.1576">
        <ele>422</ele>
        <time>2026-08-26T19:22:16+00:00</time>
      </trkpt>
      <trkpt lat="49.91987" lon="6.15813">
        <ele>422</ele>
        <time>2026-08-26T19:22:19+00:00</time>
      </trkpt>
      <trkpt lat="49.92005" lon="6.15832">
        <ele>422</ele>
        <time>2026-08-26T19:22:22+00:00</time>
      </trkpt>
      <trkpt lat="49.92042" lon="6.15862">
        <ele>423</ele>
        <time>2026-08-26T19:22:25+00:00</time>
      </trkpt>
      <trkpt lat="49.92062" lon="6.15874">
        <ele>423</ele>
        <time>2026-08-26T19:22:28+00:00</time>
      </trkpt>
      <trkpt lat="49.92083" lon="6.15887">
        <ele>423</ele>
        <time>2026-08-26T19:22:31+00:00</time>
      </trkpt>
      <trkpt lat="49.92119" lon="6.15906">
        <ele>422</ele>
        <time>2026-08-26T19:22:34+00:00</time>
      </trkpt>
      <trkpt lat="49.921" lon="6.15927">
        <ele>422</ele>
        <time>2026-08-26T19:22:37+00:00</time>
      </trkpt>
      <trkpt lat="49.92078" lon="6.15951">
        <ele>418</ele>
        <time>2026-08-26T19:22:40+00:00</time>
      </trkpt>
      <trkpt lat="49.9205" lon="6.15993">
        <ele>412</ele>
        <time>2026-08-26T19:22:43+00:00</time>
      </trkpt>
      <trkpt lat="49.92032" lon="6.16017">
        <ele>410</ele>
        <time>2026-08-26T19:22:46+00:00</time>
      </trkpt>
      <trkpt lat="49.92011" lon="6.16045">
        <ele>406</ele>
        <time>2026-08-26T19:22:49+00:00</time>
      </trkpt>
      <trkpt lat="49.92" lon="6.16057">
        <ele>404</ele>
        <time>2026-08-26T19:22:52+00:00</time>
      </trkpt>
      <trkpt lat="49.91981" lon="6.16072">
        <ele>401</ele>
        <time>2026-08-26T19:22:55+00:00</time>
      </trkpt>
      <trkpt lat="49.91949" lon="6.16097">
        <ele>395</ele>
        <time>2026-08-26T19:22:58+00:00</time>
      </trkpt>
      <trkpt lat="49.91935" lon="6.16111">
        <ele>391</ele>
        <time>2026-08-26T19:23:01+00:00</time>
      </trkpt>
      <trkpt lat="49.91926" lon="6.16143">
        <ele>386</ele>
        <time>2026-08-26T19:23:04+00:00</time>
      </trkpt>
      <trkpt lat="49.91908" lon="6.16203">
        <ele>377</ele>
        <time>2026-08-26T19:23:07+00:00</time>
      </trkpt>
      <trkpt lat="49.91896" lon="6.16234">
        <ele>374</ele>
        <time>2026-08-26T19:23:10+00:00</time>
      </trkpt>
      <trkpt lat="49.91882" lon="6.1627">
        <ele>370</ele>
        <time>2026-08-26T19:23:13+00:00</time>
      </trkpt>
      <trkpt lat="49.91871" lon="6.163">
        <ele>368</ele>
        <time>2026-08-26T19:23:16+00:00</time>
      </trkpt>
      <trkpt lat="49.91859" lon="6.16331">
        <ele>367</ele>
        <time>2026-08-26T19:23:19+00:00</time>
      </trkpt>
      <trkpt lat="49.91885" lon="6.1636">
        <ele>366</ele>
        <time>2026-08-26T19:23:22+00:00</time>
      </trkpt>
      <trkpt lat="49.91911" lon="6.16389">
        <ele>362</ele>
        <time>2026-08-26T19:23:25+00:00</time>
      </trkpt>
      <trkpt lat="49.91956" lon="6.16439">
        <ele>362</ele>
        <time>2026-08-26T19:23:28+00:00</time>
      </trkpt>
      <trkpt lat="49.91959" lon="6.16439">
        <ele>362</ele>
        <time>2026-08-26T19:23:31+00:00</time>
      </trkpt>
      <trkpt lat="49.91961" lon="6.16433">
        <ele>363</ele>
        <time>2026-08-26T19:23:34+00:00</time>
      </trkpt>
      <trkpt lat="49.91962" lon="6.16419">
        <ele>364</ele>
        <time>2026-08-26T19:23:37+00:00</time>
      </trkpt>
      <trkpt lat="49.91956" lon="6.16396">
        <ele>363</ele>
        <time>2026-08-26T19:23:40+00:00</time>
      </trkpt>
      <trkpt lat="49.91954" lon="6.16378">
        <ele>364</ele>
        <time>2026-08-26T19:23:43+00:00</time>
      </trkpt>
      <trkpt lat="49.91956" lon="6.16356">
        <ele>365</ele>
        <time>2026-08-26T19:23:46+00:00</time>
      </trkpt>
      <trkpt lat="49.91965" lon="6.16332">
        <ele>367</ele>
        <time>2026-08-26T19:23:49+00:00</time>
      </trkpt>
      <trkpt lat="49.91976" lon="6.16313">
        <ele>370</ele>
        <time>2026-08-26T19:23:52+00:00</time>
      </trkpt>
      <trkpt lat="49.91985" lon="6.16299">
        <ele>369</ele>
        <time>2026-08-26T19:23:55+00:00</time>
      </trkpt>
      <trkpt lat="49.91993" lon="6.16286">
        <ele>372</ele>
        <time>2026-08-26T19:23:58+00:00</time>
      </trkpt>
      <trkpt lat="49.92002" lon="6.1628">
        <ele>372</ele>
        <time>2026-08-26T19:24:01+00:00</time>
      </trkpt>
      <trkpt lat="49.92014" lon="6.16276">
        <ele>374</ele>
        <time>2026-08-26T19:24:04+00:00</time>
      </trkpt>
      <trkpt lat="49.92018" lon="6.16278">
        <ele>374</ele>
        <time>2026-08-26T19:24:07+00:00</time>
      </trkpt>
      <trkpt lat="49.92017" lon="6.16283">
        <ele>372</ele>
        <time>2026-08-26T19:24:10+00:00</time>
      </trkpt>
      <trkpt lat="49.92005" lon="6.16297">
        <ele>369</ele>
        <time>2026-08-26T19:24:13+00:00</time>
      </trkpt>
      <trkpt lat="49.91997" lon="6.16313">
        <ele>371</ele>
        <time>2026-08-26T19:24:16+00:00</time>
      </trkpt>
      <trkpt lat="49.91991" lon="6.16333">
        <ele>368</ele>
        <time>2026-08-26T19:24:19+00:00</time>
      </trkpt>
      <trkpt lat="49.91989" lon="6.1635">
        <ele>367</ele>
        <time>2026-08-26T19:24:22+00:00</time>
      </trkpt>
      <trkpt lat="49.91991" lon="6.16365">
        <ele>362</ele>
        <time>2026-08-26T19:24:25+00:00</time>
      </trkpt>
      <trkpt lat="49.92004" lon="6.16387">
        <ele>363</ele>
        <time>2026-08-26T19:24:28+00:00</time>
      </trkpt>
      <trkpt lat="49.92014" lon="6.16409">
        <ele>359</ele>
        <time>2026-08-26T19:24:31+00:00</time>
      </trkpt>
      <trkpt lat="49.92023" lon="6.16434">
        <ele>357</ele>
        <time>2026-08-26T19:24:34+00:00</time>
      </trkpt>
      <trkpt lat="49.92025" lon="6.16449">
        <ele>357</ele>
        <time>2026-08-26T19:24:37+00:00</time>
      </trkpt>
      <trkpt lat="49.92021" lon="6.16488">
        <ele>357</ele>
        <time>2026-08-26T19:24:40+00:00</time>
      </trkpt>
      <trkpt lat="49.92017" lon="6.16528">
        <ele>357</ele>
        <time>2026-08-26T19:24:43+00:00</time>
      </trkpt>
      <trkpt lat="49.92013" lon="6.16568">
        <ele>352</ele>
        <time>2026-08-26T19:24:46+00:00</time>
      </trkpt>
      <trkpt lat="49.92007" lon="6.16593">
        <ele>351</ele>
        <time>2026-08-26T19:24:49+00:00</time>
      </trkpt>
      <trkpt lat="49.92008" lon="6.16603">
        <ele>349</ele>
        <time>2026-08-26T19:24:52+00:00</time>
      </trkpt>
      <trkpt lat="49.92012" lon="6.16597">
        <ele>346</ele>
        <time>2026-08-26T19:24:55+00:00</time>
      </trkpt>
      <trkpt lat="49.92025" lon="6.16553">
        <ele>349</ele>
        <time>2026-08-26T19:24:58+00:00</time>
      </trkpt>
      <trkpt lat="49.9204" lon="6.16515">
        <ele>349</ele>
        <time>2026-08-26T19:25:01+00:00</time>
      </trkpt>
      <trkpt lat="49.92068" lon="6.16441">
        <ele>335</ele>
        <time>2026-08-26T19:25:04+00:00</time>
      </trkpt>
      <trkpt lat="49.92071" lon="6.16423">
        <ele>331</ele>
        <time>2026-08-26T19:25:07+00:00</time>
      </trkpt>
      <trkpt lat="49.92074" lon="6.16418">
        <ele>333</ele>
        <time>2026-08-26T19:25:10+00:00</time>
      </trkpt>
      <trkpt lat="49.92077" lon="6.16418">
        <ele>333</ele>
        <time>2026-08-26T19:25:13+00:00</time>
      </trkpt>
      <trkpt lat="49.92073" lon="6.16448">
        <ele>330</ele>
        <time>2026-08-26T19:25:16+00:00</time>
      </trkpt>
      <trkpt lat="49.92062" lon="6.16488">
        <ele>333</ele>
        <time>2026-08-26T19:25:19+00:00</time>
      </trkpt>
      <trkpt lat="49.92041" lon="6.16565">
        <ele>336</ele>
        <time>2026-08-26T19:25:22+00:00</time>
      </trkpt>
      <trkpt lat="49.92036" lon="6.166">
        <ele>334</ele>
        <time>2026-08-26T19:25:25+00:00</time>
      </trkpt>
      <trkpt lat="49.9203" lon="6.16639">
        <ele>332</ele>
        <time>2026-08-26T19:25:28+00:00</time>
      </trkpt>
      <trkpt lat="49.92025" lon="6.16656">
        <ele>334</ele>
        <time>2026-08-26T19:25:31+00:00</time>
      </trkpt>
      <trkpt lat="49.92022" lon="6.16667">
        <ele>332</ele>
        <time>2026-08-26T19:25:34+00:00</time>
      </trkpt>
      <trkpt lat="49.9202" lon="6.16705">
        <ele>330</ele>
        <time>2026-08-26T19:25:37+00:00</time>
      </trkpt>
      <trkpt lat="49.92018" lon="6.16753">
        <ele>329</ele>
        <time>2026-08-26T19:25:40+00:00</time>
      </trkpt>
      <trkpt lat="49.92013" lon="6.16787">
        <ele>324</ele>
        <time>2026-08-26T19:25:43+00:00</time>
      </trkpt>
      <trkpt lat="49.92004" lon="6.16824">
        <ele>325</ele>
        <time>2026-08-26T19:25:46+00:00</time>
      </trkpt>
      <trkpt lat="49.91995" lon="6.16845">
        <ele>326</ele>
        <time>2026-08-26T19:25:49+00:00</time>
      </trkpt>
      <trkpt lat="49.91987" lon="6.16882">
        <ele>324</ele>
        <time>2026-08-26T19:25:52+00:00</time>
      </trkpt>
      <trkpt lat="49.91978" lon="6.16918">
        <ele>324</ele>
        <time>2026-08-26T19:25:55+00:00</time>
      </trkpt>
      <trkpt lat="49.91968" lon="6.16964">
        <ele>325</ele>
        <time>2026-08-26T19:25:58+00:00</time>
      </trkpt>
      <trkpt lat="49.91955" lon="6.16994">
        <ele>326</ele>
        <time>2026-08-26T19:26:01+00:00</time>
      </trkpt>
      <trkpt lat="49.91929" lon="6.17042">
        <ele>325</ele>
        <time>2026-08-26T19:26:04+00:00</time>
      </trkpt>
      <trkpt lat="49.91915" lon="6.17075">
        <ele>325</ele>
        <time>2026-08-26T19:26:07+00:00</time>
      </trkpt>
      <trkpt lat="49.91905" lon="6.17116">
        <ele>322</ele>
        <time>2026-08-26T19:26:10+00:00</time>
      </trkpt>
      <trkpt lat="49.91887" lon="6.17195">
        <ele>319</ele>
        <time>2026-08-26T19:26:13+00:00</time>
      </trkpt>
      <trkpt lat="49.91881" lon="6.17239">
        <ele>315</ele>
        <time>2026-08-26T19:26:16+00:00</time>
      </trkpt>
      <trkpt lat="49.91874" lon="6.1727">
        <ele>310</ele>
        <time>2026-08-26T19:26:19+00:00</time>
      </trkpt>
      <trkpt lat="49.91877" lon="6.17272">
        <ele>310</ele>
        <time>2026-08-26T19:26:22+00:00</time>
      </trkpt>
      <trkpt lat="49.91879" lon="6.17274">
        <ele>310</ele>
        <time>2026-08-26T19:26:25+00:00</time>
      </trkpt>
      <trkpt lat="49.91889" lon="6.17284">
        <ele>302</ele>
        <time>2026-08-26T19:26:28+00:00</time>
      </trkpt>
      <trkpt lat="49.91896" lon="6.17298">
        <ele>297</ele>
        <time>2026-08-26T19:26:31+00:00</time>
      </trkpt>
      <trkpt lat="49.91907" lon="6.17313">
        <ele>301</ele>
        <time>2026-08-26T19:26:34+00:00</time>
      </trkpt>
      <trkpt lat="49.9193" lon="6.17326">
        <ele>300</ele>
        <time>2026-08-26T19:26:37+00:00</time>
      </trkpt>
      <trkpt lat="49.91942" lon="6.17338">
        <ele>305</ele>
        <time>2026-08-26T19:26:40+00:00</time>
      </trkpt>
      <trkpt lat="49.91937" lon="6.1734">
        <ele>299</ele>
        <time>2026-08-26T19:26:43+00:00</time>
      </trkpt>
      <trkpt lat="49.91929" lon="6.17344">
        <ele>295</ele>
        <time>2026-08-26T19:26:46+00:00</time>
      </trkpt>
      <trkpt lat="49.91916" lon="6.1735">
        <ele>290</ele>
        <time>2026-08-26T19:26:49+00:00</time>
      </trkpt>
      <trkpt lat="49.91906" lon="6.17357">
        <ele>290</ele>
        <time>2026-08-26T19:26:52+00:00</time>
      </trkpt>
      <trkpt lat="49.91898" lon="6.17371">
        <ele>290</ele>
        <time>2026-08-26T19:26:55+00:00</time>
      </trkpt>
      <trkpt lat="49.9189" lon="6.17393">
        <ele>292</ele>
        <time>2026-08-26T19:26:58+00:00</time>
      </trkpt>
      <trkpt lat="49.91884" lon="6.17417">
        <ele>289</ele>
        <time>2026-08-26T19:27:01+00:00</time>
      </trkpt>
      <trkpt lat="49.91877" lon="6.17447">
        <ele>289</ele>
        <time>2026-08-26T19:27:04+00:00</time>
      </trkpt>
      <trkpt lat="49.91872" lon="6.17477">
        <ele>288</ele>
        <time>2026-08-26T19:27:07+00:00</time>
      </trkpt>
      <trkpt lat="49.91867" lon="6.17513">
        <ele>288</ele>
        <time>2026-08-26T19:27:10+00:00</time>
      </trkpt>
      <trkpt lat="49.91864" lon="6.1757">
        <ele>286</ele>
        <time>2026-08-26T19:27:13+00:00</time>
      </trkpt>
      <trkpt lat="49.9186" lon="6.17592">
        <ele>295</ele>
        <time>2026-08-26T19:27:16+00:00</time>
      </trkpt>
      <trkpt lat="49.91852" lon="6.17619">
        <ele>285</ele>
        <time>2026-08-26T19:27:19+00:00</time>
      </trkpt>
      <trkpt lat="49.91837" lon="6.17653">
        <ele>285</ele>
        <time>2026-08-26T19:27:22+00:00</time>
      </trkpt>
      <trkpt lat="49.91813" lon="6.17708">
        <ele>283</ele>
        <time>2026-08-26T19:27:25+00:00</time>
      </trkpt>
      <trkpt lat="49.91804" lon="6.17722">
        <ele>287</ele>
        <time>2026-08-26T19:27:28+00:00</time>
      </trkpt>
      <trkpt lat="49.91792" lon="6.17737">
        <ele>282</ele>
        <time>2026-08-26T19:27:31+00:00</time>
      </trkpt>
      <trkpt lat="49.9178" lon="6.17753">
        <ele>282</ele>
        <time>2026-08-26T19:27:34+00:00</time>
      </trkpt>
      <trkpt lat="49.91758" lon="6.17784">
        <ele>281</ele>
        <time>2026-08-26T19:27:37+00:00</time>
      </trkpt>
      <trkpt lat="49.91737" lon="6.17831">
        <ele>285</ele>
        <time>2026-08-26T19:27:40+00:00</time>
      </trkpt>
      <trkpt lat="49.91748" lon="6.17822">
        <ele>285</ele>
        <time>2026-08-26T19:27:43+00:00</time>
      </trkpt>
      <trkpt lat="49.9175" lon="6.17821">
        <ele>285</ele>
        <time>2026-08-26T19:27:46+00:00</time>
      </trkpt>
      <trkpt lat="49.91755" lon="6.1782">
        <ele>289</ele>
        <time>2026-08-26T19:27:49+00:00</time>
      </trkpt>
      <trkpt lat="49.91765" lon="6.17825">
        <ele>292</ele>
        <time>2026-08-26T19:27:52+00:00</time>
      </trkpt>
      <trkpt lat="49.91779" lon="6.1784">
        <ele>293</ele>
        <time>2026-08-26T19:27:55+00:00</time>
      </trkpt>
      <trkpt lat="49.91801" lon="6.17871">
        <ele>297</ele>
        <time>2026-08-26T19:27:58+00:00</time>
      </trkpt>
      <trkpt lat="49.91823" lon="6.17908">
        <ele>304</ele>
        <time>2026-08-26T19:28:01+00:00</time>
      </trkpt>
      <trkpt lat="49.91845" lon="6.17945">
        <ele>306</ele>
        <time>2026-08-26T19:28:04+00:00</time>
      </trkpt>
      <trkpt lat="49.91867" lon="6.17982">
        <ele>305</ele>
        <time>2026-08-26T19:28:07+00:00</time>
      </trkpt>
      <trkpt lat="49.9189" lon="6.1802">
        <ele>305</ele>
        <time>2026-08-26T19:28:10+00:00</time>
      </trkpt>
      <trkpt lat="49.91908" lon="6.18054">
        <ele>305</ele>
        <time>2026-08-26T19:28:13+00:00</time>
      </trkpt>
      <trkpt lat="49.91941" lon="6.18116">
        <ele>305</ele>
        <time>2026-08-26T19:28:16+00:00</time>
      </trkpt>
      <trkpt lat="49.91967" lon="6.18154">
        <ele>303</ele>
        <time>2026-08-26T19:28:19+00:00</time>
      </trkpt>
      <trkpt lat="49.91975" lon="6.18175">
        <ele>303</ele>
        <time>2026-08-26T19:28:22+00:00</time>
      </trkpt>
      <trkpt lat="49.91983" lon="6.18187">
        <ele>301</ele>
        <time>2026-08-26T19:28:25+00:00</time>
      </trkpt>
      <trkpt lat="49.92005" lon="6.18228">
        <ele>301</ele>
        <time>2026-08-26T19:28:28+00:00</time>
      </trkpt>
      <trkpt lat="49.92017" lon="6.18255">
        <ele>301</ele>
        <time>2026-08-26T19:28:31+00:00</time>
      </trkpt>
      <trkpt lat="49.92021" lon="6.18268">
        <ele>302</ele>
        <time>2026-08-26T19:28:34+00:00</time>
      </trkpt>
      <trkpt lat="49.92027" lon="6.18299">
        <ele>304</ele>
        <time>2026-08-26T19:28:37+00:00</time>
      </trkpt>
      <trkpt lat="49.92036" lon="6.18341">
        <ele>304</ele>
        <time>2026-08-26T19:28:40+00:00</time>
      </trkpt>
      <trkpt lat="49.92039" lon="6.18351">
        <ele>308</ele>
        <time>2026-08-26T19:28:43+00:00</time>
      </trkpt>
      <trkpt lat="49.92051" lon="6.18372">
        <ele>305</ele>
        <time>2026-08-26T19:28:46+00:00</time>
      </trkpt>
      <trkpt lat="49.92055" lon="6.18402">
        <ele>310</ele>
        <time>2026-08-26T19:28:49+00:00</time>
      </trkpt>
      <trkpt lat="49.92057" lon="6.1842">
        <ele>311</ele>
        <time>2026-08-26T19:28:52+00:00</time>
      </trkpt>
      <trkpt lat="49.92062" lon="6.18444">
        <ele>315</ele>
        <time>2026-08-26T19:28:55+00:00</time>
      </trkpt>
      <trkpt lat="49.9207" lon="6.18456">
        <ele>317</ele>
        <time>2026-08-26T19:28:58+00:00</time>
      </trkpt>
      <trkpt lat="49.92073" lon="6.18469">
        <ele>315</ele>
        <time>2026-08-26T19:29:01+00:00</time>
      </trkpt>
      <trkpt lat="49.92071" lon="6.18479">
        <ele>314</ele>
        <time>2026-08-26T19:29:04+00:00</time>
      </trkpt>
      <trkpt lat="49.92068" lon="6.18484">
        <ele>317</ele>
        <time>2026-08-26T19:29:07+00:00</time>
      </trkpt>
      <trkpt lat="49.92058" lon="6.18484">
        <ele>317</ele>
        <time>2026-08-26T19:29:10+00:00</time>
      </trkpt>
      <trkpt lat="49.92034" lon="6.18463">
        <ele>320</ele>
        <time>2026-08-26T19:29:13+00:00</time>
      </trkpt>
      <trkpt lat="49.92025" lon="6.18459">
        <ele>319</ele>
        <time>2026-08-26T19:29:16+00:00</time>
      </trkpt>
      <trkpt lat="49.92016" lon="6.18457">
        <ele>321</ele>
        <time>2026-08-26T19:29:19+00:00</time>
      </trkpt>
      <trkpt lat="49.92009" lon="6.1845">
        <ele>323</ele>
        <time>2026-08-26T19:29:22+00:00</time>
      </trkpt>
      <trkpt lat="49.92001" lon="6.18425">
        <ele>322</ele>
        <time>2026-08-26T19:29:25+00:00</time>
      </trkpt>
      <trkpt lat="49.91992" lon="6.18398">
        <ele>324</ele>
        <time>2026-08-26T19:29:28+00:00</time>
      </trkpt>
      <trkpt lat="49.91984" lon="6.18382">
        <ele>326</ele>
        <time>2026-08-26T19:29:31+00:00</time>
      </trkpt>
      <trkpt lat="49.91969" lon="6.18361">
        <ele>330</ele>
        <time>2026-08-26T19:29:34+00:00</time>
      </trkpt>
      <trkpt lat="49.91958" lon="6.18348">
        <ele>330</ele>
        <time>2026-08-26T19:29:37+00:00</time>
      </trkpt>
      <trkpt lat="49.91931" lon="6.18326">
        <ele>332</ele>
        <time>2026-08-26T19:29:40+00:00</time>
      </trkpt>
      <trkpt lat="49.91903" lon="6.18303">
        <ele>336</ele>
        <time>2026-08-26T19:29:43+00:00</time>
      </trkpt>
      <trkpt lat="49.91876" lon="6.18281">
        <ele>343</ele>
        <time>2026-08-26T19:29:46+00:00</time>
      </trkpt>
      <trkpt lat="49.91832" lon="6.18245">
        <ele>362</ele>
        <time>2026-08-26T19:29:49+00:00</time>
      </trkpt>
      <trkpt lat="49.91815" lon="6.18235">
        <ele>364</ele>
        <time>2026-08-26T19:29:52+00:00</time>
      </trkpt>
      <trkpt lat="49.91808" lon="6.18235">
        <ele>365</ele>
        <time>2026-08-26T19:29:55+00:00</time>
      </trkpt>
      <trkpt lat="49.91801" lon="6.18239">
        <ele>365</ele>
        <time>2026-08-26T19:29:58+00:00</time>
      </trkpt>
      <trkpt lat="49.91813" lon="6.18271">
        <ele>369</ele>
        <time>2026-08-26T19:30:01+00:00</time>
      </trkpt>
      <trkpt lat="49.91821" lon="6.18294">
        <ele>370</ele>
        <time>2026-08-26T19:30:04+00:00</time>
      </trkpt>
      <trkpt lat="49.91827" lon="6.18332">
        <ele>369</ele>
        <time>2026-08-26T19:30:07+00:00</time>
      </trkpt>
      <trkpt lat="49.91833" lon="6.1837">
        <ele>369</ele>
        <time>2026-08-26T19:30:10+00:00</time>
      </trkpt>
      <trkpt lat="49.9184" lon="6.18419">
        <ele>366</ele>
        <time>2026-08-26T19:30:13+00:00</time>
      </trkpt>
      <trkpt lat="49.91848" lon="6.18455">
        <ele>364</ele>
        <time>2026-08-26T19:30:16+00:00</time>
      </trkpt>
      <trkpt lat="49.91858" lon="6.18501">
        <ele>364</ele>
        <time>2026-08-26T19:30:19+00:00</time>
      </trkpt>
      <trkpt lat="49.91858" lon="6.18518">
        <ele>364</ele>
        <time>2026-08-26T19:30:22+00:00</time>
      </trkpt>
      <trkpt lat="49.91855" lon="6.18558">
        <ele>364</ele>
        <time>2026-08-26T19:30:25+00:00</time>
      </trkpt>
      <trkpt lat="49.91853" lon="6.18598">
        <ele>363</ele>
        <time>2026-08-26T19:30:28+00:00</time>
      </trkpt>
      <trkpt lat="49.9185" lon="6.18641">
        <ele>360</ele>
        <time>2026-08-26T19:30:31+00:00</time>
      </trkpt>
      <trkpt lat="49.91849" lon="6.18659">
        <ele>360</ele>
        <time>2026-08-26T19:30:34+00:00</time>
      </trkpt>
      <trkpt lat="49.91851" lon="6.18686">
        <ele>359</ele>
        <time>2026-08-26T19:30:37+00:00</time>
      </trkpt>
      <trkpt lat="49.91853" lon="6.18716">
        <ele>358</ele>
        <time>2026-08-26T19:30:40+00:00</time>
      </trkpt>
      <trkpt lat="49.91859" lon="6.18759">
        <ele>357</ele>
        <time>2026-08-26T19:30:43+00:00</time>
      </trkpt>
      <trkpt lat="49.91871" lon="6.18839">
        <ele>357</ele>
        <time>2026-08-26T19:30:46+00:00</time>
      </trkpt>
      <trkpt lat="49.91875" lon="6.18861">
        <ele>356</ele>
        <time>2026-08-26T19:30:49+00:00</time>
      </trkpt>
      <trkpt lat="49.91884" lon="6.1889">
        <ele>356</ele>
        <time>2026-08-26T19:30:52+00:00</time>
      </trkpt>
      <trkpt lat="49.91899" lon="6.18938">
        <ele>355</ele>
        <time>2026-08-26T19:30:55+00:00</time>
      </trkpt>
      <trkpt lat="49.91911" lon="6.18978">
        <ele>355</ele>
        <time>2026-08-26T19:30:58+00:00</time>
      </trkpt>
      <trkpt lat="49.91935" lon="6.19054">
        <ele>355</ele>
        <time>2026-08-26T19:31:01+00:00</time>
      </trkpt>
      <trkpt lat="49.9196" lon="6.19043">
        <ele>355</ele>
        <time>2026-08-26T19:31:04+00:00</time>
      </trkpt>
      <trkpt lat="49.91971" lon="6.1904">
        <ele>355</ele>
        <time>2026-08-26T19:31:07+00:00</time>
      </trkpt>
      <trkpt lat="49.91995" lon="6.19039">
        <ele>357</ele>
        <time>2026-08-26T19:31:10+00:00</time>
      </trkpt>
      <trkpt lat="49.92037" lon="6.19038">
        <ele>361</ele>
        <time>2026-08-26T19:31:13+00:00</time>
      </trkpt>
      <trkpt lat="49.92065" lon="6.19033">
        <ele>364</ele>
        <time>2026-08-26T19:31:16+00:00</time>
      </trkpt>
      <trkpt lat="49.92117" lon="6.19025">
        <ele>366</ele>
        <time>2026-08-26T19:31:19+00:00</time>
      </trkpt>
      <trkpt lat="49.92153" lon="6.19024">
        <ele>367</ele>
        <time>2026-08-26T19:31:22+00:00</time>
      </trkpt>
      <trkpt lat="49.92189" lon="6.19023">
        <ele>369</ele>
        <time>2026-08-26T19:31:25+00:00</time>
      </trkpt>
      <trkpt lat="49.92225" lon="6.19022">
        <ele>370</ele>
        <time>2026-08-26T19:31:28+00:00</time>
      </trkpt>
      <trkpt lat="49.92261" lon="6.19022">
        <ele>372</ele>
        <time>2026-08-26T19:31:31+00:00</time>
      </trkpt>
      <trkpt lat="49.92325" lon="6.1902">
        <ele>376</ele>
        <time>2026-08-26T19:31:34+00:00</time>
      </trkpt>
      <trkpt lat="49.92321" lon="6.19014">
        <ele>375</ele>
        <time>2026-08-26T19:31:37+00:00</time>
      </trkpt>
      <trkpt lat="49.92325" lon="6.1902">
        <ele>376</ele>
        <time>2026-08-26T19:31:40+00:00</time>
      </trkpt>
      <trkpt lat="49.92347" lon="6.19015">
        <ele>376</ele>
        <time>2026-08-26T19:31:43+00:00</time>
      </trkpt>
      <trkpt lat="49.92373" lon="6.19001">
        <ele>379</ele>
        <time>2026-08-26T19:31:46+00:00</time>
      </trkpt>
      <trkpt lat="49.924" lon="6.1899">
        <ele>380</ele>
        <time>2026-08-26T19:31:49+00:00</time>
      </trkpt>
      <trkpt lat="49.92423" lon="6.18985">
        <ele>381</ele>
        <time>2026-08-26T19:31:52+00:00</time>
      </trkpt>
      <trkpt lat="49.92442" lon="6.18984">
        <ele>381</ele>
        <time>2026-08-26T19:31:55+00:00</time>
      </trkpt>
      <trkpt lat="49.92473" lon="6.18989">
        <ele>381</ele>
        <time>2026-08-26T19:31:58+00:00</time>
      </trkpt>
      <trkpt lat="49.92503" lon="6.18994">
        <ele>383</ele>
        <time>2026-08-26T19:32:01+00:00</time>
      </trkpt>
      <trkpt lat="49.92548" lon="6.19002">
        <ele>384</ele>
        <time>2026-08-26T19:32:04+00:00</time>
      </trkpt>
      <trkpt lat="49.92563" lon="6.19002">
        <ele>385</ele>
        <time>2026-08-26T19:32:07+00:00</time>
      </trkpt>
      <trkpt lat="49.92581" lon="6.19001">
        <ele>386</ele>
        <time>2026-08-26T19:32:10+00:00</time>
      </trkpt>
      <trkpt lat="49.92603" lon="6.18999">
        <ele>387</ele>
        <time>2026-08-26T19:32:13+00:00</time>
      </trkpt>
      <trkpt lat="49.92628" lon="6.19">
        <ele>388</ele>
        <time>2026-08-26T19:32:16+00:00</time>
      </trkpt>
      <trkpt lat="49.92665" lon="6.19002">
        <ele>392</ele>
        <time>2026-08-26T19:32:19+00:00</time>
      </trkpt>
      <trkpt lat="49.92689" lon="6.19">
        <ele>394</ele>
        <time>2026-08-26T19:32:22+00:00</time>
      </trkpt>
      <trkpt lat="49.9272" lon="6.18997">
        <ele>396</ele>
        <time>2026-08-26T19:32:25+00:00</time>
      </trkpt>
      <trkpt lat="49.92747" lon="6.18998">
        <ele>398</ele>
        <time>2026-08-26T19:32:28+00:00</time>
      </trkpt>
      <trkpt lat="49.92794" lon="6.19001">
        <ele>398</ele>
        <time>2026-08-26T19:32:31+00:00</time>
      </trkpt>
      <trkpt lat="49.92803" lon="6.19001">
        <ele>398</ele>
        <time>2026-08-26T19:32:34+00:00</time>
      </trkpt>
      <trkpt lat="49.92796" lon="6.18967">
        <ele>401</ele>
        <time>2026-08-26T19:32:37+00:00</time>
      </trkpt>
      <trkpt lat="49.92784" lon="6.18911">
        <ele>405</ele>
        <time>2026-08-26T19:32:40+00:00</time>
      </trkpt>
      <trkpt lat="49.92781" lon="6.18889">
        <ele>405</ele>
        <time>2026-08-26T19:32:43+00:00</time>
      </trkpt>
      <trkpt lat="49.92779" lon="6.18857">
        <ele>405</ele>
        <time>2026-08-26T19:32:46+00:00</time>
      </trkpt>
      <trkpt lat="49.92777" lon="6.18808">
        <ele>406</ele>
        <time>2026-08-26T19:32:49+00:00</time>
      </trkpt>
      <trkpt lat="49.92776" lon="6.18771">
        <ele>406</ele>
        <time>2026-08-26T19:32:52+00:00</time>
      </trkpt>
      <trkpt lat="49.92778" lon="6.18732">
        <ele>406</ele>
        <time>2026-08-26T19:32:55+00:00</time>
      </trkpt>
      <trkpt lat="49.92787" lon="6.18707">
        <ele>407</ele>
        <time>2026-08-26T19:32:58+00:00</time>
      </trkpt>
      <trkpt lat="49.92789" lon="6.18695">
        <ele>408</ele>
        <time>2026-08-26T19:33:01+00:00</time>
      </trkpt>
      <trkpt lat="49.92796" lon="6.18691">
        <ele>408</ele>
        <time>2026-08-26T19:33:04+00:00</time>
      </trkpt>
      <trkpt lat="49.92809" lon="6.18673">
        <ele>410</ele>
        <time>2026-08-26T19:33:07+00:00</time>
      </trkpt>
      <trkpt lat="49.92836" lon="6.1864">
        <ele>412</ele>
        <time>2026-08-26T19:33:10+00:00</time>
      </trkpt>
      <trkpt lat="49.92857" lon="6.18617">
        <ele>414</ele>
        <time>2026-08-26T19:33:13+00:00</time>
      </trkpt>
      <trkpt lat="49.92887" lon="6.18583">
        <ele>415</ele>
        <time>2026-08-26T19:33:16+00:00</time>
      </trkpt>
      <trkpt lat="49.9291" lon="6.18554">
        <ele>418</ele>
        <time>2026-08-26T19:33:19+00:00</time>
      </trkpt>
      <trkpt lat="49.92927" lon="6.18529">
        <ele>420</ele>
        <time>2026-08-26T19:33:22+00:00</time>
      </trkpt>
      <trkpt lat="49.92946" lon="6.185">
        <ele>421</ele>
        <time>2026-08-26T19:33:25+00:00</time>
      </trkpt>
      <trkpt lat="49.92967" lon="6.18478">
        <ele>423</ele>
        <time>2026-08-26T19:33:28+00:00</time>
      </trkpt>
      <trkpt lat="49.92982" lon="6.18467">
        <ele>424</ele>
        <time>2026-08-26T19:33:31+00:00</time>
      </trkpt>
      <trkpt lat="49.92994" lon="6.18455">
        <ele>425</ele>
        <time>2026-08-26T19:33:34+00:00</time>
      </trkpt>
      <trkpt lat="49.93007" lon="6.18443">
        <ele>425</ele>
        <time>2026-08-26T19:33:37+00:00</time>
      </trkpt>
      <trkpt lat="49.93016" lon="6.18484">
        <ele>425</ele>
        <time>2026-08-26T19:33:40+00:00</time>
      </trkpt>
      <trkpt lat="49.93023" lon="6.18537">
        <ele>424</ele>
        <time>2026-08-26T19:33:43+00:00</time>
      </trkpt>
      <trkpt lat="49.9303" lon="6.1859">
        <ele>424</ele>
        <time>2026-08-26T19:33:46+00:00</time>
      </trkpt>
      <trkpt lat="49.93037" lon="6.18642">
        <ele>423</ele>
        <time>2026-08-26T19:33:49+00:00</time>
      </trkpt>
      <trkpt lat="49.93045" lon="6.18695">
        <ele>422</ele>
        <time>2026-08-26T19:33:52+00:00</time>
      </trkpt>
      <trkpt lat="49.93052" lon="6.1875">
        <ele>421</ele>
        <time>2026-08-26T19:33:55+00:00</time>
      </trkpt>
      <trkpt lat="49.93053" lon="6.18775">
        <ele>421</ele>
        <time>2026-08-26T19:33:58+00:00</time>
      </trkpt>
      <trkpt lat="49.93052" lon="6.18792">
        <ele>420</ele>
        <time>2026-08-26T19:34:01+00:00</time>
      </trkpt>
      <trkpt lat="49.93047" lon="6.18805">
        <ele>420</ele>
        <time>2026-08-26T19:34:04+00:00</time>
      </trkpt>
      <trkpt lat="49.93036" lon="6.18821">
        <ele>420</ele>
        <time>2026-08-26T19:34:07+00:00</time>
      </trkpt>
      <trkpt lat="49.93021" lon="6.18836">
        <ele>420</ele>
        <time>2026-08-26T19:34:10+00:00</time>
      </trkpt>
      <trkpt lat="49.93018" lon="6.18843">
        <ele>420</ele>
        <time>2026-08-26T19:34:13+00:00</time>
      </trkpt>
      <trkpt lat="49.93018" lon="6.18843">
        <ele>420</ele>
        <time>2026-08-26T19:34:16+00:00</time>
      </trkpt>
      <trkpt lat="49.93018" lon="6.18843">
        <ele>420</ele>
        <time>2026-08-26T19:34:19+00:00</time>
      </trkpt>
      <trkpt lat="49.93015" lon="6.18864">
        <ele>420</ele>
        <time>2026-08-26T19:34:22+00:00</time>
      </trkpt>
      <trkpt lat="49.93016" lon="6.18876">
        <ele>419</ele>
        <time>2026-08-26T19:34:25+00:00</time>
      </trkpt>
      <trkpt lat="49.93022" lon="6.18912">
        <ele>418</ele>
        <time>2026-08-26T19:34:28+00:00</time>
      </trkpt>
      <trkpt lat="49.93031" lon="6.18969">
        <ele>417</ele>
        <time>2026-08-26T19:34:31+00:00</time>
      </trkpt>
      <trkpt lat="49.93037" lon="6.19009">
        <ele>416</ele>
        <time>2026-08-26T19:34:34+00:00</time>
      </trkpt>
      <trkpt lat="49.93045" lon="6.19069">
        <ele>413</ele>
        <time>2026-08-26T19:34:37+00:00</time>
      </trkpt>
      <trkpt lat="49.93055" lon="6.19128">
        <ele>411</ele>
        <time>2026-08-26T19:34:40+00:00</time>
      </trkpt>
      <trkpt lat="49.93062" lon="6.19156">
        <ele>410</ele>
        <time>2026-08-26T19:34:43+00:00</time>
      </trkpt>
      <trkpt lat="49.93072" lon="6.19188">
        <ele>408</ele>
        <time>2026-08-26T19:34:46+00:00</time>
      </trkpt>
      <trkpt lat="49.93082" lon="6.19222">
        <ele>407</ele>
        <time>2026-08-26T19:34:49+00:00</time>
      </trkpt>
      <trkpt lat="49.93091" lon="6.19255">
        <ele>405</ele>
        <time>2026-08-26T19:34:52+00:00</time>
      </trkpt>
      <trkpt lat="49.93101" lon="6.19293">
        <ele>403</ele>
        <time>2026-08-26T19:34:55+00:00</time>
      </trkpt>
      <trkpt lat="49.93112" lon="6.19331">
        <ele>401</ele>
        <time>2026-08-26T19:34:58+00:00</time>
      </trkpt>
      <trkpt lat="49.93131" lon="6.19394">
        <ele>399</ele>
        <time>2026-08-26T19:35:01+00:00</time>
      </trkpt>
      <trkpt lat="49.9314" lon="6.19427">
        <ele>397</ele>
        <time>2026-08-26T19:35:04+00:00</time>
      </trkpt>
      <trkpt lat="49.9315" lon="6.19475">
        <ele>396</ele>
        <time>2026-08-26T19:35:07+00:00</time>
      </trkpt>
      <trkpt lat="49.93154" lon="6.19495">
        <ele>396</ele>
        <time>2026-08-26T19:35:10+00:00</time>
      </trkpt>
      <trkpt lat="49.93159" lon="6.19524">
        <ele>395</ele>
        <time>2026-08-26T19:35:13+00:00</time>
      </trkpt>
      <trkpt lat="49.93166" lon="6.19563">
        <ele>395</ele>
        <time>2026-08-26T19:35:16+00:00</time>
      </trkpt>
      <trkpt lat="49.93178" lon="6.1962">
        <ele>394</ele>
        <time>2026-08-26T19:35:19+00:00</time>
      </trkpt>
      <trkpt lat="49.93189" lon="6.1965">
        <ele>394</ele>
        <time>2026-08-26T19:35:22+00:00</time>
      </trkpt>
      <trkpt lat="49.93202" lon="6.19684">
        <ele>393</ele>
        <time>2026-08-26T19:35:25+00:00</time>
      </trkpt>
      <trkpt lat="49.93213" lon="6.1972">
        <ele>392</ele>
        <time>2026-08-26T19:35:28+00:00</time>
      </trkpt>
      <trkpt lat="49.9323" lon="6.19771">
        <ele>389</ele>
        <time>2026-08-26T19:35:31+00:00</time>
      </trkpt>
      <trkpt lat="49.93233" lon="6.19782">
        <ele>389</ele>
        <time>2026-08-26T19:35:34+00:00</time>
      </trkpt>
      <trkpt lat="49.93228" lon="6.19812">
        <ele>385</ele>
        <time>2026-08-26T19:35:37+00:00</time>
      </trkpt>
      <trkpt lat="49.93222" lon="6.19846">
        <ele>387</ele>
        <time>2026-08-26T19:35:40+00:00</time>
      </trkpt>
      <trkpt lat="49.93223" lon="6.19859">
        <ele>382</ele>
        <time>2026-08-26T19:35:43+00:00</time>
      </trkpt>
      <trkpt lat="49.93228" lon="6.19868">
        <ele>382</ele>
        <time>2026-08-26T19:35:46+00:00</time>
      </trkpt>
      <trkpt lat="49.93243" lon="6.19876">
        <ele>390</ele>
        <time>2026-08-26T19:35:49+00:00</time>
      </trkpt>
      <trkpt lat="49.93257" lon="6.19877">
        <ele>392</ele>
        <time>2026-08-26T19:35:52+00:00</time>
      </trkpt>
      <trkpt lat="49.93272" lon="6.19867">
        <ele>391</ele>
        <time>2026-08-26T19:35:55+00:00</time>
      </trkpt>
      <trkpt lat="49.93277" lon="6.19867">
        <ele>396</ele>
        <time>2026-08-26T19:35:58+00:00</time>
      </trkpt>
      <trkpt lat="49.93279" lon="6.1987">
        <ele>396</ele>
        <time>2026-08-26T19:36:01+00:00</time>
      </trkpt>
      <trkpt lat="49.93279" lon="6.19876">
        <ele>395</ele>
        <time>2026-08-26T19:36:04+00:00</time>
      </trkpt>
      <trkpt lat="49.93265" lon="6.19898">
        <ele>389</ele>
        <time>2026-08-26T19:36:07+00:00</time>
      </trkpt>
      <trkpt lat="49.93245" lon="6.19928">
        <ele>387</ele>
        <time>2026-08-26T19:36:10+00:00</time>
      </trkpt>
      <trkpt lat="49.9323" lon="6.19944">
        <ele>383</ele>
        <time>2026-08-26T19:36:13+00:00</time>
      </trkpt>
      <trkpt lat="49.9322" lon="6.19951">
        <ele>377</ele>
        <time>2026-08-26T19:36:16+00:00</time>
      </trkpt>
      <trkpt lat="49.93214" lon="6.19953">
        <ele>377</ele>
        <time>2026-08-26T19:36:19+00:00</time>
      </trkpt>
      <trkpt lat="49.93197" lon="6.19948">
        <ele>379</ele>
        <time>2026-08-26T19:36:22+00:00</time>
      </trkpt>
      <trkpt lat="49.93193" lon="6.19951">
        <ele>370</ele>
        <time>2026-08-26T19:36:25+00:00</time>
      </trkpt>
      <trkpt lat="49.93193" lon="6.19956">
        <ele>370</ele>
        <time>2026-08-26T19:36:28+00:00</time>
      </trkpt>
      <trkpt lat="49.93195" lon="6.19961">
        <ele>371</ele>
        <time>2026-08-26T19:36:31+00:00</time>
      </trkpt>
      <trkpt lat="49.93217" lon="6.19991">
        <ele>378</ele>
        <time>2026-08-26T19:36:34+00:00</time>
      </trkpt>
      <trkpt lat="49.93222" lon="6.19995">
        <ele>375</ele>
        <time>2026-08-26T19:36:37+00:00</time>
      </trkpt>
      <trkpt lat="49.93227" lon="6.19996">
        <ele>375</ele>
        <time>2026-08-26T19:36:40+00:00</time>
      </trkpt>
      <trkpt lat="49.93251" lon="6.19986">
        <ele>378</ele>
        <time>2026-08-26T19:36:43+00:00</time>
      </trkpt>
      <trkpt lat="49.93263" lon="6.19975">
        <ele>379</ele>
        <time>2026-08-26T19:36:46+00:00</time>
      </trkpt>
      <trkpt lat="49.93283" lon="6.19954">
        <ele>378</ele>
        <time>2026-08-26T19:36:49+00:00</time>
      </trkpt>
      <trkpt lat="49.93294" lon="6.19945">
        <ele>381</ele>
        <time>2026-08-26T19:36:52+00:00</time>
      </trkpt>
      <trkpt lat="49.93317" lon="6.19933">
        <ele>378</ele>
        <time>2026-08-26T19:36:55+00:00</time>
      </trkpt>
      <trkpt lat="49.93364" lon="6.1991">
        <ele>371</ele>
        <time>2026-08-26T19:36:58+00:00</time>
      </trkpt>
      <trkpt lat="49.93399" lon="6.19901">
        <ele>356</ele>
        <time>2026-08-26T19:37:01+00:00</time>
      </trkpt>
      <trkpt lat="49.9341" lon="6.19895">
        <ele>352</ele>
        <time>2026-08-26T19:37:04+00:00</time>
      </trkpt>
      <trkpt lat="49.93422" lon="6.19887">
        <ele>348</ele>
        <time>2026-08-26T19:37:07+00:00</time>
      </trkpt>
      <trkpt lat="49.93426" lon="6.19878">
        <ele>347</ele>
        <time>2026-08-26T19:37:10+00:00</time>
      </trkpt>
      <trkpt lat="49.93425" lon="6.19866">
        <ele>345</ele>
        <time>2026-08-26T19:37:13+00:00</time>
      </trkpt>
      <trkpt lat="49.93423" lon="6.19861">
        <ele>348</ele>
        <time>2026-08-26T19:37:16+00:00</time>
      </trkpt>
      <trkpt lat="49.93425" lon="6.19866">
        <ele>345</ele>
        <time>2026-08-26T19:37:19+00:00</time>
      </trkpt>
      <trkpt lat="49.93426" lon="6.19878">
        <ele>347</ele>
        <time>2026-08-26T19:37:22+00:00</time>
      </trkpt>
      <trkpt lat="49.93422" lon="6.19887">
        <ele>348</ele>
        <time>2026-08-26T19:37:25+00:00</time>
      </trkpt>
      <trkpt lat="49.9341" lon="6.19895">
        <ele>352</ele>
        <time>2026-08-26T19:37:28+00:00</time>
      </trkpt>
      <trkpt lat="49.9343" lon="6.19893">
        <ele>350</ele>
        <time>2026-08-26T19:37:31+00:00</time>
      </trkpt>
      <trkpt lat="49.93419" lon="6.19918">
        <ele>348</ele>
        <time>2026-08-26T19:37:34+00:00</time>
      </trkpt>
      <trkpt lat="49.93433" lon="6.1992">
        <ele>346</ele>
        <time>2026-08-26T19:37:37+00:00</time>
      </trkpt>
      <trkpt lat="49.93428" lon="6.19938">
        <ele>347</ele>
        <time>2026-08-26T19:37:40+00:00</time>
      </trkpt>
      <trkpt lat="49.93444" lon="6.1993">
        <ele>338</ele>
        <time>2026-08-26T19:37:43+00:00</time>
      </trkpt>
      <trkpt lat="49.93446" lon="6.19921">
        <ele>340</ele>
        <time>2026-08-26T19:37:46+00:00</time>
      </trkpt>
      <trkpt lat="49.93449" lon="6.19917">
        <ele>340</ele>
        <time>2026-08-26T19:37:49+00:00</time>
      </trkpt>
      <trkpt lat="49.93451" lon="6.19921">
        <ele>332</ele>
        <time>2026-08-26T19:37:52+00:00</time>
      </trkpt>
      <trkpt lat="49.93455" lon="6.19942">
        <ele>329</ele>
        <time>2026-08-26T19:37:55+00:00</time>
      </trkpt>
      <trkpt lat="49.93467" lon="6.19932">
        <ele>325</ele>
        <time>2026-08-26T19:37:58+00:00</time>
      </trkpt>
      <trkpt lat="49.93478" lon="6.19911">
        <ele>321</ele>
        <time>2026-08-26T19:38:01+00:00</time>
      </trkpt>
      <trkpt lat="49.93483" lon="6.19905">
        <ele>319</ele>
        <time>2026-08-26T19:38:04+00:00</time>
      </trkpt>
      <trkpt lat="49.93489" lon="6.19888">
        <ele>320</ele>
        <time>2026-08-26T19:38:07+00:00</time>
      </trkpt>
      <trkpt lat="49.93489" lon="6.19879">
        <ele>319</ele>
        <time>2026-08-26T19:38:10+00:00</time>
      </trkpt>
      <trkpt lat="49.93485" lon="6.19876">
        <ele>319</ele>
        <time>2026-08-26T19:38:13+00:00</time>
      </trkpt>
      <trkpt lat="49.93481" lon="6.19875">
        <ele>319</ele>
        <time>2026-08-26T19:38:16+00:00</time>
      </trkpt>
      <trkpt lat="49.93483" lon="6.19869">
        <ele>320</ele>
        <time>2026-08-26T19:38:19+00:00</time>
      </trkpt>
      <trkpt lat="49.93485" lon="6.19857">
        <ele>321</ele>
        <time>2026-08-26T19:38:22+00:00</time>
      </trkpt>
      <trkpt lat="49.93482" lon="6.19848">
        <ele>322</ele>
        <time>2026-08-26T19:38:25+00:00</time>
      </trkpt>
      <trkpt lat="49.93475" lon="6.19844">
        <ele>321</ele>
        <time>2026-08-26T19:38:28+00:00</time>
      </trkpt>
      <trkpt lat="49.93469" lon="6.19831">
        <ele>321</ele>
        <time>2026-08-26T19:38:31+00:00</time>
      </trkpt>
      <trkpt lat="49.93448" lon="6.19813">
        <ele>322</ele>
        <time>2026-08-26T19:38:34+00:00</time>
      </trkpt>
      <trkpt lat="49.93444" lon="6.19806">
        <ele>322</ele>
        <time>2026-08-26T19:38:37+00:00</time>
      </trkpt>
      <trkpt lat="49.9343" lon="6.19776">
        <ele>322</ele>
        <time>2026-08-26T19:38:40+00:00</time>
      </trkpt>
      <trkpt lat="49.93423" lon="6.1975">
        <ele>321</ele>
        <time>2026-08-26T19:38:43+00:00</time>
      </trkpt>
      <trkpt lat="49.93422" lon="6.19749">
        <ele>316</ele>
        <time>2026-08-26T19:38:46+00:00</time>
      </trkpt>
      <trkpt lat="49.93417" lon="6.19712">
        <ele>321</ele>
        <time>2026-08-26T19:38:49+00:00</time>
      </trkpt>
      <trkpt lat="49.93414" lon="6.19704">
        <ele>323</ele>
        <time>2026-08-26T19:38:52+00:00</time>
      </trkpt>
      <trkpt lat="49.93405" lon="6.19677">
        <ele>321</ele>
        <time>2026-08-26T19:38:55+00:00</time>
      </trkpt>
      <trkpt lat="49.93396" lon="6.19649">
        <ele>321</ele>
        <time>2026-08-26T19:38:58+00:00</time>
      </trkpt>
      <trkpt lat="49.93391" lon="6.19625">
        <ele>327</ele>
        <time>2026-08-26T19:39:01+00:00</time>
      </trkpt>
      <trkpt lat="49.93387" lon="6.19595">
        <ele>325</ele>
        <time>2026-08-26T19:39:04+00:00</time>
      </trkpt>
      <trkpt lat="49.93381" lon="6.1955">
        <ele>339</ele>
        <time>2026-08-26T19:39:07+00:00</time>
      </trkpt>
      <trkpt lat="49.93378" lon="6.19516">
        <ele>343</ele>
        <time>2026-08-26T19:39:10+00:00</time>
      </trkpt>
      <trkpt lat="49.93375" lon="6.19479">
        <ele>348</ele>
        <time>2026-08-26T19:39:13+00:00</time>
      </trkpt>
      <trkpt lat="49.93373" lon="6.19434">
        <ele>355</ele>
        <time>2026-08-26T19:39:16+00:00</time>
      </trkpt>
      <trkpt lat="49.93369" lon="6.19345">
        <ele>364</ele>
        <time>2026-08-26T19:39:19+00:00</time>
      </trkpt>
      <trkpt lat="49.93369" lon="6.19303">
        <ele>364</ele>
        <time>2026-08-26T19:39:22+00:00</time>
      </trkpt>
      <trkpt lat="49.9337" lon="6.19235">
        <ele>380</ele>
        <time>2026-08-26T19:39:25+00:00</time>
      </trkpt>
      <trkpt lat="49.93372" lon="6.19202">
        <ele>384</ele>
        <time>2026-08-26T19:39:28+00:00</time>
      </trkpt>
      <trkpt lat="49.9337" lon="6.19187">
        <ele>389</ele>
        <time>2026-08-26T19:39:31+00:00</time>
      </trkpt>
      <trkpt lat="49.93358" lon="6.19153">
        <ele>388</ele>
        <time>2026-08-26T19:39:34+00:00</time>
      </trkpt>
      <trkpt lat="49.93349" lon="6.19101">
        <ele>394</ele>
        <time>2026-08-26T19:39:37+00:00</time>
      </trkpt>
      <trkpt lat="49.93345" lon="6.19064">
        <ele>399</ele>
        <time>2026-08-26T19:39:40+00:00</time>
      </trkpt>
      <trkpt lat="49.93339" lon="6.19015">
        <ele>404</ele>
        <time>2026-08-26T19:39:43+00:00</time>
      </trkpt>
      <trkpt lat="49.93333" lon="6.18982">
        <ele>404</ele>
        <time>2026-08-26T19:39:46+00:00</time>
      </trkpt>
      <trkpt lat="49.93328" lon="6.18949">
        <ele>404</ele>
        <time>2026-08-26T19:39:49+00:00</time>
      </trkpt>
      <trkpt lat="49.93325" lon="6.18923">
        <ele>406</ele>
        <time>2026-08-26T19:39:52+00:00</time>
      </trkpt>
      <trkpt lat="49.93327" lon="6.18893">
        <ele>404</ele>
        <time>2026-08-26T19:39:55+00:00</time>
      </trkpt>
      <trkpt lat="49.93337" lon="6.18862">
        <ele>405</ele>
        <time>2026-08-26T19:39:58+00:00</time>
      </trkpt>
      <trkpt lat="49.93334" lon="6.18899">
        <ele>406</ele>
        <time>2026-08-26T19:40:01+00:00</time>
      </trkpt>
      <trkpt lat="49.93334" lon="6.18925">
        <ele>410</ele>
        <time>2026-08-26T19:40:04+00:00</time>
      </trkpt>
      <trkpt lat="49.93338" lon="6.18947">
        <ele>407</ele>
        <time>2026-08-26T19:40:07+00:00</time>
      </trkpt>
      <trkpt lat="49.93351" lon="6.18989">
        <ele>410</ele>
        <time>2026-08-26T19:40:10+00:00</time>
      </trkpt>
      <trkpt lat="49.93363" lon="6.19031">
        <ele>408</ele>
        <time>2026-08-26T19:40:13+00:00</time>
      </trkpt>
      <trkpt lat="49.93378" lon="6.1908">
        <ele>410</ele>
        <time>2026-08-26T19:40:16+00:00</time>
      </trkpt>
      <trkpt lat="49.93391" lon="6.19105">
        <ele>412</ele>
        <time>2026-08-26T19:40:19+00:00</time>
      </trkpt>
      <trkpt lat="49.93407" lon="6.19136">
        <ele>412</ele>
        <time>2026-08-26T19:40:22+00:00</time>
      </trkpt>
      <trkpt lat="49.93415" lon="6.19156">
        <ele>413</ele>
        <time>2026-08-26T19:40:25+00:00</time>
      </trkpt>
      <trkpt lat="49.93421" lon="6.19195">
        <ele>411</ele>
        <time>2026-08-26T19:40:28+00:00</time>
      </trkpt>
      <trkpt lat="49.93426" lon="6.19234">
        <ele>410</ele>
        <time>2026-08-26T19:40:31+00:00</time>
      </trkpt>
      <trkpt lat="49.93434" lon="6.19287">
        <ele>408</ele>
        <time>2026-08-26T19:40:34+00:00</time>
      </trkpt>
      <trkpt lat="49.93443" lon="6.19319">
        <ele>407</ele>
        <time>2026-08-26T19:40:37+00:00</time>
      </trkpt>
      <trkpt lat="49.93453" lon="6.19341">
        <ele>405</ele>
        <time>2026-08-26T19:40:40+00:00</time>
      </trkpt>
      <trkpt lat="49.93467" lon="6.19366">
        <ele>407</ele>
        <time>2026-08-26T19:40:43+00:00</time>
      </trkpt>
      <trkpt lat="49.93493" lon="6.1941">
        <ele>407</ele>
        <time>2026-08-26T19:40:46+00:00</time>
      </trkpt>
      <trkpt lat="49.93506" lon="6.19425">
        <ele>408</ele>
        <time>2026-08-26T19:40:49+00:00</time>
      </trkpt>
      <trkpt lat="49.93521" lon="6.19433">
        <ele>407</ele>
        <time>2026-08-26T19:40:52+00:00</time>
      </trkpt>
      <trkpt lat="49.93532" lon="6.19432">
        <ele>406</ele>
        <time>2026-08-26T19:40:55+00:00</time>
      </trkpt>
      <trkpt lat="49.93555" lon="6.19414">
        <ele>408</ele>
        <time>2026-08-26T19:40:58+00:00</time>
      </trkpt>
      <trkpt lat="49.93578" lon="6.19397">
        <ele>411</ele>
        <time>2026-08-26T19:41:01+00:00</time>
      </trkpt>
      <trkpt lat="49.93602" lon="6.19378">
        <ele>418</ele>
        <time>2026-08-26T19:41:04+00:00</time>
      </trkpt>
      <trkpt lat="49.93615" lon="6.1937">
        <ele>420</ele>
        <time>2026-08-26T19:41:07+00:00</time>
      </trkpt>
      <trkpt lat="49.93629" lon="6.19365">
        <ele>420</ele>
        <time>2026-08-26T19:41:10+00:00</time>
      </trkpt>
      <trkpt lat="49.93641" lon="6.19366">
        <ele>424</ele>
        <time>2026-08-26T19:41:13+00:00</time>
      </trkpt>
      <trkpt lat="49.93651" lon="6.19374">
        <ele>420</ele>
        <time>2026-08-26T19:41:16+00:00</time>
      </trkpt>
      <trkpt lat="49.93657" lon="6.19389">
        <ele>422</ele>
        <time>2026-08-26T19:41:19+00:00</time>
      </trkpt>
      <trkpt lat="49.93668" lon="6.19426">
        <ele>420</ele>
        <time>2026-08-26T19:41:22+00:00</time>
      </trkpt>
      <trkpt lat="49.93678" lon="6.19464">
        <ele>421</ele>
        <time>2026-08-26T19:41:25+00:00</time>
      </trkpt>
      <trkpt lat="49.93691" lon="6.1951">
        <ele>422</ele>
        <time>2026-08-26T19:41:28+00:00</time>
      </trkpt>
      <trkpt lat="49.93701" lon="6.19537">
        <ele>422</ele>
        <time>2026-08-26T19:41:31+00:00</time>
      </trkpt>
      <trkpt lat="49.93717" lon="6.19575">
        <ele>421</ele>
        <time>2026-08-26T19:41:34+00:00</time>
      </trkpt>
      <trkpt lat="49.93733" lon="6.19613">
        <ele>421</ele>
        <time>2026-08-26T19:41:37+00:00</time>
      </trkpt>
      <trkpt lat="49.93751" lon="6.19655">
        <ele>425</ele>
        <time>2026-08-26T19:41:40+00:00</time>
      </trkpt>
      <trkpt lat="49.93766" lon="6.19686">
        <ele>428</ele>
        <time>2026-08-26T19:41:43+00:00</time>
      </trkpt>
      <trkpt lat="49.93786" lon="6.19727">
        <ele>428</ele>
        <time>2026-08-26T19:41:46+00:00</time>
      </trkpt>
      <trkpt lat="49.93798" lon="6.19768">
        <ele>427</ele>
        <time>2026-08-26T19:41:49+00:00</time>
      </trkpt>
      <trkpt lat="49.9382" lon="6.19846">
        <ele>426</ele>
        <time>2026-08-26T19:41:52+00:00</time>
      </trkpt>
      <trkpt lat="49.93823" lon="6.19856">
        <ele>426</ele>
        <time>2026-08-26T19:41:55+00:00</time>
      </trkpt>
      <trkpt lat="49.93827" lon="6.19861">
        <ele>426</ele>
        <time>2026-08-26T19:41:58+00:00</time>
      </trkpt>
      <trkpt lat="49.93825" lon="6.19874">
        <ele>426</ele>
        <time>2026-08-26T19:42:01+00:00</time>
      </trkpt>
      <trkpt lat="49.93825" lon="6.19874">
        <ele>426</ele>
        <time>2026-08-26T19:42:04+00:00</time>
      </trkpt>
      <trkpt lat="49.93825" lon="6.19898">
        <ele>425</ele>
        <time>2026-08-26T19:42:07+00:00</time>
      </trkpt>
      <trkpt lat="49.9382" lon="6.19923">
        <ele>423</ele>
        <time>2026-08-26T19:42:10+00:00</time>
      </trkpt>
      <trkpt lat="49.93811" lon="6.19944">
        <ele>420</ele>
        <time>2026-08-26T19:42:13+00:00</time>
      </trkpt>
      <trkpt lat="49.93801" lon="6.19959">
        <ele>418</ele>
        <time>2026-08-26T19:42:16+00:00</time>
      </trkpt>
      <trkpt lat="49.9379" lon="6.19975">
        <ele>415</ele>
        <time>2026-08-26T19:42:19+00:00</time>
      </trkpt>
      <trkpt lat="49.93782" lon="6.19983">
        <ele>411</ele>
        <time>2026-08-26T19:42:22+00:00</time>
      </trkpt>
      <trkpt lat="49.93781" lon="6.19986">
        <ele>411</ele>
        <time>2026-08-26T19:42:25+00:00</time>
      </trkpt>
      <trkpt lat="49.93785" lon="6.19996">
        <ele>412</ele>
        <time>2026-08-26T19:42:28+00:00</time>
      </trkpt>
      <trkpt lat="49.93792" lon="6.19999">
        <ele>410</ele>
        <time>2026-08-26T19:42:31+00:00</time>
      </trkpt>
      <trkpt lat="49.93819" lon="6.19996">
        <ele>410</ele>
        <time>2026-08-26T19:42:34+00:00</time>
      </trkpt>
      <trkpt lat="49.93812" lon="6.20009">
        <ele>407</ele>
        <time>2026-08-26T19:42:37+00:00</time>
      </trkpt>
      <trkpt lat="49.93817" lon="6.2001">
        <ele>402</ele>
        <time>2026-08-26T19:42:40+00:00</time>
      </trkpt>
      <trkpt lat="49.93819" lon="6.20011">
        <ele>402</ele>
        <time>2026-08-26T19:42:43+00:00</time>
      </trkpt>
      <trkpt lat="49.93812" lon="6.2002">
        <ele>398</ele>
        <time>2026-08-26T19:42:46+00:00</time>
      </trkpt>
      <trkpt lat="49.93825" lon="6.20024">
        <ele>399</ele>
        <time>2026-08-26T19:42:49+00:00</time>
      </trkpt>
      <trkpt lat="49.93812" lon="6.2004">
        <ele>391</ele>
        <time>2026-08-26T19:42:52+00:00</time>
      </trkpt>
      <trkpt lat="49.93823" lon="6.20044">
        <ele>392</ele>
        <time>2026-08-26T19:42:55+00:00</time>
      </trkpt>
      <trkpt lat="49.93791" lon="6.20066">
        <ele>390</ele>
        <time>2026-08-26T19:42:58+00:00</time>
      </trkpt>
      <trkpt lat="49.93788" lon="6.20068">
        <ele>384</ele>
        <time>2026-08-26T19:43:01+00:00</time>
      </trkpt>
      <trkpt lat="49.93783" lon="6.20065">
        <ele>384</ele>
        <time>2026-08-26T19:43:04+00:00</time>
      </trkpt>
      <trkpt lat="49.93774" lon="6.20055">
        <ele>388</ele>
        <time>2026-08-26T19:43:07+00:00</time>
      </trkpt>
      <trkpt lat="49.93771" lon="6.20044">
        <ele>391</ele>
        <time>2026-08-26T19:43:10+00:00</time>
      </trkpt>
      <trkpt lat="49.93768" lon="6.20051">
        <ele>386</ele>
        <time>2026-08-26T19:43:13+00:00</time>
      </trkpt>
      <trkpt lat="49.93762" lon="6.20056">
        <ele>386</ele>
        <time>2026-08-26T19:43:16+00:00</time>
      </trkpt>
      <trkpt lat="49.93749" lon="6.20058">
        <ele>375</ele>
        <time>2026-08-26T19:43:19+00:00</time>
      </trkpt>
      <trkpt lat="49.93742" lon="6.20062">
        <ele>373</ele>
        <time>2026-08-26T19:43:22+00:00</time>
      </trkpt>
      <trkpt lat="49.93733" lon="6.20068">
        <ele>370</ele>
        <time>2026-08-26T19:43:25+00:00</time>
      </trkpt>
      <trkpt lat="49.93733" lon="6.20068">
        <ele>370</ele>
        <time>2026-08-26T19:43:28+00:00</time>
      </trkpt>
      <trkpt lat="49.93723" lon="6.20068">
        <ele>366</ele>
        <time>2026-08-26T19:43:31+00:00</time>
      </trkpt>
      <trkpt lat="49.9372" lon="6.2007">
        <ele>362</ele>
        <time>2026-08-26T19:43:34+00:00</time>
      </trkpt>
      <trkpt lat="49.9372" lon="6.20078">
        <ele>362</ele>
        <time>2026-08-26T19:43:37+00:00</time>
      </trkpt>
      <trkpt lat="49.93723" lon="6.20087">
        <ele>362</ele>
        <time>2026-08-26T19:43:40+00:00</time>
      </trkpt>
      <trkpt lat="49.93724" lon="6.2009">
        <ele>360</ele>
        <time>2026-08-26T19:43:43+00:00</time>
      </trkpt>
      <trkpt lat="49.93721" lon="6.20091">
        <ele>364</ele>
        <time>2026-08-26T19:43:46+00:00</time>
      </trkpt>
      <trkpt lat="49.93719" lon="6.20093">
        <ele>359</ele>
        <time>2026-08-26T19:43:49+00:00</time>
      </trkpt>
      <trkpt lat="49.93714" lon="6.20098">
        <ele>359</ele>
        <time>2026-08-26T19:43:52+00:00</time>
      </trkpt>
      <trkpt lat="49.93714" lon="6.20097">
        <ele>359</ele>
        <time>2026-08-26T19:43:55+00:00</time>
      </trkpt>
      <trkpt lat="49.93708" lon="6.20079">
        <ele>362</ele>
        <time>2026-08-26T19:43:58+00:00</time>
      </trkpt>
      <trkpt lat="49.93705" lon="6.20078">
        <ele>362</ele>
        <time>2026-08-26T19:44:01+00:00</time>
      </trkpt>
      <trkpt lat="49.93704" lon="6.20081">
        <ele>360</ele>
        <time>2026-08-26T19:44:04+00:00</time>
      </trkpt>
      <trkpt lat="49.93703" lon="6.20106">
        <ele>355</ele>
        <time>2026-08-26T19:44:07+00:00</time>
      </trkpt>
      <trkpt lat="49.93688" lon="6.20089">
        <ele>352</ele>
        <time>2026-08-26T19:44:10+00:00</time>
      </trkpt>
      <trkpt lat="49.93683" lon="6.20087">
        <ele>352</ele>
        <time>2026-08-26T19:44:13+00:00</time>
      </trkpt>
      <trkpt lat="49.93684" lon="6.20102">
        <ele>348</ele>
        <time>2026-08-26T19:44:16+00:00</time>
      </trkpt>
      <trkpt lat="49.93687" lon="6.2011">
        <ele>345</ele>
        <time>2026-08-26T19:44:19+00:00</time>
      </trkpt>
      <trkpt lat="49.93685" lon="6.20112">
        <ele>345</ele>
        <time>2026-08-26T19:44:22+00:00</time>
      </trkpt>
      <trkpt lat="49.93679" lon="6.20109">
        <ele>343</ele>
        <time>2026-08-26T19:44:25+00:00</time>
      </trkpt>
      <trkpt lat="49.93665" lon="6.20089">
        <ele>343</ele>
        <time>2026-08-26T19:44:28+00:00</time>
      </trkpt>
      <trkpt lat="49.93665" lon="6.20096">
        <ele>337</ele>
        <time>2026-08-26T19:44:31+00:00</time>
      </trkpt>
      <trkpt lat="49.93671" lon="6.20118">
        <ele>341</ele>
        <time>2026-08-26T19:44:34+00:00</time>
      </trkpt>
      <trkpt lat="49.93671" lon="6.20122">
        <ele>340</ele>
        <time>2026-08-26T19:44:37+00:00</time>
      </trkpt>
      <trkpt lat="49.93649" lon="6.201">
        <ele>335</ele>
        <time>2026-08-26T19:44:40+00:00</time>
      </trkpt>
      <trkpt lat="49.93651" lon="6.20129">
        <ele>330</ele>
        <time>2026-08-26T19:44:43+00:00</time>
      </trkpt>
      <trkpt lat="49.93653" lon="6.20137">
        <ele>328</ele>
        <time>2026-08-26T19:44:46+00:00</time>
      </trkpt>
      <trkpt lat="49.93642" lon="6.20128">
        <ele>323</ele>
        <time>2026-08-26T19:44:49+00:00</time>
      </trkpt>
      <trkpt lat="49.93636" lon="6.20119">
        <ele>316</ele>
        <time>2026-08-26T19:44:52+00:00</time>
      </trkpt>
      <trkpt lat="49.93635" lon="6.20125">
        <ele>314</ele>
        <time>2026-08-26T19:44:55+00:00</time>
      </trkpt>
      <trkpt lat="49.93638" lon="6.20135">
        <ele>318</ele>
        <time>2026-08-26T19:44:58+00:00</time>
      </trkpt>
      <trkpt lat="49.9364" lon="6.20139">
        <ele>310</ele>
        <time>2026-08-26T19:45:01+00:00</time>
      </trkpt>
      <trkpt lat="49.93654" lon="6.20163">
        <ele>314</ele>
        <time>2026-08-26T19:45:04+00:00</time>
      </trkpt>
      <trkpt lat="49.93678" lon="6.2019">
        <ele>310</ele>
        <time>2026-08-26T19:45:07+00:00</time>
      </trkpt>
      <trkpt lat="49.93686" lon="6.20197">
        <ele>314</ele>
        <time>2026-08-26T19:45:10+00:00</time>
      </trkpt>
      <trkpt lat="49.93687" lon="6.20202">
        <ele>308</ele>
        <time>2026-08-26T19:45:13+00:00</time>
      </trkpt>
      <trkpt lat="49.93662" lon="6.20193">
        <ele>306</ele>
        <time>2026-08-26T19:45:16+00:00</time>
      </trkpt>
      <trkpt lat="49.93664" lon="6.20198">
        <ele>306</ele>
        <time>2026-08-26T19:45:19+00:00</time>
      </trkpt>
      <trkpt lat="49.93688" lon="6.20219">
        <ele>303</ele>
        <time>2026-08-26T19:45:22+00:00</time>
      </trkpt>
      <trkpt lat="49.93688" lon="6.20223">
        <ele>299</ele>
        <time>2026-08-26T19:45:25+00:00</time>
      </trkpt>
      <trkpt lat="49.93652" lon="6.20207">
        <ele>298</ele>
        <time>2026-08-26T19:45:28+00:00</time>
      </trkpt>
      <trkpt lat="49.93629" lon="6.20194">
        <ele>285</ele>
        <time>2026-08-26T19:45:31+00:00</time>
      </trkpt>
      <trkpt lat="49.93605" lon="6.20177">
        <ele>281</ele>
        <time>2026-08-26T19:45:34+00:00</time>
      </trkpt>
      <trkpt lat="49.93578" lon="6.20166">
        <ele>275</ele>
        <time>2026-08-26T19:45:37+00:00</time>
      </trkpt>
      <trkpt lat="49.93574" lon="6.20157">
        <ele>274</ele>
        <time>2026-08-26T19:45:40+00:00</time>
      </trkpt>
      <trkpt lat="49.93573" lon="6.20159">
        <ele>274</ele>
        <time>2026-08-26T19:45:43+00:00</time>
      </trkpt>
      <trkpt lat="49.93567" lon="6.20171">
        <ele>275</ele>
        <time>2026-08-26T19:45:46+00:00</time>
      </trkpt>
      <trkpt lat="49.93559" lon="6.2018">
        <ele>274</ele>
        <time>2026-08-26T19:45:49+00:00</time>
      </trkpt>
      <trkpt lat="49.93558" lon="6.20181">
        <ele>274</ele>
        <time>2026-08-26T19:45:52+00:00</time>
      </trkpt>
      <trkpt lat="49.93567" lon="6.2022">
        <ele>279</ele>
        <time>2026-08-26T19:45:55+00:00</time>
      </trkpt>
      <trkpt lat="49.93572" lon="6.2024">
        <ele>279</ele>
        <time>2026-08-26T19:45:58+00:00</time>
      </trkpt>
      <trkpt lat="49.93571" lon="6.20249">
        <ele>279</ele>
        <time>2026-08-26T19:46:01+00:00</time>
      </trkpt>
      <trkpt lat="49.93568" lon="6.20268">
        <ele>282</ele>
        <time>2026-08-26T19:46:04+00:00</time>
      </trkpt>
      <trkpt lat="49.93555" lon="6.20298">
        <ele>283</ele>
        <time>2026-08-26T19:46:07+00:00</time>
      </trkpt>
      <trkpt lat="49.9355" lon="6.20304">
        <ele>286</ele>
        <time>2026-08-26T19:46:10+00:00</time>
      </trkpt>
      <trkpt lat="49.93538" lon="6.20313">
        <ele>282</ele>
        <time>2026-08-26T19:46:13+00:00</time>
      </trkpt>
      <trkpt lat="49.93514" lon="6.2035">
        <ele>283</ele>
        <time>2026-08-26T19:46:16+00:00</time>
      </trkpt>
      <trkpt lat="49.93508" lon="6.20355">
        <ele>284</ele>
        <time>2026-08-26T19:46:19+00:00</time>
      </trkpt>
      <trkpt lat="49.93493" lon="6.20368">
        <ele>285</ele>
        <time>2026-08-26T19:46:22+00:00</time>
      </trkpt>
      <trkpt lat="49.93485" lon="6.2038">
        <ele>284</ele>
        <time>2026-08-26T19:46:25+00:00</time>
      </trkpt>
      <trkpt lat="49.93479" lon="6.20394">
        <ele>285</ele>
        <time>2026-08-26T19:46:28+00:00</time>
      </trkpt>
      <trkpt lat="49.93451" lon="6.20435">
        <ele>262</ele>
        <time>2026-08-26T19:46:31+00:00</time>
      </trkpt>
      <trkpt lat="49.93441" lon="6.20455">
        <ele>253</ele>
        <time>2026-08-26T19:46:34+00:00</time>
      </trkpt>
      <trkpt lat="49.93426" lon="6.20472">
        <ele>245</ele>
        <time>2026-08-26T19:46:37+00:00</time>
      </trkpt>
      <trkpt lat="49.93406" lon="6.20496">
        <ele>239</ele>
        <time>2026-08-26T19:46:40+00:00</time>
      </trkpt>
      <trkpt lat="49.93389" lon="6.20522">
        <ele>239</ele>
        <time>2026-08-26T19:46:43+00:00</time>
      </trkpt>
      <trkpt lat="49.93388" lon="6.20522">
        <ele>232</ele>
        <time>2026-08-26T19:46:46+00:00</time>
      </trkpt>
      <trkpt lat="49.93389" lon="6.20522">
        <ele>232</ele>
        <time>2026-08-26T19:46:49+00:00</time>
      </trkpt>
      <trkpt lat="49.93389" lon="6.20483">
        <ele>239</ele>
        <time>2026-08-26T19:46:52+00:00</time>
      </trkpt>
      <trkpt lat="49.93388" lon="6.20428">
        <ele>252</ele>
        <time>2026-08-26T19:46:55+00:00</time>
      </trkpt>
      <trkpt lat="49.93386" lon="6.2041">
        <ele>254</ele>
        <time>2026-08-26T19:46:58+00:00</time>
      </trkpt>
      <trkpt lat="49.93381" lon="6.20384">
        <ele>255</ele>
        <time>2026-08-26T19:47:01+00:00</time>
      </trkpt>
      <trkpt lat="49.93376" lon="6.20355">
        <ele>258</ele>
        <time>2026-08-26T19:47:04+00:00</time>
      </trkpt>
      <trkpt lat="49.93381" lon="6.20351">
        <ele>263</ele>
        <time>2026-08-26T19:47:07+00:00</time>
      </trkpt>
      <trkpt lat="49.93384" lon="6.20342">
        <ele>262</ele>
        <time>2026-08-26T19:47:10+00:00</time>
      </trkpt>
      <trkpt lat="49.93387" lon="6.2034">
        <ele>262</ele>
        <time>2026-08-26T19:47:13+00:00</time>
      </trkpt>
      <trkpt lat="49.93391" lon="6.2035">
        <ele>267</ele>
        <time>2026-08-26T19:47:16+00:00</time>
      </trkpt>
      <trkpt lat="49.93397" lon="6.20349">
        <ele>267</ele>
        <time>2026-08-26T19:47:19+00:00</time>
      </trkpt>
      <trkpt lat="49.93402" lon="6.20351">
        <ele>269</ele>
        <time>2026-08-26T19:47:22+00:00</time>
      </trkpt>
      <trkpt lat="49.93406" lon="6.20352">
        <ele>269</ele>
        <time>2026-08-26T19:47:25+00:00</time>
      </trkpt>
      <trkpt lat="49.9341" lon="6.20354">
        <ele>271</ele>
        <time>2026-08-26T19:47:28+00:00</time>
      </trkpt>
      <trkpt lat="49.93418" lon="6.20339">
        <ele>274</ele>
        <time>2026-08-26T19:47:31+00:00</time>
      </trkpt>
      <trkpt lat="49.93426" lon="6.20314">
        <ele>273</ele>
        <time>2026-08-26T19:47:34+00:00</time>
      </trkpt>
      <trkpt lat="49.93436" lon="6.20283">
        <ele>276</ele>
        <time>2026-08-26T19:47:37+00:00</time>
      </trkpt>
      <trkpt lat="49.93432" lon="6.20308">
        <ele>278</ele>
        <time>2026-08-26T19:47:40+00:00</time>
      </trkpt>
      <trkpt lat="49.93443" lon="6.2029">
        <ele>276</ele>
        <time>2026-08-26T19:47:43+00:00</time>
      </trkpt>
      <trkpt lat="49.93463" lon="6.20259">
        <ele>272</ele>
        <time>2026-08-26T19:47:46+00:00</time>
      </trkpt>
      <trkpt lat="49.93489" lon="6.20232">
        <ele>272</ele>
        <time>2026-08-26T19:47:49+00:00</time>
      </trkpt>
      <trkpt lat="49.93526" lon="6.202">
        <ele>272</ele>
        <time>2026-08-26T19:47:52+00:00</time>
      </trkpt>
      <trkpt lat="49.93529" lon="6.20197">
        <ele>270</ele>
        <time>2026-08-26T19:47:55+00:00</time>
      </trkpt>
      <trkpt lat="49.93558" lon="6.20181">
        <ele>274</ele>
        <time>2026-08-26T19:47:58+00:00</time>
      </trkpt>
      <trkpt lat="49.93567" lon="6.20171">
        <ele>275</ele>
        <time>2026-08-26T19:48:01+00:00</time>
      </trkpt>
      <trkpt lat="49.93573" lon="6.20159">
        <ele>274</ele>
        <time>2026-08-26T19:48:04+00:00</time>
      </trkpt>
      <trkpt lat="49.93574" lon="6.20157">
        <ele>274</ele>
        <time>2026-08-26T19:48:07+00:00</time>
      </trkpt>
      <trkpt lat="49.93573" lon="6.2015">
        <ele>274</ele>
        <time>2026-08-26T19:48:10+00:00</time>
      </trkpt>
      <trkpt lat="49.93572" lon="6.20147">
        <ele>272</ele>
        <time>2026-08-26T19:48:13+00:00</time>
      </trkpt>
      <trkpt lat="49.93572" lon="6.20114">
        <ele>269</ele>
        <time>2026-08-26T19:48:16+00:00</time>
      </trkpt>
      <trkpt lat="49.93573" lon="6.20071">
        <ele>269</ele>
        <time>2026-08-26T19:48:19+00:00</time>
      </trkpt>
      <trkpt lat="49.93569" lon="6.20049">
        <ele>268</ele>
        <time>2026-08-26T19:48:22+00:00</time>
      </trkpt>
      <trkpt lat="49.93562" lon="6.20032">
        <ele>269</ele>
        <time>2026-08-26T19:48:25+00:00</time>
      </trkpt>
      <trkpt lat="49.93554" lon="6.2004">
        <ele>271</ele>
        <time>2026-08-26T19:48:28+00:00</time>
      </trkpt>
      <trkpt lat="49.93543" lon="6.2005">
        <ele>266</ele>
        <time>2026-08-26T19:48:31+00:00</time>
      </trkpt>
      <trkpt lat="49.93538" lon="6.20061">
        <ele>267</ele>
        <time>2026-08-26T19:48:34+00:00</time>
      </trkpt>
      <trkpt lat="49.93535" lon="6.2006">
        <ele>267</ele>
        <time>2026-08-26T19:48:37+00:00</time>
      </trkpt>
      <trkpt lat="49.9351" lon="6.2008">
        <ele>264</ele>
        <time>2026-08-26T19:48:40+00:00</time>
      </trkpt>
      <trkpt lat="49.93487" lon="6.2009">
        <ele>260</ele>
        <time>2026-08-26T19:48:43+00:00</time>
      </trkpt>
      <trkpt lat="49.93486" lon="6.20093">
        <ele>260</ele>
        <time>2026-08-26T19:48:46+00:00</time>
      </trkpt>
      <trkpt lat="49.93485" lon="6.20096">
        <ele>260</ele>
        <time>2026-08-26T19:48:49+00:00</time>
      </trkpt>
      <trkpt lat="49.93484" lon="6.20099">
        <ele>260</ele>
        <time>2026-08-26T19:48:52+00:00</time>
      </trkpt>
      <trkpt lat="49.93482" lon="6.20104">
        <ele>257</ele>
        <time>2026-08-26T19:48:55+00:00</time>
      </trkpt>
      <trkpt lat="49.93482" lon="6.20104">
        <ele>257</ele>
        <time>2026-08-26T19:48:58+00:00</time>
      </trkpt>
      <trkpt lat="49.93479" lon="6.20102">
        <ele>258</ele>
        <time>2026-08-26T19:49:01+00:00</time>
      </trkpt>
      <trkpt lat="49.93476" lon="6.201">
        <ele>260</ele>
        <time>2026-08-26T19:49:04+00:00</time>
      </trkpt>
      <trkpt lat="49.93471" lon="6.20097">
        <ele>260</ele>
        <time>2026-08-26T19:49:07+00:00</time>
      </trkpt>
      <trkpt lat="49.93469" lon="6.20097">
        <ele>262</ele>
        <time>2026-08-26T19:49:10+00:00</time>
      </trkpt>
      <trkpt lat="49.93458" lon="6.20095">
        <ele>264</ele>
        <time>2026-08-26T19:49:13+00:00</time>
      </trkpt>
      <trkpt lat="49.93448" lon="6.20097">
        <ele>268</ele>
        <time>2026-08-26T19:49:16+00:00</time>
      </trkpt>
      <trkpt lat="49.93406" lon="6.20111">
        <ele>266</ele>
        <time>2026-08-26T19:49:19+00:00</time>
      </trkpt>
      <trkpt lat="49.93406" lon="6.20113">
        <ele>269</ele>
        <time>2026-08-26T19:49:22+00:00</time>
      </trkpt>
      <trkpt lat="49.93397" lon="6.20121">
        <ele>265</ele>
        <time>2026-08-26T19:49:25+00:00</time>
      </trkpt>
      <trkpt lat="49.93396" lon="6.20118">
        <ele>275</ele>
        <time>2026-08-26T19:49:28+00:00</time>
      </trkpt>
      <trkpt lat="49.93393" lon="6.20117">
        <ele>275</ele>
        <time>2026-08-26T19:49:31+00:00</time>
      </trkpt>
      <trkpt lat="49.93392" lon="6.2012">
        <ele>270</ele>
        <time>2026-08-26T19:49:34+00:00</time>
      </trkpt>
      <trkpt lat="49.93384" lon="6.20129">
        <ele>272</ele>
        <time>2026-08-26T19:49:37+00:00</time>
      </trkpt>
      <trkpt lat="49.93375" lon="6.20136">
        <ele>268</ele>
        <time>2026-08-26T19:49:40+00:00</time>
      </trkpt>
      <trkpt lat="49.93371" lon="6.20143">
        <ele>269</ele>
        <time>2026-08-26T19:49:43+00:00</time>
      </trkpt>
      <trkpt lat="49.93369" lon="6.20144">
        <ele>274</ele>
        <time>2026-08-26T19:49:46+00:00</time>
      </trkpt>
      <trkpt lat="49.93366" lon="6.20152">
        <ele>270</ele>
        <time>2026-08-26T19:49:49+00:00</time>
      </trkpt>
      <trkpt lat="49.93351" lon="6.20175">
        <ele>266</ele>
        <time>2026-08-26T19:49:52+00:00</time>
      </trkpt>
      <trkpt lat="49.93332" lon="6.20211">
        <ele>257</ele>
        <time>2026-08-26T19:49:55+00:00</time>
      </trkpt>
      <trkpt lat="49.93328" lon="6.20214">
        <ele>261</ele>
        <time>2026-08-26T19:49:58+00:00</time>
      </trkpt>
      <trkpt lat="49.93327" lon="6.20221">
        <ele>256</ele>
        <time>2026-08-26T19:50:01+00:00</time>
      </trkpt>
      <trkpt lat="49.93324" lon="6.20227">
        <ele>256</ele>
        <time>2026-08-26T19:50:04+00:00</time>
      </trkpt>
      <trkpt lat="49.9332" lon="6.20235">
        <ele>252</ele>
        <time>2026-08-26T19:50:07+00:00</time>
      </trkpt>
      <trkpt lat="49.93319" lon="6.20243">
        <ele>251</ele>
        <time>2026-08-26T19:50:10+00:00</time>
      </trkpt>
      <trkpt lat="49.93316" lon="6.2025">
        <ele>250</ele>
        <time>2026-08-26T19:50:13+00:00</time>
      </trkpt>
      <trkpt lat="49.93313" lon="6.20253">
        <ele>250</ele>
        <time>2026-08-26T19:50:16+00:00</time>
      </trkpt>
      <trkpt lat="49.93312" lon="6.2026">
        <ele>251</ele>
        <time>2026-08-26T19:50:19+00:00</time>
      </trkpt>
      <trkpt lat="49.93302" lon="6.20287">
        <ele>250</ele>
        <time>2026-08-26T19:50:22+00:00</time>
      </trkpt>
      <trkpt lat="49.93298" lon="6.20291">
        <ele>255</ele>
        <time>2026-08-26T19:50:25+00:00</time>
      </trkpt>
      <trkpt lat="49.93298" lon="6.20299">
        <ele>255</ele>
        <time>2026-08-26T19:50:28+00:00</time>
      </trkpt>
      <trkpt lat="49.93293" lon="6.20313">
        <ele>250</ele>
        <time>2026-08-26T19:50:31+00:00</time>
      </trkpt>
      <trkpt lat="49.9328" lon="6.20304">
        <ele>261</ele>
        <time>2026-08-26T19:50:34+00:00</time>
      </trkpt>
      <trkpt lat="49.93283" lon="6.20308">
        <ele>243</ele>
        <time>2026-08-26T19:50:37+00:00</time>
      </trkpt>
      <trkpt lat="49.93287" lon="6.20318">
        <ele>255</ele>
        <time>2026-08-26T19:50:40+00:00</time>
      </trkpt>
      <trkpt lat="49.93301" lon="6.20332">
        <ele>236</ele>
        <time>2026-08-26T19:50:43+00:00</time>
      </trkpt>
      <trkpt lat="49.93311" lon="6.20338">
        <ele>235</ele>
        <time>2026-08-26T19:50:46+00:00</time>
      </trkpt>
      <trkpt lat="49.93317" lon="6.20342">
        <ele>232</ele>
        <time>2026-08-26T19:50:49+00:00</time>
      </trkpt>
      <trkpt lat="49.9332" lon="6.20339">
        <ele>235</ele>
        <time>2026-08-26T19:50:52+00:00</time>
      </trkpt>
      <trkpt lat="49.93327" lon="6.2034">
        <ele>233</ele>
        <time>2026-08-26T19:50:55+00:00</time>
      </trkpt>
      <trkpt lat="49.93326" lon="6.20371">
        <ele>231</ele>
        <time>2026-08-26T19:50:58+00:00</time>
      </trkpt>
      <trkpt lat="49.93327" lon="6.20379">
        <ele>231</ele>
        <time>2026-08-26T19:51:01+00:00</time>
      </trkpt>
      <trkpt lat="49.93329" lon="6.20392">
        <ele>230</ele>
        <time>2026-08-26T19:51:04+00:00</time>
      </trkpt>
      <trkpt lat="49.93337" lon="6.20434">
        <ele>230</ele>
        <time>2026-08-26T19:51:07+00:00</time>
      </trkpt>
      <trkpt lat="49.9334" lon="6.20435">
        <ele>232</ele>
        <time>2026-08-26T19:51:10+00:00</time>
      </trkpt>
      <trkpt lat="49.9334" lon="6.20446">
        <ele>232</ele>
        <time>2026-08-26T19:51:13+00:00</time>
      </trkpt>
      <trkpt lat="49.93339" lon="6.20475">
        <ele>230</ele>
        <time>2026-08-26T19:51:16+00:00</time>
      </trkpt>
      <trkpt lat="49.93337" lon="6.2051">
        <ele>223</ele>
        <time>2026-08-26T19:51:19+00:00</time>
      </trkpt>
      <trkpt lat="49.93336" lon="6.20549">
        <ele>223</ele>
        <time>2026-08-26T19:51:22+00:00</time>
      </trkpt>
      <trkpt lat="49.93336" lon="6.20563">
        <ele>223</ele>
        <time>2026-08-26T19:51:25+00:00</time>
      </trkpt>
      <trkpt lat="49.93335" lon="6.20582">
        <ele>221</ele>
        <time>2026-08-26T19:51:28+00:00</time>
      </trkpt>
      <trkpt lat="49.93317" lon="6.2058">
        <ele>221</ele>
        <time>2026-08-26T19:51:31+00:00</time>
      </trkpt>
      <trkpt lat="49.93307" lon="6.2059">
        <ele>221</ele>
        <time>2026-08-26T19:51:34+00:00</time>
      </trkpt>
      <trkpt lat="49.93308" lon="6.2061">
        <ele>219</ele>
        <time>2026-08-26T19:51:37+00:00</time>
      </trkpt>
      <trkpt lat="49.93318" lon="6.20612">
        <ele>216</ele>
        <time>2026-08-26T19:51:40+00:00</time>
      </trkpt>
    </trkseg>
  </trk>
</gpx>
